<?xml version="1.0" encoding="UTF-8" standalone="no" ?>
<gpx xmlns="http://www.topografix.com/GPX/1/1" xmlns:xsi="http://www.w3.org/2001/XMLSchema-instance" xsi:schemaLocation="http://www.topografix.com/GPX/1/1 http://www.topografix.com/GPX/1/1/gpx.xsd" version="1.1" creator="VisuGPX - https://www.visugpx.com">
  <metadata>
    <name>Lacs de Lausfer et Colle Longue</name>
    <desc><![CDATA[Randonnée ASCVTT du 26/8/2012.]]></desc>
  </metadata>
  <trk>
    <name><![CDATA[E+M+T - Lacs de Lausfer et Colle Longue]]></name>
    <trkseg>
      <trkpt lat="44.20244" lon="7.14985">
        <ele>2351.8129882812</ele>
        <time>2012-08-26T07:32:34Z</time>
      </trkpt>
      <trkpt lat="44.20244" lon="7.14985">
        <ele>2351.8129882812</ele>
        <time>2012-08-26T07:32:35Z</time>
      </trkpt>
      <trkpt lat="44.20244" lon="7.14985">
        <ele>2351.8439941406</ele>
        <time>2012-08-26T07:32:36Z</time>
      </trkpt>
      <trkpt lat="44.20245" lon="7.14989">
        <ele>2351.8999023438</ele>
        <time>2012-08-26T07:32:41Z</time>
      </trkpt>
      <trkpt lat="44.20246" lon="7.1499">
        <ele>2351.8291015625</ele>
        <time>2012-08-26T07:32:42Z</time>
      </trkpt>
      <trkpt lat="44.20253" lon="7.14994">
        <ele>2350.6989746094</ele>
        <time>2012-08-26T07:32:46Z</time>
      </trkpt>
      <trkpt lat="44.20256" lon="7.14989">
        <ele>2349.3647460938</ele>
        <time>2012-08-26T07:32:50Z</time>
      </trkpt>
      <trkpt lat="44.20253" lon="7.14968">
        <ele>2347.5007324219</ele>
        <time>2012-08-26T07:32:59Z</time>
      </trkpt>
      <trkpt lat="44.20252" lon="7.14943">
        <ele>2343.2431640625</ele>
        <time>2012-08-26T07:33:04Z</time>
      </trkpt>
      <trkpt lat="44.20243" lon="7.14912">
        <ele>2342.7861328125</ele>
        <time>2012-08-26T07:33:09Z</time>
      </trkpt>
      <trkpt lat="44.20234" lon="7.14881">
        <ele>2344.1967773438</ele>
        <time>2012-08-26T07:33:13Z</time>
      </trkpt>
      <trkpt lat="44.20225" lon="7.14835">
        <ele>2344.0849609375</ele>
        <time>2012-08-26T07:33:19Z</time>
      </trkpt>
      <trkpt lat="44.20225" lon="7.14817">
        <ele>2342.3088378906</ele>
        <time>2012-08-26T07:33:23Z</time>
      </trkpt>
      <trkpt lat="44.20226" lon="7.14804">
        <ele>2340.5295410156</ele>
        <time>2012-08-26T07:33:30Z</time>
      </trkpt>
      <trkpt lat="44.20226" lon="7.14794">
        <ele>2340.0041503906</ele>
        <time>2012-08-26T07:33:36Z</time>
      </trkpt>
      <trkpt lat="44.20226" lon="7.14789">
        <ele>2339.6196289062</ele>
        <time>2012-08-26T07:33:39Z</time>
      </trkpt>
      <trkpt lat="44.20225" lon="7.14788">
        <ele>2339.7878417969</ele>
        <time>2012-08-26T07:33:47Z</time>
      </trkpt>
      <trkpt lat="44.20224" lon="7.14783">
        <ele>2339.58203125</ele>
        <time>2012-08-26T07:33:50Z</time>
      </trkpt>
      <trkpt lat="44.20222" lon="7.14757">
        <ele>2339.8962402344</ele>
        <time>2012-08-26T07:33:59Z</time>
      </trkpt>
      <trkpt lat="44.2022" lon="7.14733">
        <ele>2341.9846191406</ele>
        <time>2012-08-26T07:34:08Z</time>
      </trkpt>
      <trkpt lat="44.20217" lon="7.14713">
        <ele>2343.9050292969</ele>
        <time>2012-08-26T07:34:17Z</time>
      </trkpt>
      <trkpt lat="44.20213" lon="7.14694">
        <ele>2346.6633300781</ele>
        <time>2012-08-26T07:34:25Z</time>
      </trkpt>
      <trkpt lat="44.2021" lon="7.14678">
        <ele>2348.0073242188</ele>
        <time>2012-08-26T07:34:32Z</time>
      </trkpt>
      <trkpt lat="44.20206" lon="7.14658">
        <ele>2348.0109863281</ele>
        <time>2012-08-26T07:34:40Z</time>
      </trkpt>
      <trkpt lat="44.20206" lon="7.14641">
        <ele>2344.4050292969</ele>
        <time>2012-08-26T07:34:46Z</time>
      </trkpt>
      <trkpt lat="44.20205" lon="7.14618">
        <ele>2339.6430664062</ele>
        <time>2012-08-26T07:34:54Z</time>
      </trkpt>
      <trkpt lat="44.20196" lon="7.146">
        <ele>2341.7084960938</ele>
        <time>2012-08-26T07:35:02Z</time>
      </trkpt>
      <trkpt lat="44.20184" lon="7.14574">
        <ele>2346.4025878906</ele>
        <time>2012-08-26T07:35:13Z</time>
      </trkpt>
      <trkpt lat="44.20176" lon="7.14557">
        <ele>2351.5200195312</ele>
        <time>2012-08-26T07:35:20Z</time>
      </trkpt>
      <trkpt lat="44.20165" lon="7.14534">
        <ele>2359.4638671875</ele>
        <time>2012-08-26T07:35:29Z</time>
      </trkpt>
      <trkpt lat="44.20159" lon="7.14515">
        <ele>2362.8481445312</ele>
        <time>2012-08-26T07:35:36Z</time>
      </trkpt>
      <trkpt lat="44.20159" lon="7.14494">
        <ele>2364.0993652344</ele>
        <time>2012-08-26T07:35:44Z</time>
      </trkpt>
      <trkpt lat="44.20163" lon="7.1448">
        <ele>2364.4074707031</ele>
        <time>2012-08-26T07:35:49Z</time>
      </trkpt>
      <trkpt lat="44.20168" lon="7.14465">
        <ele>2364.1481933594</ele>
        <time>2012-08-26T07:35:56Z</time>
      </trkpt>
      <trkpt lat="44.20171" lon="7.14452">
        <ele>2364.0864257812</ele>
        <time>2012-08-26T07:36:01Z</time>
      </trkpt>
      <trkpt lat="44.20173" lon="7.14431">
        <ele>2365.2094726562</ele>
        <time>2012-08-26T07:36:09Z</time>
      </trkpt>
      <trkpt lat="44.20176" lon="7.1441">
        <ele>2366.1689453125</ele>
        <time>2012-08-26T07:36:17Z</time>
      </trkpt>
      <trkpt lat="44.20176" lon="7.14393">
        <ele>2368.2309570312</ele>
        <time>2012-08-26T07:36:25Z</time>
      </trkpt>
      <trkpt lat="44.20174" lon="7.14376">
        <ele>2372.0263671875</ele>
        <time>2012-08-26T07:36:33Z</time>
      </trkpt>
      <trkpt lat="44.20175" lon="7.14359">
        <ele>2373.2492675781</ele>
        <time>2012-08-26T07:36:40Z</time>
      </trkpt>
      <trkpt lat="44.20179" lon="7.14345">
        <ele>2372.4934082031</ele>
        <time>2012-08-26T07:36:46Z</time>
      </trkpt>
      <trkpt lat="44.20182" lon="7.14324">
        <ele>2372.0686035156</ele>
        <time>2012-08-26T07:36:54Z</time>
      </trkpt>
      <trkpt lat="44.20191" lon="7.14303">
        <ele>2369.6669921875</ele>
        <time>2012-08-26T07:37:02Z</time>
      </trkpt>
      <trkpt lat="44.20206" lon="7.14284">
        <ele>2367.4147949219</ele>
        <time>2012-08-26T07:37:11Z</time>
      </trkpt>
      <trkpt lat="44.20216" lon="7.14262">
        <ele>2366.7678222656</ele>
        <time>2012-08-26T07:37:20Z</time>
      </trkpt>
      <trkpt lat="44.20222" lon="7.14247">
        <ele>2366.2194824219</ele>
        <time>2012-08-26T07:37:27Z</time>
      </trkpt>
      <trkpt lat="44.20229" lon="7.14229">
        <ele>2367.0329589844</ele>
        <time>2012-08-26T07:37:35Z</time>
      </trkpt>
      <trkpt lat="44.20234" lon="7.14205">
        <ele>2368.40625</ele>
        <time>2012-08-26T07:37:44Z</time>
      </trkpt>
      <trkpt lat="44.20239" lon="7.14186">
        <ele>2369.3063964844</ele>
        <time>2012-08-26T07:37:52Z</time>
      </trkpt>
      <trkpt lat="44.20243" lon="7.14164">
        <ele>2370.2739257812</ele>
        <time>2012-08-26T07:38:02Z</time>
      </trkpt>
      <trkpt lat="44.20246" lon="7.14141">
        <ele>2372.2006835938</ele>
        <time>2012-08-26T07:38:11Z</time>
      </trkpt>
      <trkpt lat="44.20248" lon="7.14118">
        <ele>2372.982421875</ele>
        <time>2012-08-26T07:38:20Z</time>
      </trkpt>
      <trkpt lat="44.20245" lon="7.14091">
        <ele>2375.2097167969</ele>
        <time>2012-08-26T07:38:30Z</time>
      </trkpt>
      <trkpt lat="44.20243" lon="7.14068">
        <ele>2377.0073242188</ele>
        <time>2012-08-26T07:38:38Z</time>
      </trkpt>
      <trkpt lat="44.20242" lon="7.14045">
        <ele>2378.4025878906</ele>
        <time>2012-08-26T07:38:46Z</time>
      </trkpt>
      <trkpt lat="44.20243" lon="7.14016">
        <ele>2379.5712890625</ele>
        <time>2012-08-26T07:38:56Z</time>
      </trkpt>
      <trkpt lat="44.20246" lon="7.13995">
        <ele>2380</ele>
        <time>2012-08-26T07:39:04Z</time>
      </trkpt>
      <trkpt lat="44.20251" lon="7.13981">
        <ele>2379.9665527344</ele>
        <time>2012-08-26T07:39:10Z</time>
      </trkpt>
      <trkpt lat="44.20258" lon="7.13964">
        <ele>2379.7839355469</ele>
        <time>2012-08-26T07:39:18Z</time>
      </trkpt>
      <trkpt lat="44.20265" lon="7.13949">
        <ele>2379.9094238281</ele>
        <time>2012-08-26T07:39:25Z</time>
      </trkpt>
      <trkpt lat="44.20267" lon="7.13937">
        <ele>2379.6711425781</ele>
        <time>2012-08-26T07:39:29Z</time>
      </trkpt>
      <trkpt lat="44.20269" lon="7.13912">
        <ele>2378.7172851562</ele>
        <time>2012-08-26T07:39:37Z</time>
      </trkpt>
      <trkpt lat="44.20267" lon="7.13894">
        <ele>2376.6696777344</ele>
        <time>2012-08-26T07:39:43Z</time>
      </trkpt>
      <trkpt lat="44.20263" lon="7.13883">
        <ele>2372.8466796875</ele>
        <time>2012-08-26T07:39:48Z</time>
      </trkpt>
      <trkpt lat="44.20264" lon="7.13864">
        <ele>2367.7517089844</ele>
        <time>2012-08-26T07:39:55Z</time>
      </trkpt>
      <trkpt lat="44.20268" lon="7.13844">
        <ele>2362.0280761719</ele>
        <time>2012-08-26T07:40:03Z</time>
      </trkpt>
      <trkpt lat="44.20272" lon="7.13828">
        <ele>2355.982421875</ele>
        <time>2012-08-26T07:40:10Z</time>
      </trkpt>
      <trkpt lat="44.20274" lon="7.13822">
        <ele>2353.6394042969</ele>
        <time>2012-08-26T07:40:14Z</time>
      </trkpt>
      <trkpt lat="44.20274" lon="7.13822">
        <ele>2353.3100585938</ele>
        <time>2012-08-26T07:40:25Z</time>
      </trkpt>
      <trkpt lat="44.20274" lon="7.13822">
        <ele>2353.5217285156</ele>
        <time>2012-08-26T07:40:33Z</time>
      </trkpt>
      <trkpt lat="44.20272" lon="7.13823">
        <ele>2353.7055664062</ele>
        <time>2012-08-26T07:40:41Z</time>
      </trkpt>
      <trkpt lat="44.20272" lon="7.13823">
        <ele>2353.5634765625</ele>
        <time>2012-08-26T07:40:47Z</time>
      </trkpt>
      <trkpt lat="44.20272" lon="7.13824">
        <ele>2353.9338378906</ele>
        <time>2012-08-26T07:40:54Z</time>
      </trkpt>
      <trkpt lat="44.20271" lon="7.13825">
        <ele>2354.51171875</ele>
        <time>2012-08-26T07:41:05Z</time>
      </trkpt>
      <trkpt lat="44.20271" lon="7.13825">
        <ele>2354.251953125</ele>
        <time>2012-08-26T07:41:15Z</time>
      </trkpt>
      <trkpt lat="44.20272" lon="7.13824">
        <ele>2354.1467285156</ele>
        <time>2012-08-26T07:41:19Z</time>
      </trkpt>
      <trkpt lat="44.20285" lon="7.13819">
        <ele>2354.705078125</ele>
        <time>2012-08-26T07:41:24Z</time>
      </trkpt>
      <trkpt lat="44.20302" lon="7.13806">
        <ele>2352.4548339844</ele>
        <time>2012-08-26T07:41:28Z</time>
      </trkpt>
      <trkpt lat="44.20318" lon="7.138">
        <ele>2354.3762207031</ele>
        <time>2012-08-26T07:41:32Z</time>
      </trkpt>
      <trkpt lat="44.20335" lon="7.13793">
        <ele>2356.3466796875</ele>
        <time>2012-08-26T07:41:36Z</time>
      </trkpt>
      <trkpt lat="44.20345" lon="7.1379">
        <ele>2356.8610839844</ele>
        <time>2012-08-26T07:41:38Z</time>
      </trkpt>
      <trkpt lat="44.20369" lon="7.13773">
        <ele>2357.4616699219</ele>
        <time>2012-08-26T07:41:42Z</time>
      </trkpt>
      <trkpt lat="44.20376" lon="7.13768">
        <ele>2357.3547363281</ele>
        <time>2012-08-26T07:41:43Z</time>
      </trkpt>
      <trkpt lat="44.20406" lon="7.13738">
        <ele>2357.6450195312</ele>
        <time>2012-08-26T07:41:47Z</time>
      </trkpt>
      <trkpt lat="44.20431" lon="7.13701">
        <ele>2357.4072265625</ele>
        <time>2012-08-26T07:41:52Z</time>
      </trkpt>
      <trkpt lat="44.20439" lon="7.13689">
        <ele>2357.8093261719</ele>
        <time>2012-08-26T07:41:54Z</time>
      </trkpt>
      <trkpt lat="44.20455" lon="7.13665">
        <ele>2357.9907226562</ele>
        <time>2012-08-26T07:41:58Z</time>
      </trkpt>
      <trkpt lat="44.20483" lon="7.13632">
        <ele>2359.2490234375</ele>
        <time>2012-08-26T07:42:04Z</time>
      </trkpt>
      <trkpt lat="44.20514" lon="7.13581">
        <ele>2357.99609375</ele>
        <time>2012-08-26T07:42:11Z</time>
      </trkpt>
      <trkpt lat="44.20523" lon="7.13569">
        <ele>2356.677734375</ele>
        <time>2012-08-26T07:42:13Z</time>
      </trkpt>
      <trkpt lat="44.20535" lon="7.13538">
        <ele>2348.4460449219</ele>
        <time>2012-08-26T07:42:17Z</time>
      </trkpt>
      <trkpt lat="44.20538" lon="7.13511">
        <ele>2343.18359375</ele>
        <time>2012-08-26T07:42:20Z</time>
      </trkpt>
      <trkpt lat="44.20541" lon="7.13468">
        <ele>2335.9677734375</ele>
        <time>2012-08-26T07:42:25Z</time>
      </trkpt>
      <trkpt lat="44.2054" lon="7.13424">
        <ele>2330.1599121094</ele>
        <time>2012-08-26T07:42:30Z</time>
      </trkpt>
      <trkpt lat="44.2055" lon="7.13379">
        <ele>2324.3581542969</ele>
        <time>2012-08-26T07:42:35Z</time>
      </trkpt>
      <trkpt lat="44.20568" lon="7.13332">
        <ele>2320.5241699219</ele>
        <time>2012-08-26T07:42:40Z</time>
      </trkpt>
      <trkpt lat="44.20581" lon="7.13292">
        <ele>2319.5803222656</ele>
        <time>2012-08-26T07:42:44Z</time>
      </trkpt>
      <trkpt lat="44.20589" lon="7.13277">
        <ele>2319.865234375</ele>
        <time>2012-08-26T07:42:47Z</time>
      </trkpt>
      <trkpt lat="44.206" lon="7.13265">
        <ele>2319.2556152344</ele>
        <time>2012-08-26T07:42:52Z</time>
      </trkpt>
      <trkpt lat="44.206" lon="7.13265">
        <ele>2319.2465820312</ele>
        <time>2012-08-26T07:42:56Z</time>
      </trkpt>
      <trkpt lat="44.20599" lon="7.13266">
        <ele>2319.2619628906</ele>
        <time>2012-08-26T07:43:01Z</time>
      </trkpt>
      <trkpt lat="44.20601" lon="7.13263">
        <ele>2319.2431640625</ele>
        <time>2012-08-26T07:43:05Z</time>
      </trkpt>
      <trkpt lat="44.20603" lon="7.13258">
        <ele>2319.1704101562</ele>
        <time>2012-08-26T07:43:08Z</time>
      </trkpt>
      <trkpt lat="44.20604" lon="7.13254">
        <ele>2319.1296386719</ele>
        <time>2012-08-26T07:43:13Z</time>
      </trkpt>
      <trkpt lat="44.20605" lon="7.13253">
        <ele>2319.2150878906</ele>
        <time>2012-08-26T07:43:22Z</time>
      </trkpt>
      <trkpt lat="44.2061" lon="7.1324">
        <ele>2319.5886230469</ele>
        <time>2012-08-26T07:43:28Z</time>
      </trkpt>
      <trkpt lat="44.20617" lon="7.13228">
        <ele>2320</ele>
        <time>2012-08-26T07:43:34Z</time>
      </trkpt>
      <trkpt lat="44.20625" lon="7.13211">
        <ele>2318.7653808594</ele>
        <time>2012-08-26T07:43:39Z</time>
      </trkpt>
      <trkpt lat="44.20633" lon="7.13203">
        <ele>2319.1650390625</ele>
        <time>2012-08-26T07:43:43Z</time>
      </trkpt>
      <trkpt lat="44.2064" lon="7.1319">
        <ele>2319.0358886719</ele>
        <time>2012-08-26T07:43:48Z</time>
      </trkpt>
      <trkpt lat="44.20652" lon="7.1316">
        <ele>2309.8076171875</ele>
        <time>2012-08-26T07:43:55Z</time>
      </trkpt>
      <trkpt lat="44.20666" lon="7.1313">
        <ele>2299.6594238281</ele>
        <time>2012-08-26T07:44:00Z</time>
      </trkpt>
      <trkpt lat="44.20684" lon="7.13095">
        <ele>2295.1909179688</ele>
        <time>2012-08-26T07:44:04Z</time>
      </trkpt>
      <trkpt lat="44.20713" lon="7.13049">
        <ele>2297.6020507812</ele>
        <time>2012-08-26T07:44:09Z</time>
      </trkpt>
      <trkpt lat="44.20724" lon="7.13032">
        <ele>2301</ele>
        <time>2012-08-26T07:44:13Z</time>
      </trkpt>
      <trkpt lat="44.20726" lon="7.13031">
        <ele>2301</ele>
        <time>2012-08-26T07:44:14Z</time>
      </trkpt>
      <trkpt lat="44.20736" lon="7.13023">
        <ele>2301</ele>
        <time>2012-08-26T07:44:22Z</time>
      </trkpt>
      <trkpt lat="44.20744" lon="7.13018">
        <ele>2301</ele>
        <time>2012-08-26T07:44:29Z</time>
      </trkpt>
      <trkpt lat="44.20752" lon="7.13011">
        <ele>2301</ele>
        <time>2012-08-26T07:44:37Z</time>
      </trkpt>
      <trkpt lat="44.2076" lon="7.13002">
        <ele>2301</ele>
        <time>2012-08-26T07:44:45Z</time>
      </trkpt>
      <trkpt lat="44.20768" lon="7.1299">
        <ele>2301.3447265625</ele>
        <time>2012-08-26T07:44:54Z</time>
      </trkpt>
      <trkpt lat="44.20771" lon="7.12986">
        <ele>2301.5163574219</ele>
        <time>2012-08-26T07:44:58Z</time>
      </trkpt>
      <trkpt lat="44.20776" lon="7.12974">
        <ele>2301.9367675781</ele>
        <time>2012-08-26T07:45:07Z</time>
      </trkpt>
      <trkpt lat="44.20781" lon="7.12963">
        <ele>2302.4951171875</ele>
        <time>2012-08-26T07:45:15Z</time>
      </trkpt>
      <trkpt lat="44.20786" lon="7.12955">
        <ele>2303.3525390625</ele>
        <time>2012-08-26T07:45:21Z</time>
      </trkpt>
      <trkpt lat="44.2079" lon="7.12951">
        <ele>2304.0458984375</ele>
        <time>2012-08-26T07:45:25Z</time>
      </trkpt>
      <trkpt lat="44.208" lon="7.12943">
        <ele>2306.0349121094</ele>
        <time>2012-08-26T07:45:34Z</time>
      </trkpt>
      <trkpt lat="44.20813" lon="7.12933">
        <ele>2310.5993652344</ele>
        <time>2012-08-26T07:45:43Z</time>
      </trkpt>
      <trkpt lat="44.20823" lon="7.12923">
        <ele>2315.4125976562</ele>
        <time>2012-08-26T07:45:50Z</time>
      </trkpt>
      <trkpt lat="44.20829" lon="7.12918">
        <ele>2317.9599609375</ele>
        <time>2012-08-26T07:45:54Z</time>
      </trkpt>
      <trkpt lat="44.20842" lon="7.12906">
        <ele>2317.9343261719</ele>
        <time>2012-08-26T07:46:02Z</time>
      </trkpt>
      <trkpt lat="44.20854" lon="7.12897">
        <ele>2318.5788574219</ele>
        <time>2012-08-26T07:46:10Z</time>
      </trkpt>
      <trkpt lat="44.20864" lon="7.1289">
        <ele>2320</ele>
        <time>2012-08-26T07:46:18Z</time>
      </trkpt>
      <trkpt lat="44.20872" lon="7.12884">
        <ele>2319.2683105469</ele>
        <time>2012-08-26T07:46:25Z</time>
      </trkpt>
      <trkpt lat="44.20881" lon="7.12878">
        <ele>2319.2600097656</ele>
        <time>2012-08-26T07:46:33Z</time>
      </trkpt>
      <trkpt lat="44.20894" lon="7.12869">
        <ele>2320</ele>
        <time>2012-08-26T07:46:42Z</time>
      </trkpt>
      <trkpt lat="44.20904" lon="7.12858">
        <ele>2319.6491699219</ele>
        <time>2012-08-26T07:46:49Z</time>
      </trkpt>
      <trkpt lat="44.20914" lon="7.12848">
        <ele>2319.6999511719</ele>
        <time>2012-08-26T07:46:57Z</time>
      </trkpt>
      <trkpt lat="44.20928" lon="7.12836">
        <ele>2320</ele>
        <time>2012-08-26T07:47:06Z</time>
      </trkpt>
      <trkpt lat="44.20938" lon="7.12823">
        <ele>2317.7741699219</ele>
        <time>2012-08-26T07:47:14Z</time>
      </trkpt>
      <trkpt lat="44.20946" lon="7.12808">
        <ele>2316.544921875</ele>
        <time>2012-08-26T07:47:22Z</time>
      </trkpt>
      <trkpt lat="44.20956" lon="7.12793">
        <ele>2315.0688476562</ele>
        <time>2012-08-26T07:47:29Z</time>
      </trkpt>
      <trkpt lat="44.2097" lon="7.12777">
        <ele>2318.607421875</ele>
        <time>2012-08-26T07:47:36Z</time>
      </trkpt>
      <trkpt lat="44.20976" lon="7.12768">
        <ele>2316.5393066406</ele>
        <time>2012-08-26T07:47:41Z</time>
      </trkpt>
      <trkpt lat="44.2099" lon="7.12754">
        <ele>2316.4509277344</ele>
        <time>2012-08-26T07:47:48Z</time>
      </trkpt>
      <trkpt lat="44.21" lon="7.12742">
        <ele>2317.5556640625</ele>
        <time>2012-08-26T07:47:55Z</time>
      </trkpt>
      <trkpt lat="44.21015" lon="7.12731">
        <ele>2317.0815429688</ele>
        <time>2012-08-26T07:47:59Z</time>
      </trkpt>
      <trkpt lat="44.21034" lon="7.12716">
        <ele>2319.1262207031</ele>
        <time>2012-08-26T07:48:03Z</time>
      </trkpt>
      <trkpt lat="44.2106" lon="7.1269">
        <ele>2319.1892089844</ele>
        <time>2012-08-26T07:48:09Z</time>
      </trkpt>
      <trkpt lat="44.21073" lon="7.12666">
        <ele>2317.9758300781</ele>
        <time>2012-08-26T07:48:14Z</time>
      </trkpt>
      <trkpt lat="44.21078" lon="7.12658">
        <ele>2318.1889648438</ele>
        <time>2012-08-26T07:48:16Z</time>
      </trkpt>
      <trkpt lat="44.21092" lon="7.12629">
        <ele>2319.6130371094</ele>
        <time>2012-08-26T07:48:23Z</time>
      </trkpt>
      <trkpt lat="44.21101" lon="7.12609">
        <ele>2319.6616210938</ele>
        <time>2012-08-26T07:48:27Z</time>
      </trkpt>
      <trkpt lat="44.21109" lon="7.12597">
        <ele>2317.9279785156</ele>
        <time>2012-08-26T07:48:31Z</time>
      </trkpt>
      <trkpt lat="44.21117" lon="7.12586">
        <ele>2315.0285644531</ele>
        <time>2012-08-26T07:48:36Z</time>
      </trkpt>
      <trkpt lat="44.21126" lon="7.12563">
        <ele>2309.7280273438</ele>
        <time>2012-08-26T07:48:43Z</time>
      </trkpt>
      <trkpt lat="44.21127" lon="7.12554">
        <ele>2308.3347167969</ele>
        <time>2012-08-26T07:48:45Z</time>
      </trkpt>
      <trkpt lat="44.21132" lon="7.12533">
        <ele>2303.7395019531</ele>
        <time>2012-08-26T07:48:50Z</time>
      </trkpt>
      <trkpt lat="44.21128" lon="7.12501">
        <ele>2301.0668945312</ele>
        <time>2012-08-26T07:48:55Z</time>
      </trkpt>
      <trkpt lat="44.21128" lon="7.12466">
        <ele>2299.2067871094</ele>
        <time>2012-08-26T07:48:59Z</time>
      </trkpt>
      <trkpt lat="44.21133" lon="7.12438">
        <ele>2295.2622070312</ele>
        <time>2012-08-26T07:49:03Z</time>
      </trkpt>
      <trkpt lat="44.21134" lon="7.12432">
        <ele>2292.98828125</ele>
        <time>2012-08-26T07:49:04Z</time>
      </trkpt>
      <trkpt lat="44.21136" lon="7.12422">
        <ele>2288.9165039062</ele>
        <time>2012-08-26T07:49:06Z</time>
      </trkpt>
      <trkpt lat="44.21143" lon="7.124">
        <ele>2283.3837890625</ele>
        <time>2012-08-26T07:49:11Z</time>
      </trkpt>
      <trkpt lat="44.21156" lon="7.1239">
        <ele>2286.2778320312</ele>
        <time>2012-08-26T07:49:14Z</time>
      </trkpt>
      <trkpt lat="44.21173" lon="7.12381">
        <ele>2290.2346191406</ele>
        <time>2012-08-26T07:49:19Z</time>
      </trkpt>
      <trkpt lat="44.21186" lon="7.12363">
        <ele>2288.9033203125</ele>
        <time>2012-08-26T07:49:23Z</time>
      </trkpt>
      <trkpt lat="44.21201" lon="7.12324">
        <ele>2287.0354003906</ele>
        <time>2012-08-26T07:49:28Z</time>
      </trkpt>
      <trkpt lat="44.21204" lon="7.12316">
        <ele>2286.5170898438</ele>
        <time>2012-08-26T07:49:29Z</time>
      </trkpt>
      <trkpt lat="44.21209" lon="7.123">
        <ele>2285.7885742188</ele>
        <time>2012-08-26T07:49:31Z</time>
      </trkpt>
      <trkpt lat="44.21217" lon="7.12247">
        <ele>2283.88671875</ele>
        <time>2012-08-26T07:49:36Z</time>
      </trkpt>
      <trkpt lat="44.21218" lon="7.12229">
        <ele>2283.1403808594</ele>
        <time>2012-08-26T07:49:38Z</time>
      </trkpt>
      <trkpt lat="44.21222" lon="7.12207">
        <ele>2282.4445800781</ele>
        <time>2012-08-26T07:49:42Z</time>
      </trkpt>
      <trkpt lat="44.21225" lon="7.12178">
        <ele>2282</ele>
        <time>2012-08-26T07:49:47Z</time>
      </trkpt>
      <trkpt lat="44.21226" lon="7.12157">
        <ele>2281.6420898438</ele>
        <time>2012-08-26T07:49:50Z</time>
      </trkpt>
      <trkpt lat="44.21232" lon="7.1213">
        <ele>2280.7924804688</ele>
        <time>2012-08-26T07:49:55Z</time>
      </trkpt>
      <trkpt lat="44.21233" lon="7.12126">
        <ele>2280.7150878906</ele>
        <time>2012-08-26T07:49:56Z</time>
      </trkpt>
      <trkpt lat="44.21237" lon="7.12112">
        <ele>2280.5327148438</ele>
        <time>2012-08-26T07:50:00Z</time>
      </trkpt>
      <trkpt lat="44.21246" lon="7.12086">
        <ele>2280.8408203125</ele>
        <time>2012-08-26T07:50:05Z</time>
      </trkpt>
      <trkpt lat="44.21264" lon="7.12054">
        <ele>2280.4860839844</ele>
        <time>2012-08-26T07:50:10Z</time>
      </trkpt>
      <trkpt lat="44.2127" lon="7.12046">
        <ele>2280.7197265625</ele>
        <time>2012-08-26T07:50:13Z</time>
      </trkpt>
      <trkpt lat="44.21282" lon="7.12031">
        <ele>2281</ele>
        <time>2012-08-26T07:50:21Z</time>
      </trkpt>
      <trkpt lat="44.21289" lon="7.12017">
        <ele>2281.3771972656</ele>
        <time>2012-08-26T07:50:27Z</time>
      </trkpt>
      <trkpt lat="44.21298" lon="7.11999">
        <ele>2282</ele>
        <time>2012-08-26T07:50:32Z</time>
      </trkpt>
      <trkpt lat="44.21308" lon="7.11985">
        <ele>2282</ele>
        <time>2012-08-26T07:50:37Z</time>
      </trkpt>
      <trkpt lat="44.21317" lon="7.11971">
        <ele>2282</ele>
        <time>2012-08-26T07:50:44Z</time>
      </trkpt>
      <trkpt lat="44.21327" lon="7.11953">
        <ele>2282</ele>
        <time>2012-08-26T07:50:52Z</time>
      </trkpt>
      <trkpt lat="44.21335" lon="7.1194">
        <ele>2282</ele>
        <time>2012-08-26T07:50:59Z</time>
      </trkpt>
      <trkpt lat="44.21346" lon="7.11927">
        <ele>2282</ele>
        <time>2012-08-26T07:51:08Z</time>
      </trkpt>
      <trkpt lat="44.21354" lon="7.11914">
        <ele>2282.041015625</ele>
        <time>2012-08-26T07:51:15Z</time>
      </trkpt>
      <trkpt lat="44.21367" lon="7.11905">
        <ele>2285.1259765625</ele>
        <time>2012-08-26T07:51:24Z</time>
      </trkpt>
      <trkpt lat="44.21381" lon="7.11895">
        <ele>2292.7993164062</ele>
        <time>2012-08-26T07:51:34Z</time>
      </trkpt>
      <trkpt lat="44.21392" lon="7.11888">
        <ele>2297.3679199219</ele>
        <time>2012-08-26T07:51:43Z</time>
      </trkpt>
      <trkpt lat="44.214" lon="7.11883">
        <ele>2298.6643066406</ele>
        <time>2012-08-26T07:51:51Z</time>
      </trkpt>
      <trkpt lat="44.21409" lon="7.11879">
        <ele>2300.0554199219</ele>
        <time>2012-08-26T07:51:59Z</time>
      </trkpt>
      <trkpt lat="44.21417" lon="7.11879">
        <ele>2301.2033691406</ele>
        <time>2012-08-26T07:52:06Z</time>
      </trkpt>
      <trkpt lat="44.2142" lon="7.11878">
        <ele>2302.51171875</ele>
        <time>2012-08-26T07:52:11Z</time>
      </trkpt>
      <trkpt lat="44.21421" lon="7.11877">
        <ele>2303.4543457031</ele>
        <time>2012-08-26T07:52:19Z</time>
      </trkpt>
      <trkpt lat="44.21426" lon="7.11874">
        <ele>2305.8088378906</ele>
        <time>2012-08-26T07:52:28Z</time>
      </trkpt>
      <trkpt lat="44.21428" lon="7.1187">
        <ele>2307.1633300781</ele>
        <time>2012-08-26T07:52:33Z</time>
      </trkpt>
      <trkpt lat="44.21434" lon="7.11863">
        <ele>2310.1909179688</ele>
        <time>2012-08-26T07:52:43Z</time>
      </trkpt>
      <trkpt lat="44.21436" lon="7.11856">
        <ele>2311.8090820312</ele>
        <time>2012-08-26T07:52:52Z</time>
      </trkpt>
      <trkpt lat="44.21439" lon="7.11852">
        <ele>2313.5522460938</ele>
        <time>2012-08-26T07:52:59Z</time>
      </trkpt>
      <trkpt lat="44.21442" lon="7.11852">
        <ele>2314.791015625</ele>
        <time>2012-08-26T07:53:06Z</time>
      </trkpt>
      <trkpt lat="44.21445" lon="7.11851">
        <ele>2316.2109375</ele>
        <time>2012-08-26T07:53:14Z</time>
      </trkpt>
      <trkpt lat="44.2145" lon="7.11847">
        <ele>2317.8210449219</ele>
        <time>2012-08-26T07:53:24Z</time>
      </trkpt>
      <trkpt lat="44.21455" lon="7.11844">
        <ele>2319.400390625</ele>
        <time>2012-08-26T07:53:34Z</time>
      </trkpt>
      <trkpt lat="44.21458" lon="7.11841">
        <ele>2320.5556640625</ele>
        <time>2012-08-26T07:53:42Z</time>
      </trkpt>
      <trkpt lat="44.21461" lon="7.11838">
        <ele>2321.740234375</ele>
        <time>2012-08-26T07:53:50Z</time>
      </trkpt>
      <trkpt lat="44.21465" lon="7.11833">
        <ele>2323.1804199219</ele>
        <time>2012-08-26T07:54:01Z</time>
      </trkpt>
      <trkpt lat="44.21469" lon="7.1183">
        <ele>2324.4506835938</ele>
        <time>2012-08-26T07:54:09Z</time>
      </trkpt>
      <trkpt lat="44.21474" lon="7.11829">
        <ele>2325.65625</ele>
        <time>2012-08-26T07:54:18Z</time>
      </trkpt>
      <trkpt lat="44.21477" lon="7.11826">
        <ele>2326.4956054688</ele>
        <time>2012-08-26T07:54:25Z</time>
      </trkpt>
      <trkpt lat="44.21481" lon="7.11824">
        <ele>2327.3439941406</ele>
        <time>2012-08-26T07:54:34Z</time>
      </trkpt>
      <trkpt lat="44.21484" lon="7.11822">
        <ele>2328.0305175781</ele>
        <time>2012-08-26T07:54:41Z</time>
      </trkpt>
      <trkpt lat="44.21485" lon="7.11818">
        <ele>2328.6872558594</ele>
        <time>2012-08-26T07:54:49Z</time>
      </trkpt>
      <trkpt lat="44.21489" lon="7.11812">
        <ele>2329.9201660156</ele>
        <time>2012-08-26T07:54:59Z</time>
      </trkpt>
      <trkpt lat="44.21493" lon="7.11809">
        <ele>2331.1059570312</ele>
        <time>2012-08-26T07:55:08Z</time>
      </trkpt>
      <trkpt lat="44.21496" lon="7.11806">
        <ele>2332.0698242188</ele>
        <time>2012-08-26T07:55:16Z</time>
      </trkpt>
      <trkpt lat="44.21499" lon="7.11801">
        <ele>2333.2512207031</ele>
        <time>2012-08-26T07:55:25Z</time>
      </trkpt>
      <trkpt lat="44.21501" lon="7.11797">
        <ele>2334.15234375</ele>
        <time>2012-08-26T07:55:34Z</time>
      </trkpt>
      <trkpt lat="44.21505" lon="7.11795">
        <ele>2335.4458007812</ele>
        <time>2012-08-26T07:55:43Z</time>
      </trkpt>
      <trkpt lat="44.21508" lon="7.11792">
        <ele>2336.4450683594</ele>
        <time>2012-08-26T07:55:51Z</time>
      </trkpt>
      <trkpt lat="44.21512" lon="7.11788">
        <ele>2337.5720214844</ele>
        <time>2012-08-26T07:56:00Z</time>
      </trkpt>
      <trkpt lat="44.21514" lon="7.11786">
        <ele>2338.2775878906</ele>
        <time>2012-08-26T07:56:07Z</time>
      </trkpt>
      <trkpt lat="44.21518" lon="7.1178">
        <ele>2339.5737304688</ele>
        <time>2012-08-26T07:56:17Z</time>
      </trkpt>
      <trkpt lat="44.21521" lon="7.11772">
        <ele>2339.9008789062</ele>
        <time>2012-08-26T07:56:28Z</time>
      </trkpt>
      <trkpt lat="44.21522" lon="7.11765">
        <ele>2339.6228027344</ele>
        <time>2012-08-26T07:56:37Z</time>
      </trkpt>
      <trkpt lat="44.21524" lon="7.11756">
        <ele>2339.3386230469</ele>
        <time>2012-08-26T07:56:47Z</time>
      </trkpt>
      <trkpt lat="44.21524" lon="7.11755">
        <ele>2339.2231445312</ele>
        <time>2012-08-26T07:56:51Z</time>
      </trkpt>
      <trkpt lat="44.21524" lon="7.11755">
        <ele>2339.1860351562</ele>
        <time>2012-08-26T07:56:57Z</time>
      </trkpt>
      <trkpt lat="44.21524" lon="7.11755">
        <ele>2339.0900878906</ele>
        <time>2012-08-26T07:57:05Z</time>
      </trkpt>
      <trkpt lat="44.21524" lon="7.11755">
        <ele>2339.2189941406</ele>
        <time>2012-08-26T07:57:12Z</time>
      </trkpt>
      <trkpt lat="44.21524" lon="7.11754">
        <ele>2339.24609375</ele>
        <time>2012-08-26T07:57:21Z</time>
      </trkpt>
      <trkpt lat="44.21527" lon="7.1175">
        <ele>2339.9375</ele>
        <time>2012-08-26T07:57:27Z</time>
      </trkpt>
      <trkpt lat="44.21533" lon="7.11742">
        <ele>2338.4719238281</ele>
        <time>2012-08-26T07:57:35Z</time>
      </trkpt>
      <trkpt lat="44.21539" lon="7.11729">
        <ele>2336.6115722656</ele>
        <time>2012-08-26T07:57:45Z</time>
      </trkpt>
      <trkpt lat="44.21545" lon="7.11717">
        <ele>2336.189453125</ele>
        <time>2012-08-26T07:57:54Z</time>
      </trkpt>
      <trkpt lat="44.21549" lon="7.11708">
        <ele>2336.2014160156</ele>
        <time>2012-08-26T07:58:01Z</time>
      </trkpt>
      <trkpt lat="44.21555" lon="7.11699">
        <ele>2337.1674804688</ele>
        <time>2012-08-26T07:58:09Z</time>
      </trkpt>
      <trkpt lat="44.21561" lon="7.11693">
        <ele>2338.3364257812</ele>
        <time>2012-08-26T07:58:17Z</time>
      </trkpt>
      <trkpt lat="44.21568" lon="7.1169">
        <ele>2339.4069824219</ele>
        <time>2012-08-26T07:58:24Z</time>
      </trkpt>
      <trkpt lat="44.21572" lon="7.11686">
        <ele>2339.7834472656</ele>
        <time>2012-08-26T07:58:30Z</time>
      </trkpt>
      <trkpt lat="44.21574" lon="7.11684">
        <ele>2340.1499023438</ele>
        <time>2012-08-26T07:58:37Z</time>
      </trkpt>
      <trkpt lat="44.21577" lon="7.11678">
        <ele>2340.1665039062</ele>
        <time>2012-08-26T07:58:45Z</time>
      </trkpt>
      <trkpt lat="44.2158" lon="7.11672">
        <ele>2340.7160644531</ele>
        <time>2012-08-26T07:58:53Z</time>
      </trkpt>
      <trkpt lat="44.21583" lon="7.1167">
        <ele>2342.0593261719</ele>
        <time>2012-08-26T07:58:58Z</time>
      </trkpt>
      <trkpt lat="44.21592" lon="7.11664">
        <ele>2344.4772949219</ele>
        <time>2012-08-26T07:59:06Z</time>
      </trkpt>
      <trkpt lat="44.21602" lon="7.1166">
        <ele>2347.1079101562</ele>
        <time>2012-08-26T07:59:14Z</time>
      </trkpt>
      <trkpt lat="44.21602" lon="7.1166">
        <ele>2347.1862792969</ele>
        <time>2012-08-26T07:59:23Z</time>
      </trkpt>
      <trkpt lat="44.21602" lon="7.1166">
        <ele>2347.0803222656</ele>
        <time>2012-08-26T07:59:31Z</time>
      </trkpt>
      <trkpt lat="44.21603" lon="7.1166">
        <ele>2347.3063964844</ele>
        <time>2012-08-26T07:59:39Z</time>
      </trkpt>
      <trkpt lat="44.21614" lon="7.11649">
        <ele>2349.5268554688</ele>
        <time>2012-08-26T07:59:46Z</time>
      </trkpt>
      <trkpt lat="44.21627" lon="7.1163">
        <ele>2350.146484375</ele>
        <time>2012-08-26T07:59:51Z</time>
      </trkpt>
      <trkpt lat="44.2164" lon="7.11603">
        <ele>2350.2863769531</ele>
        <time>2012-08-26T07:59:55Z</time>
      </trkpt>
      <trkpt lat="44.21653" lon="7.11579">
        <ele>2344.0356445312</ele>
        <time>2012-08-26T07:59:59Z</time>
      </trkpt>
      <trkpt lat="44.21664" lon="7.11561">
        <ele>2339.3168945312</ele>
        <time>2012-08-26T08:00:03Z</time>
      </trkpt>
      <trkpt lat="44.21669" lon="7.11534">
        <ele>2338.7741699219</ele>
        <time>2012-08-26T08:00:07Z</time>
      </trkpt>
      <trkpt lat="44.21682" lon="7.11503">
        <ele>2339.9792480469</ele>
        <time>2012-08-26T08:00:12Z</time>
      </trkpt>
      <trkpt lat="44.21695" lon="7.11477">
        <ele>2341.9558105469</ele>
        <time>2012-08-26T08:00:16Z</time>
      </trkpt>
      <trkpt lat="44.21717" lon="7.11448">
        <ele>2344.9826660156</ele>
        <time>2012-08-26T08:00:22Z</time>
      </trkpt>
      <trkpt lat="44.21727" lon="7.11441">
        <ele>2345.4235839844</ele>
        <time>2012-08-26T08:00:31Z</time>
      </trkpt>
      <trkpt lat="44.21729" lon="7.11439">
        <ele>2345.4904785156</ele>
        <time>2012-08-26T08:00:33Z</time>
      </trkpt>
      <trkpt lat="44.21735" lon="7.11432">
        <ele>2346.5456542969</ele>
        <time>2012-08-26T08:00:40Z</time>
      </trkpt>
      <trkpt lat="44.21735" lon="7.11431">
        <ele>2346.6303710938</ele>
        <time>2012-08-26T08:00:41Z</time>
      </trkpt>
      <trkpt lat="44.21741" lon="7.11426">
        <ele>2347.185546875</ele>
        <time>2012-08-26T08:00:51Z</time>
      </trkpt>
      <trkpt lat="44.21745" lon="7.11422">
        <ele>2347.5732421875</ele>
        <time>2012-08-26T08:00:58Z</time>
      </trkpt>
      <trkpt lat="44.21749" lon="7.11418">
        <ele>2347.7507324219</ele>
        <time>2012-08-26T08:01:07Z</time>
      </trkpt>
      <trkpt lat="44.21754" lon="7.11415">
        <ele>2347.70703125</ele>
        <time>2012-08-26T08:01:16Z</time>
      </trkpt>
      <trkpt lat="44.21759" lon="7.11411">
        <ele>2347.9267578125</ele>
        <time>2012-08-26T08:01:26Z</time>
      </trkpt>
      <trkpt lat="44.21763" lon="7.11408">
        <ele>2348.01953125</ele>
        <time>2012-08-26T08:01:35Z</time>
      </trkpt>
      <trkpt lat="44.21768" lon="7.11405">
        <ele>2347.8752441406</ele>
        <time>2012-08-26T08:01:43Z</time>
      </trkpt>
      <trkpt lat="44.2177" lon="7.11398">
        <ele>2349.23828125</ele>
        <time>2012-08-26T08:01:52Z</time>
      </trkpt>
      <trkpt lat="44.21774" lon="7.11392">
        <ele>2349.9970703125</ele>
        <time>2012-08-26T08:02:00Z</time>
      </trkpt>
      <trkpt lat="44.21779" lon="7.11383">
        <ele>2351.6645507812</ele>
        <time>2012-08-26T08:02:11Z</time>
      </trkpt>
      <trkpt lat="44.21784" lon="7.11374">
        <ele>2353.94140625</ele>
        <time>2012-08-26T08:02:22Z</time>
      </trkpt>
      <trkpt lat="44.21785" lon="7.11368">
        <ele>2355.3662109375</ele>
        <time>2012-08-26T08:02:29Z</time>
      </trkpt>
      <trkpt lat="44.21789" lon="7.11363">
        <ele>2356.44921875</ele>
        <time>2012-08-26T08:02:37Z</time>
      </trkpt>
      <trkpt lat="44.21792" lon="7.11356">
        <ele>2357.5983886719</ele>
        <time>2012-08-26T08:02:45Z</time>
      </trkpt>
      <trkpt lat="44.21795" lon="7.1135">
        <ele>2358.6943359375</ele>
        <time>2012-08-26T08:02:54Z</time>
      </trkpt>
      <trkpt lat="44.21798" lon="7.11345">
        <ele>2359.1979980469</ele>
        <time>2012-08-26T08:03:02Z</time>
      </trkpt>
      <trkpt lat="44.21801" lon="7.1134">
        <ele>2359.6228027344</ele>
        <time>2012-08-26T08:03:11Z</time>
      </trkpt>
      <trkpt lat="44.21804" lon="7.11336">
        <ele>2359.91015625</ele>
        <time>2012-08-26T08:03:18Z</time>
      </trkpt>
      <trkpt lat="44.21807" lon="7.11332">
        <ele>2360.4013671875</ele>
        <time>2012-08-26T08:03:27Z</time>
      </trkpt>
      <trkpt lat="44.21812" lon="7.11327">
        <ele>2361.357421875</ele>
        <time>2012-08-26T08:03:38Z</time>
      </trkpt>
      <trkpt lat="44.21814" lon="7.11322">
        <ele>2362.19140625</ele>
        <time>2012-08-26T08:03:47Z</time>
      </trkpt>
      <trkpt lat="44.21817" lon="7.11316">
        <ele>2362.8688964844</ele>
        <time>2012-08-26T08:03:56Z</time>
      </trkpt>
      <trkpt lat="44.2182" lon="7.1131">
        <ele>2363.3269042969</ele>
        <time>2012-08-26T08:04:07Z</time>
      </trkpt>
      <trkpt lat="44.21818" lon="7.11307">
        <ele>2363.9521484375</ele>
        <time>2012-08-26T08:04:14Z</time>
      </trkpt>
      <trkpt lat="44.21815" lon="7.11301">
        <ele>2365.1555175781</ele>
        <time>2012-08-26T08:04:23Z</time>
      </trkpt>
      <trkpt lat="44.21816" lon="7.11293">
        <ele>2365.9719238281</ele>
        <time>2012-08-26T08:04:32Z</time>
      </trkpt>
      <trkpt lat="44.2182" lon="7.11285">
        <ele>2366.0417480469</ele>
        <time>2012-08-26T08:04:43Z</time>
      </trkpt>
      <trkpt lat="44.21824" lon="7.11279">
        <ele>2365.4738769531</ele>
        <time>2012-08-26T08:04:52Z</time>
      </trkpt>
      <trkpt lat="44.21828" lon="7.11272">
        <ele>2364.951171875</ele>
        <time>2012-08-26T08:05:01Z</time>
      </trkpt>
      <trkpt lat="44.21832" lon="7.11264">
        <ele>2364.0480957031</ele>
        <time>2012-08-26T08:05:10Z</time>
      </trkpt>
      <trkpt lat="44.21837" lon="7.11255">
        <ele>2362.5061035156</ele>
        <time>2012-08-26T08:05:21Z</time>
      </trkpt>
      <trkpt lat="44.21838" lon="7.11255">
        <ele>2362.3674316406</ele>
        <time>2012-08-26T08:05:26Z</time>
      </trkpt>
      <trkpt lat="44.21837" lon="7.11255">
        <ele>2362.6313476562</ele>
        <time>2012-08-26T08:05:32Z</time>
      </trkpt>
      <trkpt lat="44.21836" lon="7.11256">
        <ele>2362.7607421875</ele>
        <time>2012-08-26T08:05:39Z</time>
      </trkpt>
      <trkpt lat="44.21837" lon="7.11255">
        <ele>2362.5070800781</ele>
        <time>2012-08-26T08:05:53Z</time>
      </trkpt>
      <trkpt lat="44.21838" lon="7.11255">
        <ele>2362.3796386719</ele>
        <time>2012-08-26T08:06:00Z</time>
      </trkpt>
      <trkpt lat="44.21838" lon="7.11254">
        <ele>2362.2331542969</ele>
        <time>2012-08-26T08:06:16Z</time>
      </trkpt>
      <trkpt lat="44.21841" lon="7.11256">
        <ele>2361.2724609375</ele>
        <time>2012-08-26T08:06:21Z</time>
      </trkpt>
      <trkpt lat="44.21841" lon="7.11257">
        <ele>2361.3215332031</ele>
        <time>2012-08-26T08:07:01Z</time>
      </trkpt>
      <trkpt lat="44.2184" lon="7.11256">
        <ele>2361.6291503906</ele>
        <time>2012-08-26T08:07:09Z</time>
      </trkpt>
      <trkpt lat="44.2184" lon="7.11255">
        <ele>2361.732421875</ele>
        <time>2012-08-26T08:07:10Z</time>
      </trkpt>
      <trkpt lat="44.2184" lon="7.11254">
        <ele>2361.4301757812</ele>
        <time>2012-08-26T08:07:17Z</time>
      </trkpt>
      <trkpt lat="44.21839" lon="7.11253">
        <ele>2361.7866210938</ele>
        <time>2012-08-26T08:07:31Z</time>
      </trkpt>
      <trkpt lat="44.21837" lon="7.11255">
        <ele>2362.6291503906</ele>
        <time>2012-08-26T08:07:37Z</time>
      </trkpt>
      <trkpt lat="44.21836" lon="7.11254">
        <ele>2362.7595214844</ele>
        <time>2012-08-26T08:07:42Z</time>
      </trkpt>
      <trkpt lat="44.21837" lon="7.11254">
        <ele>2362.6276855469</ele>
        <time>2012-08-26T08:07:58Z</time>
      </trkpt>
      <trkpt lat="44.21837" lon="7.11254">
        <ele>2362.6274414062</ele>
        <time>2012-08-26T08:08:03Z</time>
      </trkpt>
      <trkpt lat="44.21837" lon="7.11255">
        <ele>2362.6298828125</ele>
        <time>2012-08-26T08:08:12Z</time>
      </trkpt>
      <trkpt lat="44.21837" lon="7.11255">
        <ele>2362.4987792969</ele>
        <time>2012-08-26T08:08:22Z</time>
      </trkpt>
      <trkpt lat="44.21837" lon="7.11255">
        <ele>2362.6298828125</ele>
        <time>2012-08-26T08:08:39Z</time>
      </trkpt>
      <trkpt lat="44.21836" lon="7.11255">
        <ele>2362.8884277344</ele>
        <time>2012-08-26T08:08:47Z</time>
      </trkpt>
      <trkpt lat="44.21836" lon="7.11255">
        <ele>2362.8884277344</ele>
        <time>2012-08-26T08:08:48Z</time>
      </trkpt>
      <trkpt lat="44.21837" lon="7.11254">
        <ele>2362.6245117188</ele>
        <time>2012-08-26T08:08:53Z</time>
      </trkpt>
      <trkpt lat="44.21841" lon="7.11247">
        <ele>2360.6179199219</ele>
        <time>2012-08-26T08:08:58Z</time>
      </trkpt>
      <trkpt lat="44.21842" lon="7.11245">
        <ele>2359.8410644531</ele>
        <time>2012-08-26T08:09:05Z</time>
      </trkpt>
      <trkpt lat="44.21849" lon="7.11235">
        <ele>2354.9108886719</ele>
        <time>2012-08-26T08:09:09Z</time>
      </trkpt>
      <trkpt lat="44.2186" lon="7.1122">
        <ele>2346.1228027344</ele>
        <time>2012-08-26T08:09:12Z</time>
      </trkpt>
      <trkpt lat="44.21871" lon="7.11204">
        <ele>2336.33984375</ele>
        <time>2012-08-26T08:09:15Z</time>
      </trkpt>
      <trkpt lat="44.21875" lon="7.11189">
        <ele>2330.4008789062</ele>
        <time>2012-08-26T08:09:20Z</time>
      </trkpt>
      <trkpt lat="44.21877" lon="7.11188">
        <ele>2329.2680664062</ele>
        <time>2012-08-26T08:09:23Z</time>
      </trkpt>
      <trkpt lat="44.21877" lon="7.11189">
        <ele>2329.5170898438</ele>
        <time>2012-08-26T08:09:27Z</time>
      </trkpt>
      <trkpt lat="44.21878" lon="7.11188">
        <ele>2328.4052734375</ele>
        <time>2012-08-26T08:09:29Z</time>
      </trkpt>
      <trkpt lat="44.21887" lon="7.11191">
        <ele>2323.5261230469</ele>
        <time>2012-08-26T08:09:33Z</time>
      </trkpt>
      <trkpt lat="44.21891" lon="7.11191">
        <ele>2322.5607910156</ele>
        <time>2012-08-26T08:09:38Z</time>
      </trkpt>
      <trkpt lat="44.21892" lon="7.11189">
        <ele>2322.140625</ele>
        <time>2012-08-26T08:09:45Z</time>
      </trkpt>
      <trkpt lat="44.21892" lon="7.11188">
        <ele>2322.0302734375</ele>
        <time>2012-08-26T08:09:48Z</time>
      </trkpt>
      <trkpt lat="44.2189" lon="7.11185">
        <ele>2321.7822265625</ele>
        <time>2012-08-26T08:09:53Z</time>
      </trkpt>
      <trkpt lat="44.21892" lon="7.11184">
        <ele>2321.3483886719</ele>
        <time>2012-08-26T08:09:59Z</time>
      </trkpt>
      <trkpt lat="44.21893" lon="7.11182">
        <ele>2320.9929199219</ele>
        <time>2012-08-26T08:10:09Z</time>
      </trkpt>
      <trkpt lat="44.21899" lon="7.11178">
        <ele>2319.1125488281</ele>
        <time>2012-08-26T08:10:14Z</time>
      </trkpt>
      <trkpt lat="44.21902" lon="7.11175">
        <ele>2317.7602539062</ele>
        <time>2012-08-26T08:10:16Z</time>
      </trkpt>
      <trkpt lat="44.21913" lon="7.11167">
        <ele>2312.2490234375</ele>
        <time>2012-08-26T08:10:22Z</time>
      </trkpt>
      <trkpt lat="44.21924" lon="7.11158">
        <ele>2306.1481933594</ele>
        <time>2012-08-26T08:10:26Z</time>
      </trkpt>
      <trkpt lat="44.21946" lon="7.11144">
        <ele>2298.6169433594</ele>
        <time>2012-08-26T08:10:33Z</time>
      </trkpt>
      <trkpt lat="44.21947" lon="7.11144">
        <ele>2298.4904785156</ele>
        <time>2012-08-26T08:10:34Z</time>
      </trkpt>
      <trkpt lat="44.21944" lon="7.11142">
        <ele>2298.0620117188</ele>
        <time>2012-08-26T08:10:39Z</time>
      </trkpt>
      <trkpt lat="44.21938" lon="7.11142">
        <ele>2298.4104003906</ele>
        <time>2012-08-26T08:10:41Z</time>
      </trkpt>
      <trkpt lat="44.21907" lon="7.11137">
        <ele>2310.015625</ele>
        <time>2012-08-26T08:10:48Z</time>
      </trkpt>
      <trkpt lat="44.21898" lon="7.11133">
        <ele>2321.2990722656</ele>
        <time>2012-08-26T08:10:51Z</time>
      </trkpt>
      <trkpt lat="44.21901" lon="7.11127">
        <ele>2320.3891601562</ele>
        <time>2012-08-26T08:10:55Z</time>
      </trkpt>
      <trkpt lat="44.21911" lon="7.11115">
        <ele>2312.6799316406</ele>
        <time>2012-08-26T08:11:00Z</time>
      </trkpt>
      <trkpt lat="44.21914" lon="7.11113">
        <ele>2310.3486328125</ele>
        <time>2012-08-26T08:11:01Z</time>
      </trkpt>
      <trkpt lat="44.21931" lon="7.11096">
        <ele>2306.9794921875</ele>
        <time>2012-08-26T08:11:07Z</time>
      </trkpt>
      <trkpt lat="44.21946" lon="7.11081">
        <ele>2305.4106445312</ele>
        <time>2012-08-26T08:11:12Z</time>
      </trkpt>
      <trkpt lat="44.21949" lon="7.11075">
        <ele>2308.4104003906</ele>
        <time>2012-08-26T08:11:14Z</time>
      </trkpt>
      <trkpt lat="44.21953" lon="7.11072">
        <ele>2308.6547851562</ele>
        <time>2012-08-26T08:11:19Z</time>
      </trkpt>
      <trkpt lat="44.21959" lon="7.11067">
        <ele>2309.4782714844</ele>
        <time>2012-08-26T08:11:24Z</time>
      </trkpt>
      <trkpt lat="44.21971" lon="7.11054">
        <ele>2310.4372558594</ele>
        <time>2012-08-26T08:11:28Z</time>
      </trkpt>
      <trkpt lat="44.2198" lon="7.11042">
        <ele>2314.333984375</ele>
        <time>2012-08-26T08:11:31Z</time>
      </trkpt>
      <trkpt lat="44.21991" lon="7.11037">
        <ele>2311.6188964844</ele>
        <time>2012-08-26T08:11:37Z</time>
      </trkpt>
      <trkpt lat="44.21997" lon="7.11035">
        <ele>2310.1059570312</ele>
        <time>2012-08-26T08:11:39Z</time>
      </trkpt>
      <trkpt lat="44.22007" lon="7.11031">
        <ele>2307.1420898438</ele>
        <time>2012-08-26T08:11:51Z</time>
      </trkpt>
      <trkpt lat="44.22007" lon="7.11031">
        <ele>2306.8171386719</ele>
        <time>2012-08-26T08:11:58Z</time>
      </trkpt>
      <trkpt lat="44.2201" lon="7.11031">
        <ele>2305.611328125</ele>
        <time>2012-08-26T08:12:02Z</time>
      </trkpt>
      <trkpt lat="44.22011" lon="7.1103">
        <ele>2305.4123535156</ele>
        <time>2012-08-26T08:12:03Z</time>
      </trkpt>
      <trkpt lat="44.22011" lon="7.11023">
        <ele>2307.4406738281</ele>
        <time>2012-08-26T08:12:07Z</time>
      </trkpt>
      <trkpt lat="44.22013" lon="7.11022">
        <ele>2306.3979492188</ele>
        <time>2012-08-26T08:12:08Z</time>
      </trkpt>
      <trkpt lat="44.22023" lon="7.1102">
        <ele>2301.97265625</ele>
        <time>2012-08-26T08:12:11Z</time>
      </trkpt>
      <trkpt lat="44.22035" lon="7.11022">
        <ele>2292.2158203125</ele>
        <time>2012-08-26T08:12:17Z</time>
      </trkpt>
      <trkpt lat="44.22039" lon="7.11017">
        <ele>2289.3435058594</ele>
        <time>2012-08-26T08:12:19Z</time>
      </trkpt>
      <trkpt lat="44.22044" lon="7.11013">
        <ele>2285.529296875</ele>
        <time>2012-08-26T08:12:21Z</time>
      </trkpt>
      <trkpt lat="44.2205" lon="7.11016">
        <ele>2279.7485351562</ele>
        <time>2012-08-26T08:12:25Z</time>
      </trkpt>
      <trkpt lat="44.22053" lon="7.11015">
        <ele>2276.6533203125</ele>
        <time>2012-08-26T08:12:27Z</time>
      </trkpt>
      <trkpt lat="44.22065" lon="7.11011">
        <ele>2268.3608398438</ele>
        <time>2012-08-26T08:12:31Z</time>
      </trkpt>
      <trkpt lat="44.22079" lon="7.11016">
        <ele>2258.2097167969</ele>
        <time>2012-08-26T08:12:37Z</time>
      </trkpt>
      <trkpt lat="44.22091" lon="7.11012">
        <ele>2249.5576171875</ele>
        <time>2012-08-26T08:12:41Z</time>
      </trkpt>
      <trkpt lat="44.22095" lon="7.11006">
        <ele>2245.6206054688</ele>
        <time>2012-08-26T08:12:45Z</time>
      </trkpt>
      <trkpt lat="44.22104" lon="7.11004">
        <ele>2238.0791015625</ele>
        <time>2012-08-26T08:12:49Z</time>
      </trkpt>
      <trkpt lat="44.22107" lon="7.11004">
        <ele>2235.4404296875</ele>
        <time>2012-08-26T08:12:50Z</time>
      </trkpt>
      <trkpt lat="44.22119" lon="7.1099">
        <ele>2227.6960449219</ele>
        <time>2012-08-26T08:12:56Z</time>
      </trkpt>
      <trkpt lat="44.22121" lon="7.10988">
        <ele>2226.8720703125</ele>
        <time>2012-08-26T08:12:57Z</time>
      </trkpt>
      <trkpt lat="44.22125" lon="7.10995">
        <ele>2224.89453125</ele>
        <time>2012-08-26T08:13:01Z</time>
      </trkpt>
      <trkpt lat="44.22126" lon="7.10998">
        <ele>2224.4001464844</ele>
        <time>2012-08-26T08:13:02Z</time>
      </trkpt>
      <trkpt lat="44.22133" lon="7.10994">
        <ele>2221.5986328125</ele>
        <time>2012-08-26T08:13:06Z</time>
      </trkpt>
      <trkpt lat="44.22141" lon="7.1098">
        <ele>2218.9177246094</ele>
        <time>2012-08-26T08:13:11Z</time>
      </trkpt>
      <trkpt lat="44.22148" lon="7.10984">
        <ele>2218.6433105469</ele>
        <time>2012-08-26T08:13:15Z</time>
      </trkpt>
      <trkpt lat="44.22153" lon="7.10987">
        <ele>2218.5307617188</ele>
        <time>2012-08-26T08:13:18Z</time>
      </trkpt>
      <trkpt lat="44.2216" lon="7.10987">
        <ele>2218.3129882812</ele>
        <time>2012-08-26T08:13:22Z</time>
      </trkpt>
      <trkpt lat="44.22169" lon="7.10981">
        <ele>2217.4182128906</ele>
        <time>2012-08-26T08:13:26Z</time>
      </trkpt>
      <trkpt lat="44.22175" lon="7.10975">
        <ele>2216.3569335938</ele>
        <time>2012-08-26T08:13:30Z</time>
      </trkpt>
      <trkpt lat="44.2218" lon="7.10975">
        <ele>2215.8999023438</ele>
        <time>2012-08-26T08:13:35Z</time>
      </trkpt>
      <trkpt lat="44.22179" lon="7.10974">
        <ele>2215.8278808594</ele>
        <time>2012-08-26T08:13:43Z</time>
      </trkpt>
      <trkpt lat="44.22181" lon="7.10971">
        <ele>2215.4174804688</ele>
        <time>2012-08-26T08:13:50Z</time>
      </trkpt>
      <trkpt lat="44.22183" lon="7.10972">
        <ele>2215.2341308594</ele>
        <time>2012-08-26T08:13:56Z</time>
      </trkpt>
      <trkpt lat="44.22186" lon="7.10972">
        <ele>2214.9689941406</ele>
        <time>2012-08-26T08:14:03Z</time>
      </trkpt>
      <trkpt lat="44.22186" lon="7.10968">
        <ele>2214.529296875</ele>
        <time>2012-08-26T08:14:10Z</time>
      </trkpt>
      <trkpt lat="44.22188" lon="7.10967">
        <ele>2214.13671875</ele>
        <time>2012-08-26T08:14:15Z</time>
      </trkpt>
      <trkpt lat="44.22189" lon="7.10967">
        <ele>2214.1120605469</ele>
        <time>2012-08-26T08:14:20Z</time>
      </trkpt>
      <trkpt lat="44.2219" lon="7.10968">
        <ele>2214.0151367188</ele>
        <time>2012-08-26T08:14:22Z</time>
      </trkpt>
      <trkpt lat="44.22195" lon="7.1097">
        <ele>2213.5070800781</ele>
        <time>2012-08-26T08:14:27Z</time>
      </trkpt>
      <trkpt lat="44.22197" lon="7.10967">
        <ele>2212.8168945312</ele>
        <time>2012-08-26T08:14:33Z</time>
      </trkpt>
      <trkpt lat="44.22197" lon="7.10963">
        <ele>2212.4541015625</ele>
        <time>2012-08-26T08:14:37Z</time>
      </trkpt>
      <trkpt lat="44.22197" lon="7.10962">
        <ele>2212.3513183594</ele>
        <time>2012-08-26T08:14:41Z</time>
      </trkpt>
      <trkpt lat="44.22197" lon="7.10961">
        <ele>2211.9248046875</ele>
        <time>2012-08-26T08:14:51Z</time>
      </trkpt>
      <trkpt lat="44.22198" lon="7.10962">
        <ele>2211.9284667969</ele>
        <time>2012-08-26T08:14:58Z</time>
      </trkpt>
      <trkpt lat="44.22197" lon="7.1096">
        <ele>2211.8203125</ele>
        <time>2012-08-26T08:15:07Z</time>
      </trkpt>
      <trkpt lat="44.22199" lon="7.10952">
        <ele>2210.48046875</ele>
        <time>2012-08-26T08:15:11Z</time>
      </trkpt>
      <trkpt lat="44.22199" lon="7.1095">
        <ele>2210.1459960938</ele>
        <time>2012-08-26T08:15:12Z</time>
      </trkpt>
      <trkpt lat="44.22203" lon="7.1095">
        <ele>2208.7749023438</ele>
        <time>2012-08-26T08:15:16Z</time>
      </trkpt>
      <trkpt lat="44.22211" lon="7.10959">
        <ele>2207.783203125</ele>
        <time>2012-08-26T08:15:20Z</time>
      </trkpt>
      <trkpt lat="44.22215" lon="7.10961">
        <ele>2207.01171875</ele>
        <time>2012-08-26T08:15:23Z</time>
      </trkpt>
      <trkpt lat="44.22214" lon="7.10957">
        <ele>2206.7160644531</ele>
        <time>2012-08-26T08:15:26Z</time>
      </trkpt>
      <trkpt lat="44.22211" lon="7.10951">
        <ele>2206.5134277344</ele>
        <time>2012-08-26T08:15:29Z</time>
      </trkpt>
      <trkpt lat="44.22212" lon="7.10949">
        <ele>2205.8974609375</ele>
        <time>2012-08-26T08:15:33Z</time>
      </trkpt>
      <trkpt lat="44.22212" lon="7.10949">
        <ele>2206.0678710938</ele>
        <time>2012-08-26T08:15:37Z</time>
      </trkpt>
      <trkpt lat="44.22213" lon="7.10948">
        <ele>2205.4045410156</ele>
        <time>2012-08-26T08:15:43Z</time>
      </trkpt>
      <trkpt lat="44.22216" lon="7.1095">
        <ele>2204.9694824219</ele>
        <time>2012-08-26T08:15:48Z</time>
      </trkpt>
      <trkpt lat="44.22228" lon="7.10956">
        <ele>2203.3498535156</ele>
        <time>2012-08-26T08:15:53Z</time>
      </trkpt>
      <trkpt lat="44.22232" lon="7.10957">
        <ele>2202.83203125</ele>
        <time>2012-08-26T08:15:55Z</time>
      </trkpt>
      <trkpt lat="44.22234" lon="7.10955">
        <ele>2202.2978515625</ele>
        <time>2012-08-26T08:15:59Z</time>
      </trkpt>
      <trkpt lat="44.22225" lon="7.10942">
        <ele>2201.3132324219</ele>
        <time>2012-08-26T08:16:03Z</time>
      </trkpt>
      <trkpt lat="44.22222" lon="7.10935">
        <ele>2200.7998046875</ele>
        <time>2012-08-26T08:16:05Z</time>
      </trkpt>
      <trkpt lat="44.22225" lon="7.10933">
        <ele>2199.9028320312</ele>
        <time>2012-08-26T08:16:09Z</time>
      </trkpt>
      <trkpt lat="44.22234" lon="7.10937">
        <ele>2199.5190429688</ele>
        <time>2012-08-26T08:16:13Z</time>
      </trkpt>
      <trkpt lat="44.22232" lon="7.10929">
        <ele>2198.2822265625</ele>
        <time>2012-08-26T08:16:16Z</time>
      </trkpt>
      <trkpt lat="44.22227" lon="7.10913">
        <ele>2196.7309570312</ele>
        <time>2012-08-26T08:16:20Z</time>
      </trkpt>
      <trkpt lat="44.22224" lon="7.1091">
        <ele>2196.8110351562</ele>
        <time>2012-08-26T08:16:21Z</time>
      </trkpt>
      <trkpt lat="44.22206" lon="7.10893">
        <ele>2200.8754882812</ele>
        <time>2012-08-26T08:16:28Z</time>
      </trkpt>
      <trkpt lat="44.22203" lon="7.10889">
        <ele>2201.2416992188</ele>
        <time>2012-08-26T08:16:29Z</time>
      </trkpt>
      <trkpt lat="44.22202" lon="7.1087">
        <ele>2201.4545898438</ele>
        <time>2012-08-26T08:16:34Z</time>
      </trkpt>
      <trkpt lat="44.22208" lon="7.10853">
        <ele>2200.048828125</ele>
        <time>2012-08-26T08:16:38Z</time>
      </trkpt>
      <trkpt lat="44.22215" lon="7.10834">
        <ele>2199.0319824219</ele>
        <time>2012-08-26T08:16:42Z</time>
      </trkpt>
      <trkpt lat="44.22226" lon="7.10811">
        <ele>2196.0017089844</ele>
        <time>2012-08-26T08:16:47Z</time>
      </trkpt>
      <trkpt lat="44.22229" lon="7.10807">
        <ele>2195.7229003906</ele>
        <time>2012-08-26T08:16:48Z</time>
      </trkpt>
      <trkpt lat="44.2224" lon="7.10794">
        <ele>2194.5671386719</ele>
        <time>2012-08-26T08:16:51Z</time>
      </trkpt>
      <trkpt lat="44.22251" lon="7.10781">
        <ele>2193.3889160156</ele>
        <time>2012-08-26T08:16:56Z</time>
      </trkpt>
      <trkpt lat="44.2227" lon="7.10772">
        <ele>2187.2741699219</ele>
        <time>2012-08-26T08:17:01Z</time>
      </trkpt>
      <trkpt lat="44.22271" lon="7.10771">
        <ele>2186.9069824219</ele>
        <time>2012-08-26T08:17:04Z</time>
      </trkpt>
      <trkpt lat="44.2227" lon="7.10771">
        <ele>2187.181640625</ele>
        <time>2012-08-26T08:17:12Z</time>
      </trkpt>
      <trkpt lat="44.2227" lon="7.10771">
        <ele>2187.3291015625</ele>
        <time>2012-08-26T08:17:30Z</time>
      </trkpt>
      <trkpt lat="44.22265" lon="7.10773">
        <ele>2189.0251464844</ele>
        <time>2012-08-26T08:17:50Z</time>
      </trkpt>
      <trkpt lat="44.22266" lon="7.10772">
        <ele>2188.541015625</ele>
        <time>2012-08-26T08:17:56Z</time>
      </trkpt>
      <trkpt lat="44.22268" lon="7.10772">
        <ele>2187.84765625</ele>
        <time>2012-08-26T08:18:10Z</time>
      </trkpt>
      <trkpt lat="44.22268" lon="7.10772">
        <ele>2187.8029785156</ele>
        <time>2012-08-26T08:18:13Z</time>
      </trkpt>
      <trkpt lat="44.2227" lon="7.10774">
        <ele>2187.1369628906</ele>
        <time>2012-08-26T08:19:04Z</time>
      </trkpt>
      <trkpt lat="44.22269" lon="7.10772">
        <ele>2187.5522460938</ele>
        <time>2012-08-26T08:19:08Z</time>
      </trkpt>
      <trkpt lat="44.22269" lon="7.10772">
        <ele>2187.5866699219</ele>
        <time>2012-08-26T08:19:20Z</time>
      </trkpt>
      <trkpt lat="44.22282" lon="7.1077">
        <ele>2182.5649414062</ele>
        <time>2012-08-26T08:19:26Z</time>
      </trkpt>
      <trkpt lat="44.22291" lon="7.1077">
        <ele>2178.4553222656</ele>
        <time>2012-08-26T08:19:29Z</time>
      </trkpt>
      <trkpt lat="44.22296" lon="7.10772">
        <ele>2175.8425292969</ele>
        <time>2012-08-26T08:19:32Z</time>
      </trkpt>
      <trkpt lat="44.22304" lon="7.10768">
        <ele>2172.3647460938</ele>
        <time>2012-08-26T08:19:36Z</time>
      </trkpt>
      <trkpt lat="44.22313" lon="7.1076">
        <ele>2167.9948730469</ele>
        <time>2012-08-26T08:19:40Z</time>
      </trkpt>
      <trkpt lat="44.22328" lon="7.10744">
        <ele>2161.4484863281</ele>
        <time>2012-08-26T08:19:47Z</time>
      </trkpt>
      <trkpt lat="44.22336" lon="7.10727">
        <ele>2157.677734375</ele>
        <time>2012-08-26T08:19:53Z</time>
      </trkpt>
      <trkpt lat="44.2235" lon="7.10712">
        <ele>2149.6848144531</ele>
        <time>2012-08-26T08:19:58Z</time>
      </trkpt>
      <trkpt lat="44.22357" lon="7.10702">
        <ele>2146.4890136719</ele>
        <time>2012-08-26T08:20:02Z</time>
      </trkpt>
      <trkpt lat="44.22358" lon="7.10701">
        <ele>2145.7731933594</ele>
        <time>2012-08-26T08:20:03Z</time>
      </trkpt>
      <trkpt lat="44.22355" lon="7.10696">
        <ele>2148.4169921875</ele>
        <time>2012-08-26T08:20:19Z</time>
      </trkpt>
      <trkpt lat="44.22354" lon="7.10695">
        <ele>2148.9384765625</ele>
        <time>2012-08-26T08:20:22Z</time>
      </trkpt>
      <trkpt lat="44.22348" lon="7.10691">
        <ele>2152.9375</ele>
        <time>2012-08-26T08:20:28Z</time>
      </trkpt>
      <trkpt lat="44.22345" lon="7.10689">
        <ele>2154.9057617188</ele>
        <time>2012-08-26T08:20:31Z</time>
      </trkpt>
      <trkpt lat="44.22344" lon="7.1069">
        <ele>2155.2180175781</ele>
        <time>2012-08-26T08:20:46Z</time>
      </trkpt>
      <trkpt lat="44.22342" lon="7.10689">
        <ele>2156.5236816406</ele>
        <time>2012-08-26T08:20:53Z</time>
      </trkpt>
      <trkpt lat="44.22339" lon="7.10688">
        <ele>2158.5141601562</ele>
        <time>2012-08-26T08:20:56Z</time>
      </trkpt>
      <trkpt lat="44.22334" lon="7.10684">
        <ele>2162.0126953125</ele>
        <time>2012-08-26T08:21:02Z</time>
      </trkpt>
      <trkpt lat="44.22326" lon="7.10681">
        <ele>2166.4294433594</ele>
        <time>2012-08-26T08:21:09Z</time>
      </trkpt>
      <trkpt lat="44.22321" lon="7.10676">
        <ele>2169.8525390625</ele>
        <time>2012-08-26T08:21:15Z</time>
      </trkpt>
      <trkpt lat="44.22314" lon="7.10675">
        <ele>2173.5109863281</ele>
        <time>2012-08-26T08:21:21Z</time>
      </trkpt>
      <trkpt lat="44.22313" lon="7.10674">
        <ele>2174.1999511719</ele>
        <time>2012-08-26T08:21:22Z</time>
      </trkpt>
      <trkpt lat="44.22314" lon="7.10663">
        <ele>2174.7897949219</ele>
        <time>2012-08-26T08:21:29Z</time>
      </trkpt>
      <trkpt lat="44.22319" lon="7.1066">
        <ele>2172.2583007812</ele>
        <time>2012-08-26T08:21:33Z</time>
      </trkpt>
      <trkpt lat="44.22328" lon="7.10657">
        <ele>2167.4033203125</ele>
        <time>2012-08-26T08:21:41Z</time>
      </trkpt>
      <trkpt lat="44.22332" lon="7.10647">
        <ele>2166.3037109375</ele>
        <time>2012-08-26T08:21:48Z</time>
      </trkpt>
      <trkpt lat="44.22327" lon="7.10639">
        <ele>2169.3562011719</ele>
        <time>2012-08-26T08:21:55Z</time>
      </trkpt>
      <trkpt lat="44.22318" lon="7.10637">
        <ele>2174.0822753906</ele>
        <time>2012-08-26T08:22:03Z</time>
      </trkpt>
      <trkpt lat="44.2231" lon="7.10639">
        <ele>2177.8142089844</ele>
        <time>2012-08-26T08:22:10Z</time>
      </trkpt>
      <trkpt lat="44.22302" lon="7.10641">
        <ele>2181.7077636719</ele>
        <time>2012-08-26T08:22:17Z</time>
      </trkpt>
      <trkpt lat="44.22295" lon="7.10641">
        <ele>2185.7893066406</ele>
        <time>2012-08-26T08:22:24Z</time>
      </trkpt>
      <trkpt lat="44.22286" lon="7.10642">
        <ele>2190.3444824219</ele>
        <time>2012-08-26T08:22:31Z</time>
      </trkpt>
      <trkpt lat="44.22277" lon="7.10645">
        <ele>2194.6298828125</ele>
        <time>2012-08-26T08:22:39Z</time>
      </trkpt>
      <trkpt lat="44.22268" lon="7.1065">
        <ele>2198.2502441406</ele>
        <time>2012-08-26T08:22:47Z</time>
      </trkpt>
      <trkpt lat="44.22256" lon="7.10653">
        <ele>2203.0600585938</ele>
        <time>2012-08-26T08:22:56Z</time>
      </trkpt>
      <trkpt lat="44.22247" lon="7.10655">
        <ele>2205.873046875</ele>
        <time>2012-08-26T08:23:04Z</time>
      </trkpt>
      <trkpt lat="44.22244" lon="7.10655">
        <ele>2206.5668945312</ele>
        <time>2012-08-26T08:23:07Z</time>
      </trkpt>
      <trkpt lat="44.2224" lon="7.10655">
        <ele>2207.6181640625</ele>
        <time>2012-08-26T08:23:12Z</time>
      </trkpt>
      <trkpt lat="44.22233" lon="7.10658">
        <ele>2208.8244628906</ele>
        <time>2012-08-26T08:23:20Z</time>
      </trkpt>
      <trkpt lat="44.22229" lon="7.10665">
        <ele>2208.7814941406</ele>
        <time>2012-08-26T08:23:26Z</time>
      </trkpt>
      <trkpt lat="44.22227" lon="7.10667">
        <ele>2208.8901367188</ele>
        <time>2012-08-26T08:23:29Z</time>
      </trkpt>
      <trkpt lat="44.22224" lon="7.10673">
        <ele>2208.5661621094</ele>
        <time>2012-08-26T08:23:33Z</time>
      </trkpt>
      <trkpt lat="44.22215" lon="7.10681">
        <ele>2209.8298339844</ele>
        <time>2012-08-26T08:23:42Z</time>
      </trkpt>
      <trkpt lat="44.2221" lon="7.10689">
        <ele>2210.5532226562</ele>
        <time>2012-08-26T08:23:48Z</time>
      </trkpt>
      <trkpt lat="44.22207" lon="7.10701">
        <ele>2210.3959960938</ele>
        <time>2012-08-26T08:23:55Z</time>
      </trkpt>
      <trkpt lat="44.22205" lon="7.10711">
        <ele>2210.5905761719</ele>
        <time>2012-08-26T08:24:01Z</time>
      </trkpt>
      <trkpt lat="44.22203" lon="7.1072">
        <ele>2210.6506347656</ele>
        <time>2012-08-26T08:24:07Z</time>
      </trkpt>
      <trkpt lat="44.22203" lon="7.10732">
        <ele>2210.2641601562</ele>
        <time>2012-08-26T08:24:14Z</time>
      </trkpt>
      <trkpt lat="44.22206" lon="7.10745">
        <ele>2207.6599121094</ele>
        <time>2012-08-26T08:24:22Z</time>
      </trkpt>
      <trkpt lat="44.22205" lon="7.10755">
        <ele>2207.7058105469</ele>
        <time>2012-08-26T08:24:28Z</time>
      </trkpt>
      <trkpt lat="44.22201" lon="7.10763">
        <ele>2209.5700683594</ele>
        <time>2012-08-26T08:24:33Z</time>
      </trkpt>
      <trkpt lat="44.22193" lon="7.10773">
        <ele>2212.5463867188</ele>
        <time>2012-08-26T08:24:41Z</time>
      </trkpt>
      <trkpt lat="44.22188" lon="7.1078">
        <ele>2213.7409667969</ele>
        <time>2012-08-26T08:24:47Z</time>
      </trkpt>
      <trkpt lat="44.22181" lon="7.10786">
        <ele>2215.3349609375</ele>
        <time>2012-08-26T08:24:54Z</time>
      </trkpt>
      <trkpt lat="44.22175" lon="7.10793">
        <ele>2216.8244628906</ele>
        <time>2012-08-26T08:25:02Z</time>
      </trkpt>
      <trkpt lat="44.22171" lon="7.10801">
        <ele>2217.9147949219</ele>
        <time>2012-08-26T08:25:09Z</time>
      </trkpt>
      <trkpt lat="44.22168" lon="7.10808">
        <ele>2218.2893066406</ele>
        <time>2012-08-26T08:25:15Z</time>
      </trkpt>
      <trkpt lat="44.22166" lon="7.10815">
        <ele>2218.0961914062</ele>
        <time>2012-08-26T08:25:21Z</time>
      </trkpt>
      <trkpt lat="44.22165" lon="7.10822">
        <ele>2217.5556640625</ele>
        <time>2012-08-26T08:25:26Z</time>
      </trkpt>
      <trkpt lat="44.22163" lon="7.10829">
        <ele>2217.0422363281</ele>
        <time>2012-08-26T08:25:32Z</time>
      </trkpt>
      <trkpt lat="44.22161" lon="7.10838">
        <ele>2216.3381347656</ele>
        <time>2012-08-26T08:25:38Z</time>
      </trkpt>
      <trkpt lat="44.22158" lon="7.10849">
        <ele>2215.8571777344</ele>
        <time>2012-08-26T08:25:47Z</time>
      </trkpt>
      <trkpt lat="44.22155" lon="7.10853">
        <ele>2216.1801757812</ele>
        <time>2012-08-26T08:25:51Z</time>
      </trkpt>
      <trkpt lat="44.22145" lon="7.10865">
        <ele>2217.4223632812</ele>
        <time>2012-08-26T08:26:01Z</time>
      </trkpt>
      <trkpt lat="44.2214" lon="7.10876">
        <ele>2218.2153320312</ele>
        <time>2012-08-26T08:26:09Z</time>
      </trkpt>
      <trkpt lat="44.22141" lon="7.10882">
        <ele>2217.8342285156</ele>
        <time>2012-08-26T08:26:14Z</time>
      </trkpt>
      <trkpt lat="44.22147" lon="7.1089">
        <ele>2216.3393554688</ele>
        <time>2012-08-26T08:26:21Z</time>
      </trkpt>
      <trkpt lat="44.22145" lon="7.10898">
        <ele>2216.7353515625</ele>
        <time>2012-08-26T08:26:28Z</time>
      </trkpt>
      <trkpt lat="44.2214" lon="7.10899">
        <ele>2217.75</ele>
        <time>2012-08-26T08:26:33Z</time>
      </trkpt>
      <trkpt lat="44.22139" lon="7.10899">
        <ele>2217.9821777344</ele>
        <time>2012-08-26T08:26:34Z</time>
      </trkpt>
      <trkpt lat="44.22136" lon="7.10895">
        <ele>2219.5654296875</ele>
        <time>2012-08-26T08:26:38Z</time>
      </trkpt>
      <trkpt lat="44.22132" lon="7.10887">
        <ele>2221.2260742188</ele>
        <time>2012-08-26T08:26:44Z</time>
      </trkpt>
      <trkpt lat="44.22131" lon="7.10874">
        <ele>2222.2563476562</ele>
        <time>2012-08-26T08:26:52Z</time>
      </trkpt>
      <trkpt lat="44.22133" lon="7.10866">
        <ele>2221.462890625</ele>
        <time>2012-08-26T08:26:57Z</time>
      </trkpt>
      <trkpt lat="44.22135" lon="7.10851">
        <ele>2220.9174804688</ele>
        <time>2012-08-26T08:27:06Z</time>
      </trkpt>
      <trkpt lat="44.22138" lon="7.1084">
        <ele>2220.1945800781</ele>
        <time>2012-08-26T08:27:13Z</time>
      </trkpt>
      <trkpt lat="44.22141" lon="7.10828">
        <ele>2220.3518066406</ele>
        <time>2012-08-26T08:27:20Z</time>
      </trkpt>
      <trkpt lat="44.22144" lon="7.10816">
        <ele>2221.2204589844</ele>
        <time>2012-08-26T08:27:27Z</time>
      </trkpt>
      <trkpt lat="44.22145" lon="7.10812">
        <ele>2221.404296875</ele>
        <time>2012-08-26T08:27:30Z</time>
      </trkpt>
      <trkpt lat="44.22145" lon="7.10809">
        <ele>2221.7233886719</ele>
        <time>2012-08-26T08:27:32Z</time>
      </trkpt>
      <trkpt lat="44.22139" lon="7.10799">
        <ele>2223.4291992188</ele>
        <time>2012-08-26T08:27:39Z</time>
      </trkpt>
      <trkpt lat="44.22132" lon="7.10797">
        <ele>2225.3481445312</ele>
        <time>2012-08-26T08:27:44Z</time>
      </trkpt>
      <trkpt lat="44.22126" lon="7.10783">
        <ele>2227.2844238281</ele>
        <time>2012-08-26T08:27:53Z</time>
      </trkpt>
      <trkpt lat="44.22124" lon="7.10774">
        <ele>2227.1169433594</ele>
        <time>2012-08-26T08:27:59Z</time>
      </trkpt>
      <trkpt lat="44.2212" lon="7.10768">
        <ele>2226.7963867188</ele>
        <time>2012-08-26T08:28:04Z</time>
      </trkpt>
      <trkpt lat="44.22116" lon="7.10756">
        <ele>2225.4284667969</ele>
        <time>2012-08-26T08:28:12Z</time>
      </trkpt>
      <trkpt lat="44.22115" lon="7.10749">
        <ele>2224.4572753906</ele>
        <time>2012-08-26T08:28:17Z</time>
      </trkpt>
      <trkpt lat="44.22113" lon="7.10741">
        <ele>2223.2661132812</ele>
        <time>2012-08-26T08:28:22Z</time>
      </trkpt>
      <trkpt lat="44.22116" lon="7.10735">
        <ele>2221.8901367188</ele>
        <time>2012-08-26T08:28:28Z</time>
      </trkpt>
      <trkpt lat="44.22124" lon="7.10732">
        <ele>2220.8818359375</ele>
        <time>2012-08-26T08:28:36Z</time>
      </trkpt>
      <trkpt lat="44.22128" lon="7.10727">
        <ele>2220.1081542969</ele>
        <time>2012-08-26T08:28:40Z</time>
      </trkpt>
      <trkpt lat="44.22129" lon="7.10718">
        <ele>2219.31640625</ele>
        <time>2012-08-26T08:28:46Z</time>
      </trkpt>
      <trkpt lat="44.22123" lon="7.10713">
        <ele>2219.3891601562</ele>
        <time>2012-08-26T08:28:52Z</time>
      </trkpt>
      <trkpt lat="44.22118" lon="7.10713">
        <ele>2219.5063476562</ele>
        <time>2012-08-26T08:28:56Z</time>
      </trkpt>
      <trkpt lat="44.22108" lon="7.10714">
        <ele>2220.7570800781</ele>
        <time>2012-08-26T08:29:04Z</time>
      </trkpt>
      <trkpt lat="44.221" lon="7.10715">
        <ele>2223.1149902344</ele>
        <time>2012-08-26T08:29:10Z</time>
      </trkpt>
      <trkpt lat="44.2209" lon="7.10713">
        <ele>2226.1083984375</ele>
        <time>2012-08-26T08:29:18Z</time>
      </trkpt>
      <trkpt lat="44.22078" lon="7.10711">
        <ele>2229.603515625</ele>
        <time>2012-08-26T08:29:27Z</time>
      </trkpt>
      <trkpt lat="44.22067" lon="7.10708">
        <ele>2233.4233398438</ele>
        <time>2012-08-26T08:29:36Z</time>
      </trkpt>
      <trkpt lat="44.22055" lon="7.10704">
        <ele>2236.7966308594</ele>
        <time>2012-08-26T08:29:45Z</time>
      </trkpt>
      <trkpt lat="44.22044" lon="7.10699">
        <ele>2237.77734375</ele>
        <time>2012-08-26T08:29:54Z</time>
      </trkpt>
      <trkpt lat="44.22035" lon="7.10691">
        <ele>2238.9729003906</ele>
        <time>2012-08-26T08:30:02Z</time>
      </trkpt>
      <trkpt lat="44.22026" lon="7.10687">
        <ele>2241.390625</ele>
        <time>2012-08-26T08:30:10Z</time>
      </trkpt>
      <trkpt lat="44.22018" lon="7.1068">
        <ele>2244.2712402344</ele>
        <time>2012-08-26T08:30:18Z</time>
      </trkpt>
      <trkpt lat="44.2201" lon="7.10674">
        <ele>2247.3747558594</ele>
        <time>2012-08-26T08:30:27Z</time>
      </trkpt>
      <trkpt lat="44.22004" lon="7.10671">
        <ele>2249.3986816406</ele>
        <time>2012-08-26T08:30:33Z</time>
      </trkpt>
      <trkpt lat="44.22" lon="7.10668">
        <ele>2250.7702636719</ele>
        <time>2012-08-26T08:30:37Z</time>
      </trkpt>
      <trkpt lat="44.21999" lon="7.10668">
        <ele>2251.1284179688</ele>
        <time>2012-08-26T08:30:42Z</time>
      </trkpt>
      <trkpt lat="44.21996" lon="7.10665">
        <ele>2252.4694824219</ele>
        <time>2012-08-26T08:30:48Z</time>
      </trkpt>
      <trkpt lat="44.21994" lon="7.10662">
        <ele>2253.8967285156</ele>
        <time>2012-08-26T08:30:54Z</time>
      </trkpt>
      <trkpt lat="44.2199" lon="7.10655">
        <ele>2256.5888671875</ele>
        <time>2012-08-26T08:31:00Z</time>
      </trkpt>
      <trkpt lat="44.21987" lon="7.10642">
        <ele>2260.8249511719</ele>
        <time>2012-08-26T08:31:08Z</time>
      </trkpt>
      <trkpt lat="44.21986" lon="7.10632">
        <ele>2264.3747558594</ele>
        <time>2012-08-26T08:31:15Z</time>
      </trkpt>
      <trkpt lat="44.21989" lon="7.10622">
        <ele>2266.5051269531</ele>
        <time>2012-08-26T08:31:22Z</time>
      </trkpt>
      <trkpt lat="44.21996" lon="7.1061">
        <ele>2268.5275878906</ele>
        <time>2012-08-26T08:31:31Z</time>
      </trkpt>
      <trkpt lat="44.22" lon="7.10602">
        <ele>2270.5485839844</ele>
        <time>2012-08-26T08:31:38Z</time>
      </trkpt>
      <trkpt lat="44.22005" lon="7.10594">
        <ele>2272.3630371094</ele>
        <time>2012-08-26T08:31:45Z</time>
      </trkpt>
      <trkpt lat="44.22007" lon="7.10588">
        <ele>2273.8969726562</ele>
        <time>2012-08-26T08:31:49Z</time>
      </trkpt>
      <trkpt lat="44.22016" lon="7.10578">
        <ele>2277.3002929688</ele>
        <time>2012-08-26T08:31:59Z</time>
      </trkpt>
      <trkpt lat="44.22023" lon="7.10571">
        <ele>2281.1008300781</ele>
        <time>2012-08-26T08:32:07Z</time>
      </trkpt>
      <trkpt lat="44.22033" lon="7.10566">
        <ele>2283.181640625</ele>
        <time>2012-08-26T08:32:16Z</time>
      </trkpt>
      <trkpt lat="44.22038" lon="7.10562">
        <ele>2285.4816894531</ele>
        <time>2012-08-26T08:32:21Z</time>
      </trkpt>
      <trkpt lat="44.22044" lon="7.10557">
        <ele>2287.6215820312</ele>
        <time>2012-08-26T08:32:27Z</time>
      </trkpt>
      <trkpt lat="44.22047" lon="7.10555">
        <ele>2288.76171875</ele>
        <time>2012-08-26T08:32:30Z</time>
      </trkpt>
      <trkpt lat="44.22049" lon="7.10547">
        <ele>2292.6635742188</ele>
        <time>2012-08-26T08:32:35Z</time>
      </trkpt>
      <trkpt lat="44.22048" lon="7.10544">
        <ele>2294.1723632812</ele>
        <time>2012-08-26T08:32:37Z</time>
      </trkpt>
      <trkpt lat="44.22042" lon="7.10543">
        <ele>2295.6396484375</ele>
        <time>2012-08-26T08:32:42Z</time>
      </trkpt>
      <trkpt lat="44.22035" lon="7.10544">
        <ele>2296.1687011719</ele>
        <time>2012-08-26T08:32:49Z</time>
      </trkpt>
      <trkpt lat="44.22027" lon="7.10548">
        <ele>2295.9431152344</ele>
        <time>2012-08-26T08:32:57Z</time>
      </trkpt>
      <trkpt lat="44.2202" lon="7.10551">
        <ele>2296.0988769531</ele>
        <time>2012-08-26T08:33:03Z</time>
      </trkpt>
      <trkpt lat="44.22015" lon="7.10544">
        <ele>2300.09765625</ele>
        <time>2012-08-26T08:33:11Z</time>
      </trkpt>
      <trkpt lat="44.22019" lon="7.10537">
        <ele>2301.9538574219</ele>
        <time>2012-08-26T08:33:16Z</time>
      </trkpt>
      <trkpt lat="44.22031" lon="7.10531">
        <ele>2303.09375</ele>
        <time>2012-08-26T08:33:25Z</time>
      </trkpt>
      <trkpt lat="44.22038" lon="7.10527">
        <ele>2304.0029296875</ele>
        <time>2012-08-26T08:33:31Z</time>
      </trkpt>
      <trkpt lat="44.2204" lon="7.10525">
        <ele>2304.4614257812</ele>
        <time>2012-08-26T08:33:33Z</time>
      </trkpt>
      <trkpt lat="44.22041" lon="7.1052">
        <ele>2305.7287597656</ele>
        <time>2012-08-26T08:33:37Z</time>
      </trkpt>
      <trkpt lat="44.22037" lon="7.10518">
        <ele>2306.5646972656</ele>
        <time>2012-08-26T08:33:41Z</time>
      </trkpt>
      <trkpt lat="44.22025" lon="7.10523">
        <ele>2306.3720703125</ele>
        <time>2012-08-26T08:33:50Z</time>
      </trkpt>
      <trkpt lat="44.22015" lon="7.10524">
        <ele>2306.6970214844</ele>
        <time>2012-08-26T08:33:57Z</time>
      </trkpt>
      <trkpt lat="44.22007" lon="7.10527">
        <ele>2306.6474609375</ele>
        <time>2012-08-26T08:34:04Z</time>
      </trkpt>
      <trkpt lat="44.21994" lon="7.1053">
        <ele>2306.3708496094</ele>
        <time>2012-08-26T08:34:13Z</time>
      </trkpt>
      <trkpt lat="44.21985" lon="7.10534">
        <ele>2305.0905761719</ele>
        <time>2012-08-26T08:34:21Z</time>
      </trkpt>
      <trkpt lat="44.21983" lon="7.10536">
        <ele>2304.6833496094</ele>
        <time>2012-08-26T08:34:23Z</time>
      </trkpt>
      <trkpt lat="44.21976" lon="7.10541">
        <ele>2302.7121582031</ele>
        <time>2012-08-26T08:34:30Z</time>
      </trkpt>
      <trkpt lat="44.21973" lon="7.10543">
        <ele>2302.1418457031</ele>
        <time>2012-08-26T08:34:32Z</time>
      </trkpt>
      <trkpt lat="44.21966" lon="7.10549">
        <ele>2300.8115234375</ele>
        <time>2012-08-26T08:34:40Z</time>
      </trkpt>
      <trkpt lat="44.21961" lon="7.10554">
        <ele>2299.9296875</ele>
        <time>2012-08-26T08:34:45Z</time>
      </trkpt>
      <trkpt lat="44.21953" lon="7.10557">
        <ele>2300.0461425781</ele>
        <time>2012-08-26T08:34:53Z</time>
      </trkpt>
      <trkpt lat="44.21951" lon="7.10547">
        <ele>2302.8305664062</ele>
        <time>2012-08-26T08:34:59Z</time>
      </trkpt>
      <trkpt lat="44.21957" lon="7.10542">
        <ele>2303.4233398438</ele>
        <time>2012-08-26T08:35:04Z</time>
      </trkpt>
      <trkpt lat="44.21966" lon="7.10535">
        <ele>2304.900390625</ele>
        <time>2012-08-26T08:35:12Z</time>
      </trkpt>
      <trkpt lat="44.21974" lon="7.10526">
        <ele>2307.5483398438</ele>
        <time>2012-08-26T08:35:21Z</time>
      </trkpt>
      <trkpt lat="44.21981" lon="7.10515">
        <ele>2310.4196777344</ele>
        <time>2012-08-26T08:35:30Z</time>
      </trkpt>
      <trkpt lat="44.21987" lon="7.10509">
        <ele>2311.5944824219</ele>
        <time>2012-08-26T08:35:37Z</time>
      </trkpt>
      <trkpt lat="44.21993" lon="7.10507">
        <ele>2311.7573242188</ele>
        <time>2012-08-26T08:35:42Z</time>
      </trkpt>
      <trkpt lat="44.21999" lon="7.105">
        <ele>2313.1213378906</ele>
        <time>2012-08-26T08:35:50Z</time>
      </trkpt>
      <trkpt lat="44.21998" lon="7.10496">
        <ele>2314.0207519531</ele>
        <time>2012-08-26T08:35:53Z</time>
      </trkpt>
      <trkpt lat="44.21993" lon="7.10495">
        <ele>2314.6662597656</ele>
        <time>2012-08-26T08:35:57Z</time>
      </trkpt>
      <trkpt lat="44.21982" lon="7.10502">
        <ele>2313.8190917969</ele>
        <time>2012-08-26T08:36:05Z</time>
      </trkpt>
      <trkpt lat="44.21975" lon="7.10507">
        <ele>2312.7873535156</ele>
        <time>2012-08-26T08:36:11Z</time>
      </trkpt>
      <trkpt lat="44.21967" lon="7.10513">
        <ele>2311.0744628906</ele>
        <time>2012-08-26T08:36:17Z</time>
      </trkpt>
      <trkpt lat="44.21956" lon="7.10518">
        <ele>2309.2890625</ele>
        <time>2012-08-26T08:36:25Z</time>
      </trkpt>
      <trkpt lat="44.21949" lon="7.10525">
        <ele>2307.4606933594</ele>
        <time>2012-08-26T08:36:31Z</time>
      </trkpt>
      <trkpt lat="44.21943" lon="7.10533">
        <ele>2305.8757324219</ele>
        <time>2012-08-26T08:36:37Z</time>
      </trkpt>
      <trkpt lat="44.21939" lon="7.10525">
        <ele>2306.5441894531</ele>
        <time>2012-08-26T08:36:43Z</time>
      </trkpt>
      <trkpt lat="44.21942" lon="7.10522">
        <ele>2307.5573730469</ele>
        <time>2012-08-26T08:36:45Z</time>
      </trkpt>
      <trkpt lat="44.21952" lon="7.10512">
        <ele>2310.2561035156</ele>
        <time>2012-08-26T08:36:53Z</time>
      </trkpt>
      <trkpt lat="44.21962" lon="7.10502">
        <ele>2313.455078125</ele>
        <time>2012-08-26T08:37:02Z</time>
      </trkpt>
      <trkpt lat="44.21972" lon="7.10492">
        <ele>2316.5559082031</ele>
        <time>2012-08-26T08:37:10Z</time>
      </trkpt>
      <trkpt lat="44.21981" lon="7.10481">
        <ele>2318.5388183594</ele>
        <time>2012-08-26T08:37:19Z</time>
      </trkpt>
      <trkpt lat="44.2198" lon="7.10469">
        <ele>2320.587890625</ele>
        <time>2012-08-26T08:37:26Z</time>
      </trkpt>
      <trkpt lat="44.21975" lon="7.10469">
        <ele>2320.8420410156</ele>
        <time>2012-08-26T08:37:30Z</time>
      </trkpt>
      <trkpt lat="44.21973" lon="7.1047">
        <ele>2320.9526367188</ele>
        <time>2012-08-26T08:37:32Z</time>
      </trkpt>
      <trkpt lat="44.21969" lon="7.10469">
        <ele>2319.85546875</ele>
        <time>2012-08-26T08:37:36Z</time>
      </trkpt>
      <trkpt lat="44.21963" lon="7.1047">
        <ele>2317.9733886719</ele>
        <time>2012-08-26T08:37:41Z</time>
      </trkpt>
      <trkpt lat="44.21958" lon="7.10467">
        <ele>2315.5217285156</ele>
        <time>2012-08-26T08:37:46Z</time>
      </trkpt>
      <trkpt lat="44.21947" lon="7.10469">
        <ele>2312.6447753906</ele>
        <time>2012-08-26T08:37:56Z</time>
      </trkpt>
      <trkpt lat="44.21945" lon="7.10472">
        <ele>2313.158203125</ele>
        <time>2012-08-26T08:37:59Z</time>
      </trkpt>
      <trkpt lat="44.21938" lon="7.10474">
        <ele>2307.6208496094</ele>
        <time>2012-08-26T08:38:07Z</time>
      </trkpt>
      <trkpt lat="44.21932" lon="7.10469">
        <ele>2301.2990722656</ele>
        <time>2012-08-26T08:38:14Z</time>
      </trkpt>
      <trkpt lat="44.21931" lon="7.10468">
        <ele>2300.0014648438</ele>
        <time>2012-08-26T08:38:15Z</time>
      </trkpt>
      <trkpt lat="44.21929" lon="7.10459">
        <ele>2294.2924804688</ele>
        <time>2012-08-26T08:38:22Z</time>
      </trkpt>
      <trkpt lat="44.21931" lon="7.10448">
        <ele>2291.3566894531</ele>
        <time>2012-08-26T08:38:30Z</time>
      </trkpt>
      <trkpt lat="44.21933" lon="7.10438">
        <ele>2290.1955566406</ele>
        <time>2012-08-26T08:38:37Z</time>
      </trkpt>
      <trkpt lat="44.21934" lon="7.10436">
        <ele>2290.1850585938</ele>
        <time>2012-08-26T08:38:42Z</time>
      </trkpt>
      <trkpt lat="44.21934" lon="7.10436">
        <ele>2290.4548339844</ele>
        <time>2012-08-26T08:38:52Z</time>
      </trkpt>
      <trkpt lat="44.21934" lon="7.10437">
        <ele>2290.2431640625</ele>
        <time>2012-08-26T08:39:01Z</time>
      </trkpt>
      <trkpt lat="44.21934" lon="7.10437">
        <ele>2290.2431640625</ele>
        <time>2012-08-26T08:39:07Z</time>
      </trkpt>
      <trkpt lat="44.21934" lon="7.10437">
        <ele>2290.5190429688</ele>
        <time>2012-08-26T08:39:15Z</time>
      </trkpt>
      <trkpt lat="44.21934" lon="7.10437">
        <ele>2290.2238769531</ele>
        <time>2012-08-26T08:39:20Z</time>
      </trkpt>
      <trkpt lat="44.21934" lon="7.10437">
        <ele>2290.2302246094</ele>
        <time>2012-08-26T08:39:31Z</time>
      </trkpt>
      <trkpt lat="44.21934" lon="7.10437">
        <ele>2290.5126953125</ele>
        <time>2012-08-26T08:39:39Z</time>
      </trkpt>
      <trkpt lat="44.21934" lon="7.10437">
        <ele>2290.2561035156</ele>
        <time>2012-08-26T08:39:43Z</time>
      </trkpt>
      <trkpt lat="44.21933" lon="7.10437">
        <ele>2289.9672851562</ele>
        <time>2012-08-26T08:40:15Z</time>
      </trkpt>
      <trkpt lat="44.21933" lon="7.10436">
        <ele>2289.5932617188</ele>
        <time>2012-08-26T08:40:19Z</time>
      </trkpt>
      <trkpt lat="44.21932" lon="7.10435">
        <ele>2288.5432128906</ele>
        <time>2012-08-26T08:40:43Z</time>
      </trkpt>
      <trkpt lat="44.21932" lon="7.10436">
        <ele>2288.6706542969</ele>
        <time>2012-08-26T08:42:05Z</time>
      </trkpt>
      <trkpt lat="44.21933" lon="7.10435">
        <ele>2289.7392578125</ele>
        <time>2012-08-26T08:42:10Z</time>
      </trkpt>
      <trkpt lat="44.21933" lon="7.10436">
        <ele>2289.8369140625</ele>
        <time>2012-08-26T08:42:17Z</time>
      </trkpt>
      <trkpt lat="44.21934" lon="7.10437">
        <ele>2290.5256347656</ele>
        <time>2012-08-26T08:42:35Z</time>
      </trkpt>
      <trkpt lat="44.21933" lon="7.10438">
        <ele>2290.0913085938</ele>
        <time>2012-08-26T08:43:49Z</time>
      </trkpt>
      <trkpt lat="44.21934" lon="7.10438">
        <ele>2290.4763183594</ele>
        <time>2012-08-26T08:43:57Z</time>
      </trkpt>
      <trkpt lat="44.21935" lon="7.10436">
        <ele>2291.0141601562</ele>
        <time>2012-08-26T08:44:28Z</time>
      </trkpt>
      <trkpt lat="44.21938" lon="7.10426">
        <ele>2292.349609375</ele>
        <time>2012-08-26T08:44:35Z</time>
      </trkpt>
      <trkpt lat="44.21939" lon="7.1042">
        <ele>2291.8745117188</ele>
        <time>2012-08-26T08:44:39Z</time>
      </trkpt>
      <trkpt lat="44.21944" lon="7.10415">
        <ele>2296.1579589844</ele>
        <time>2012-08-26T08:44:45Z</time>
      </trkpt>
      <trkpt lat="44.21948" lon="7.10413">
        <ele>2299.36328125</ele>
        <time>2012-08-26T08:44:49Z</time>
      </trkpt>
      <trkpt lat="44.21954" lon="7.10411">
        <ele>2304.447265625</ele>
        <time>2012-08-26T08:44:55Z</time>
      </trkpt>
      <trkpt lat="44.21962" lon="7.1041">
        <ele>2311.6806640625</ele>
        <time>2012-08-26T08:45:03Z</time>
      </trkpt>
      <trkpt lat="44.21971" lon="7.10413">
        <ele>2319.0102539062</ele>
        <time>2012-08-26T08:45:11Z</time>
      </trkpt>
      <trkpt lat="44.21973" lon="7.10414">
        <ele>2320.3283691406</ele>
        <time>2012-08-26T08:45:13Z</time>
      </trkpt>
      <trkpt lat="44.21978" lon="7.1042">
        <ele>2321.7612304688</ele>
        <time>2012-08-26T08:45:20Z</time>
      </trkpt>
      <trkpt lat="44.21979" lon="7.1042">
        <ele>2321.9594726562</ele>
        <time>2012-08-26T08:45:21Z</time>
      </trkpt>
      <trkpt lat="44.21986" lon="7.10423">
        <ele>2323.6481933594</ele>
        <time>2012-08-26T08:45:29Z</time>
      </trkpt>
      <trkpt lat="44.2199" lon="7.10417">
        <ele>2325.0478515625</ele>
        <time>2012-08-26T08:45:35Z</time>
      </trkpt>
      <trkpt lat="44.21988" lon="7.10409">
        <ele>2325.2849121094</ele>
        <time>2012-08-26T08:45:42Z</time>
      </trkpt>
      <trkpt lat="44.21987" lon="7.10408">
        <ele>2325.1647949219</ele>
        <time>2012-08-26T08:45:43Z</time>
      </trkpt>
      <trkpt lat="44.21982" lon="7.10399">
        <ele>2324.6274414062</ele>
        <time>2012-08-26T08:45:50Z</time>
      </trkpt>
      <trkpt lat="44.21978" lon="7.10391">
        <ele>2323.8664550781</ele>
        <time>2012-08-26T08:45:57Z</time>
      </trkpt>
      <trkpt lat="44.21973" lon="7.10386">
        <ele>2322.533203125</ele>
        <time>2012-08-26T08:46:04Z</time>
      </trkpt>
      <trkpt lat="44.21972" lon="7.10379">
        <ele>2322.7434082031</ele>
        <time>2012-08-26T08:46:09Z</time>
      </trkpt>
      <trkpt lat="44.21975" lon="7.10374">
        <ele>2324.1247558594</ele>
        <time>2012-08-26T08:46:14Z</time>
      </trkpt>
      <trkpt lat="44.2198" lon="7.10375">
        <ele>2326.0695800781</ele>
        <time>2012-08-26T08:46:19Z</time>
      </trkpt>
      <trkpt lat="44.21987" lon="7.1038">
        <ele>2328.2058105469</ele>
        <time>2012-08-26T08:46:26Z</time>
      </trkpt>
      <trkpt lat="44.21991" lon="7.10381">
        <ele>2329.4001464844</ele>
        <time>2012-08-26T08:46:30Z</time>
      </trkpt>
      <trkpt lat="44.21997" lon="7.10384">
        <ele>2331.5808105469</ele>
        <time>2012-08-26T08:46:38Z</time>
      </trkpt>
      <trkpt lat="44.22002" lon="7.10384">
        <ele>2333.1684570312</ele>
        <time>2012-08-26T08:46:43Z</time>
      </trkpt>
      <trkpt lat="44.22009" lon="7.10381">
        <ele>2335.0512695312</ele>
        <time>2012-08-26T08:46:49Z</time>
      </trkpt>
      <trkpt lat="44.22017" lon="7.10376">
        <ele>2337.3325195312</ele>
        <time>2012-08-26T08:46:57Z</time>
      </trkpt>
      <trkpt lat="44.22023" lon="7.10372">
        <ele>2338.8547363281</ele>
        <time>2012-08-26T08:47:03Z</time>
      </trkpt>
      <trkpt lat="44.22028" lon="7.1037">
        <ele>2340</ele>
        <time>2012-08-26T08:47:08Z</time>
      </trkpt>
      <trkpt lat="44.22034" lon="7.1037">
        <ele>2340</ele>
        <time>2012-08-26T08:47:13Z</time>
      </trkpt>
      <trkpt lat="44.22044" lon="7.10378">
        <ele>2340</ele>
        <time>2012-08-26T08:47:22Z</time>
      </trkpt>
      <trkpt lat="44.22054" lon="7.10385">
        <ele>2340</ele>
        <time>2012-08-26T08:47:30Z</time>
      </trkpt>
      <trkpt lat="44.22066" lon="7.10384">
        <ele>2339.0852050781</ele>
        <time>2012-08-26T08:47:37Z</time>
      </trkpt>
      <trkpt lat="44.22083" lon="7.10386">
        <ele>2337.4055175781</ele>
        <time>2012-08-26T08:47:46Z</time>
      </trkpt>
      <trkpt lat="44.22084" lon="7.10385">
        <ele>2337.0441894531</ele>
        <time>2012-08-26T08:47:47Z</time>
      </trkpt>
      <trkpt lat="44.22086" lon="7.10374">
        <ele>2337.806640625</ele>
        <time>2012-08-26T08:47:52Z</time>
      </trkpt>
      <trkpt lat="44.22084" lon="7.10352">
        <ele>2339.9521484375</ele>
        <time>2012-08-26T08:48:00Z</time>
      </trkpt>
      <trkpt lat="44.2209" lon="7.10335">
        <ele>2339.8942871094</ele>
        <time>2012-08-26T08:48:07Z</time>
      </trkpt>
      <trkpt lat="44.221" lon="7.10317">
        <ele>2339.6560058594</ele>
        <time>2012-08-26T08:48:16Z</time>
      </trkpt>
      <trkpt lat="44.2211" lon="7.10305">
        <ele>2339.021484375</ele>
        <time>2012-08-26T08:48:23Z</time>
      </trkpt>
      <trkpt lat="44.22116" lon="7.10294">
        <ele>2338.3618164062</ele>
        <time>2012-08-26T08:48:28Z</time>
      </trkpt>
      <trkpt lat="44.22121" lon="7.10271">
        <ele>2338.828125</ele>
        <time>2012-08-26T08:48:36Z</time>
      </trkpt>
      <trkpt lat="44.22116" lon="7.10253">
        <ele>2339.345703125</ele>
        <time>2012-08-26T08:48:40Z</time>
      </trkpt>
      <trkpt lat="44.22112" lon="7.10238">
        <ele>2339.4697265625</ele>
        <time>2012-08-26T08:48:43Z</time>
      </trkpt>
      <trkpt lat="44.22118" lon="7.10223">
        <ele>2339.9963378906</ele>
        <time>2012-08-26T08:48:48Z</time>
      </trkpt>
      <trkpt lat="44.22128" lon="7.10212">
        <ele>2340.4416503906</ele>
        <time>2012-08-26T08:48:56Z</time>
      </trkpt>
      <trkpt lat="44.22136" lon="7.10204">
        <ele>2341.2160644531</ele>
        <time>2012-08-26T08:49:03Z</time>
      </trkpt>
      <trkpt lat="44.22142" lon="7.1019">
        <ele>2344.3791503906</ele>
        <time>2012-08-26T08:49:10Z</time>
      </trkpt>
      <trkpt lat="44.22149" lon="7.10171">
        <ele>2351.1369628906</ele>
        <time>2012-08-26T08:49:19Z</time>
      </trkpt>
      <trkpt lat="44.22153" lon="7.10155">
        <ele>2355.5446777344</ele>
        <time>2012-08-26T08:49:27Z</time>
      </trkpt>
      <trkpt lat="44.22154" lon="7.1015">
        <ele>2356.6428222656</ele>
        <time>2012-08-26T08:49:30Z</time>
      </trkpt>
      <trkpt lat="44.22157" lon="7.10142">
        <ele>2358.4020996094</ele>
        <time>2012-08-26T08:49:36Z</time>
      </trkpt>
      <trkpt lat="44.22157" lon="7.10141">
        <ele>2358.6369628906</ele>
        <time>2012-08-26T08:49:37Z</time>
      </trkpt>
      <trkpt lat="44.22162" lon="7.10132">
        <ele>2361.3298339844</ele>
        <time>2012-08-26T08:49:43Z</time>
      </trkpt>
      <trkpt lat="44.22169" lon="7.10121">
        <ele>2365.7272949219</ele>
        <time>2012-08-26T08:49:51Z</time>
      </trkpt>
      <trkpt lat="44.22178" lon="7.10113">
        <ele>2370.1401367188</ele>
        <time>2012-08-26T08:49:59Z</time>
      </trkpt>
      <trkpt lat="44.22183" lon="7.10106">
        <ele>2373.3195800781</ele>
        <time>2012-08-26T08:50:05Z</time>
      </trkpt>
      <trkpt lat="44.2219" lon="7.10101">
        <ele>2375.751953125</ele>
        <time>2012-08-26T08:50:12Z</time>
      </trkpt>
      <trkpt lat="44.22199" lon="7.10099">
        <ele>2374.2758789062</ele>
        <time>2012-08-26T08:50:20Z</time>
      </trkpt>
      <trkpt lat="44.22207" lon="7.10098">
        <ele>2370.5227050781</ele>
        <time>2012-08-26T08:50:27Z</time>
      </trkpt>
      <trkpt lat="44.22217" lon="7.10096">
        <ele>2365.5705566406</ele>
        <time>2012-08-26T08:50:35Z</time>
      </trkpt>
      <trkpt lat="44.22225" lon="7.10097">
        <ele>2361.6828613281</ele>
        <time>2012-08-26T08:50:42Z</time>
      </trkpt>
      <trkpt lat="44.22234" lon="7.10098">
        <ele>2358.46875</ele>
        <time>2012-08-26T08:50:49Z</time>
      </trkpt>
      <trkpt lat="44.22241" lon="7.10102">
        <ele>2356.6799316406</ele>
        <time>2012-08-26T08:50:55Z</time>
      </trkpt>
      <trkpt lat="44.22249" lon="7.10103">
        <ele>2353.8933105469</ele>
        <time>2012-08-26T08:51:03Z</time>
      </trkpt>
      <trkpt lat="44.22251" lon="7.101">
        <ele>2351.9206542969</ele>
        <time>2012-08-26T08:51:05Z</time>
      </trkpt>
      <trkpt lat="44.22247" lon="7.10094">
        <ele>2350.6879882812</ele>
        <time>2012-08-26T08:51:10Z</time>
      </trkpt>
      <trkpt lat="44.22237" lon="7.10089">
        <ele>2353.5925292969</ele>
        <time>2012-08-26T08:51:19Z</time>
      </trkpt>
      <trkpt lat="44.2223" lon="7.10086">
        <ele>2356.6091308594</ele>
        <time>2012-08-26T08:51:26Z</time>
      </trkpt>
      <trkpt lat="44.22223" lon="7.10083">
        <ele>2359.2661132812</ele>
        <time>2012-08-26T08:51:32Z</time>
      </trkpt>
      <trkpt lat="44.22215" lon="7.10079">
        <ele>2363.4768066406</ele>
        <time>2012-08-26T08:51:39Z</time>
      </trkpt>
      <trkpt lat="44.22205" lon="7.10078">
        <ele>2369.4050292969</ele>
        <time>2012-08-26T08:51:46Z</time>
      </trkpt>
      <trkpt lat="44.22197" lon="7.10075">
        <ele>2374.1362304688</ele>
        <time>2012-08-26T08:51:53Z</time>
      </trkpt>
      <trkpt lat="44.22192" lon="7.10074">
        <ele>2375.8654785156</ele>
        <time>2012-08-26T08:51:57Z</time>
      </trkpt>
      <trkpt lat="44.2219" lon="7.10073">
        <ele>2375.7397460938</ele>
        <time>2012-08-26T08:51:59Z</time>
      </trkpt>
      <trkpt lat="44.22191" lon="7.10066">
        <ele>2372.2229003906</ele>
        <time>2012-08-26T08:52:05Z</time>
      </trkpt>
      <trkpt lat="44.22195" lon="7.10066">
        <ele>2370.7553710938</ele>
        <time>2012-08-26T08:52:09Z</time>
      </trkpt>
      <trkpt lat="44.22205" lon="7.10065">
        <ele>2363.3029785156</ele>
        <time>2012-08-26T08:52:18Z</time>
      </trkpt>
      <trkpt lat="44.22214" lon="7.10064">
        <ele>2357.3186035156</ele>
        <time>2012-08-26T08:52:26Z</time>
      </trkpt>
      <trkpt lat="44.22218" lon="7.10065">
        <ele>2354.5051269531</ele>
        <time>2012-08-26T08:52:30Z</time>
      </trkpt>
      <trkpt lat="44.22224" lon="7.10062">
        <ele>2349.8742675781</ele>
        <time>2012-08-26T08:52:35Z</time>
      </trkpt>
      <trkpt lat="44.22223" lon="7.1005">
        <ele>2345.5791015625</ele>
        <time>2012-08-26T08:52:42Z</time>
      </trkpt>
      <trkpt lat="44.22218" lon="7.10042">
        <ele>2344.9045410156</ele>
        <time>2012-08-26T08:52:48Z</time>
      </trkpt>
      <trkpt lat="44.22215" lon="7.10036">
        <ele>2344.1345214844</ele>
        <time>2012-08-26T08:52:52Z</time>
      </trkpt>
      <trkpt lat="44.22215" lon="7.10037">
        <ele>2344.5466308594</ele>
        <time>2012-08-26T08:53:00Z</time>
      </trkpt>
      <trkpt lat="44.22215" lon="7.10036">
        <ele>2344.2192382812</ele>
        <time>2012-08-26T08:53:08Z</time>
      </trkpt>
      <trkpt lat="44.22207" lon="7.1002">
        <ele>2340.771484375</ele>
        <time>2012-08-26T08:53:14Z</time>
      </trkpt>
      <trkpt lat="44.22195" lon="7.10002">
        <ele>2337.4243164062</ele>
        <time>2012-08-26T08:53:19Z</time>
      </trkpt>
      <trkpt lat="44.22178" lon="7.09991">
        <ele>2339.416015625</ele>
        <time>2012-08-26T08:53:25Z</time>
      </trkpt>
      <trkpt lat="44.22163" lon="7.0998">
        <ele>2341.2028808594</ele>
        <time>2012-08-26T08:53:29Z</time>
      </trkpt>
      <trkpt lat="44.22154" lon="7.09974">
        <ele>2341.740234375</ele>
        <time>2012-08-26T08:53:31Z</time>
      </trkpt>
      <trkpt lat="44.22139" lon="7.09955">
        <ele>2341.6459960938</ele>
        <time>2012-08-26T08:53:35Z</time>
      </trkpt>
      <trkpt lat="44.22136" lon="7.09949">
        <ele>2341.845703125</ele>
        <time>2012-08-26T08:53:36Z</time>
      </trkpt>
      <trkpt lat="44.22129" lon="7.09938">
        <ele>2344.8784179688</ele>
        <time>2012-08-26T08:53:38Z</time>
      </trkpt>
      <trkpt lat="44.22115" lon="7.09921">
        <ele>2352.2043457031</ele>
        <time>2012-08-26T08:53:41Z</time>
      </trkpt>
      <trkpt lat="44.22102" lon="7.09889">
        <ele>2361.5925292969</ele>
        <time>2012-08-26T08:53:45Z</time>
      </trkpt>
      <trkpt lat="44.22105" lon="7.09855">
        <ele>2373.5754394531</ele>
        <time>2012-08-26T08:53:49Z</time>
      </trkpt>
      <trkpt lat="44.22108" lon="7.09842">
        <ele>2376.4438476562</ele>
        <time>2012-08-26T08:53:51Z</time>
      </trkpt>
      <trkpt lat="44.22112" lon="7.09826">
        <ele>2379.6821289062</ele>
        <time>2012-08-26T08:53:54Z</time>
      </trkpt>
      <trkpt lat="44.22114" lon="7.09816">
        <ele>2380.2312011719</ele>
        <time>2012-08-26T08:53:56Z</time>
      </trkpt>
      <trkpt lat="44.22118" lon="7.0979">
        <ele>2386.3020019531</ele>
        <time>2012-08-26T08:54:01Z</time>
      </trkpt>
      <trkpt lat="44.22119" lon="7.09787">
        <ele>2386.619140625</ele>
        <time>2012-08-26T08:54:02Z</time>
      </trkpt>
      <trkpt lat="44.22126" lon="7.09772">
        <ele>2389.5444335938</ele>
        <time>2012-08-26T08:54:08Z</time>
      </trkpt>
      <trkpt lat="44.22129" lon="7.09769">
        <ele>2390.2622070312</ele>
        <time>2012-08-26T08:54:10Z</time>
      </trkpt>
      <trkpt lat="44.22136" lon="7.09763">
        <ele>2390.9372558594</ele>
        <time>2012-08-26T08:54:15Z</time>
      </trkpt>
      <trkpt lat="44.22142" lon="7.09751">
        <ele>2396.7966308594</ele>
        <time>2012-08-26T08:54:22Z</time>
      </trkpt>
      <trkpt lat="44.22143" lon="7.09748">
        <ele>2397.2524414062</ele>
        <time>2012-08-26T08:54:24Z</time>
      </trkpt>
      <trkpt lat="44.22147" lon="7.09734">
        <ele>2399.2395019531</ele>
        <time>2012-08-26T08:54:32Z</time>
      </trkpt>
      <trkpt lat="44.22149" lon="7.09725">
        <ele>2400.3413085938</ele>
        <time>2012-08-26T08:54:37Z</time>
      </trkpt>
      <trkpt lat="44.22152" lon="7.09716">
        <ele>2400.7492675781</ele>
        <time>2012-08-26T08:54:43Z</time>
      </trkpt>
      <trkpt lat="44.22158" lon="7.09711">
        <ele>2397.0278320312</ele>
        <time>2012-08-26T08:54:48Z</time>
      </trkpt>
      <trkpt lat="44.22166" lon="7.09708">
        <ele>2390.3876953125</ele>
        <time>2012-08-26T08:54:54Z</time>
      </trkpt>
      <trkpt lat="44.22174" lon="7.09699">
        <ele>2386.146484375</ele>
        <time>2012-08-26T08:55:02Z</time>
      </trkpt>
      <trkpt lat="44.22178" lon="7.09693">
        <ele>2385.0942382812</ele>
        <time>2012-08-26T08:55:07Z</time>
      </trkpt>
      <trkpt lat="44.22181" lon="7.09682">
        <ele>2385.9714355469</ele>
        <time>2012-08-26T08:55:14Z</time>
      </trkpt>
      <trkpt lat="44.22181" lon="7.09679">
        <ele>2386.4296875</ele>
        <time>2012-08-26T08:55:16Z</time>
      </trkpt>
      <trkpt lat="44.22182" lon="7.09677">
        <ele>2386.1223144531</ele>
        <time>2012-08-26T08:55:22Z</time>
      </trkpt>
      <trkpt lat="44.22184" lon="7.09674">
        <ele>2386.0673828125</ele>
        <time>2012-08-26T08:55:30Z</time>
      </trkpt>
      <trkpt lat="44.2219" lon="7.09664">
        <ele>2384.0732421875</ele>
        <time>2012-08-26T08:55:41Z</time>
      </trkpt>
      <trkpt lat="44.22194" lon="7.09654">
        <ele>2383.0192871094</ele>
        <time>2012-08-26T08:55:50Z</time>
      </trkpt>
      <trkpt lat="44.22195" lon="7.09644">
        <ele>2384.5454101562</ele>
        <time>2012-08-26T08:55:59Z</time>
      </trkpt>
      <trkpt lat="44.22194" lon="7.09633">
        <ele>2387.6533203125</ele>
        <time>2012-08-26T08:56:07Z</time>
      </trkpt>
      <trkpt lat="44.22195" lon="7.09626">
        <ele>2388.6911621094</ele>
        <time>2012-08-26T08:56:14Z</time>
      </trkpt>
      <trkpt lat="44.22197" lon="7.09622">
        <ele>2388.9562988281</ele>
        <time>2012-08-26T08:56:23Z</time>
      </trkpt>
      <trkpt lat="44.22199" lon="7.09607">
        <ele>2391.9174804688</ele>
        <time>2012-08-26T08:56:31Z</time>
      </trkpt>
      <trkpt lat="44.22203" lon="7.09593">
        <ele>2394.0925292969</ele>
        <time>2012-08-26T08:56:39Z</time>
      </trkpt>
      <trkpt lat="44.22204" lon="7.0959">
        <ele>2394.3881835938</ele>
        <time>2012-08-26T08:56:41Z</time>
      </trkpt>
      <trkpt lat="44.22206" lon="7.09574">
        <ele>2399.8366699219</ele>
        <time>2012-08-26T08:56:51Z</time>
      </trkpt>
      <trkpt lat="44.22209" lon="7.09559">
        <ele>2405.0100097656</ele>
        <time>2012-08-26T08:56:59Z</time>
      </trkpt>
      <trkpt lat="44.2221" lon="7.09557">
        <ele>2404.9143066406</ele>
        <time>2012-08-26T08:57:01Z</time>
      </trkpt>
      <trkpt lat="44.22216" lon="7.09552">
        <ele>2403.9350585938</ele>
        <time>2012-08-26T08:57:07Z</time>
      </trkpt>
      <trkpt lat="44.22226" lon="7.09545">
        <ele>2403.6005859375</ele>
        <time>2012-08-26T08:57:16Z</time>
      </trkpt>
      <trkpt lat="44.22235" lon="7.0954">
        <ele>2406.0124511719</ele>
        <time>2012-08-26T08:57:24Z</time>
      </trkpt>
      <trkpt lat="44.22243" lon="7.09534">
        <ele>2408.9787597656</ele>
        <time>2012-08-26T08:57:31Z</time>
      </trkpt>
      <trkpt lat="44.22245" lon="7.09531">
        <ele>2410.595703125</ele>
        <time>2012-08-26T08:57:33Z</time>
      </trkpt>
      <trkpt lat="44.22249" lon="7.09522">
        <ele>2414.8693847656</ele>
        <time>2012-08-26T08:57:39Z</time>
      </trkpt>
      <trkpt lat="44.22255" lon="7.09513">
        <ele>2416.8955078125</ele>
        <time>2012-08-26T08:57:45Z</time>
      </trkpt>
      <trkpt lat="44.22263" lon="7.09512">
        <ele>2414.3686523438</ele>
        <time>2012-08-26T08:57:51Z</time>
      </trkpt>
      <trkpt lat="44.22267" lon="7.09513">
        <ele>2412.4133300781</ele>
        <time>2012-08-26T08:57:55Z</time>
      </trkpt>
      <trkpt lat="44.22277" lon="7.09514">
        <ele>2408.1196289062</ele>
        <time>2012-08-26T08:58:04Z</time>
      </trkpt>
      <trkpt lat="44.22286" lon="7.09515">
        <ele>2405.1958007812</ele>
        <time>2012-08-26T08:58:11Z</time>
      </trkpt>
      <trkpt lat="44.22287" lon="7.09516">
        <ele>2404.8068847656</ele>
        <time>2012-08-26T08:58:12Z</time>
      </trkpt>
      <trkpt lat="44.22297" lon="7.09509">
        <ele>2401.6958007812</ele>
        <time>2012-08-26T08:58:20Z</time>
      </trkpt>
      <trkpt lat="44.22307" lon="7.09509">
        <ele>2397.4020996094</ele>
        <time>2012-08-26T08:58:27Z</time>
      </trkpt>
      <trkpt lat="44.22317" lon="7.0951">
        <ele>2395.3205566406</ele>
        <time>2012-08-26T08:58:35Z</time>
      </trkpt>
      <trkpt lat="44.2232" lon="7.0951">
        <ele>2394.4038085938</ele>
        <time>2012-08-26T08:58:41Z</time>
      </trkpt>
      <trkpt lat="44.22322" lon="7.09509">
        <ele>2393.5620117188</ele>
        <time>2012-08-26T08:58:50Z</time>
      </trkpt>
      <trkpt lat="44.22325" lon="7.09509">
        <ele>2392.8188476562</ele>
        <time>2012-08-26T08:58:54Z</time>
      </trkpt>
      <trkpt lat="44.22329" lon="7.0951">
        <ele>2392.1931152344</ele>
        <time>2012-08-26T08:59:01Z</time>
      </trkpt>
      <trkpt lat="44.22335" lon="7.09511">
        <ele>2391.2419433594</ele>
        <time>2012-08-26T08:59:09Z</time>
      </trkpt>
      <trkpt lat="44.22345" lon="7.09514">
        <ele>2391.6247558594</ele>
        <time>2012-08-26T08:59:19Z</time>
      </trkpt>
      <trkpt lat="44.22347" lon="7.09515">
        <ele>2391.9233398438</ele>
        <time>2012-08-26T08:59:27Z</time>
      </trkpt>
      <trkpt lat="44.22356" lon="7.09515">
        <ele>2390.9797363281</ele>
        <time>2012-08-26T08:59:35Z</time>
      </trkpt>
      <trkpt lat="44.22366" lon="7.09512">
        <ele>2385.8413085938</ele>
        <time>2012-08-26T08:59:44Z</time>
      </trkpt>
      <trkpt lat="44.2237" lon="7.0951">
        <ele>2382.1647949219</ele>
        <time>2012-08-26T08:59:48Z</time>
      </trkpt>
      <trkpt lat="44.22374" lon="7.09506">
        <ele>2376.5859375</ele>
        <time>2012-08-26T08:59:54Z</time>
      </trkpt>
      <trkpt lat="44.22379" lon="7.09501">
        <ele>2370.1254882812</ele>
        <time>2012-08-26T09:00:01Z</time>
      </trkpt>
      <trkpt lat="44.22379" lon="7.09496">
        <ele>2365.5612792969</ele>
        <time>2012-08-26T09:00:07Z</time>
      </trkpt>
      <trkpt lat="44.22379" lon="7.09494">
        <ele>2364.4187011719</ele>
        <time>2012-08-26T09:00:08Z</time>
      </trkpt>
      <trkpt lat="44.22371" lon="7.09488">
        <ele>2363.3413085938</ele>
        <time>2012-08-26T09:00:14Z</time>
      </trkpt>
      <trkpt lat="44.22365" lon="7.09483">
        <ele>2362.1252441406</ele>
        <time>2012-08-26T09:00:21Z</time>
      </trkpt>
      <trkpt lat="44.2235" lon="7.09475">
        <ele>2361.1479492188</ele>
        <time>2012-08-26T09:00:26Z</time>
      </trkpt>
      <trkpt lat="44.22335" lon="7.09465">
        <ele>2363.9384765625</ele>
        <time>2012-08-26T09:00:32Z</time>
      </trkpt>
      <trkpt lat="44.22315" lon="7.09457">
        <ele>2372.1669921875</ele>
        <time>2012-08-26T09:00:37Z</time>
      </trkpt>
      <trkpt lat="44.22297" lon="7.09446">
        <ele>2376.6767578125</ele>
        <time>2012-08-26T09:00:42Z</time>
      </trkpt>
      <trkpt lat="44.22282" lon="7.09436">
        <ele>2376.9135742188</ele>
        <time>2012-08-26T09:00:47Z</time>
      </trkpt>
      <trkpt lat="44.22269" lon="7.09428">
        <ele>2379.1081542969</ele>
        <time>2012-08-26T09:00:51Z</time>
      </trkpt>
      <trkpt lat="44.22255" lon="7.09413">
        <ele>2378.6245117188</ele>
        <time>2012-08-26T09:00:57Z</time>
      </trkpt>
      <trkpt lat="44.22241" lon="7.09409">
        <ele>2385.0993652344</ele>
        <time>2012-08-26T09:01:02Z</time>
      </trkpt>
      <trkpt lat="44.22229" lon="7.09398">
        <ele>2390.8486328125</ele>
        <time>2012-08-26T09:01:07Z</time>
      </trkpt>
      <trkpt lat="44.22228" lon="7.09395">
        <ele>2391.1416015625</ele>
        <time>2012-08-26T09:01:09Z</time>
      </trkpt>
      <trkpt lat="44.22226" lon="7.09377">
        <ele>2389.6879882812</ele>
        <time>2012-08-26T09:01:16Z</time>
      </trkpt>
      <trkpt lat="44.22226" lon="7.09375">
        <ele>2389.8767089844</ele>
        <time>2012-08-26T09:01:17Z</time>
      </trkpt>
      <trkpt lat="44.22219" lon="7.09366">
        <ele>2393.1958007812</ele>
        <time>2012-08-26T09:01:23Z</time>
      </trkpt>
      <trkpt lat="44.22216" lon="7.09364">
        <ele>2394.8388671875</ele>
        <time>2012-08-26T09:01:28Z</time>
      </trkpt>
      <trkpt lat="44.22216" lon="7.09363">
        <ele>2395.041015625</ele>
        <time>2012-08-26T09:01:34Z</time>
      </trkpt>
      <trkpt lat="44.22212" lon="7.09361">
        <ele>2397.2006835938</ele>
        <time>2012-08-26T09:01:39Z</time>
      </trkpt>
      <trkpt lat="44.22206" lon="7.09355">
        <ele>2400.8884277344</ele>
        <time>2012-08-26T09:01:47Z</time>
      </trkpt>
      <trkpt lat="44.22203" lon="7.09346">
        <ele>2402.2709960938</ele>
        <time>2012-08-26T09:01:56Z</time>
      </trkpt>
      <trkpt lat="44.22201" lon="7.09339">
        <ele>2402.5222167969</ele>
        <time>2012-08-26T09:02:03Z</time>
      </trkpt>
      <trkpt lat="44.22198" lon="7.09332">
        <ele>2403.0915527344</ele>
        <time>2012-08-26T09:02:09Z</time>
      </trkpt>
      <trkpt lat="44.22195" lon="7.09322">
        <ele>2402.8889160156</ele>
        <time>2012-08-26T09:02:15Z</time>
      </trkpt>
      <trkpt lat="44.22192" lon="7.09313">
        <ele>2403.4040527344</ele>
        <time>2012-08-26T09:02:21Z</time>
      </trkpt>
      <trkpt lat="44.22189" lon="7.09302">
        <ele>2404.1530761719</ele>
        <time>2012-08-26T09:02:28Z</time>
      </trkpt>
      <trkpt lat="44.22185" lon="7.09294">
        <ele>2407.3947753906</ele>
        <time>2012-08-26T09:02:35Z</time>
      </trkpt>
      <trkpt lat="44.22183" lon="7.09288">
        <ele>2408.1909179688</ele>
        <time>2012-08-26T09:02:42Z</time>
      </trkpt>
      <trkpt lat="44.22184" lon="7.09288">
        <ele>2407.8779296875</ele>
        <time>2012-08-26T09:02:49Z</time>
      </trkpt>
      <trkpt lat="44.22182" lon="7.09286">
        <ele>2408.5991210938</ele>
        <time>2012-08-26T09:03:00Z</time>
      </trkpt>
      <trkpt lat="44.2218" lon="7.09282">
        <ele>2410.55078125</ele>
        <time>2012-08-26T09:03:05Z</time>
      </trkpt>
      <trkpt lat="44.22179" lon="7.09273">
        <ele>2411.1791992188</ele>
        <time>2012-08-26T09:03:16Z</time>
      </trkpt>
      <trkpt lat="44.22178" lon="7.09268">
        <ele>2412.3471679688</ele>
        <time>2012-08-26T09:03:22Z</time>
      </trkpt>
      <trkpt lat="44.22179" lon="7.09258">
        <ele>2412.8818359375</ele>
        <time>2012-08-26T09:03:31Z</time>
      </trkpt>
      <trkpt lat="44.22178" lon="7.0925">
        <ele>2414.6018066406</ele>
        <time>2012-08-26T09:03:40Z</time>
      </trkpt>
      <trkpt lat="44.22176" lon="7.09244">
        <ele>2416.5522460938</ele>
        <time>2012-08-26T09:03:48Z</time>
      </trkpt>
      <trkpt lat="44.22174" lon="7.09237">
        <ele>2418.7954101562</ele>
        <time>2012-08-26T09:03:56Z</time>
      </trkpt>
      <trkpt lat="44.22171" lon="7.09228">
        <ele>2422.0515136719</ele>
        <time>2012-08-26T09:04:05Z</time>
      </trkpt>
      <trkpt lat="44.22171" lon="7.09221">
        <ele>2422.5280761719</ele>
        <time>2012-08-26T09:04:13Z</time>
      </trkpt>
      <trkpt lat="44.22172" lon="7.09216">
        <ele>2423.416015625</ele>
        <time>2012-08-26T09:04:20Z</time>
      </trkpt>
      <trkpt lat="44.22171" lon="7.09208">
        <ele>2425.9663085938</ele>
        <time>2012-08-26T09:04:28Z</time>
      </trkpt>
      <trkpt lat="44.22171" lon="7.09202">
        <ele>2427.8442382812</ele>
        <time>2012-08-26T09:04:35Z</time>
      </trkpt>
      <trkpt lat="44.22171" lon="7.09196">
        <ele>2429.525390625</ele>
        <time>2012-08-26T09:04:41Z</time>
      </trkpt>
      <trkpt lat="44.2217" lon="7.09191">
        <ele>2431.7275390625</ele>
        <time>2012-08-26T09:04:48Z</time>
      </trkpt>
      <trkpt lat="44.22169" lon="7.09185">
        <ele>2434.1171875</ele>
        <time>2012-08-26T09:04:55Z</time>
      </trkpt>
      <trkpt lat="44.22169" lon="7.09176">
        <ele>2436.9240722656</ele>
        <time>2012-08-26T09:05:04Z</time>
      </trkpt>
      <trkpt lat="44.22167" lon="7.09171">
        <ele>2438.7353515625</ele>
        <time>2012-08-26T09:05:11Z</time>
      </trkpt>
      <trkpt lat="44.22165" lon="7.09166">
        <ele>2440.0693359375</ele>
        <time>2012-08-26T09:05:20Z</time>
      </trkpt>
      <trkpt lat="44.22164" lon="7.09158">
        <ele>2440.2199707031</ele>
        <time>2012-08-26T09:05:32Z</time>
      </trkpt>
      <trkpt lat="44.22167" lon="7.09146">
        <ele>2440.7731933594</ele>
        <time>2012-08-26T09:05:39Z</time>
      </trkpt>
      <trkpt lat="44.22172" lon="7.09132">
        <ele>2437.8374023438</ele>
        <time>2012-08-26T09:05:47Z</time>
      </trkpt>
      <trkpt lat="44.2218" lon="7.0912">
        <ele>2433.0703125</ele>
        <time>2012-08-26T09:05:55Z</time>
      </trkpt>
      <trkpt lat="44.22183" lon="7.09118">
        <ele>2432.5607910156</ele>
        <time>2012-08-26T09:05:57Z</time>
      </trkpt>
      <trkpt lat="44.22193" lon="7.09114">
        <ele>2433.8796386719</ele>
        <time>2012-08-26T09:06:06Z</time>
      </trkpt>
      <trkpt lat="44.22194" lon="7.09112">
        <ele>2433.4643554688</ele>
        <time>2012-08-26T09:06:11Z</time>
      </trkpt>
      <trkpt lat="44.22191" lon="7.09111">
        <ele>2431.5737304688</ele>
        <time>2012-08-26T09:06:17Z</time>
      </trkpt>
      <trkpt lat="44.22189" lon="7.09109">
        <ele>2429.88671875</ele>
        <time>2012-08-26T09:06:24Z</time>
      </trkpt>
      <trkpt lat="44.22186" lon="7.09107">
        <ele>2427.6850585938</ele>
        <time>2012-08-26T09:06:32Z</time>
      </trkpt>
      <trkpt lat="44.22182" lon="7.09103">
        <ele>2424.6687011719</ele>
        <time>2012-08-26T09:06:40Z</time>
      </trkpt>
      <trkpt lat="44.22178" lon="7.091">
        <ele>2421.7595214844</ele>
        <time>2012-08-26T09:06:50Z</time>
      </trkpt>
      <trkpt lat="44.22175" lon="7.09097">
        <ele>2419.3818359375</ele>
        <time>2012-08-26T09:06:58Z</time>
      </trkpt>
      <trkpt lat="44.22173" lon="7.09093">
        <ele>2417.1813964844</ele>
        <time>2012-08-26T09:07:18Z</time>
      </trkpt>
      <trkpt lat="44.22173" lon="7.09093">
        <ele>2416.8037109375</ele>
        <time>2012-08-26T09:07:25Z</time>
      </trkpt>
      <trkpt lat="44.22172" lon="7.09093">
        <ele>2416.8708496094</ele>
        <time>2012-08-26T09:07:39Z</time>
      </trkpt>
      <trkpt lat="44.22171" lon="7.09093">
        <ele>2416.86328125</ele>
        <time>2012-08-26T09:07:45Z</time>
      </trkpt>
      <trkpt lat="44.2217" lon="7.09094">
        <ele>2416.6809082031</ele>
        <time>2012-08-26T09:07:51Z</time>
      </trkpt>
      <trkpt lat="44.22169" lon="7.09093">
        <ele>2416.3486328125</ele>
        <time>2012-08-26T09:07:56Z</time>
      </trkpt>
      <trkpt lat="44.22169" lon="7.09093">
        <ele>2416.3029785156</ele>
        <time>2012-08-26T09:07:59Z</time>
      </trkpt>
      <trkpt lat="44.22169" lon="7.09094">
        <ele>2416.3940429688</ele>
        <time>2012-08-26T09:08:03Z</time>
      </trkpt>
      <trkpt lat="44.22169" lon="7.09094">
        <ele>2416.6286621094</ele>
        <time>2012-08-26T09:08:09Z</time>
      </trkpt>
      <trkpt lat="44.22168" lon="7.09094">
        <ele>2416.2143554688</ele>
        <time>2012-08-26T09:12:57Z</time>
      </trkpt>
      <trkpt lat="44.22168" lon="7.09094">
        <ele>2416.1840820312</ele>
        <time>2012-08-26T09:13:00Z</time>
      </trkpt>
      <trkpt lat="44.22169" lon="7.09092">
        <ele>2415.751953125</ele>
        <time>2012-08-26T09:13:05Z</time>
      </trkpt>
      <trkpt lat="44.22169" lon="7.09092">
        <ele>2415.9436035156</ele>
        <time>2012-08-26T09:13:12Z</time>
      </trkpt>
      <trkpt lat="44.22169" lon="7.09093">
        <ele>2416.0119628906</ele>
        <time>2012-08-26T09:13:15Z</time>
      </trkpt>
      <trkpt lat="44.22169" lon="7.09093">
        <ele>2416.0119628906</ele>
        <time>2012-08-26T09:13:16Z</time>
      </trkpt>
      <trkpt lat="44.22171" lon="7.09093">
        <ele>2416.6689453125</ele>
        <time>2012-08-26T09:13:27Z</time>
      </trkpt>
      <trkpt lat="44.22171" lon="7.09093">
        <ele>2416.7661132812</ele>
        <time>2012-08-26T09:13:43Z</time>
      </trkpt>
      <trkpt lat="44.22172" lon="7.09094">
        <ele>2417.5942382812</ele>
        <time>2012-08-26T09:13:48Z</time>
      </trkpt>
      <trkpt lat="44.22172" lon="7.09096">
        <ele>2418.0537109375</ele>
        <time>2012-08-26T09:13:59Z</time>
      </trkpt>
      <trkpt lat="44.22171" lon="7.09096">
        <ele>2418.34765625</ele>
        <time>2012-08-26T09:14:16Z</time>
      </trkpt>
      <trkpt lat="44.22172" lon="7.09097">
        <ele>2418.7377929688</ele>
        <time>2012-08-26T09:14:26Z</time>
      </trkpt>
      <trkpt lat="44.22172" lon="7.09097">
        <ele>2418.7609863281</ele>
        <time>2012-08-26T09:14:38Z</time>
      </trkpt>
      <trkpt lat="44.22172" lon="7.09097">
        <ele>2418.8542480469</ele>
        <time>2012-08-26T09:14:45Z</time>
      </trkpt>
      <trkpt lat="44.22173" lon="7.09097">
        <ele>2419.1298828125</ele>
        <time>2012-08-26T09:14:58Z</time>
      </trkpt>
      <trkpt lat="44.22172" lon="7.09098">
        <ele>2419.2509765625</ele>
        <time>2012-08-26T09:15:02Z</time>
      </trkpt>
      <trkpt lat="44.22169" lon="7.09095">
        <ele>2417.4052734375</ele>
        <time>2012-08-26T09:15:17Z</time>
      </trkpt>
      <trkpt lat="44.22161" lon="7.09086">
        <ele>2410.8063964844</ele>
        <time>2012-08-26T09:15:23Z</time>
      </trkpt>
      <trkpt lat="44.22163" lon="7.09083">
        <ele>2409.69140625</ele>
        <time>2012-08-26T09:15:25Z</time>
      </trkpt>
      <trkpt lat="44.22167" lon="7.09081">
        <ele>2409.6923828125</ele>
        <time>2012-08-26T09:15:27Z</time>
      </trkpt>
      <trkpt lat="44.22168" lon="7.09076">
        <ele>2407.3337402344</ele>
        <time>2012-08-26T09:15:30Z</time>
      </trkpt>
      <trkpt lat="44.22166" lon="7.0907">
        <ele>2403.8217773438</ele>
        <time>2012-08-26T09:15:34Z</time>
      </trkpt>
      <trkpt lat="44.22173" lon="7.09062">
        <ele>2401.0200195312</ele>
        <time>2012-08-26T09:15:39Z</time>
      </trkpt>
      <trkpt lat="44.22175" lon="7.09058">
        <ele>2398.9807128906</ele>
        <time>2012-08-26T09:15:41Z</time>
      </trkpt>
      <trkpt lat="44.22179" lon="7.09048">
        <ele>2394.7221679688</ele>
        <time>2012-08-26T09:15:45Z</time>
      </trkpt>
      <trkpt lat="44.22185" lon="7.09038">
        <ele>2391.4729003906</ele>
        <time>2012-08-26T09:15:49Z</time>
      </trkpt>
      <trkpt lat="44.22192" lon="7.09031">
        <ele>2390.3200683594</ele>
        <time>2012-08-26T09:15:53Z</time>
      </trkpt>
      <trkpt lat="44.22198" lon="7.0902">
        <ele>2389.009765625</ele>
        <time>2012-08-26T09:15:58Z</time>
      </trkpt>
      <trkpt lat="44.222" lon="7.09018">
        <ele>2389.6687011719</ele>
        <time>2012-08-26T09:15:59Z</time>
      </trkpt>
      <trkpt lat="44.22203" lon="7.09012">
        <ele>2388.9272460938</ele>
        <time>2012-08-26T09:16:03Z</time>
      </trkpt>
      <trkpt lat="44.22209" lon="7.08998">
        <ele>2388.7739257812</ele>
        <time>2012-08-26T09:16:08Z</time>
      </trkpt>
      <trkpt lat="44.22218" lon="7.08976">
        <ele>2389.1450195312</ele>
        <time>2012-08-26T09:16:14Z</time>
      </trkpt>
      <trkpt lat="44.22225" lon="7.08944">
        <ele>2389.3000488281</ele>
        <time>2012-08-26T09:16:20Z</time>
      </trkpt>
      <trkpt lat="44.22227" lon="7.08935">
        <ele>2390.1726074219</ele>
        <time>2012-08-26T09:16:24Z</time>
      </trkpt>
      <trkpt lat="44.22229" lon="7.08931">
        <ele>2391.3369140625</ele>
        <time>2012-08-26T09:16:30Z</time>
      </trkpt>
      <trkpt lat="44.22231" lon="7.08928">
        <ele>2392.1279296875</ele>
        <time>2012-08-26T09:16:37Z</time>
      </trkpt>
      <trkpt lat="44.22232" lon="7.08928">
        <ele>2392.5688476562</ele>
        <time>2012-08-26T09:16:51Z</time>
      </trkpt>
      <trkpt lat="44.22234" lon="7.08923">
        <ele>2393.3347167969</ele>
        <time>2012-08-26T09:16:55Z</time>
      </trkpt>
      <trkpt lat="44.2224" lon="7.08911">
        <ele>2395.3649902344</ele>
        <time>2012-08-26T09:17:01Z</time>
      </trkpt>
      <trkpt lat="44.22245" lon="7.08897">
        <ele>2396.2595214844</ele>
        <time>2012-08-26T09:17:07Z</time>
      </trkpt>
      <trkpt lat="44.22251" lon="7.08884">
        <ele>2398.2119140625</ele>
        <time>2012-08-26T09:17:14Z</time>
      </trkpt>
      <trkpt lat="44.22261" lon="7.0887">
        <ele>2404.2683105469</ele>
        <time>2012-08-26T09:17:24Z</time>
      </trkpt>
      <trkpt lat="44.22264" lon="7.08862">
        <ele>2406.0788574219</ele>
        <time>2012-08-26T09:17:29Z</time>
      </trkpt>
      <trkpt lat="44.22269" lon="7.08848">
        <ele>2408.3530273438</ele>
        <time>2012-08-26T09:17:36Z</time>
      </trkpt>
      <trkpt lat="44.22274" lon="7.08836">
        <ele>2409.611328125</ele>
        <time>2012-08-26T09:17:43Z</time>
      </trkpt>
      <trkpt lat="44.22282" lon="7.08822">
        <ele>2407.1618652344</ele>
        <time>2012-08-26T09:17:51Z</time>
      </trkpt>
      <trkpt lat="44.22285" lon="7.08814">
        <ele>2405.6435546875</ele>
        <time>2012-08-26T09:18:14Z</time>
      </trkpt>
      <trkpt lat="44.22287" lon="7.08814">
        <ele>2404.8852539062</ele>
        <time>2012-08-26T09:18:19Z</time>
      </trkpt>
      <trkpt lat="44.22295" lon="7.08815">
        <ele>2402.3459472656</ele>
        <time>2012-08-26T09:18:23Z</time>
      </trkpt>
      <trkpt lat="44.22297" lon="7.08814">
        <ele>2401.4399414062</ele>
        <time>2012-08-26T09:18:24Z</time>
      </trkpt>
      <trkpt lat="44.22301" lon="7.0881">
        <ele>2400.3435058594</ele>
        <time>2012-08-26T09:18:28Z</time>
      </trkpt>
      <trkpt lat="44.22301" lon="7.08808">
        <ele>2400.2451171875</ele>
        <time>2012-08-26T09:18:42Z</time>
      </trkpt>
      <trkpt lat="44.22304" lon="7.08787">
        <ele>2400.0402832031</ele>
        <time>2012-08-26T09:18:49Z</time>
      </trkpt>
      <trkpt lat="44.22308" lon="7.08775">
        <ele>2399.1225585938</ele>
        <time>2012-08-26T09:18:53Z</time>
      </trkpt>
      <trkpt lat="44.2231" lon="7.0877">
        <ele>2397.9689941406</ele>
        <time>2012-08-26T09:18:55Z</time>
      </trkpt>
      <trkpt lat="44.22321" lon="7.08762">
        <ele>2393.1899414062</ele>
        <time>2012-08-26T09:19:00Z</time>
      </trkpt>
      <trkpt lat="44.22328" lon="7.08757">
        <ele>2390.2236328125</ele>
        <time>2012-08-26T09:19:03Z</time>
      </trkpt>
      <trkpt lat="44.22334" lon="7.08759">
        <ele>2387.7375488281</ele>
        <time>2012-08-26T09:19:08Z</time>
      </trkpt>
      <trkpt lat="44.22336" lon="7.08767">
        <ele>2386.8928222656</ele>
        <time>2012-08-26T09:19:11Z</time>
      </trkpt>
      <trkpt lat="44.22346" lon="7.08764">
        <ele>2382.0822753906</ele>
        <time>2012-08-26T09:19:17Z</time>
      </trkpt>
      <trkpt lat="44.22352" lon="7.08756">
        <ele>2379.4880371094</ele>
        <time>2012-08-26T09:19:21Z</time>
      </trkpt>
      <trkpt lat="44.22358" lon="7.08768">
        <ele>2377.2419433594</ele>
        <time>2012-08-26T09:19:26Z</time>
      </trkpt>
      <trkpt lat="44.22359" lon="7.08766">
        <ele>2376.3044433594</ele>
        <time>2012-08-26T09:19:28Z</time>
      </trkpt>
      <trkpt lat="44.22364" lon="7.08747">
        <ele>2374.1979980469</ele>
        <time>2012-08-26T09:19:33Z</time>
      </trkpt>
      <trkpt lat="44.22365" lon="7.08744">
        <ele>2374.3071289062</ele>
        <time>2012-08-26T09:19:36Z</time>
      </trkpt>
      <trkpt lat="44.22367" lon="7.08748">
        <ele>2372.2109375</ele>
        <time>2012-08-26T09:19:38Z</time>
      </trkpt>
      <trkpt lat="44.22373" lon="7.08738">
        <ele>2370.8315429688</ele>
        <time>2012-08-26T09:19:42Z</time>
      </trkpt>
      <trkpt lat="44.2238" lon="7.08718">
        <ele>2369.8837890625</ele>
        <time>2012-08-26T09:19:47Z</time>
      </trkpt>
      <trkpt lat="44.22387" lon="7.08695">
        <ele>2372.0490722656</ele>
        <time>2012-08-26T09:19:52Z</time>
      </trkpt>
      <trkpt lat="44.22398" lon="7.0867">
        <ele>2357.8176269531</ele>
        <time>2012-08-26T09:19:56Z</time>
      </trkpt>
      <trkpt lat="44.22411" lon="7.08657">
        <ele>2342.9655761719</ele>
        <time>2012-08-26T09:20:00Z</time>
      </trkpt>
      <trkpt lat="44.22413" lon="7.08656">
        <ele>2341.3723144531</ele>
        <time>2012-08-26T09:20:01Z</time>
      </trkpt>
      <trkpt lat="44.22423" lon="7.08644">
        <ele>2338.0129394531</ele>
        <time>2012-08-26T09:20:07Z</time>
      </trkpt>
      <trkpt lat="44.22424" lon="7.0864">
        <ele>2337.580078125</ele>
        <time>2012-08-26T09:20:09Z</time>
      </trkpt>
      <trkpt lat="44.22427" lon="7.08636">
        <ele>2335.8234863281</ele>
        <time>2012-08-26T09:20:12Z</time>
      </trkpt>
      <trkpt lat="44.22426" lon="7.08628">
        <ele>2329.3454589844</ele>
        <time>2012-08-26T09:20:18Z</time>
      </trkpt>
      <trkpt lat="44.22428" lon="7.08629">
        <ele>2330.4609375</ele>
        <time>2012-08-26T09:20:29Z</time>
      </trkpt>
      <trkpt lat="44.22431" lon="7.08628">
        <ele>2331.0090332031</ele>
        <time>2012-08-26T09:20:36Z</time>
      </trkpt>
      <trkpt lat="44.22433" lon="7.08629">
        <ele>2332.4987792969</ele>
        <time>2012-08-26T09:20:48Z</time>
      </trkpt>
      <trkpt lat="44.22436" lon="7.08625">
        <ele>2331.2551269531</ele>
        <time>2012-08-26T09:20:54Z</time>
      </trkpt>
      <trkpt lat="44.22439" lon="7.08615">
        <ele>2326.6118164062</ele>
        <time>2012-08-26T09:21:03Z</time>
      </trkpt>
      <trkpt lat="44.22443" lon="7.08613">
        <ele>2328.0788574219</ele>
        <time>2012-08-26T09:21:09Z</time>
      </trkpt>
      <trkpt lat="44.22446" lon="7.0861">
        <ele>2328.1423339844</ele>
        <time>2012-08-26T09:21:15Z</time>
      </trkpt>
      <trkpt lat="44.22451" lon="7.08605">
        <ele>2327.46484375</ele>
        <time>2012-08-26T09:21:22Z</time>
      </trkpt>
      <trkpt lat="44.22454" lon="7.08601">
        <ele>2326.6638183594</ele>
        <time>2012-08-26T09:21:30Z</time>
      </trkpt>
      <trkpt lat="44.22461" lon="7.08597">
        <ele>2328.0322265625</ele>
        <time>2012-08-26T09:21:34Z</time>
      </trkpt>
      <trkpt lat="44.22472" lon="7.0859">
        <ele>2332.318359375</ele>
        <time>2012-08-26T09:21:41Z</time>
      </trkpt>
      <trkpt lat="44.22483" lon="7.0859">
        <ele>2341.1684570312</ele>
        <time>2012-08-26T09:21:48Z</time>
      </trkpt>
      <trkpt lat="44.22495" lon="7.08587">
        <ele>2349.3627929688</ele>
        <time>2012-08-26T09:21:53Z</time>
      </trkpt>
      <trkpt lat="44.22509" lon="7.08583">
        <ele>2354.7004394531</ele>
        <time>2012-08-26T09:21:59Z</time>
      </trkpt>
      <trkpt lat="44.22528" lon="7.08576">
        <ele>2360.9631347656</ele>
        <time>2012-08-26T09:22:06Z</time>
      </trkpt>
      <trkpt lat="44.22541" lon="7.08568">
        <ele>2364.1254882812</ele>
        <time>2012-08-26T09:22:11Z</time>
      </trkpt>
      <trkpt lat="44.22552" lon="7.08564">
        <ele>2366.859375</ele>
        <time>2012-08-26T09:22:16Z</time>
      </trkpt>
      <trkpt lat="44.22562" lon="7.08567">
        <ele>2369.951171875</ele>
        <time>2012-08-26T09:22:21Z</time>
      </trkpt>
      <trkpt lat="44.22567" lon="7.08571">
        <ele>2371.3395996094</ele>
        <time>2012-08-26T09:22:25Z</time>
      </trkpt>
      <trkpt lat="44.22568" lon="7.08573">
        <ele>2371.6291503906</ele>
        <time>2012-08-26T09:22:31Z</time>
      </trkpt>
      <trkpt lat="44.22568" lon="7.08573">
        <ele>2371.470703125</ele>
        <time>2012-08-26T09:22:42Z</time>
      </trkpt>
      <trkpt lat="44.22569" lon="7.08574">
        <ele>2371.6875</ele>
        <time>2012-08-26T09:22:48Z</time>
      </trkpt>
      <trkpt lat="44.22572" lon="7.0857">
        <ele>2372.9592285156</ele>
        <time>2012-08-26T09:22:56Z</time>
      </trkpt>
      <trkpt lat="44.22572" lon="7.08565">
        <ele>2373.3845214844</ele>
        <time>2012-08-26T09:23:04Z</time>
      </trkpt>
      <trkpt lat="44.22574" lon="7.08561">
        <ele>2374.4169921875</ele>
        <time>2012-08-26T09:23:11Z</time>
      </trkpt>
      <trkpt lat="44.22577" lon="7.08556">
        <ele>2375.6520996094</ele>
        <time>2012-08-26T09:23:21Z</time>
      </trkpt>
      <trkpt lat="44.2258" lon="7.08553">
        <ele>2376.9489746094</ele>
        <time>2012-08-26T09:23:31Z</time>
      </trkpt>
      <trkpt lat="44.22582" lon="7.08553">
        <ele>2377.8278808594</ele>
        <time>2012-08-26T09:23:39Z</time>
      </trkpt>
      <trkpt lat="44.22584" lon="7.08551">
        <ele>2378.7800292969</ele>
        <time>2012-08-26T09:23:45Z</time>
      </trkpt>
      <trkpt lat="44.22587" lon="7.08553">
        <ele>2380.2229003906</ele>
        <time>2012-08-26T09:23:52Z</time>
      </trkpt>
      <trkpt lat="44.2259" lon="7.08553">
        <ele>2381.5390625</ele>
        <time>2012-08-26T09:24:00Z</time>
      </trkpt>
      <trkpt lat="44.22591" lon="7.08554">
        <ele>2382.1960449219</ele>
        <time>2012-08-26T09:24:06Z</time>
      </trkpt>
      <trkpt lat="44.22594" lon="7.08556">
        <ele>2383.3439941406</ele>
        <time>2012-08-26T09:24:15Z</time>
      </trkpt>
      <trkpt lat="44.22596" lon="7.0856">
        <ele>2383.8566894531</ele>
        <time>2012-08-26T09:24:22Z</time>
      </trkpt>
      <trkpt lat="44.22599" lon="7.08566">
        <ele>2383.9223632812</ele>
        <time>2012-08-26T09:24:30Z</time>
      </trkpt>
      <trkpt lat="44.226" lon="7.08568">
        <ele>2384.1059570312</ele>
        <time>2012-08-26T09:24:38Z</time>
      </trkpt>
      <trkpt lat="44.22603" lon="7.08569">
        <ele>2385.1462402344</ele>
        <time>2012-08-26T09:24:46Z</time>
      </trkpt>
      <trkpt lat="44.22606" lon="7.08566">
        <ele>2387.2805175781</ele>
        <time>2012-08-26T09:24:54Z</time>
      </trkpt>
      <trkpt lat="44.22609" lon="7.08565">
        <ele>2388.6967773438</ele>
        <time>2012-08-26T09:25:03Z</time>
      </trkpt>
      <trkpt lat="44.22609" lon="7.08565">
        <ele>2388.8088378906</ele>
        <time>2012-08-26T09:25:11Z</time>
      </trkpt>
      <trkpt lat="44.2261" lon="7.08567">
        <ele>2388.8420410156</ele>
        <time>2012-08-26T09:25:18Z</time>
      </trkpt>
      <trkpt lat="44.22614" lon="7.08568">
        <ele>2389.6467285156</ele>
        <time>2012-08-26T09:25:26Z</time>
      </trkpt>
      <trkpt lat="44.22615" lon="7.08563">
        <ele>2391.3552246094</ele>
        <time>2012-08-26T09:25:32Z</time>
      </trkpt>
      <trkpt lat="44.22619" lon="7.08556">
        <ele>2393.876953125</ele>
        <time>2012-08-26T09:25:40Z</time>
      </trkpt>
      <trkpt lat="44.22621" lon="7.08546">
        <ele>2396.4377441406</ele>
        <time>2012-08-26T09:25:49Z</time>
      </trkpt>
      <trkpt lat="44.22624" lon="7.08546">
        <ele>2397.0971679688</ele>
        <time>2012-08-26T09:25:55Z</time>
      </trkpt>
      <trkpt lat="44.22628" lon="7.08552">
        <ele>2396.7683105469</ele>
        <time>2012-08-26T09:26:04Z</time>
      </trkpt>
      <trkpt lat="44.22631" lon="7.08559">
        <ele>2396.2434082031</ele>
        <time>2012-08-26T09:26:13Z</time>
      </trkpt>
      <trkpt lat="44.22633" lon="7.08562">
        <ele>2396.4396972656</ele>
        <time>2012-08-26T09:26:21Z</time>
      </trkpt>
      <trkpt lat="44.22635" lon="7.0856">
        <ele>2397.0749511719</ele>
        <time>2012-08-26T09:26:28Z</time>
      </trkpt>
      <trkpt lat="44.2264" lon="7.08557">
        <ele>2398.8713378906</ele>
        <time>2012-08-26T09:26:38Z</time>
      </trkpt>
      <trkpt lat="44.22643" lon="7.08553">
        <ele>2399.7807617188</ele>
        <time>2012-08-26T09:26:48Z</time>
      </trkpt>
      <trkpt lat="44.22644" lon="7.08548">
        <ele>2400.5239257812</ele>
        <time>2012-08-26T09:26:57Z</time>
      </trkpt>
      <trkpt lat="44.22645" lon="7.08546">
        <ele>2400.8735351562</ele>
        <time>2012-08-26T09:27:03Z</time>
      </trkpt>
      <trkpt lat="44.22647" lon="7.08545">
        <ele>2401.0720214844</ele>
        <time>2012-08-26T09:27:10Z</time>
      </trkpt>
      <trkpt lat="44.22649" lon="7.0854">
        <ele>2401.6279296875</ele>
        <time>2012-08-26T09:27:17Z</time>
      </trkpt>
      <trkpt lat="44.2265" lon="7.08536">
        <ele>2401.9970703125</ele>
        <time>2012-08-26T09:27:24Z</time>
      </trkpt>
      <trkpt lat="44.22651" lon="7.08533">
        <ele>2402.216796875</ele>
        <time>2012-08-26T09:27:30Z</time>
      </trkpt>
      <trkpt lat="44.22652" lon="7.08527">
        <ele>2402.6208496094</ele>
        <time>2012-08-26T09:27:38Z</time>
      </trkpt>
      <trkpt lat="44.22654" lon="7.08522">
        <ele>2402.8278808594</ele>
        <time>2012-08-26T09:27:46Z</time>
      </trkpt>
      <trkpt lat="44.22655" lon="7.08516">
        <ele>2403.2397460938</ele>
        <time>2012-08-26T09:27:56Z</time>
      </trkpt>
      <trkpt lat="44.22656" lon="7.0851">
        <ele>2403.4389648438</ele>
        <time>2012-08-26T09:28:05Z</time>
      </trkpt>
      <trkpt lat="44.22657" lon="7.08506">
        <ele>2403.3349609375</ele>
        <time>2012-08-26T09:28:13Z</time>
      </trkpt>
      <trkpt lat="44.22658" lon="7.08502">
        <ele>2403.4201660156</ele>
        <time>2012-08-26T09:28:22Z</time>
      </trkpt>
      <trkpt lat="44.2266" lon="7.085">
        <ele>2402.8911132812</ele>
        <time>2012-08-26T09:28:30Z</time>
      </trkpt>
      <trkpt lat="44.22662" lon="7.08496">
        <ele>2402.3542480469</ele>
        <time>2012-08-26T09:28:42Z</time>
      </trkpt>
      <trkpt lat="44.22665" lon="7.08494">
        <ele>2401.21484375</ele>
        <time>2012-08-26T09:28:47Z</time>
      </trkpt>
      <trkpt lat="44.22666" lon="7.08493">
        <ele>2400.9184570312</ele>
        <time>2012-08-26T09:28:48Z</time>
      </trkpt>
      <trkpt lat="44.22675" lon="7.08481">
        <ele>2403.3972167969</ele>
        <time>2012-08-26T09:28:56Z</time>
      </trkpt>
      <trkpt lat="44.22685" lon="7.08472">
        <ele>2406.5571289062</ele>
        <time>2012-08-26T09:29:03Z</time>
      </trkpt>
      <trkpt lat="44.22694" lon="7.08463">
        <ele>2409.0703125</ele>
        <time>2012-08-26T09:29:09Z</time>
      </trkpt>
      <trkpt lat="44.22702" lon="7.08454">
        <ele>2411.3400878906</ele>
        <time>2012-08-26T09:29:15Z</time>
      </trkpt>
      <trkpt lat="44.22714" lon="7.08443">
        <ele>2415.5935058594</ele>
        <time>2012-08-26T09:29:24Z</time>
      </trkpt>
      <trkpt lat="44.22723" lon="7.08437">
        <ele>2417.1394042969</ele>
        <time>2012-08-26T09:29:31Z</time>
      </trkpt>
      <trkpt lat="44.22731" lon="7.0843">
        <ele>2417.3349609375</ele>
        <time>2012-08-26T09:29:39Z</time>
      </trkpt>
      <trkpt lat="44.22738" lon="7.08425">
        <ele>2418.6384277344</ele>
        <time>2012-08-26T09:29:46Z</time>
      </trkpt>
      <trkpt lat="44.22745" lon="7.0842">
        <ele>2420.9760742188</ele>
        <time>2012-08-26T09:29:56Z</time>
      </trkpt>
      <trkpt lat="44.22745" lon="7.08419">
        <ele>2420.9384765625</ele>
        <time>2012-08-26T09:30:00Z</time>
      </trkpt>
      <trkpt lat="44.22748" lon="7.08418">
        <ele>2422.0322265625</ele>
        <time>2012-08-26T09:30:08Z</time>
      </trkpt>
      <trkpt lat="44.22752" lon="7.08416">
        <ele>2423.4719238281</ele>
        <time>2012-08-26T09:30:15Z</time>
      </trkpt>
      <trkpt lat="44.22754" lon="7.0841">
        <ele>2424.4167480469</ele>
        <time>2012-08-26T09:30:23Z</time>
      </trkpt>
      <trkpt lat="44.22758" lon="7.08406">
        <ele>2425.7373046875</ele>
        <time>2012-08-26T09:30:32Z</time>
      </trkpt>
      <trkpt lat="44.22761" lon="7.08401">
        <ele>2427.1721191406</ele>
        <time>2012-08-26T09:30:42Z</time>
      </trkpt>
      <trkpt lat="44.22763" lon="7.08399">
        <ele>2428.3972167969</ele>
        <time>2012-08-26T09:30:50Z</time>
      </trkpt>
      <trkpt lat="44.22767" lon="7.08394">
        <ele>2430.2919921875</ele>
        <time>2012-08-26T09:31:01Z</time>
      </trkpt>
      <trkpt lat="44.22769" lon="7.0839">
        <ele>2431.873046875</ele>
        <time>2012-08-26T09:31:09Z</time>
      </trkpt>
      <trkpt lat="44.22773" lon="7.08382">
        <ele>2434.7751464844</ele>
        <time>2012-08-26T09:31:19Z</time>
      </trkpt>
      <trkpt lat="44.22774" lon="7.08376">
        <ele>2436.0686035156</ele>
        <time>2012-08-26T09:31:26Z</time>
      </trkpt>
      <trkpt lat="44.22774" lon="7.0837">
        <ele>2437.0075683594</ele>
        <time>2012-08-26T09:31:34Z</time>
      </trkpt>
      <trkpt lat="44.22778" lon="7.08368">
        <ele>2440.0620117188</ele>
        <time>2012-08-26T09:31:42Z</time>
      </trkpt>
      <trkpt lat="44.22782" lon="7.08366">
        <ele>2442.046875</ele>
        <time>2012-08-26T09:31:51Z</time>
      </trkpt>
      <trkpt lat="44.22785" lon="7.08364">
        <ele>2443.7614746094</ele>
        <time>2012-08-26T09:32:00Z</time>
      </trkpt>
      <trkpt lat="44.22788" lon="7.08362">
        <ele>2445.6110839844</ele>
        <time>2012-08-26T09:32:08Z</time>
      </trkpt>
      <trkpt lat="44.22791" lon="7.08358">
        <ele>2447.765625</ele>
        <time>2012-08-26T09:32:17Z</time>
      </trkpt>
      <trkpt lat="44.22795" lon="7.08353">
        <ele>2450.6796875</ele>
        <time>2012-08-26T09:32:26Z</time>
      </trkpt>
      <trkpt lat="44.228" lon="7.08349">
        <ele>2453.5715332031</ele>
        <time>2012-08-26T09:32:34Z</time>
      </trkpt>
      <trkpt lat="44.22804" lon="7.08344">
        <ele>2456.9387207031</ele>
        <time>2012-08-26T09:32:44Z</time>
      </trkpt>
      <trkpt lat="44.2281" lon="7.08341">
        <ele>2458.7998046875</ele>
        <time>2012-08-26T09:32:53Z</time>
      </trkpt>
      <trkpt lat="44.22817" lon="7.08336">
        <ele>2460.2580566406</ele>
        <time>2012-08-26T09:33:03Z</time>
      </trkpt>
      <trkpt lat="44.22821" lon="7.08333">
        <ele>2461.1398925781</ele>
        <time>2012-08-26T09:33:12Z</time>
      </trkpt>
      <trkpt lat="44.22827" lon="7.08329">
        <ele>2459.8208007812</ele>
        <time>2012-08-26T09:33:24Z</time>
      </trkpt>
      <trkpt lat="44.2283" lon="7.08324">
        <ele>2458.5197753906</ele>
        <time>2012-08-26T09:33:33Z</time>
      </trkpt>
      <trkpt lat="44.22833" lon="7.0832">
        <ele>2457.7150878906</ele>
        <time>2012-08-26T09:33:42Z</time>
      </trkpt>
      <trkpt lat="44.22835" lon="7.08318">
        <ele>2457.1572265625</ele>
        <time>2012-08-26T09:33:50Z</time>
      </trkpt>
      <trkpt lat="44.22837" lon="7.08314">
        <ele>2456.4958496094</ele>
        <time>2012-08-26T09:33:58Z</time>
      </trkpt>
      <trkpt lat="44.22844" lon="7.08311">
        <ele>2456.8894042969</ele>
        <time>2012-08-26T09:34:07Z</time>
      </trkpt>
      <trkpt lat="44.22845" lon="7.08307">
        <ele>2456.4523925781</ele>
        <time>2012-08-26T09:34:14Z</time>
      </trkpt>
      <trkpt lat="44.22841" lon="7.083">
        <ele>2451.9130859375</ele>
        <time>2012-08-26T09:34:22Z</time>
      </trkpt>
      <trkpt lat="44.22843" lon="7.08297">
        <ele>2450.9038085938</ele>
        <time>2012-08-26T09:34:28Z</time>
      </trkpt>
      <trkpt lat="44.22846" lon="7.08296">
        <ele>2451.7514648438</ele>
        <time>2012-08-26T09:34:36Z</time>
      </trkpt>
      <trkpt lat="44.22849" lon="7.08293">
        <ele>2451.0512695312</ele>
        <time>2012-08-26T09:34:45Z</time>
      </trkpt>
      <trkpt lat="44.22851" lon="7.08288">
        <ele>2449.8991699219</ele>
        <time>2012-08-26T09:34:53Z</time>
      </trkpt>
      <trkpt lat="44.22853" lon="7.08284">
        <ele>2449.3552246094</ele>
        <time>2012-08-26T09:35:01Z</time>
      </trkpt>
      <trkpt lat="44.22855" lon="7.08278">
        <ele>2447.7233886719</ele>
        <time>2012-08-26T09:35:10Z</time>
      </trkpt>
      <trkpt lat="44.22856" lon="7.08272">
        <ele>2444.4775390625</ele>
        <time>2012-08-26T09:35:19Z</time>
      </trkpt>
      <trkpt lat="44.22857" lon="7.08267">
        <ele>2441.166015625</ele>
        <time>2012-08-26T09:35:25Z</time>
      </trkpt>
      <trkpt lat="44.22858" lon="7.08259">
        <ele>2436.4528808594</ele>
        <time>2012-08-26T09:35:34Z</time>
      </trkpt>
      <trkpt lat="44.2286" lon="7.08253">
        <ele>2432.8793945312</ele>
        <time>2012-08-26T09:35:42Z</time>
      </trkpt>
      <trkpt lat="44.2286" lon="7.08249">
        <ele>2430.8791503906</ele>
        <time>2012-08-26T09:36:07Z</time>
      </trkpt>
      <trkpt lat="44.22859" lon="7.08249">
        <ele>2430.3125</ele>
        <time>2012-08-26T09:36:15Z</time>
      </trkpt>
      <trkpt lat="44.22858" lon="7.08248">
        <ele>2429.0405273438</ele>
        <time>2012-08-26T09:36:31Z</time>
      </trkpt>
      <trkpt lat="44.22858" lon="7.08249">
        <ele>2429.4067382812</ele>
        <time>2012-08-26T09:36:42Z</time>
      </trkpt>
      <trkpt lat="44.22857" lon="7.0825">
        <ele>2429.5749511719</ele>
        <time>2012-08-26T09:36:52Z</time>
      </trkpt>
      <trkpt lat="44.22857" lon="7.0825">
        <ele>2429.3837890625</ele>
        <time>2012-08-26T09:37:14Z</time>
      </trkpt>
      <trkpt lat="44.22859" lon="7.08246">
        <ele>2428.3447265625</ele>
        <time>2012-08-26T09:37:29Z</time>
      </trkpt>
      <trkpt lat="44.2286" lon="7.08246">
        <ele>2428.1708984375</ele>
        <time>2012-08-26T09:37:33Z</time>
      </trkpt>
      <trkpt lat="44.2286" lon="7.08246">
        <ele>2428.5910644531</ele>
        <time>2012-08-26T09:37:38Z</time>
      </trkpt>
      <trkpt lat="44.22859" lon="7.08246">
        <ele>2428.5061035156</ele>
        <time>2012-08-26T09:37:41Z</time>
      </trkpt>
      <trkpt lat="44.22859" lon="7.08248">
        <ele>2429.376953125</ele>
        <time>2012-08-26T09:38:17Z</time>
      </trkpt>
      <trkpt lat="44.22859" lon="7.08248">
        <ele>2429.4738769531</ele>
        <time>2012-08-26T09:38:20Z</time>
      </trkpt>
      <trkpt lat="44.2286" lon="7.08249">
        <ele>2430.3369140625</ele>
        <time>2012-08-26T09:40:30Z</time>
      </trkpt>
      <trkpt lat="44.2286" lon="7.0825">
        <ele>2430.9836425781</ele>
        <time>2012-08-26T09:41:09Z</time>
      </trkpt>
      <trkpt lat="44.2286" lon="7.08247">
        <ele>2429.3671875</ele>
        <time>2012-08-26T09:41:28Z</time>
      </trkpt>
      <trkpt lat="44.22859" lon="7.08247">
        <ele>2429.0222167969</ele>
        <time>2012-08-26T09:41:30Z</time>
      </trkpt>
      <trkpt lat="44.22859" lon="7.08247">
        <ele>2428.9675292969</ele>
        <time>2012-08-26T09:41:33Z</time>
      </trkpt>
      <trkpt lat="44.2286" lon="7.08247">
        <ele>2429.1408691406</ele>
        <time>2012-08-26T09:41:37Z</time>
      </trkpt>
      <trkpt lat="44.22858" lon="7.08247">
        <ele>2428.2055664062</ele>
        <time>2012-08-26T09:41:44Z</time>
      </trkpt>
      <trkpt lat="44.22858" lon="7.08247">
        <ele>2428.5034179688</ele>
        <time>2012-08-26T09:41:54Z</time>
      </trkpt>
      <trkpt lat="44.22857" lon="7.08247">
        <ele>2427.5373535156</ele>
        <time>2012-08-26T09:42:02Z</time>
      </trkpt>
      <trkpt lat="44.22857" lon="7.08244">
        <ele>2425.4162597656</ele>
        <time>2012-08-26T09:42:05Z</time>
      </trkpt>
      <trkpt lat="44.22857" lon="7.08244">
        <ele>2425.818359375</ele>
        <time>2012-08-26T09:42:09Z</time>
      </trkpt>
      <trkpt lat="44.22858" lon="7.08245">
        <ele>2427.1574707031</ele>
        <time>2012-08-26T09:42:17Z</time>
      </trkpt>
      <trkpt lat="44.22858" lon="7.08245">
        <ele>2427.4025878906</ele>
        <time>2012-08-26T09:42:32Z</time>
      </trkpt>
      <trkpt lat="44.22859" lon="7.08245">
        <ele>2427.4868164062</ele>
        <time>2012-08-26T09:42:36Z</time>
      </trkpt>
      <trkpt lat="44.22859" lon="7.08245">
        <ele>2427.3901367188</ele>
        <time>2012-08-26T09:42:39Z</time>
      </trkpt>
      <trkpt lat="44.22859" lon="7.08245">
        <ele>2426.9716796875</ele>
        <time>2012-08-26T09:42:42Z</time>
      </trkpt>
      <trkpt lat="44.22858" lon="7.08244">
        <ele>2426.6638183594</ele>
        <time>2012-08-26T09:43:24Z</time>
      </trkpt>
      <trkpt lat="44.22857" lon="7.08246">
        <ele>2427.0598144531</ele>
        <time>2012-08-26T09:43:45Z</time>
      </trkpt>
      <trkpt lat="44.22857" lon="7.08247">
        <ele>2427.8557128906</ele>
        <time>2012-08-26T09:43:54Z</time>
      </trkpt>
      <trkpt lat="44.22857" lon="7.08248">
        <ele>2428.19921875</ele>
        <time>2012-08-26T09:43:56Z</time>
      </trkpt>
      <trkpt lat="44.22857" lon="7.08248">
        <ele>2428.2312011719</ele>
        <time>2012-08-26T09:43:57Z</time>
      </trkpt>
      <trkpt lat="44.22857" lon="7.08248">
        <ele>2428.4226074219</ele>
        <time>2012-08-26T09:44:00Z</time>
      </trkpt>
      <trkpt lat="44.22857" lon="7.08248">
        <ele>2428.1674804688</ele>
        <time>2012-08-26T09:44:12Z</time>
      </trkpt>
      <trkpt lat="44.22858" lon="7.08248">
        <ele>2429.2084960938</ele>
        <time>2012-08-26T09:44:33Z</time>
      </trkpt>
      <trkpt lat="44.22858" lon="7.08248">
        <ele>2428.6713867188</ele>
        <time>2012-08-26T09:44:39Z</time>
      </trkpt>
      <trkpt lat="44.22858" lon="7.08244">
        <ele>2425.8894042969</ele>
        <time>2012-08-26T09:44:54Z</time>
      </trkpt>
      <trkpt lat="44.22858" lon="7.08244">
        <ele>2425.6975097656</ele>
        <time>2012-08-26T09:45:13Z</time>
      </trkpt>
      <trkpt lat="44.22867" lon="7.08237">
        <ele>2425.6999511719</ele>
        <time>2012-08-26T09:45:19Z</time>
      </trkpt>
      <trkpt lat="44.22887" lon="7.08223">
        <ele>2426.072265625</ele>
        <time>2012-08-26T09:45:25Z</time>
      </trkpt>
      <trkpt lat="44.22901" lon="7.08215">
        <ele>2430.109375</ele>
        <time>2012-08-26T09:45:29Z</time>
      </trkpt>
      <trkpt lat="44.22908" lon="7.0821">
        <ele>2431.3698730469</ele>
        <time>2012-08-26T09:45:33Z</time>
      </trkpt>
      <trkpt lat="44.22913" lon="7.08205">
        <ele>2431.5817871094</ele>
        <time>2012-08-26T09:45:36Z</time>
      </trkpt>
      <trkpt lat="44.22915" lon="7.08203">
        <ele>2431.6804199219</ele>
        <time>2012-08-26T09:45:38Z</time>
      </trkpt>
      <trkpt lat="44.22919" lon="7.08201">
        <ele>2432.68359375</ele>
        <time>2012-08-26T09:45:41Z</time>
      </trkpt>
      <trkpt lat="44.22919" lon="7.08202">
        <ele>2432.9038085938</ele>
        <time>2012-08-26T09:45:42Z</time>
      </trkpt>
      <trkpt lat="44.22919" lon="7.08202">
        <ele>2433.2016601562</ele>
        <time>2012-08-26T09:45:45Z</time>
      </trkpt>
      <trkpt lat="44.2292" lon="7.08202">
        <ele>2433.6555175781</ele>
        <time>2012-08-26T09:45:50Z</time>
      </trkpt>
      <trkpt lat="44.22922" lon="7.08201">
        <ele>2433.7170410156</ele>
        <time>2012-08-26T09:45:53Z</time>
      </trkpt>
      <trkpt lat="44.22927" lon="7.08195">
        <ele>2432.8815917969</ele>
        <time>2012-08-26T09:46:00Z</time>
      </trkpt>
      <trkpt lat="44.22934" lon="7.08189">
        <ele>2433.265625</ele>
        <time>2012-08-26T09:46:08Z</time>
      </trkpt>
      <trkpt lat="44.22938" lon="7.08182">
        <ele>2432.150390625</ele>
        <time>2012-08-26T09:46:14Z</time>
      </trkpt>
      <trkpt lat="44.22944" lon="7.08178">
        <ele>2432.9455566406</ele>
        <time>2012-08-26T09:46:20Z</time>
      </trkpt>
      <trkpt lat="44.22946" lon="7.08176">
        <ele>2433.2084960938</ele>
        <time>2012-08-26T09:46:22Z</time>
      </trkpt>
      <trkpt lat="44.22947" lon="7.08175">
        <ele>2433.4860839844</ele>
        <time>2012-08-26T09:46:24Z</time>
      </trkpt>
      <trkpt lat="44.22953" lon="7.08166">
        <ele>2433.3461914062</ele>
        <time>2012-08-26T09:46:31Z</time>
      </trkpt>
      <trkpt lat="44.2296" lon="7.08161">
        <ele>2435.1416015625</ele>
        <time>2012-08-26T09:46:38Z</time>
      </trkpt>
      <trkpt lat="44.22972" lon="7.08159">
        <ele>2441.3774414062</ele>
        <time>2012-08-26T09:46:46Z</time>
      </trkpt>
      <trkpt lat="44.22982" lon="7.08153">
        <ele>2442.0939941406</ele>
        <time>2012-08-26T09:46:54Z</time>
      </trkpt>
      <trkpt lat="44.2299" lon="7.08146">
        <ele>2441.9318847656</ele>
        <time>2012-08-26T09:47:01Z</time>
      </trkpt>
      <trkpt lat="44.22993" lon="7.08144">
        <ele>2442.1291503906</ele>
        <time>2012-08-26T09:47:19Z</time>
      </trkpt>
      <trkpt lat="44.22999" lon="7.08141">
        <ele>2442.5075683594</ele>
        <time>2012-08-26T09:47:27Z</time>
      </trkpt>
      <trkpt lat="44.22999" lon="7.0814">
        <ele>2442.04296875</ele>
        <time>2012-08-26T09:47:28Z</time>
      </trkpt>
      <trkpt lat="44.23009" lon="7.08127">
        <ele>2441.0844726562</ele>
        <time>2012-08-26T09:47:35Z</time>
      </trkpt>
      <trkpt lat="44.23017" lon="7.08114">
        <ele>2438.6882324219</ele>
        <time>2012-08-26T09:47:40Z</time>
      </trkpt>
      <trkpt lat="44.23032" lon="7.08098">
        <ele>2441.3522949219</ele>
        <time>2012-08-26T09:47:45Z</time>
      </trkpt>
      <trkpt lat="44.23041" lon="7.08083">
        <ele>2444.8142089844</ele>
        <time>2012-08-26T09:47:49Z</time>
      </trkpt>
      <trkpt lat="44.23045" lon="7.08077">
        <ele>2446.9753417969</ele>
        <time>2012-08-26T09:47:51Z</time>
      </trkpt>
      <trkpt lat="44.23052" lon="7.08072">
        <ele>2451.9211425781</ele>
        <time>2012-08-26T09:47:56Z</time>
      </trkpt>
      <trkpt lat="44.23056" lon="7.0807">
        <ele>2454.3759765625</ele>
        <time>2012-08-26T09:48:00Z</time>
      </trkpt>
      <trkpt lat="44.23056" lon="7.08071">
        <ele>2454.8469238281</ele>
        <time>2012-08-26T09:48:21Z</time>
      </trkpt>
      <trkpt lat="44.23057" lon="7.08073">
        <ele>2455.2980957031</ele>
        <time>2012-08-26T09:48:23Z</time>
      </trkpt>
      <trkpt lat="44.23057" lon="7.08073">
        <ele>2455.3352050781</ele>
        <time>2012-08-26T09:48:25Z</time>
      </trkpt>
      <trkpt lat="44.23056" lon="7.08075">
        <ele>2455.3901367188</ele>
        <time>2012-08-26T09:48:32Z</time>
      </trkpt>
      <trkpt lat="44.23055" lon="7.08085">
        <ele>2455.4609375</ele>
        <time>2012-08-26T09:48:37Z</time>
      </trkpt>
      <trkpt lat="44.23059" lon="7.08098">
        <ele>2459.2924804688</ele>
        <time>2012-08-26T09:48:41Z</time>
      </trkpt>
      <trkpt lat="44.23063" lon="7.08106">
        <ele>2460.4802246094</ele>
        <time>2012-08-26T09:48:43Z</time>
      </trkpt>
      <trkpt lat="44.23074" lon="7.08119">
        <ele>2460.3864746094</ele>
        <time>2012-08-26T09:48:47Z</time>
      </trkpt>
      <trkpt lat="44.23087" lon="7.08132">
        <ele>2457.3864746094</ele>
        <time>2012-08-26T09:48:51Z</time>
      </trkpt>
      <trkpt lat="44.23089" lon="7.08143">
        <ele>2454.2231445312</ele>
        <time>2012-08-26T09:48:54Z</time>
      </trkpt>
      <trkpt lat="44.23086" lon="7.08157">
        <ele>2450.6735839844</ele>
        <time>2012-08-26T09:48:58Z</time>
      </trkpt>
      <trkpt lat="44.23079" lon="7.0818">
        <ele>2451.1213378906</ele>
        <time>2012-08-26T09:49:05Z</time>
      </trkpt>
      <trkpt lat="44.23079" lon="7.082">
        <ele>2450.5842285156</ele>
        <time>2012-08-26T09:49:11Z</time>
      </trkpt>
      <trkpt lat="44.2308" lon="7.08211">
        <ele>2449.4787597656</ele>
        <time>2012-08-26T09:49:15Z</time>
      </trkpt>
      <trkpt lat="44.23074" lon="7.08221">
        <ele>2455.3784179688</ele>
        <time>2012-08-26T09:49:20Z</time>
      </trkpt>
      <trkpt lat="44.23072" lon="7.08229">
        <ele>2457.2072753906</ele>
        <time>2012-08-26T09:49:26Z</time>
      </trkpt>
      <trkpt lat="44.23072" lon="7.08231">
        <ele>2457.5832519531</ele>
        <time>2012-08-26T09:49:27Z</time>
      </trkpt>
      <trkpt lat="44.23079" lon="7.08253">
        <ele>2450.1345214844</ele>
        <time>2012-08-26T09:49:33Z</time>
      </trkpt>
      <trkpt lat="44.2308" lon="7.08274">
        <ele>2449.7097167969</ele>
        <time>2012-08-26T09:49:38Z</time>
      </trkpt>
      <trkpt lat="44.23085" lon="7.08299">
        <ele>2442.8754882812</ele>
        <time>2012-08-26T09:49:43Z</time>
      </trkpt>
      <trkpt lat="44.23085" lon="7.08303">
        <ele>2442.5324707031</ele>
        <time>2012-08-26T09:49:44Z</time>
      </trkpt>
      <trkpt lat="44.23077" lon="7.08324">
        <ele>2450.7517089844</ele>
        <time>2012-08-26T09:49:50Z</time>
      </trkpt>
      <trkpt lat="44.23077" lon="7.08342">
        <ele>2449.2038574219</ele>
        <time>2012-08-26T09:49:55Z</time>
      </trkpt>
      <trkpt lat="44.23071" lon="7.08351">
        <ele>2453.4069824219</ele>
        <time>2012-08-26T09:49:59Z</time>
      </trkpt>
      <trkpt lat="44.23062" lon="7.08365">
        <ele>2456.8461914062</ele>
        <time>2012-08-26T09:50:04Z</time>
      </trkpt>
      <trkpt lat="44.2305" lon="7.08382">
        <ele>2457.0187988281</ele>
        <time>2012-08-26T09:50:08Z</time>
      </trkpt>
      <trkpt lat="44.23052" lon="7.08413">
        <ele>2442.869140625</ele>
        <time>2012-08-26T09:50:13Z</time>
      </trkpt>
      <trkpt lat="44.23053" lon="7.08417">
        <ele>2440.8076171875</ele>
        <time>2012-08-26T09:50:14Z</time>
      </trkpt>
      <trkpt lat="44.23056" lon="7.0844">
        <ele>2438.8093261719</ele>
        <time>2012-08-26T09:50:19Z</time>
      </trkpt>
      <trkpt lat="44.23066" lon="7.08465">
        <ele>2432.6538085938</ele>
        <time>2012-08-26T09:50:24Z</time>
      </trkpt>
      <trkpt lat="44.23071" lon="7.08485">
        <ele>2428.8854980469</ele>
        <time>2012-08-26T09:50:28Z</time>
      </trkpt>
      <trkpt lat="44.23075" lon="7.08502">
        <ele>2425.4633789062</ele>
        <time>2012-08-26T09:50:31Z</time>
      </trkpt>
      <trkpt lat="44.23083" lon="7.0853">
        <ele>2422.2041015625</ele>
        <time>2012-08-26T09:50:36Z</time>
      </trkpt>
      <trkpt lat="44.23094" lon="7.08553">
        <ele>2419.2836914062</ele>
        <time>2012-08-26T09:50:41Z</time>
      </trkpt>
      <trkpt lat="44.231" lon="7.0857">
        <ele>2418.1301269531</ele>
        <time>2012-08-26T09:50:47Z</time>
      </trkpt>
      <trkpt lat="44.23101" lon="7.08575">
        <ele>2417.9450683594</ele>
        <time>2012-08-26T09:50:51Z</time>
      </trkpt>
      <trkpt lat="44.23104" lon="7.08597">
        <ele>2418.1640625</ele>
        <time>2012-08-26T09:50:58Z</time>
      </trkpt>
      <trkpt lat="44.23104" lon="7.08617">
        <ele>2419.8134765625</ele>
        <time>2012-08-26T09:51:02Z</time>
      </trkpt>
      <trkpt lat="44.23109" lon="7.08633">
        <ele>2417.6994628906</ele>
        <time>2012-08-26T09:51:07Z</time>
      </trkpt>
      <trkpt lat="44.23117" lon="7.08653">
        <ele>2414.1262207031</ele>
        <time>2012-08-26T09:51:15Z</time>
      </trkpt>
      <trkpt lat="44.23124" lon="7.08669">
        <ele>2411.2580566406</ele>
        <time>2012-08-26T09:51:22Z</time>
      </trkpt>
      <trkpt lat="44.23131" lon="7.08686">
        <ele>2409.7687988281</ele>
        <time>2012-08-26T09:51:30Z</time>
      </trkpt>
      <trkpt lat="44.23133" lon="7.08697">
        <ele>2410.7836914062</ele>
        <time>2012-08-26T09:51:35Z</time>
      </trkpt>
      <trkpt lat="44.23132" lon="7.08713">
        <ele>2414.0524902344</ele>
        <time>2012-08-26T09:51:41Z</time>
      </trkpt>
      <trkpt lat="44.23131" lon="7.08717">
        <ele>2414.8872070312</ele>
        <time>2012-08-26T09:51:42Z</time>
      </trkpt>
      <trkpt lat="44.23129" lon="7.0874">
        <ele>2421.4084472656</ele>
        <time>2012-08-26T09:51:48Z</time>
      </trkpt>
      <trkpt lat="44.23151" lon="7.08752">
        <ele>2410.0439453125</ele>
        <time>2012-08-26T09:51:55Z</time>
      </trkpt>
      <trkpt lat="44.23161" lon="7.08765">
        <ele>2406.9560546875</ele>
        <time>2012-08-26T09:52:01Z</time>
      </trkpt>
      <trkpt lat="44.2317" lon="7.08782">
        <ele>2406.0715332031</ele>
        <time>2012-08-26T09:52:07Z</time>
      </trkpt>
      <trkpt lat="44.23176" lon="7.08793">
        <ele>2405.6091308594</ele>
        <time>2012-08-26T09:52:12Z</time>
      </trkpt>
      <trkpt lat="44.23178" lon="7.08805">
        <ele>2407.0478515625</ele>
        <time>2012-08-26T09:52:17Z</time>
      </trkpt>
      <trkpt lat="44.23185" lon="7.08828">
        <ele>2407.7834472656</ele>
        <time>2012-08-26T09:52:22Z</time>
      </trkpt>
      <trkpt lat="44.23191" lon="7.08842">
        <ele>2407.4299316406</ele>
        <time>2012-08-26T09:52:26Z</time>
      </trkpt>
      <trkpt lat="44.23205" lon="7.08864">
        <ele>2404.794921875</ele>
        <time>2012-08-26T09:52:31Z</time>
      </trkpt>
      <trkpt lat="44.23217" lon="7.08876">
        <ele>2398.0434570312</ele>
        <time>2012-08-26T09:52:35Z</time>
      </trkpt>
      <trkpt lat="44.23227" lon="7.08887">
        <ele>2390.5390625</ele>
        <time>2012-08-26T09:52:40Z</time>
      </trkpt>
      <trkpt lat="44.23236" lon="7.08896">
        <ele>2386.5278320312</ele>
        <time>2012-08-26T09:52:44Z</time>
      </trkpt>
      <trkpt lat="44.23246" lon="7.08922">
        <ele>2385.2551269531</ele>
        <time>2012-08-26T09:52:49Z</time>
      </trkpt>
      <trkpt lat="44.23264" lon="7.08945">
        <ele>2382.041015625</ele>
        <time>2012-08-26T09:52:54Z</time>
      </trkpt>
      <trkpt lat="44.23278" lon="7.08951">
        <ele>2374.2158203125</ele>
        <time>2012-08-26T09:52:58Z</time>
      </trkpt>
      <trkpt lat="44.23302" lon="7.08951">
        <ele>2368.5451660156</ele>
        <time>2012-08-26T09:53:03Z</time>
      </trkpt>
      <trkpt lat="44.23323" lon="7.08952">
        <ele>2363.7756347656</ele>
        <time>2012-08-26T09:53:08Z</time>
      </trkpt>
      <trkpt lat="44.23344" lon="7.08953">
        <ele>2359.7258300781</ele>
        <time>2012-08-26T09:53:14Z</time>
      </trkpt>
      <trkpt lat="44.23357" lon="7.08955">
        <ele>2358.7473144531</ele>
        <time>2012-08-26T09:53:20Z</time>
      </trkpt>
      <trkpt lat="44.23368" lon="7.08955">
        <ele>2358.9614257812</ele>
        <time>2012-08-26T09:53:26Z</time>
      </trkpt>
      <trkpt lat="44.23373" lon="7.08956">
        <ele>2359.6628417969</ele>
        <time>2012-08-26T09:53:29Z</time>
      </trkpt>
      <trkpt lat="44.23384" lon="7.08963">
        <ele>2364.3239746094</ele>
        <time>2012-08-26T09:53:34Z</time>
      </trkpt>
      <trkpt lat="44.23387" lon="7.08963">
        <ele>2364.6303710938</ele>
        <time>2012-08-26T09:53:35Z</time>
      </trkpt>
      <trkpt lat="44.23395" lon="7.08968">
        <ele>2367.9033203125</ele>
        <time>2012-08-26T09:53:40Z</time>
      </trkpt>
      <trkpt lat="44.23399" lon="7.08968">
        <ele>2367.9094238281</ele>
        <time>2012-08-26T09:53:42Z</time>
      </trkpt>
      <trkpt lat="44.23407" lon="7.08979">
        <ele>2372.3391113281</ele>
        <time>2012-08-26T09:53:47Z</time>
      </trkpt>
      <trkpt lat="44.23407" lon="7.08981">
        <ele>2373.0534667969</ele>
        <time>2012-08-26T09:53:48Z</time>
      </trkpt>
      <trkpt lat="44.23409" lon="7.08996">
        <ele>2377.8786621094</ele>
        <time>2012-08-26T09:53:54Z</time>
      </trkpt>
      <trkpt lat="44.23405" lon="7.09009">
        <ele>2384.9404296875</ele>
        <time>2012-08-26T09:53:59Z</time>
      </trkpt>
      <trkpt lat="44.23406" lon="7.09022">
        <ele>2391.5788574219</ele>
        <time>2012-08-26T09:54:04Z</time>
      </trkpt>
      <trkpt lat="44.23406" lon="7.09025">
        <ele>2392.8034667969</ele>
        <time>2012-08-26T09:54:12Z</time>
      </trkpt>
      <trkpt lat="44.23413" lon="7.09031">
        <ele>2393.5441894531</ele>
        <time>2012-08-26T09:54:17Z</time>
      </trkpt>
      <trkpt lat="44.23417" lon="7.09043">
        <ele>2396.7507324219</ele>
        <time>2012-08-26T09:54:26Z</time>
      </trkpt>
      <trkpt lat="44.2342" lon="7.09045">
        <ele>2395.8176269531</ele>
        <time>2012-08-26T09:54:30Z</time>
      </trkpt>
      <trkpt lat="44.23425" lon="7.09047">
        <ele>2393.7512207031</ele>
        <time>2012-08-26T09:54:38Z</time>
      </trkpt>
      <trkpt lat="44.23433" lon="7.09055">
        <ele>2390.3942871094</ele>
        <time>2012-08-26T09:54:42Z</time>
      </trkpt>
      <trkpt lat="44.23443" lon="7.09059">
        <ele>2384.98046875</ele>
        <time>2012-08-26T09:54:46Z</time>
      </trkpt>
      <trkpt lat="44.23446" lon="7.09065">
        <ele>2383.7836914062</ele>
        <time>2012-08-26T09:54:48Z</time>
      </trkpt>
      <trkpt lat="44.23441" lon="7.09081">
        <ele>2392.3017578125</ele>
        <time>2012-08-26T09:54:53Z</time>
      </trkpt>
      <trkpt lat="44.23444" lon="7.09096">
        <ele>2394.9128417969</ele>
        <time>2012-08-26T09:54:57Z</time>
      </trkpt>
      <trkpt lat="44.23451" lon="7.0911">
        <ele>2393.2868652344</ele>
        <time>2012-08-26T09:55:02Z</time>
      </trkpt>
      <trkpt lat="44.23454" lon="7.09113">
        <ele>2391.1213378906</ele>
        <time>2012-08-26T09:55:04Z</time>
      </trkpt>
      <trkpt lat="44.23456" lon="7.09115">
        <ele>2389.5810546875</ele>
        <time>2012-08-26T09:55:09Z</time>
      </trkpt>
      <trkpt lat="44.23455" lon="7.09116">
        <ele>2389.9555664062</ele>
        <time>2012-08-26T09:55:22Z</time>
      </trkpt>
      <trkpt lat="44.23454" lon="7.09118">
        <ele>2390.1845703125</ele>
        <time>2012-08-26T09:55:28Z</time>
      </trkpt>
      <trkpt lat="44.23454" lon="7.09117">
        <ele>2390.2521972656</ele>
        <time>2012-08-26T09:55:32Z</time>
      </trkpt>
      <trkpt lat="44.23454" lon="7.09117">
        <ele>2390.4560546875</ele>
        <time>2012-08-26T09:55:35Z</time>
      </trkpt>
      <trkpt lat="44.23454" lon="7.09117">
        <ele>2390.2971191406</ele>
        <time>2012-08-26T09:55:36Z</time>
      </trkpt>
      <trkpt lat="44.23454" lon="7.09117">
        <ele>2390.3347167969</ele>
        <time>2012-08-26T09:55:47Z</time>
      </trkpt>
      <trkpt lat="44.23454" lon="7.09117">
        <ele>2390.20703125</ele>
        <time>2012-08-26T09:55:54Z</time>
      </trkpt>
      <trkpt lat="44.23455" lon="7.09117">
        <ele>2390.0603027344</ele>
        <time>2012-08-26T09:56:03Z</time>
      </trkpt>
      <trkpt lat="44.23455" lon="7.09117">
        <ele>2390.0808105469</ele>
        <time>2012-08-26T09:56:05Z</time>
      </trkpt>
      <trkpt lat="44.23454" lon="7.09116">
        <ele>2390.4997558594</ele>
        <time>2012-08-26T09:56:47Z</time>
      </trkpt>
      <trkpt lat="44.23454" lon="7.09115">
        <ele>2390.5224609375</ele>
        <time>2012-08-26T09:56:59Z</time>
      </trkpt>
      <trkpt lat="44.23455" lon="7.09116">
        <ele>2390.0349121094</ele>
        <time>2012-08-26T09:57:01Z</time>
      </trkpt>
      <trkpt lat="44.23455" lon="7.09116">
        <ele>2390.041015625</ele>
        <time>2012-08-26T09:57:03Z</time>
      </trkpt>
      <trkpt lat="44.23456" lon="7.09115">
        <ele>2389.3776855469</ele>
        <time>2012-08-26T09:57:07Z</time>
      </trkpt>
      <trkpt lat="44.23457" lon="7.09115">
        <ele>2389.1062011719</ele>
        <time>2012-08-26T09:57:12Z</time>
      </trkpt>
      <trkpt lat="44.23457" lon="7.09116">
        <ele>2389.0573730469</ele>
        <time>2012-08-26T09:57:18Z</time>
      </trkpt>
      <trkpt lat="44.23462" lon="7.09118">
        <ele>2386.3627929688</ele>
        <time>2012-08-26T09:57:23Z</time>
      </trkpt>
      <trkpt lat="44.23465" lon="7.0912">
        <ele>2385.1022949219</ele>
        <time>2012-08-26T09:57:25Z</time>
      </trkpt>
      <trkpt lat="44.23463" lon="7.09115">
        <ele>2384.8090820312</ele>
        <time>2012-08-26T09:57:30Z</time>
      </trkpt>
      <trkpt lat="44.23461" lon="7.09107">
        <ele>2384.3420410156</ele>
        <time>2012-08-26T09:57:36Z</time>
      </trkpt>
      <trkpt lat="44.23464" lon="7.09107">
        <ele>2381.6599121094</ele>
        <time>2012-08-26T09:57:38Z</time>
      </trkpt>
      <trkpt lat="44.23479" lon="7.09104">
        <ele>2370.9223632812</ele>
        <time>2012-08-26T09:57:45Z</time>
      </trkpt>
      <trkpt lat="44.23483" lon="7.09103">
        <ele>2369.0422363281</ele>
        <time>2012-08-26T09:57:50Z</time>
      </trkpt>
      <trkpt lat="44.23484" lon="7.09102">
        <ele>2368.0310058594</ele>
        <time>2012-08-26T09:57:54Z</time>
      </trkpt>
      <trkpt lat="44.23485" lon="7.09103">
        <ele>2368.0673828125</ele>
        <time>2012-08-26T09:57:57Z</time>
      </trkpt>
      <trkpt lat="44.23487" lon="7.09101">
        <ele>2366.2214355469</ele>
        <time>2012-08-26T09:58:03Z</time>
      </trkpt>
      <trkpt lat="44.23499" lon="7.09096">
        <ele>2358.2231445312</ele>
        <time>2012-08-26T09:58:08Z</time>
      </trkpt>
      <trkpt lat="44.23508" lon="7.09088">
        <ele>2353.6149902344</ele>
        <time>2012-08-26T09:58:13Z</time>
      </trkpt>
      <trkpt lat="44.23519" lon="7.09082">
        <ele>2351.3151855469</ele>
        <time>2012-08-26T09:58:17Z</time>
      </trkpt>
      <trkpt lat="44.23529" lon="7.09074">
        <ele>2349.244140625</ele>
        <time>2012-08-26T09:58:22Z</time>
      </trkpt>
      <trkpt lat="44.23531" lon="7.09071">
        <ele>2347.9880371094</ele>
        <time>2012-08-26T09:58:25Z</time>
      </trkpt>
      <trkpt lat="44.2353" lon="7.09066">
        <ele>2345.1791992188</ele>
        <time>2012-08-26T09:58:29Z</time>
      </trkpt>
      <trkpt lat="44.23532" lon="7.09064">
        <ele>2344.8059082031</ele>
        <time>2012-08-26T09:58:30Z</time>
      </trkpt>
      <trkpt lat="44.23537" lon="7.0906">
        <ele>2344.0026855469</ele>
        <time>2012-08-26T09:58:33Z</time>
      </trkpt>
      <trkpt lat="44.23542" lon="7.09054">
        <ele>2341.7475585938</ele>
        <time>2012-08-26T09:58:37Z</time>
      </trkpt>
      <trkpt lat="44.2355" lon="7.09041">
        <ele>2335.0412597656</ele>
        <time>2012-08-26T09:58:43Z</time>
      </trkpt>
      <trkpt lat="44.23556" lon="7.09038">
        <ele>2334.4362792969</ele>
        <time>2012-08-26T09:58:45Z</time>
      </trkpt>
      <trkpt lat="44.2357" lon="7.09033">
        <ele>2332.7202148438</ele>
        <time>2012-08-26T09:58:51Z</time>
      </trkpt>
      <trkpt lat="44.23573" lon="7.09032">
        <ele>2332.4528808594</ele>
        <time>2012-08-26T09:58:53Z</time>
      </trkpt>
      <trkpt lat="44.23572" lon="7.09027">
        <ele>2328.904296875</ele>
        <time>2012-08-26T09:58:58Z</time>
      </trkpt>
      <trkpt lat="44.23581" lon="7.09027">
        <ele>2328.9423828125</ele>
        <time>2012-08-26T09:59:04Z</time>
      </trkpt>
      <trkpt lat="44.23585" lon="7.09023">
        <ele>2327.0031738281</ele>
        <time>2012-08-26T09:59:08Z</time>
      </trkpt>
      <trkpt lat="44.23595" lon="7.09012">
        <ele>2320.1857910156</ele>
        <time>2012-08-26T09:59:15Z</time>
      </trkpt>
      <trkpt lat="44.23599" lon="7.09009">
        <ele>2318.4089355469</ele>
        <time>2012-08-26T09:59:17Z</time>
      </trkpt>
      <trkpt lat="44.23607" lon="7.09">
        <ele>2312.5417480469</ele>
        <time>2012-08-26T09:59:23Z</time>
      </trkpt>
      <trkpt lat="44.23618" lon="7.08991">
        <ele>2309.5837402344</ele>
        <time>2012-08-26T09:59:28Z</time>
      </trkpt>
      <trkpt lat="44.2362" lon="7.0899">
        <ele>2309.1069335938</ele>
        <time>2012-08-26T09:59:31Z</time>
      </trkpt>
      <trkpt lat="44.23622" lon="7.08989">
        <ele>2308.80859375</ele>
        <time>2012-08-26T09:59:32Z</time>
      </trkpt>
      <trkpt lat="44.23637" lon="7.08979">
        <ele>2305.0356445312</ele>
        <time>2012-08-26T09:59:39Z</time>
      </trkpt>
      <trkpt lat="44.23647" lon="7.08973">
        <ele>2302.7238769531</ele>
        <time>2012-08-26T09:59:44Z</time>
      </trkpt>
      <trkpt lat="44.23653" lon="7.0897">
        <ele>2301.8120117188</ele>
        <time>2012-08-26T09:59:47Z</time>
      </trkpt>
      <trkpt lat="44.23656" lon="7.08966">
        <ele>2299.8352050781</ele>
        <time>2012-08-26T09:59:52Z</time>
      </trkpt>
      <trkpt lat="44.2365" lon="7.08957">
        <ele>2293.8786621094</ele>
        <time>2012-08-26T09:59:56Z</time>
      </trkpt>
      <trkpt lat="44.23653" lon="7.08954">
        <ele>2292.2690429688</ele>
        <time>2012-08-26T10:00:00Z</time>
      </trkpt>
      <trkpt lat="44.23664" lon="7.08953">
        <ele>2292.94140625</ele>
        <time>2012-08-26T10:00:05Z</time>
      </trkpt>
      <trkpt lat="44.23676" lon="7.08954">
        <ele>2293.5627441406</ele>
        <time>2012-08-26T10:00:10Z</time>
      </trkpt>
      <trkpt lat="44.23682" lon="7.08956">
        <ele>2294.4782714844</ele>
        <time>2012-08-26T10:00:15Z</time>
      </trkpt>
      <trkpt lat="44.23682" lon="7.08951">
        <ele>2291.3229980469</ele>
        <time>2012-08-26T10:00:22Z</time>
      </trkpt>
      <trkpt lat="44.23682" lon="7.08947">
        <ele>2289.2111816406</ele>
        <time>2012-08-26T10:00:27Z</time>
      </trkpt>
      <trkpt lat="44.23684" lon="7.08948">
        <ele>2289.5241699219</ele>
        <time>2012-08-26T10:00:35Z</time>
      </trkpt>
      <trkpt lat="44.23684" lon="7.08951">
        <ele>2291.46484375</ele>
        <time>2012-08-26T10:00:43Z</time>
      </trkpt>
      <trkpt lat="44.23692" lon="7.08955">
        <ele>2293.5080566406</ele>
        <time>2012-08-26T10:00:49Z</time>
      </trkpt>
      <trkpt lat="44.23693" lon="7.08956">
        <ele>2294.2700195312</ele>
        <time>2012-08-26T10:00:50Z</time>
      </trkpt>
      <trkpt lat="44.23697" lon="7.08955">
        <ele>2292.6833496094</ele>
        <time>2012-08-26T10:00:55Z</time>
      </trkpt>
      <trkpt lat="44.23696" lon="7.08952">
        <ele>2290.9096679688</ele>
        <time>2012-08-26T10:01:00Z</time>
      </trkpt>
      <trkpt lat="44.23697" lon="7.08949">
        <ele>2288.896484375</ele>
        <time>2012-08-26T10:01:06Z</time>
      </trkpt>
      <trkpt lat="44.23699" lon="7.08949">
        <ele>2288.4228515625</ele>
        <time>2012-08-26T10:01:45Z</time>
      </trkpt>
      <trkpt lat="44.23707" lon="7.08953">
        <ele>2288.1096191406</ele>
        <time>2012-08-26T10:01:50Z</time>
      </trkpt>
      <trkpt lat="44.23724" lon="7.08952">
        <ele>2282.1728515625</ele>
        <time>2012-08-26T10:01:56Z</time>
      </trkpt>
      <trkpt lat="44.23729" lon="7.08947">
        <ele>2277.8884277344</ele>
        <time>2012-08-26T10:03:51Z</time>
      </trkpt>
      <trkpt lat="44.2373" lon="7.08951">
        <ele>2279.3342285156</ele>
        <time>2012-08-26T10:04:05Z</time>
      </trkpt>
      <trkpt lat="44.23731" lon="7.08953">
        <ele>2279.6071777344</ele>
        <time>2012-08-26T10:04:25Z</time>
      </trkpt>
      <trkpt lat="44.23728" lon="7.08953">
        <ele>2280.8742675781</ele>
        <time>2012-08-26T10:04:34Z</time>
      </trkpt>
      <trkpt lat="44.23729" lon="7.08955">
        <ele>2281.3618164062</ele>
        <time>2012-08-26T10:04:41Z</time>
      </trkpt>
      <trkpt lat="44.23729" lon="7.08955">
        <ele>2281.1647949219</ele>
        <time>2012-08-26T10:04:48Z</time>
      </trkpt>
      <trkpt lat="44.23732" lon="7.08957">
        <ele>2280.9338378906</ele>
        <time>2012-08-26T10:04:55Z</time>
      </trkpt>
      <trkpt lat="44.23733" lon="7.08958">
        <ele>2281.0524902344</ele>
        <time>2012-08-26T10:04:58Z</time>
      </trkpt>
      <trkpt lat="44.23743" lon="7.08965">
        <ele>2280.92578125</ele>
        <time>2012-08-26T10:05:04Z</time>
      </trkpt>
      <trkpt lat="44.2375" lon="7.08965">
        <ele>2279.4755859375</ele>
        <time>2012-08-26T10:05:08Z</time>
      </trkpt>
      <trkpt lat="44.2375" lon="7.08957">
        <ele>2274.4816894531</ele>
        <time>2012-08-26T10:06:33Z</time>
      </trkpt>
      <trkpt lat="44.23751" lon="7.08956">
        <ele>2273.9018554688</ele>
        <time>2012-08-26T10:06:40Z</time>
      </trkpt>
      <trkpt lat="44.23754" lon="7.08954">
        <ele>2271.6857910156</ele>
        <time>2012-08-26T10:06:50Z</time>
      </trkpt>
      <trkpt lat="44.23747" lon="7.0895">
        <ele>2272.384765625</ele>
        <time>2012-08-26T10:09:25Z</time>
      </trkpt>
      <trkpt lat="44.23748" lon="7.08949">
        <ele>2271.2084960938</ele>
        <time>2012-08-26T10:09:56Z</time>
      </trkpt>
      <trkpt lat="44.23748" lon="7.08949">
        <ele>2271.0539550781</ele>
        <time>2012-08-26T10:10:01Z</time>
      </trkpt>
      <trkpt lat="44.23748" lon="7.08949">
        <ele>2271.1293945312</ele>
        <time>2012-08-26T10:10:03Z</time>
      </trkpt>
      <trkpt lat="44.23748" lon="7.08949">
        <ele>2271.0004882812</ele>
        <time>2012-08-26T10:10:04Z</time>
      </trkpt>
      <trkpt lat="44.23751" lon="7.0894">
        <ele>2265.1840820312</ele>
        <time>2012-08-26T10:11:37Z</time>
      </trkpt>
      <trkpt lat="44.23751" lon="7.0894">
        <ele>2265.1328125</ele>
        <time>2012-08-26T10:11:43Z</time>
      </trkpt>
      <trkpt lat="44.23751" lon="7.08943">
        <ele>2266.3857421875</ele>
        <time>2012-08-26T10:11:48Z</time>
      </trkpt>
      <trkpt lat="44.23753" lon="7.08944">
        <ele>2266.6691894531</ele>
        <time>2012-08-26T10:11:50Z</time>
      </trkpt>
      <trkpt lat="44.23756" lon="7.08949">
        <ele>2268.3227539062</ele>
        <time>2012-08-26T10:11:56Z</time>
      </trkpt>
      <trkpt lat="44.23756" lon="7.08953">
        <ele>2270.5090332031</ele>
        <time>2012-08-26T10:12:02Z</time>
      </trkpt>
      <trkpt lat="44.23765" lon="7.08957">
        <ele>2270.3942871094</ele>
        <time>2012-08-26T10:12:23Z</time>
      </trkpt>
      <trkpt lat="44.23778" lon="7.08963">
        <ele>2271.6979980469</ele>
        <time>2012-08-26T10:12:29Z</time>
      </trkpt>
      <trkpt lat="44.23785" lon="7.08964">
        <ele>2269.4519042969</ele>
        <time>2012-08-26T10:12:31Z</time>
      </trkpt>
      <trkpt lat="44.23798" lon="7.0896">
        <ele>2259.8518066406</ele>
        <time>2012-08-26T10:12:37Z</time>
      </trkpt>
      <trkpt lat="44.238" lon="7.08959">
        <ele>2258.1584472656</ele>
        <time>2012-08-26T10:12:38Z</time>
      </trkpt>
      <trkpt lat="44.23806" lon="7.08956">
        <ele>2253.20703125</ele>
        <time>2012-08-26T10:12:41Z</time>
      </trkpt>
      <trkpt lat="44.23816" lon="7.08954">
        <ele>2248.884765625</ele>
        <time>2012-08-26T10:12:46Z</time>
      </trkpt>
      <trkpt lat="44.23823" lon="7.08949">
        <ele>2244.5190429688</ele>
        <time>2012-08-26T10:12:51Z</time>
      </trkpt>
      <trkpt lat="44.23827" lon="7.08947">
        <ele>2242.4833984375</ele>
        <time>2012-08-26T10:12:53Z</time>
      </trkpt>
      <trkpt lat="44.23832" lon="7.08943">
        <ele>2239.458984375</ele>
        <time>2012-08-26T10:12:56Z</time>
      </trkpt>
      <trkpt lat="44.23835" lon="7.0894">
        <ele>2237.0935058594</ele>
        <time>2012-08-26T10:13:00Z</time>
      </trkpt>
      <trkpt lat="44.23833" lon="7.08937">
        <ele>2235.8129882812</ele>
        <time>2012-08-26T10:13:02Z</time>
      </trkpt>
      <trkpt lat="44.23833" lon="7.08932">
        <ele>2233.3911132812</ele>
        <time>2012-08-26T10:13:05Z</time>
      </trkpt>
      <trkpt lat="44.2384" lon="7.08929">
        <ele>2230.6164550781</ele>
        <time>2012-08-26T10:13:10Z</time>
      </trkpt>
      <trkpt lat="44.23843" lon="7.08927">
        <ele>2229.1821289062</ele>
        <time>2012-08-26T10:13:14Z</time>
      </trkpt>
      <trkpt lat="44.23843" lon="7.08927">
        <ele>2229.4272460938</ele>
        <time>2012-08-26T10:13:20Z</time>
      </trkpt>
      <trkpt lat="44.23849" lon="7.08925">
        <ele>2227.3395996094</ele>
        <time>2012-08-26T10:13:36Z</time>
      </trkpt>
      <trkpt lat="44.23851" lon="7.08923">
        <ele>2226.2705078125</ele>
        <time>2012-08-26T10:13:41Z</time>
      </trkpt>
      <trkpt lat="44.23854" lon="7.08922">
        <ele>2225.4028320312</ele>
        <time>2012-08-26T10:13:55Z</time>
      </trkpt>
      <trkpt lat="44.23856" lon="7.08923">
        <ele>2225.423828125</ele>
        <time>2012-08-26T10:13:56Z</time>
      </trkpt>
      <trkpt lat="44.23863" lon="7.08927">
        <ele>2226.3420410156</ele>
        <time>2012-08-26T10:14:01Z</time>
      </trkpt>
      <trkpt lat="44.23868" lon="7.08928">
        <ele>2225.3166503906</ele>
        <time>2012-08-26T10:14:03Z</time>
      </trkpt>
      <trkpt lat="44.23874" lon="7.08928">
        <ele>2224.2509765625</ele>
        <time>2012-08-26T10:14:05Z</time>
      </trkpt>
      <trkpt lat="44.23882" lon="7.0892">
        <ele>2219.3059082031</ele>
        <time>2012-08-26T10:14:09Z</time>
      </trkpt>
      <trkpt lat="44.23893" lon="7.08909">
        <ele>2210.9431152344</ele>
        <time>2012-08-26T10:14:14Z</time>
      </trkpt>
      <trkpt lat="44.23903" lon="7.08904">
        <ele>2203.9536132812</ele>
        <time>2012-08-26T10:14:18Z</time>
      </trkpt>
      <trkpt lat="44.23919" lon="7.08898">
        <ele>2192.6879882812</ele>
        <time>2012-08-26T10:14:23Z</time>
      </trkpt>
      <trkpt lat="44.2393" lon="7.08891">
        <ele>2184.3330078125</ele>
        <time>2012-08-26T10:14:26Z</time>
      </trkpt>
      <trkpt lat="44.23943" lon="7.08882">
        <ele>2175.7241210938</ele>
        <time>2012-08-26T10:14:30Z</time>
      </trkpt>
      <trkpt lat="44.23951" lon="7.08874">
        <ele>2171.0791015625</ele>
        <time>2012-08-26T10:14:33Z</time>
      </trkpt>
      <trkpt lat="44.23959" lon="7.08871">
        <ele>2168.029296875</ele>
        <time>2012-08-26T10:14:36Z</time>
      </trkpt>
      <trkpt lat="44.2397" lon="7.08851">
        <ele>2160.6013183594</ele>
        <time>2012-08-26T10:14:41Z</time>
      </trkpt>
      <trkpt lat="44.23977" lon="7.08845">
        <ele>2158.935546875</ele>
        <time>2012-08-26T10:14:43Z</time>
      </trkpt>
      <trkpt lat="44.23989" lon="7.0884">
        <ele>2157.6975097656</ele>
        <time>2012-08-26T10:14:47Z</time>
      </trkpt>
      <trkpt lat="44.23999" lon="7.08839">
        <ele>2157.4370117188</ele>
        <time>2012-08-26T10:14:51Z</time>
      </trkpt>
      <trkpt lat="44.23998" lon="7.08841">
        <ele>2157.5766601562</ele>
        <time>2012-08-26T10:15:01Z</time>
      </trkpt>
      <trkpt lat="44.23993" lon="7.08841">
        <ele>2157.7299804688</ele>
        <time>2012-08-26T10:15:06Z</time>
      </trkpt>
      <trkpt lat="44.23988" lon="7.0884">
        <ele>2157.8120117188</ele>
        <time>2012-08-26T10:15:10Z</time>
      </trkpt>
      <trkpt lat="44.23981" lon="7.08841">
        <ele>2158.111328125</ele>
        <time>2012-08-26T10:15:19Z</time>
      </trkpt>
      <trkpt lat="44.23979" lon="7.08838">
        <ele>2157.7331542969</ele>
        <time>2012-08-26T10:15:23Z</time>
      </trkpt>
      <trkpt lat="44.23977" lon="7.08838">
        <ele>2157.7836914062</ele>
        <time>2012-08-26T10:15:28Z</time>
      </trkpt>
      <trkpt lat="44.23976" lon="7.08842">
        <ele>2158.3999023438</ele>
        <time>2012-08-26T10:15:32Z</time>
      </trkpt>
      <trkpt lat="44.23973" lon="7.08842">
        <ele>2158.4914550781</ele>
        <time>2012-08-26T10:15:37Z</time>
      </trkpt>
      <trkpt lat="44.23972" lon="7.08846">
        <ele>2159.283203125</ele>
        <time>2012-08-26T10:15:40Z</time>
      </trkpt>
      <trkpt lat="44.23969" lon="7.08853">
        <ele>2161.1306152344</ele>
        <time>2012-08-26T10:15:47Z</time>
      </trkpt>
      <trkpt lat="44.23965" lon="7.08857">
        <ele>2162.5185546875</ele>
        <time>2012-08-26T10:15:54Z</time>
      </trkpt>
      <trkpt lat="44.23964" lon="7.08861">
        <ele>2163.8098144531</ele>
        <time>2012-08-26T10:16:01Z</time>
      </trkpt>
      <trkpt lat="44.23965" lon="7.08858">
        <ele>2162.8059082031</ele>
        <time>2012-08-26T10:16:15Z</time>
      </trkpt>
      <trkpt lat="44.23966" lon="7.08859">
        <ele>2162.8920898438</ele>
        <time>2012-08-26T10:16:24Z</time>
      </trkpt>
      <trkpt lat="44.23965" lon="7.08861">
        <ele>2163.6469726562</ele>
        <time>2012-08-26T10:16:28Z</time>
      </trkpt>
      <trkpt lat="44.23962" lon="7.08865">
        <ele>2165.6701660156</ele>
        <time>2012-08-26T10:16:35Z</time>
      </trkpt>
      <trkpt lat="44.23959" lon="7.08866">
        <ele>2166.2978515625</ele>
        <time>2012-08-26T10:16:39Z</time>
      </trkpt>
      <trkpt lat="44.23957" lon="7.08868">
        <ele>2167.3977050781</ele>
        <time>2012-08-26T10:16:44Z</time>
      </trkpt>
      <trkpt lat="44.23954" lon="7.0887">
        <ele>2169.0192871094</ele>
        <time>2012-08-26T10:16:50Z</time>
      </trkpt>
      <trkpt lat="44.23951" lon="7.08873">
        <ele>2170.7124023438</ele>
        <time>2012-08-26T10:16:56Z</time>
      </trkpt>
      <trkpt lat="44.23948" lon="7.08875">
        <ele>2172.3037109375</ele>
        <time>2012-08-26T10:17:02Z</time>
      </trkpt>
      <trkpt lat="44.23943" lon="7.08877">
        <ele>2174.2241210938</ele>
        <time>2012-08-26T10:17:08Z</time>
      </trkpt>
      <trkpt lat="44.23939" lon="7.0888">
        <ele>2176.6320800781</ele>
        <time>2012-08-26T10:17:13Z</time>
      </trkpt>
      <trkpt lat="44.23936" lon="7.08883">
        <ele>2178.5390625</ele>
        <time>2012-08-26T10:17:19Z</time>
      </trkpt>
      <trkpt lat="44.23933" lon="7.08886">
        <ele>2180.6887207031</ele>
        <time>2012-08-26T10:17:23Z</time>
      </trkpt>
      <trkpt lat="44.2393" lon="7.0889">
        <ele>2183.7497558594</ele>
        <time>2012-08-26T10:17:29Z</time>
      </trkpt>
      <trkpt lat="44.23926" lon="7.08892">
        <ele>2186.6071777344</ele>
        <time>2012-08-26T10:17:34Z</time>
      </trkpt>
      <trkpt lat="44.23922" lon="7.08894">
        <ele>2189.4116210938</ele>
        <time>2012-08-26T10:17:40Z</time>
      </trkpt>
      <trkpt lat="44.23918" lon="7.08896">
        <ele>2191.578125</ele>
        <time>2012-08-26T10:17:47Z</time>
      </trkpt>
      <trkpt lat="44.23915" lon="7.08898">
        <ele>2193.8959960938</ele>
        <time>2012-08-26T10:17:51Z</time>
      </trkpt>
      <trkpt lat="44.23911" lon="7.08899">
        <ele>2196.4865722656</ele>
        <time>2012-08-26T10:17:59Z</time>
      </trkpt>
      <trkpt lat="44.23908" lon="7.08899">
        <ele>2198.0607910156</ele>
        <time>2012-08-26T10:18:06Z</time>
      </trkpt>
      <trkpt lat="44.23905" lon="7.08902">
        <ele>2201.3388671875</ele>
        <time>2012-08-26T10:18:15Z</time>
      </trkpt>
      <trkpt lat="44.23903" lon="7.08904">
        <ele>2203.2414550781</ele>
        <time>2012-08-26T10:18:35Z</time>
      </trkpt>
      <trkpt lat="44.23906" lon="7.089">
        <ele>2199.810546875</ele>
        <time>2012-08-26T10:18:44Z</time>
      </trkpt>
      <trkpt lat="44.23907" lon="7.08898">
        <ele>2198.4123535156</ele>
        <time>2012-08-26T10:18:56Z</time>
      </trkpt>
      <trkpt lat="44.23911" lon="7.08896">
        <ele>2195.5729980469</ele>
        <time>2012-08-26T10:19:02Z</time>
      </trkpt>
      <trkpt lat="44.23913" lon="7.08896">
        <ele>2194.1196289062</ele>
        <time>2012-08-26T10:19:06Z</time>
      </trkpt>
      <trkpt lat="44.23917" lon="7.08894">
        <ele>2191.0861816406</ele>
        <time>2012-08-26T10:19:14Z</time>
      </trkpt>
      <trkpt lat="44.23921" lon="7.08893">
        <ele>2189.0502929688</ele>
        <time>2012-08-26T10:19:18Z</time>
      </trkpt>
      <trkpt lat="44.23928" lon="7.08889">
        <ele>2184</ele>
        <time>2012-08-26T10:19:25Z</time>
      </trkpt>
      <trkpt lat="44.23929" lon="7.08888">
        <ele>2183.1677246094</ele>
        <time>2012-08-26T10:19:27Z</time>
      </trkpt>
      <trkpt lat="44.23934" lon="7.08885">
        <ele>2180.0229492188</ele>
        <time>2012-08-26T10:19:32Z</time>
      </trkpt>
      <trkpt lat="44.23942" lon="7.08878">
        <ele>2175.0395507812</ele>
        <time>2012-08-26T10:19:39Z</time>
      </trkpt>
      <trkpt lat="44.23945" lon="7.08876">
        <ele>2173.2912597656</ele>
        <time>2012-08-26T10:19:43Z</time>
      </trkpt>
      <trkpt lat="44.23949" lon="7.08873">
        <ele>2171.1657714844</ele>
        <time>2012-08-26T10:19:48Z</time>
      </trkpt>
      <trkpt lat="44.23954" lon="7.08868">
        <ele>2168.4533691406</ele>
        <time>2012-08-26T10:19:55Z</time>
      </trkpt>
      <trkpt lat="44.23957" lon="7.08866">
        <ele>2166.7019042969</ele>
        <time>2012-08-26T10:20:00Z</time>
      </trkpt>
      <trkpt lat="44.23961" lon="7.08865">
        <ele>2165.5153808594</ele>
        <time>2012-08-26T10:20:05Z</time>
      </trkpt>
      <trkpt lat="44.23963" lon="7.08862">
        <ele>2164.1882324219</ele>
        <time>2012-08-26T10:20:09Z</time>
      </trkpt>
      <trkpt lat="44.23966" lon="7.08853">
        <ele>2161.6828613281</ele>
        <time>2012-08-26T10:20:15Z</time>
      </trkpt>
      <trkpt lat="44.23967" lon="7.0885">
        <ele>2160.8605957031</ele>
        <time>2012-08-26T10:20:17Z</time>
      </trkpt>
      <trkpt lat="44.23974" lon="7.08843">
        <ele>2158.6032714844</ele>
        <time>2012-08-26T10:20:24Z</time>
      </trkpt>
      <trkpt lat="44.23979" lon="7.0884">
        <ele>2158.0202636719</ele>
        <time>2012-08-26T10:20:28Z</time>
      </trkpt>
      <trkpt lat="44.23984" lon="7.08836">
        <ele>2157.4113769531</ele>
        <time>2012-08-26T10:20:33Z</time>
      </trkpt>
      <trkpt lat="44.23987" lon="7.08837">
        <ele>2157.3981933594</ele>
        <time>2012-08-26T10:20:36Z</time>
      </trkpt>
      <trkpt lat="44.23994" lon="7.08836">
        <ele>2157.2927246094</ele>
        <time>2012-08-26T10:20:41Z</time>
      </trkpt>
      <trkpt lat="44.23997" lon="7.08836">
        <ele>2157.1813964844</ele>
        <time>2012-08-26T10:20:46Z</time>
      </trkpt>
      <trkpt lat="44.24004" lon="7.08835">
        <ele>2157.1428222656</ele>
        <time>2012-08-26T10:20:50Z</time>
      </trkpt>
      <trkpt lat="44.24019" lon="7.08829">
        <ele>2156.8791503906</ele>
        <time>2012-08-26T10:20:55Z</time>
      </trkpt>
      <trkpt lat="44.2403" lon="7.08818">
        <ele>2155.939453125</ele>
        <time>2012-08-26T10:20:59Z</time>
      </trkpt>
      <trkpt lat="44.24046" lon="7.08807">
        <ele>2154.578125</ele>
        <time>2012-08-26T10:21:04Z</time>
      </trkpt>
      <trkpt lat="44.24051" lon="7.08806">
        <ele>2154.2739257812</ele>
        <time>2012-08-26T10:21:07Z</time>
      </trkpt>
      <trkpt lat="44.24051" lon="7.08806">
        <ele>2154.296875</ele>
        <time>2012-08-26T10:21:11Z</time>
      </trkpt>
      <trkpt lat="44.24052" lon="7.08808">
        <ele>2154.4841308594</ele>
        <time>2012-08-26T10:21:26Z</time>
      </trkpt>
      <trkpt lat="44.24052" lon="7.08807">
        <ele>2154.4255371094</ele>
        <time>2012-08-26T10:21:52Z</time>
      </trkpt>
      <trkpt lat="44.24051" lon="7.08807">
        <ele>2154.4230957031</ele>
        <time>2012-08-26T10:22:21Z</time>
      </trkpt>
      <trkpt lat="44.24051" lon="7.08806">
        <ele>2154.255859375</ele>
        <time>2012-08-26T10:22:27Z</time>
      </trkpt>
      <trkpt lat="44.24051" lon="7.08805">
        <ele>2154.1281738281</ele>
        <time>2012-08-26T10:22:35Z</time>
      </trkpt>
      <trkpt lat="44.24052" lon="7.08805">
        <ele>2154.0073242188</ele>
        <time>2012-08-26T10:22:42Z</time>
      </trkpt>
      <trkpt lat="44.24063" lon="7.08802">
        <ele>2153.8583984375</ele>
        <time>2012-08-26T10:22:47Z</time>
      </trkpt>
      <trkpt lat="44.24065" lon="7.088">
        <ele>2153.751953125</ele>
        <time>2012-08-26T10:22:48Z</time>
      </trkpt>
      <trkpt lat="44.24066" lon="7.08797">
        <ele>2153.2680664062</ele>
        <time>2012-08-26T10:22:50Z</time>
      </trkpt>
      <trkpt lat="44.24067" lon="7.08791">
        <ele>2152.3049316406</ele>
        <time>2012-08-26T10:22:53Z</time>
      </trkpt>
      <trkpt lat="44.2407" lon="7.08777">
        <ele>2149.892578125</ele>
        <time>2012-08-26T10:22:58Z</time>
      </trkpt>
      <trkpt lat="44.24072" lon="7.08768">
        <ele>2147.904296875</ele>
        <time>2012-08-26T10:23:17Z</time>
      </trkpt>
      <trkpt lat="44.24073" lon="7.08762">
        <ele>2146.7121582031</ele>
        <time>2012-08-26T10:23:22Z</time>
      </trkpt>
      <trkpt lat="44.24074" lon="7.0876">
        <ele>2146.2868652344</ele>
        <time>2012-08-26T10:23:23Z</time>
      </trkpt>
      <trkpt lat="44.24083" lon="7.08757">
        <ele>2144.6730957031</ele>
        <time>2012-08-26T10:23:29Z</time>
      </trkpt>
      <trkpt lat="44.24091" lon="7.08749">
        <ele>2142.3857421875</ele>
        <time>2012-08-26T10:23:34Z</time>
      </trkpt>
      <trkpt lat="44.24092" lon="7.08745">
        <ele>2142.001953125</ele>
        <time>2012-08-26T10:23:38Z</time>
      </trkpt>
      <trkpt lat="44.2409" lon="7.08742">
        <ele>2141.7497558594</ele>
        <time>2012-08-26T10:23:45Z</time>
      </trkpt>
      <trkpt lat="44.24089" lon="7.08736">
        <ele>2141.3369140625</ele>
        <time>2012-08-26T10:23:49Z</time>
      </trkpt>
      <trkpt lat="44.24089" lon="7.08734">
        <ele>2141.0676269531</ele>
        <time>2012-08-26T10:23:55Z</time>
      </trkpt>
      <trkpt lat="44.24089" lon="7.08732">
        <ele>2140.9453125</ele>
        <time>2012-08-26T10:24:00Z</time>
      </trkpt>
      <trkpt lat="44.24089" lon="7.08731">
        <ele>2140.8161621094</ele>
        <time>2012-08-26T10:24:04Z</time>
      </trkpt>
      <trkpt lat="44.24089" lon="7.08729">
        <ele>2140.6743164062</ele>
        <time>2012-08-26T10:24:09Z</time>
      </trkpt>
      <trkpt lat="44.24089" lon="7.08729">
        <ele>2140.6096191406</ele>
        <time>2012-08-26T10:24:16Z</time>
      </trkpt>
      <trkpt lat="44.24089" lon="7.08728">
        <ele>2140.4868164062</ele>
        <time>2012-08-26T10:24:22Z</time>
      </trkpt>
      <trkpt lat="44.24089" lon="7.08728">
        <ele>2140.5263671875</ele>
        <time>2012-08-26T10:24:27Z</time>
      </trkpt>
      <trkpt lat="44.24089" lon="7.08729">
        <ele>2140.5791015625</ele>
        <time>2012-08-26T10:24:38Z</time>
      </trkpt>
      <trkpt lat="44.2409" lon="7.08729">
        <ele>2140.6469726562</ele>
        <time>2012-08-26T10:24:41Z</time>
      </trkpt>
      <trkpt lat="44.2409" lon="7.08729">
        <ele>2140.6398925781</ele>
        <time>2012-08-26T10:24:52Z</time>
      </trkpt>
      <trkpt lat="44.2409" lon="7.08729">
        <ele>2140.6555175781</ele>
        <time>2012-08-26T10:24:57Z</time>
      </trkpt>
      <trkpt lat="44.2409" lon="7.08729">
        <ele>2140.5947265625</ele>
        <time>2012-08-26T10:25:03Z</time>
      </trkpt>
      <trkpt lat="44.24089" lon="7.08729">
        <ele>2140.58984375</ele>
        <time>2012-08-26T10:25:11Z</time>
      </trkpt>
      <trkpt lat="44.24072" lon="7.08738">
        <ele>2142.470703125</ele>
        <time>2012-08-26T10:41:23Z</time>
      </trkpt>
      <trkpt lat="44.24086" lon="7.08728">
        <ele>2140.5859375</ele>
        <time>2012-08-26T10:50:18Z</time>
      </trkpt>
      <trkpt lat="44.24088" lon="7.08727">
        <ele>2140.4848632812</ele>
        <time>2012-08-26T10:50:29Z</time>
      </trkpt>
      <trkpt lat="44.24088" lon="7.08728">
        <ele>2140.5397949219</ele>
        <time>2012-08-26T10:50:32Z</time>
      </trkpt>
      <trkpt lat="44.24088" lon="7.0873">
        <ele>2140.75390625</ele>
        <time>2012-08-26T10:50:59Z</time>
      </trkpt>
      <trkpt lat="44.24088" lon="7.08733">
        <ele>2141.0212402344</ele>
        <time>2012-08-26T10:51:09Z</time>
      </trkpt>
      <trkpt lat="44.24087" lon="7.08735">
        <ele>2141.2749023438</ele>
        <time>2012-08-26T10:51:18Z</time>
      </trkpt>
      <trkpt lat="44.24084" lon="7.08734">
        <ele>2141.2109375</ele>
        <time>2012-08-26T10:52:21Z</time>
      </trkpt>
      <trkpt lat="44.24083" lon="7.08735">
        <ele>2141.3852539062</ele>
        <time>2012-08-26T10:52:37Z</time>
      </trkpt>
      <trkpt lat="44.24075" lon="7.08738">
        <ele>2142.1616210938</ele>
        <time>2012-08-26T10:52:45Z</time>
      </trkpt>
      <trkpt lat="44.24072" lon="7.0874">
        <ele>2142.6628417969</ele>
        <time>2012-08-26T10:52:48Z</time>
      </trkpt>
      <trkpt lat="44.24072" lon="7.0874">
        <ele>2142.810546875</ele>
        <time>2012-08-26T10:52:49Z</time>
      </trkpt>
      <trkpt lat="44.24066" lon="7.08742">
        <ele>2143.5444335938</ele>
        <time>2012-08-26T10:52:56Z</time>
      </trkpt>
      <trkpt lat="44.24067" lon="7.08742">
        <ele>2143.3688964844</ele>
        <time>2012-08-26T10:53:01Z</time>
      </trkpt>
      <trkpt lat="44.24066" lon="7.08742">
        <ele>2143.5395507812</ele>
        <time>2012-08-26T10:53:05Z</time>
      </trkpt>
      <trkpt lat="44.24063" lon="7.08744">
        <ele>2144.0500488281</ele>
        <time>2012-08-26T10:53:12Z</time>
      </trkpt>
      <trkpt lat="44.24066" lon="7.08741">
        <ele>2143.2312011719</ele>
        <time>2012-08-26T10:53:32Z</time>
      </trkpt>
      <trkpt lat="44.24063" lon="7.08741">
        <ele>2143.5573730469</ele>
        <time>2012-08-26T10:53:36Z</time>
      </trkpt>
      <trkpt lat="44.24057" lon="7.08737">
        <ele>2143.134765625</ele>
        <time>2012-08-26T10:53:41Z</time>
      </trkpt>
      <trkpt lat="44.24051" lon="7.08734">
        <ele>2143.5571289062</ele>
        <time>2012-08-26T10:53:44Z</time>
      </trkpt>
      <trkpt lat="44.24043" lon="7.08733">
        <ele>2145.2902832031</ele>
        <time>2012-08-26T10:53:49Z</time>
      </trkpt>
      <trkpt lat="44.2403" lon="7.08723">
        <ele>2147.3403320312</ele>
        <time>2012-08-26T10:53:53Z</time>
      </trkpt>
      <trkpt lat="44.24024" lon="7.08708">
        <ele>2148.5329589844</ele>
        <time>2012-08-26T10:53:56Z</time>
      </trkpt>
      <trkpt lat="44.24034" lon="7.08695">
        <ele>2145.6408691406</ele>
        <time>2012-08-26T10:54:03Z</time>
      </trkpt>
      <trkpt lat="44.24039" lon="7.08691">
        <ele>2144.6416015625</ele>
        <time>2012-08-26T10:54:08Z</time>
      </trkpt>
      <trkpt lat="44.24042" lon="7.08692">
        <ele>2143.982421875</ele>
        <time>2012-08-26T10:54:15Z</time>
      </trkpt>
      <trkpt lat="44.24048" lon="7.08687">
        <ele>2142.5815429688</ele>
        <time>2012-08-26T10:54:20Z</time>
      </trkpt>
      <trkpt lat="44.24054" lon="7.0868">
        <ele>2141.345703125</ele>
        <time>2012-08-26T10:54:24Z</time>
      </trkpt>
      <trkpt lat="44.24057" lon="7.08665">
        <ele>2140.8742675781</ele>
        <time>2012-08-26T10:54:30Z</time>
      </trkpt>
      <trkpt lat="44.24058" lon="7.08663">
        <ele>2140.7863769531</ele>
        <time>2012-08-26T10:54:31Z</time>
      </trkpt>
      <trkpt lat="44.24065" lon="7.08654">
        <ele>2140.3527832031</ele>
        <time>2012-08-26T10:54:37Z</time>
      </trkpt>
      <trkpt lat="44.24068" lon="7.08647">
        <ele>2140.1604003906</ele>
        <time>2012-08-26T10:54:42Z</time>
      </trkpt>
      <trkpt lat="44.24073" lon="7.08639">
        <ele>2140</ele>
        <time>2012-08-26T10:54:47Z</time>
      </trkpt>
      <trkpt lat="44.24084" lon="7.08625">
        <ele>2140.013671875</ele>
        <time>2012-08-26T10:54:54Z</time>
      </trkpt>
      <trkpt lat="44.24086" lon="7.08624">
        <ele>2140.0588378906</ele>
        <time>2012-08-26T10:54:55Z</time>
      </trkpt>
      <trkpt lat="44.24096" lon="7.08611">
        <ele>2140.4348144531</ele>
        <time>2012-08-26T10:55:01Z</time>
      </trkpt>
      <trkpt lat="44.24103" lon="7.08599">
        <ele>2140.3996582031</ele>
        <time>2012-08-26T10:55:08Z</time>
      </trkpt>
      <trkpt lat="44.241" lon="7.08591">
        <ele>2140.1633300781</ele>
        <time>2012-08-26T10:55:13Z</time>
      </trkpt>
      <trkpt lat="44.24098" lon="7.08579">
        <ele>2140.6584472656</ele>
        <time>2012-08-26T10:55:20Z</time>
      </trkpt>
      <trkpt lat="44.24099" lon="7.08573">
        <ele>2141.625</ele>
        <time>2012-08-26T10:55:24Z</time>
      </trkpt>
      <trkpt lat="44.24099" lon="7.08571">
        <ele>2141.8500976562</ele>
        <time>2012-08-26T10:55:32Z</time>
      </trkpt>
      <trkpt lat="44.241" lon="7.0857">
        <ele>2141.9448242188</ele>
        <time>2012-08-26T10:55:39Z</time>
      </trkpt>
      <trkpt lat="44.24099" lon="7.0857">
        <ele>2142.0827636719</ele>
        <time>2012-08-26T10:55:43Z</time>
      </trkpt>
      <trkpt lat="44.24095" lon="7.08564">
        <ele>2143.9204101562</ele>
        <time>2012-08-26T10:55:50Z</time>
      </trkpt>
      <trkpt lat="44.24092" lon="7.08562">
        <ele>2145.2094726562</ele>
        <time>2012-08-26T10:55:57Z</time>
      </trkpt>
      <trkpt lat="44.24087" lon="7.08556">
        <ele>2148.6755371094</ele>
        <time>2012-08-26T10:56:06Z</time>
      </trkpt>
      <trkpt lat="44.24084" lon="7.08552">
        <ele>2151.7739257812</ele>
        <time>2012-08-26T10:56:13Z</time>
      </trkpt>
      <trkpt lat="44.24081" lon="7.08546">
        <ele>2155.3764648438</ele>
        <time>2012-08-26T10:56:21Z</time>
      </trkpt>
      <trkpt lat="44.2408" lon="7.08541">
        <ele>2158.4382324219</ele>
        <time>2012-08-26T10:56:28Z</time>
      </trkpt>
      <trkpt lat="44.24075" lon="7.08539">
        <ele>2161.0886230469</ele>
        <time>2012-08-26T10:56:36Z</time>
      </trkpt>
      <trkpt lat="44.24072" lon="7.08538">
        <ele>2162.7004394531</ele>
        <time>2012-08-26T10:56:42Z</time>
      </trkpt>
      <trkpt lat="44.2407" lon="7.08533">
        <ele>2165.123046875</ele>
        <time>2012-08-26T10:56:49Z</time>
      </trkpt>
      <trkpt lat="44.24067" lon="7.08528">
        <ele>2168.361328125</ele>
        <time>2012-08-26T10:56:58Z</time>
      </trkpt>
      <trkpt lat="44.24062" lon="7.08522">
        <ele>2171.8647460938</ele>
        <time>2012-08-26T10:57:08Z</time>
      </trkpt>
      <trkpt lat="44.24063" lon="7.0852">
        <ele>2172.6494140625</ele>
        <time>2012-08-26T10:57:16Z</time>
      </trkpt>
      <trkpt lat="44.24062" lon="7.08518">
        <ele>2173.544921875</ele>
        <time>2012-08-26T10:57:21Z</time>
      </trkpt>
      <trkpt lat="44.24061" lon="7.08515">
        <ele>2174.7009277344</ele>
        <time>2012-08-26T10:57:28Z</time>
      </trkpt>
      <trkpt lat="44.24065" lon="7.0851">
        <ele>2175.0461425781</ele>
        <time>2012-08-26T10:57:37Z</time>
      </trkpt>
      <trkpt lat="44.24067" lon="7.08508">
        <ele>2175</ele>
        <time>2012-08-26T10:57:46Z</time>
      </trkpt>
      <trkpt lat="44.24069" lon="7.08504">
        <ele>2175.6088867188</ele>
        <time>2012-08-26T10:57:54Z</time>
      </trkpt>
      <trkpt lat="44.24075" lon="7.08501">
        <ele>2174.080078125</ele>
        <time>2012-08-26T10:58:03Z</time>
      </trkpt>
      <trkpt lat="44.2408" lon="7.08495">
        <ele>2173.1733398438</ele>
        <time>2012-08-26T10:58:11Z</time>
      </trkpt>
      <trkpt lat="44.24083" lon="7.08492">
        <ele>2172.6901855469</ele>
        <time>2012-08-26T10:58:16Z</time>
      </trkpt>
      <trkpt lat="44.24085" lon="7.0849">
        <ele>2172.9057617188</ele>
        <time>2012-08-26T10:58:22Z</time>
      </trkpt>
      <trkpt lat="44.24085" lon="7.0849">
        <ele>2172.8752441406</ele>
        <time>2012-08-26T10:58:27Z</time>
      </trkpt>
      <trkpt lat="44.24086" lon="7.0849">
        <ele>2172.5681152344</ele>
        <time>2012-08-26T10:58:57Z</time>
      </trkpt>
      <trkpt lat="44.24086" lon="7.0849">
        <ele>2172.5112304688</ele>
        <time>2012-08-26T10:59:08Z</time>
      </trkpt>
      <trkpt lat="44.24087" lon="7.0849">
        <ele>2172.330078125</ele>
        <time>2012-08-26T10:59:09Z</time>
      </trkpt>
      <trkpt lat="44.241" lon="7.08478">
        <ele>2171.533203125</ele>
        <time>2012-08-26T10:59:15Z</time>
      </trkpt>
      <trkpt lat="44.24121" lon="7.08463">
        <ele>2168.08984375</ele>
        <time>2012-08-26T10:59:21Z</time>
      </trkpt>
      <trkpt lat="44.24128" lon="7.08455">
        <ele>2166.9450683594</ele>
        <time>2012-08-26T10:59:24Z</time>
      </trkpt>
      <trkpt lat="44.24141" lon="7.08435">
        <ele>2165.1088867188</ele>
        <time>2012-08-26T10:59:30Z</time>
      </trkpt>
      <trkpt lat="44.24155" lon="7.08414">
        <ele>2163.0827636719</ele>
        <time>2012-08-26T10:59:36Z</time>
      </trkpt>
      <trkpt lat="44.24159" lon="7.08398">
        <ele>2162.7270507812</ele>
        <time>2012-08-26T10:59:40Z</time>
      </trkpt>
      <trkpt lat="44.24168" lon="7.08373">
        <ele>2159.3598632812</ele>
        <time>2012-08-26T10:59:45Z</time>
      </trkpt>
      <trkpt lat="44.24177" lon="7.0836">
        <ele>2158.6125488281</ele>
        <time>2012-08-26T10:59:49Z</time>
      </trkpt>
      <trkpt lat="44.24191" lon="7.08346">
        <ele>2155.0590820312</ele>
        <time>2012-08-26T10:59:54Z</time>
      </trkpt>
      <trkpt lat="44.24205" lon="7.08323">
        <ele>2151.0236816406</ele>
        <time>2012-08-26T11:00:01Z</time>
      </trkpt>
      <trkpt lat="44.24218" lon="7.08306">
        <ele>2148.9301757812</ele>
        <time>2012-08-26T11:00:08Z</time>
      </trkpt>
      <trkpt lat="44.24231" lon="7.08292">
        <ele>2146.5676269531</ele>
        <time>2012-08-26T11:00:12Z</time>
      </trkpt>
      <trkpt lat="44.24244" lon="7.08274">
        <ele>2143.62890625</ele>
        <time>2012-08-26T11:00:16Z</time>
      </trkpt>
      <trkpt lat="44.24256" lon="7.08258">
        <ele>2138.1962890625</ele>
        <time>2012-08-26T11:00:21Z</time>
      </trkpt>
      <trkpt lat="44.24261" lon="7.0825">
        <ele>2135.2783203125</ele>
        <time>2012-08-26T11:00:26Z</time>
      </trkpt>
      <trkpt lat="44.24262" lon="7.08249">
        <ele>2134.7060546875</ele>
        <time>2012-08-26T11:00:28Z</time>
      </trkpt>
      <trkpt lat="44.24267" lon="7.08245">
        <ele>2134.4555664062</ele>
        <time>2012-08-26T11:00:33Z</time>
      </trkpt>
      <trkpt lat="44.24273" lon="7.08245">
        <ele>2136.0939941406</ele>
        <time>2012-08-26T11:00:38Z</time>
      </trkpt>
      <trkpt lat="44.24278" lon="7.08239">
        <ele>2135.0002441406</ele>
        <time>2012-08-26T11:00:43Z</time>
      </trkpt>
      <trkpt lat="44.24283" lon="7.08236">
        <ele>2133.2373046875</ele>
        <time>2012-08-26T11:00:47Z</time>
      </trkpt>
      <trkpt lat="44.24279" lon="7.08233">
        <ele>2132.1884765625</ele>
        <time>2012-08-26T11:00:51Z</time>
      </trkpt>
      <trkpt lat="44.24276" lon="7.08234">
        <ele>2132.091796875</ele>
        <time>2012-08-26T11:00:55Z</time>
      </trkpt>
      <trkpt lat="44.24275" lon="7.08231">
        <ele>2130.1865234375</ele>
        <time>2012-08-26T11:01:00Z</time>
      </trkpt>
      <trkpt lat="44.24277" lon="7.08229">
        <ele>2129.7490234375</ele>
        <time>2012-08-26T11:01:06Z</time>
      </trkpt>
      <trkpt lat="44.24279" lon="7.08228">
        <ele>2129.7336425781</ele>
        <time>2012-08-26T11:01:10Z</time>
      </trkpt>
      <trkpt lat="44.24281" lon="7.08223">
        <ele>2127.2565917969</ele>
        <time>2012-08-26T11:01:14Z</time>
      </trkpt>
      <trkpt lat="44.24277" lon="7.08222">
        <ele>2126.6730957031</ele>
        <time>2012-08-26T11:01:18Z</time>
      </trkpt>
      <trkpt lat="44.24276" lon="7.08221">
        <ele>2125.6618652344</ele>
        <time>2012-08-26T11:01:23Z</time>
      </trkpt>
      <trkpt lat="44.24276" lon="7.08217">
        <ele>2124.21875</ele>
        <time>2012-08-26T11:01:29Z</time>
      </trkpt>
      <trkpt lat="44.24275" lon="7.08216">
        <ele>2123.3374023438</ele>
        <time>2012-08-26T11:01:34Z</time>
      </trkpt>
      <trkpt lat="44.24273" lon="7.08216">
        <ele>2122.5249023438</ele>
        <time>2012-08-26T11:01:36Z</time>
      </trkpt>
      <trkpt lat="44.24269" lon="7.08212">
        <ele>2119.7373046875</ele>
        <time>2012-08-26T11:01:40Z</time>
      </trkpt>
      <trkpt lat="44.24261" lon="7.0821">
        <ele>2116.1613769531</ele>
        <time>2012-08-26T11:01:45Z</time>
      </trkpt>
      <trkpt lat="44.2426" lon="7.08206">
        <ele>2114.4587402344</ele>
        <time>2012-08-26T11:01:47Z</time>
      </trkpt>
      <trkpt lat="44.24258" lon="7.082">
        <ele>2111.8193359375</ele>
        <time>2012-08-26T11:01:51Z</time>
      </trkpt>
      <trkpt lat="44.24256" lon="7.08199">
        <ele>2111.0561523438</ele>
        <time>2012-08-26T11:01:52Z</time>
      </trkpt>
      <trkpt lat="44.24257" lon="7.08191">
        <ele>2108.5014648438</ele>
        <time>2012-08-26T11:01:57Z</time>
      </trkpt>
      <trkpt lat="44.24265" lon="7.08181">
        <ele>2106.6118164062</ele>
        <time>2012-08-26T11:02:00Z</time>
      </trkpt>
      <trkpt lat="44.24273" lon="7.08177">
        <ele>2106.0432128906</ele>
        <time>2012-08-26T11:02:03Z</time>
      </trkpt>
      <trkpt lat="44.2427" lon="7.08168">
        <ele>2102.029296875</ele>
        <time>2012-08-26T11:02:08Z</time>
      </trkpt>
      <trkpt lat="44.24259" lon="7.08151">
        <ele>2090.1069335938</ele>
        <time>2012-08-26T11:02:14Z</time>
      </trkpt>
      <trkpt lat="44.24252" lon="7.08144">
        <ele>2085.2687988281</ele>
        <time>2012-08-26T11:02:18Z</time>
      </trkpt>
      <trkpt lat="44.24235" lon="7.08127">
        <ele>2078.2836914062</ele>
        <time>2012-08-26T11:02:24Z</time>
      </trkpt>
      <trkpt lat="44.24231" lon="7.08123">
        <ele>2076.9533691406</ele>
        <time>2012-08-26T11:02:28Z</time>
      </trkpt>
      <trkpt lat="44.24231" lon="7.08122">
        <ele>2076.6323242188</ele>
        <time>2012-08-26T11:02:33Z</time>
      </trkpt>
      <trkpt lat="44.24229" lon="7.08118">
        <ele>2075.1921386719</ele>
        <time>2012-08-26T11:02:38Z</time>
      </trkpt>
      <trkpt lat="44.2422" lon="7.08106">
        <ele>2072.1164550781</ele>
        <time>2012-08-26T11:02:42Z</time>
      </trkpt>
      <trkpt lat="44.24218" lon="7.08103">
        <ele>2071.9240722656</ele>
        <time>2012-08-26T11:02:43Z</time>
      </trkpt>
      <trkpt lat="44.24221" lon="7.08087">
        <ele>2063.8129882812</ele>
        <time>2012-08-26T11:02:47Z</time>
      </trkpt>
      <trkpt lat="44.24223" lon="7.08075">
        <ele>2059.1467285156</ele>
        <time>2012-08-26T11:02:49Z</time>
      </trkpt>
      <trkpt lat="44.24237" lon="7.08058">
        <ele>2052.1701660156</ele>
        <time>2012-08-26T11:02:54Z</time>
      </trkpt>
      <trkpt lat="44.24245" lon="7.08051">
        <ele>2048.9555664062</ele>
        <time>2012-08-26T11:02:58Z</time>
      </trkpt>
      <trkpt lat="44.24253" lon="7.08043">
        <ele>2045.3387451172</ele>
        <time>2012-08-26T11:03:02Z</time>
      </trkpt>
      <trkpt lat="44.24257" lon="7.08038">
        <ele>2043.0927734375</ele>
        <time>2012-08-26T11:03:05Z</time>
      </trkpt>
      <trkpt lat="44.24258" lon="7.08034">
        <ele>2041.0319824219</ele>
        <time>2012-08-26T11:03:08Z</time>
      </trkpt>
      <trkpt lat="44.24274" lon="7.08038">
        <ele>2040.9962158203</ele>
        <time>2012-08-26T11:03:14Z</time>
      </trkpt>
      <trkpt lat="44.24275" lon="7.08039">
        <ele>2041.2266845703</ele>
        <time>2012-08-26T11:03:15Z</time>
      </trkpt>
      <trkpt lat="44.24275" lon="7.08034">
        <ele>2038.9401855469</ele>
        <time>2012-08-26T11:03:19Z</time>
      </trkpt>
      <trkpt lat="44.24276" lon="7.08031">
        <ele>2037.6409912109</ele>
        <time>2012-08-26T11:03:21Z</time>
      </trkpt>
      <trkpt lat="44.24273" lon="7.0802">
        <ele>2034.6090087891</ele>
        <time>2012-08-26T11:03:26Z</time>
      </trkpt>
      <trkpt lat="44.24262" lon="7.08007">
        <ele>2032.2557373047</ele>
        <time>2012-08-26T11:03:30Z</time>
      </trkpt>
      <trkpt lat="44.24255" lon="7.07995">
        <ele>2029.0866699219</ele>
        <time>2012-08-26T11:03:34Z</time>
      </trkpt>
      <trkpt lat="44.24243" lon="7.07981">
        <ele>2026.7888183594</ele>
        <time>2012-08-26T11:03:38Z</time>
      </trkpt>
      <trkpt lat="44.24229" lon="7.07962">
        <ele>2024.0278320312</ele>
        <time>2012-08-26T11:03:42Z</time>
      </trkpt>
      <trkpt lat="44.24228" lon="7.07953">
        <ele>2022.0718994141</ele>
        <time>2012-08-26T11:03:44Z</time>
      </trkpt>
      <trkpt lat="44.24239" lon="7.07954">
        <ele>2019.9145507812</ele>
        <time>2012-08-26T11:03:48Z</time>
      </trkpt>
      <trkpt lat="44.24254" lon="7.07944">
        <ele>2014.4594726562</ele>
        <time>2012-08-26T11:03:55Z</time>
      </trkpt>
      <trkpt lat="44.24261" lon="7.07943">
        <ele>2012.8444824219</ele>
        <time>2012-08-26T11:03:59Z</time>
      </trkpt>
      <trkpt lat="44.24276" lon="7.07942">
        <ele>2010.3581542969</ele>
        <time>2012-08-26T11:04:05Z</time>
      </trkpt>
      <trkpt lat="44.2428" lon="7.07942">
        <ele>2009.4948730469</ele>
        <time>2012-08-26T11:04:08Z</time>
      </trkpt>
      <trkpt lat="44.24287" lon="7.07936">
        <ele>2005.7000732422</ele>
        <time>2012-08-26T11:04:13Z</time>
      </trkpt>
      <trkpt lat="44.24286" lon="7.07934">
        <ele>2004.9597167969</ele>
        <time>2012-08-26T11:04:14Z</time>
      </trkpt>
      <trkpt lat="44.24276" lon="7.07912">
        <ele>1998.4273681641</ele>
        <time>2012-08-26T11:04:19Z</time>
      </trkpt>
      <trkpt lat="44.24274" lon="7.07902">
        <ele>1996.9177246094</ele>
        <time>2012-08-26T11:04:22Z</time>
      </trkpt>
      <trkpt lat="44.24278" lon="7.07889">
        <ele>1994.0028076172</ele>
        <time>2012-08-26T11:04:26Z</time>
      </trkpt>
      <trkpt lat="44.24298" lon="7.07868">
        <ele>1988.7877197266</ele>
        <time>2012-08-26T11:04:32Z</time>
      </trkpt>
      <trkpt lat="44.24314" lon="7.0786">
        <ele>1985.2520751953</ele>
        <time>2012-08-26T11:04:35Z</time>
      </trkpt>
      <trkpt lat="44.2432" lon="7.07857">
        <ele>1984.5499267578</ele>
        <time>2012-08-26T11:04:36Z</time>
      </trkpt>
      <trkpt lat="44.24347" lon="7.07859">
        <ele>1981.0716552734</ele>
        <time>2012-08-26T11:04:40Z</time>
      </trkpt>
      <trkpt lat="44.24357" lon="7.07863">
        <ele>1979.9245605469</ele>
        <time>2012-08-26T11:04:42Z</time>
      </trkpt>
      <trkpt lat="44.24364" lon="7.07867">
        <ele>1979.5517578125</ele>
        <time>2012-08-26T11:04:44Z</time>
      </trkpt>
      <trkpt lat="44.24366" lon="7.0787">
        <ele>1979.3424072266</ele>
        <time>2012-08-26T11:04:49Z</time>
      </trkpt>
      <trkpt lat="44.24363" lon="7.0787">
        <ele>1979.3526611328</ele>
        <time>2012-08-26T11:05:08Z</time>
      </trkpt>
      <trkpt lat="44.24366" lon="7.0787">
        <ele>1979.3492431641</ele>
        <time>2012-08-26T11:05:17Z</time>
      </trkpt>
      <trkpt lat="44.24366" lon="7.07869">
        <ele>1979.431640625</ele>
        <time>2012-08-26T11:05:29Z</time>
      </trkpt>
      <trkpt lat="44.24367" lon="7.07869">
        <ele>1979.4522705078</ele>
        <time>2012-08-26T11:05:34Z</time>
      </trkpt>
      <trkpt lat="44.2437" lon="7.07869">
        <ele>1979.4659423828</ele>
        <time>2012-08-26T11:05:39Z</time>
      </trkpt>
      <trkpt lat="44.24372" lon="7.07864">
        <ele>1979.8059082031</ele>
        <time>2012-08-26T11:05:43Z</time>
      </trkpt>
      <trkpt lat="44.24374" lon="7.07861">
        <ele>1979.9775390625</ele>
        <time>2012-08-26T11:05:48Z</time>
      </trkpt>
      <trkpt lat="44.24375" lon="7.0786">
        <ele>1980.7310791016</ele>
        <time>2012-08-26T11:05:52Z</time>
      </trkpt>
      <trkpt lat="44.24376" lon="7.07861">
        <ele>1979.9877929688</ele>
        <time>2012-08-26T11:06:04Z</time>
      </trkpt>
      <trkpt lat="44.24379" lon="7.07862">
        <ele>1979.9466552734</ele>
        <time>2012-08-26T11:06:22Z</time>
      </trkpt>
      <trkpt lat="44.2438" lon="7.07862">
        <ele>1979.9637451172</ele>
        <time>2012-08-26T11:06:29Z</time>
      </trkpt>
      <trkpt lat="44.24382" lon="7.07864">
        <ele>1979.8127441406</ele>
        <time>2012-08-26T11:06:43Z</time>
      </trkpt>
      <trkpt lat="44.24387" lon="7.07881">
        <ele>1978.56640625</ele>
        <time>2012-08-26T11:06:49Z</time>
      </trkpt>
      <trkpt lat="44.2439" lon="7.0789">
        <ele>1977.7468261719</ele>
        <time>2012-08-26T11:06:53Z</time>
      </trkpt>
      <trkpt lat="44.244" lon="7.07893">
        <ele>1975.3828125</ele>
        <time>2012-08-26T11:06:57Z</time>
      </trkpt>
      <trkpt lat="44.24412" lon="7.07882">
        <ele>1975.0977783203</ele>
        <time>2012-08-26T11:07:02Z</time>
      </trkpt>
      <trkpt lat="44.24416" lon="7.07876">
        <ele>1975.8062744141</ele>
        <time>2012-08-26T11:07:04Z</time>
      </trkpt>
      <trkpt lat="44.2443" lon="7.0788">
        <ele>1972.2436523438</ele>
        <time>2012-08-26T11:07:08Z</time>
      </trkpt>
      <trkpt lat="44.24441" lon="7.07878">
        <ele>1970.8881835938</ele>
        <time>2012-08-26T11:07:11Z</time>
      </trkpt>
      <trkpt lat="44.24453" lon="7.07874">
        <ele>1969.8020019531</ele>
        <time>2012-08-26T11:07:14Z</time>
      </trkpt>
      <trkpt lat="44.24461" lon="7.07886">
        <ele>1963.0856933594</ele>
        <time>2012-08-26T11:07:17Z</time>
      </trkpt>
      <trkpt lat="44.24472" lon="7.07891">
        <ele>1959.8729248047</ele>
        <time>2012-08-26T11:07:20Z</time>
      </trkpt>
      <trkpt lat="44.24478" lon="7.07898">
        <ele>1959.3579101562</ele>
        <time>2012-08-26T11:07:24Z</time>
      </trkpt>
      <trkpt lat="44.24479" lon="7.07896">
        <ele>1959.4987792969</ele>
        <time>2012-08-26T11:07:30Z</time>
      </trkpt>
      <trkpt lat="44.24485" lon="7.07891">
        <ele>1959.8386230469</ele>
        <time>2012-08-26T11:07:34Z</time>
      </trkpt>
      <trkpt lat="44.24495" lon="7.0788">
        <ele>1961.9382324219</ele>
        <time>2012-08-26T11:07:38Z</time>
      </trkpt>
      <trkpt lat="44.24498" lon="7.07877">
        <ele>1962.3012695312</ele>
        <time>2012-08-26T11:07:41Z</time>
      </trkpt>
      <trkpt lat="44.24502" lon="7.0788">
        <ele>1961.5792236328</ele>
        <time>2012-08-26T11:07:46Z</time>
      </trkpt>
      <trkpt lat="44.24514" lon="7.07887">
        <ele>1960.3260498047</ele>
        <time>2012-08-26T11:07:51Z</time>
      </trkpt>
      <trkpt lat="44.24529" lon="7.07889">
        <ele>1959.9587402344</ele>
        <time>2012-08-26T11:07:55Z</time>
      </trkpt>
      <trkpt lat="44.24541" lon="7.07884">
        <ele>1960.9757080078</ele>
        <time>2012-08-26T11:07:59Z</time>
      </trkpt>
      <trkpt lat="44.24543" lon="7.07884">
        <ele>1961.0639648438</ele>
        <time>2012-08-26T11:08:04Z</time>
      </trkpt>
      <trkpt lat="44.24545" lon="7.07884">
        <ele>1960.9664306641</ele>
        <time>2012-08-26T11:08:09Z</time>
      </trkpt>
      <trkpt lat="44.24549" lon="7.07883">
        <ele>1961.2077636719</ele>
        <time>2012-08-26T11:08:15Z</time>
      </trkpt>
      <trkpt lat="44.24552" lon="7.07882">
        <ele>1961.4527587891</ele>
        <time>2012-08-26T11:08:21Z</time>
      </trkpt>
      <trkpt lat="44.24554" lon="7.07881">
        <ele>1961.5783691406</ele>
        <time>2012-08-26T11:08:22Z</time>
      </trkpt>
      <trkpt lat="44.24571" lon="7.07885">
        <ele>1961.2670898438</ele>
        <time>2012-08-26T11:08:28Z</time>
      </trkpt>
      <trkpt lat="44.24584" lon="7.07885">
        <ele>1961.5791015625</ele>
        <time>2012-08-26T11:08:31Z</time>
      </trkpt>
      <trkpt lat="44.24596" lon="7.07878">
        <ele>1963.9995117188</ele>
        <time>2012-08-26T11:08:36Z</time>
      </trkpt>
      <trkpt lat="44.24607" lon="7.07877">
        <ele>1964.2398681641</ele>
        <time>2012-08-26T11:08:41Z</time>
      </trkpt>
      <trkpt lat="44.24623" lon="7.07885">
        <ele>1961.3216552734</ele>
        <time>2012-08-26T11:08:46Z</time>
      </trkpt>
      <trkpt lat="44.24644" lon="7.07879">
        <ele>1963.2321777344</ele>
        <time>2012-08-26T11:08:51Z</time>
      </trkpt>
      <trkpt lat="44.24652" lon="7.07881">
        <ele>1962.3364257812</ele>
        <time>2012-08-26T11:08:53Z</time>
      </trkpt>
      <trkpt lat="44.24666" lon="7.0788">
        <ele>1961.8950195312</ele>
        <time>2012-08-26T11:08:56Z</time>
      </trkpt>
      <trkpt lat="44.24675" lon="7.0788">
        <ele>1961.044921875</ele>
        <time>2012-08-26T11:08:58Z</time>
      </trkpt>
      <trkpt lat="44.24684" lon="7.07878">
        <ele>1960.1932373047</ele>
        <time>2012-08-26T11:09:03Z</time>
      </trkpt>
      <trkpt lat="44.24686" lon="7.07878">
        <ele>1959.9481201172</ele>
        <time>2012-08-26T11:09:11Z</time>
      </trkpt>
      <trkpt lat="44.24693" lon="7.07881">
        <ele>1958.7713623047</ele>
        <time>2012-08-26T11:09:19Z</time>
      </trkpt>
      <trkpt lat="44.24695" lon="7.07883">
        <ele>1958.4266357422</ele>
        <time>2012-08-26T11:09:22Z</time>
      </trkpt>
      <trkpt lat="44.24699" lon="7.07884">
        <ele>1958.3522949219</ele>
        <time>2012-08-26T11:09:25Z</time>
      </trkpt>
      <trkpt lat="44.24709" lon="7.07883">
        <ele>1958.3349609375</ele>
        <time>2012-08-26T11:09:34Z</time>
      </trkpt>
      <trkpt lat="44.24719" lon="7.0788">
        <ele>1958.3649902344</ele>
        <time>2012-08-26T11:09:43Z</time>
      </trkpt>
      <trkpt lat="44.2473" lon="7.07876">
        <ele>1958.4737548828</ele>
        <time>2012-08-26T11:09:52Z</time>
      </trkpt>
      <trkpt lat="44.24741" lon="7.07877">
        <ele>1958.4428710938</ele>
        <time>2012-08-26T11:10:02Z</time>
      </trkpt>
      <trkpt lat="44.24746" lon="7.07875">
        <ele>1958.5114746094</ele>
        <time>2012-08-26T11:10:07Z</time>
      </trkpt>
      <trkpt lat="44.24757" lon="7.07875">
        <ele>1958.4995117188</ele>
        <time>2012-08-26T11:10:16Z</time>
      </trkpt>
      <trkpt lat="44.24762" lon="7.07874">
        <ele>1958.5424804688</ele>
        <time>2012-08-26T11:10:22Z</time>
      </trkpt>
      <trkpt lat="44.24767" lon="7.07872">
        <ele>1958.6110839844</ele>
        <time>2012-08-26T11:10:29Z</time>
      </trkpt>
      <trkpt lat="44.24775" lon="7.07866">
        <ele>1958.8067626953</ele>
        <time>2012-08-26T11:10:36Z</time>
      </trkpt>
      <trkpt lat="44.24781" lon="7.07858">
        <ele>1959</ele>
        <time>2012-08-26T11:10:43Z</time>
      </trkpt>
      <trkpt lat="44.24788" lon="7.07851">
        <ele>1959</ele>
        <time>2012-08-26T11:10:50Z</time>
      </trkpt>
      <trkpt lat="44.24796" lon="7.07843">
        <ele>1959</ele>
        <time>2012-08-26T11:10:58Z</time>
      </trkpt>
      <trkpt lat="44.24797" lon="7.07843">
        <ele>1959</ele>
        <time>2012-08-26T11:10:59Z</time>
      </trkpt>
      <trkpt lat="44.24803" lon="7.07844">
        <ele>1959</ele>
        <time>2012-08-26T11:11:05Z</time>
      </trkpt>
      <trkpt lat="44.24809" lon="7.07846">
        <ele>1958.7052001953</ele>
        <time>2012-08-26T11:11:13Z</time>
      </trkpt>
      <trkpt lat="44.2481" lon="7.07847">
        <ele>1958.5977783203</ele>
        <time>2012-08-26T11:11:22Z</time>
      </trkpt>
      <trkpt lat="44.24815" lon="7.07846">
        <ele>1958.1995849609</ele>
        <time>2012-08-26T11:11:28Z</time>
      </trkpt>
      <trkpt lat="44.24818" lon="7.07848">
        <ele>1957.8367919922</ele>
        <time>2012-08-26T11:11:33Z</time>
      </trkpt>
      <trkpt lat="44.24822" lon="7.07846">
        <ele>1957.5625</ele>
        <time>2012-08-26T11:11:38Z</time>
      </trkpt>
      <trkpt lat="44.24829" lon="7.07843">
        <ele>1957.0106201172</ele>
        <time>2012-08-26T11:11:46Z</time>
      </trkpt>
      <trkpt lat="44.24832" lon="7.07843">
        <ele>1956.7510986328</ele>
        <time>2012-08-26T11:11:50Z</time>
      </trkpt>
      <trkpt lat="44.24838" lon="7.07844">
        <ele>1956.0798339844</ele>
        <time>2012-08-26T11:11:56Z</time>
      </trkpt>
      <trkpt lat="44.24849" lon="7.07845">
        <ele>1954.6361083984</ele>
        <time>2012-08-26T11:12:02Z</time>
      </trkpt>
      <trkpt lat="44.24861" lon="7.07845">
        <ele>1953.1774902344</ele>
        <time>2012-08-26T11:12:09Z</time>
      </trkpt>
      <trkpt lat="44.24868" lon="7.07846">
        <ele>1951.9460449219</ele>
        <time>2012-08-26T11:12:13Z</time>
      </trkpt>
      <trkpt lat="44.24871" lon="7.07847">
        <ele>1951.2689208984</ele>
        <time>2012-08-26T11:12:15Z</time>
      </trkpt>
      <trkpt lat="44.24877" lon="7.07857">
        <ele>1949.0947265625</ele>
        <time>2012-08-26T11:12:21Z</time>
      </trkpt>
      <trkpt lat="44.24878" lon="7.07861">
        <ele>1948.4793701172</ele>
        <time>2012-08-26T11:12:23Z</time>
      </trkpt>
      <trkpt lat="44.24882" lon="7.07864">
        <ele>1947.2004394531</ele>
        <time>2012-08-26T11:12:28Z</time>
      </trkpt>
      <trkpt lat="44.24882" lon="7.07863">
        <ele>1947.3498535156</ele>
        <time>2012-08-26T11:12:33Z</time>
      </trkpt>
      <trkpt lat="44.24888" lon="7.07861">
        <ele>1946.1190185547</ele>
        <time>2012-08-26T11:12:45Z</time>
      </trkpt>
      <trkpt lat="44.24903" lon="7.07856">
        <ele>1941.9014892578</ele>
        <time>2012-08-26T11:12:50Z</time>
      </trkpt>
      <trkpt lat="44.24926" lon="7.0785">
        <ele>1936.98828125</ele>
        <time>2012-08-26T11:12:56Z</time>
      </trkpt>
      <trkpt lat="44.24943" lon="7.07844">
        <ele>1935.9383544922</ele>
        <time>2012-08-26T11:13:00Z</time>
      </trkpt>
      <trkpt lat="44.2497" lon="7.07835">
        <ele>1934.0659179688</ele>
        <time>2012-08-26T11:13:06Z</time>
      </trkpt>
      <trkpt lat="44.24989" lon="7.07836">
        <ele>1929.8626708984</ele>
        <time>2012-08-26T11:13:10Z</time>
      </trkpt>
      <trkpt lat="44.25023" lon="7.07839">
        <ele>1922.7120361328</ele>
        <time>2012-08-26T11:13:17Z</time>
      </trkpt>
      <trkpt lat="44.25032" lon="7.07839">
        <ele>1921.5900878906</ele>
        <time>2012-08-26T11:13:19Z</time>
      </trkpt>
      <trkpt lat="44.25054" lon="7.07832">
        <ele>1920.7801513672</ele>
        <time>2012-08-26T11:13:25Z</time>
      </trkpt>
      <trkpt lat="44.2506" lon="7.07832">
        <ele>1920.3931884766</ele>
        <time>2012-08-26T11:13:28Z</time>
      </trkpt>
      <trkpt lat="44.25064" lon="7.07833">
        <ele>1920.2043457031</ele>
        <time>2012-08-26T11:13:36Z</time>
      </trkpt>
      <trkpt lat="44.25066" lon="7.0783">
        <ele>1921.1313476562</ele>
        <time>2012-08-26T11:13:41Z</time>
      </trkpt>
      <trkpt lat="44.25072" lon="7.07833">
        <ele>1920.2043457031</ele>
        <time>2012-08-26T11:13:51Z</time>
      </trkpt>
      <trkpt lat="44.25076" lon="7.07835">
        <ele>1919.6346435547</ele>
        <time>2012-08-26T11:13:55Z</time>
      </trkpt>
      <trkpt lat="44.2508" lon="7.07826">
        <ele>1922.8135986328</ele>
        <time>2012-08-26T11:14:00Z</time>
      </trkpt>
      <trkpt lat="44.25082" lon="7.07822">
        <ele>1924.1697998047</ele>
        <time>2012-08-26T11:14:02Z</time>
      </trkpt>
      <trkpt lat="44.25089" lon="7.07819">
        <ele>1924.9937744141</ele>
        <time>2012-08-26T11:14:07Z</time>
      </trkpt>
      <trkpt lat="44.25096" lon="7.07814">
        <ele>1927.0364990234</ele>
        <time>2012-08-26T11:14:13Z</time>
      </trkpt>
      <trkpt lat="44.25098" lon="7.07816">
        <ele>1926.4013671875</ele>
        <time>2012-08-26T11:14:20Z</time>
      </trkpt>
      <trkpt lat="44.25101" lon="7.07818">
        <ele>1925.6975097656</ele>
        <time>2012-08-26T11:14:27Z</time>
      </trkpt>
      <trkpt lat="44.25104" lon="7.07819">
        <ele>1925.2341308594</ele>
        <time>2012-08-26T11:14:32Z</time>
      </trkpt>
      <trkpt lat="44.25109" lon="7.07814">
        <ele>1926.84765625</ele>
        <time>2012-08-26T11:14:39Z</time>
      </trkpt>
      <trkpt lat="44.25116" lon="7.07809">
        <ele>1928.6844482422</ele>
        <time>2012-08-26T11:14:45Z</time>
      </trkpt>
      <trkpt lat="44.25118" lon="7.07807">
        <ele>1929.2601318359</ele>
        <time>2012-08-26T11:14:46Z</time>
      </trkpt>
      <trkpt lat="44.25127" lon="7.07805">
        <ele>1929.669921875</ele>
        <time>2012-08-26T11:14:50Z</time>
      </trkpt>
      <trkpt lat="44.25132" lon="7.07802">
        <ele>1930.2038574219</ele>
        <time>2012-08-26T11:14:56Z</time>
      </trkpt>
      <trkpt lat="44.25134" lon="7.07799">
        <ele>1930.6964111328</ele>
        <time>2012-08-26T11:15:03Z</time>
      </trkpt>
      <trkpt lat="44.25138" lon="7.07799">
        <ele>1930.7531738281</ele>
        <time>2012-08-26T11:15:12Z</time>
      </trkpt>
      <trkpt lat="44.25139" lon="7.07801">
        <ele>1930.2033691406</ele>
        <time>2012-08-26T11:15:15Z</time>
      </trkpt>
      <trkpt lat="44.2514" lon="7.07802">
        <ele>1929.8759765625</ele>
        <time>2012-08-26T11:15:17Z</time>
      </trkpt>
      <trkpt lat="44.25146" lon="7.07811">
        <ele>1927.1141357422</ele>
        <time>2012-08-26T11:15:22Z</time>
      </trkpt>
      <trkpt lat="44.25151" lon="7.07815">
        <ele>1925.701171875</ele>
        <time>2012-08-26T11:15:25Z</time>
      </trkpt>
      <trkpt lat="44.25159" lon="7.07818">
        <ele>1924.5083007812</ele>
        <time>2012-08-26T11:15:29Z</time>
      </trkpt>
      <trkpt lat="44.25163" lon="7.07822">
        <ele>1923.3449707031</ele>
        <time>2012-08-26T11:15:32Z</time>
      </trkpt>
      <trkpt lat="44.25169" lon="7.07831">
        <ele>1920.611328125</ele>
        <time>2012-08-26T11:15:36Z</time>
      </trkpt>
      <trkpt lat="44.25176" lon="7.07837">
        <ele>1919.4155273438</ele>
        <time>2012-08-26T11:15:40Z</time>
      </trkpt>
      <trkpt lat="44.25189" lon="7.07839">
        <ele>1918.8919677734</ele>
        <time>2012-08-26T11:15:44Z</time>
      </trkpt>
      <trkpt lat="44.25205" lon="7.07845">
        <ele>1917.810546875</ele>
        <time>2012-08-26T11:15:49Z</time>
      </trkpt>
      <trkpt lat="44.25219" lon="7.07839">
        <ele>1919.0635986328</ele>
        <time>2012-08-26T11:15:53Z</time>
      </trkpt>
      <trkpt lat="44.25238" lon="7.07826">
        <ele>1920.5166015625</ele>
        <time>2012-08-26T11:15:57Z</time>
      </trkpt>
      <trkpt lat="44.25254" lon="7.07818">
        <ele>1921.3367919922</ele>
        <time>2012-08-26T11:16:01Z</time>
      </trkpt>
      <trkpt lat="44.25256" lon="7.07817">
        <ele>1921.5570068359</ele>
        <time>2012-08-26T11:16:05Z</time>
      </trkpt>
      <trkpt lat="44.25259" lon="7.07816">
        <ele>1921.5234375</ele>
        <time>2012-08-26T11:16:09Z</time>
      </trkpt>
      <trkpt lat="44.25261" lon="7.07815">
        <ele>1921.3544921875</ele>
        <time>2012-08-26T11:16:13Z</time>
      </trkpt>
      <trkpt lat="44.25268" lon="7.0781">
        <ele>1922.3461914062</ele>
        <time>2012-08-26T11:16:18Z</time>
      </trkpt>
      <trkpt lat="44.25278" lon="7.07808">
        <ele>1921.8197021484</ele>
        <time>2012-08-26T11:16:23Z</time>
      </trkpt>
      <trkpt lat="44.2529" lon="7.07806">
        <ele>1918.9907226562</ele>
        <time>2012-08-26T11:16:26Z</time>
      </trkpt>
      <trkpt lat="44.2531" lon="7.07781">
        <ele>1919.4669189453</ele>
        <time>2012-08-26T11:16:32Z</time>
      </trkpt>
      <trkpt lat="44.25312" lon="7.07777">
        <ele>1919.7829589844</ele>
        <time>2012-08-26T11:16:33Z</time>
      </trkpt>
      <trkpt lat="44.2532" lon="7.07771">
        <ele>1918.1898193359</ele>
        <time>2012-08-26T11:16:37Z</time>
      </trkpt>
      <trkpt lat="44.25332" lon="7.0777">
        <ele>1914.2603759766</ele>
        <time>2012-08-26T11:16:42Z</time>
      </trkpt>
      <trkpt lat="44.25341" lon="7.07772">
        <ele>1912.2425537109</ele>
        <time>2012-08-26T11:16:46Z</time>
      </trkpt>
      <trkpt lat="44.25356" lon="7.07771">
        <ele>1909.6796875</ele>
        <time>2012-08-26T11:16:52Z</time>
      </trkpt>
      <trkpt lat="44.25368" lon="7.0777">
        <ele>1906.9034423828</ele>
        <time>2012-08-26T11:16:56Z</time>
      </trkpt>
      <trkpt lat="44.25383" lon="7.07772">
        <ele>1902.4069824219</ele>
        <time>2012-08-26T11:17:01Z</time>
      </trkpt>
      <trkpt lat="44.25385" lon="7.07771">
        <ele>1901.9467773438</ele>
        <time>2012-08-26T11:17:32Z</time>
      </trkpt>
      <trkpt lat="44.25388" lon="7.07768">
        <ele>1901.8021240234</ele>
        <time>2012-08-26T11:17:36Z</time>
      </trkpt>
      <trkpt lat="44.25385" lon="7.07781">
        <ele>1900.6818847656</ele>
        <time>2012-08-26T11:18:54Z</time>
      </trkpt>
      <trkpt lat="44.25386" lon="7.07782">
        <ele>1900.4663085938</ele>
        <time>2012-08-26T11:19:06Z</time>
      </trkpt>
      <trkpt lat="44.25397" lon="7.07781">
        <ele>1898.0465087891</ele>
        <time>2012-08-26T11:19:09Z</time>
      </trkpt>
      <trkpt lat="44.25414" lon="7.07785">
        <ele>1893.4936523438</ele>
        <time>2012-08-26T11:19:13Z</time>
      </trkpt>
      <trkpt lat="44.25425" lon="7.07786">
        <ele>1889.3934326172</ele>
        <time>2012-08-26T11:19:17Z</time>
      </trkpt>
      <trkpt lat="44.2543" lon="7.07783">
        <ele>1888.0150146484</ele>
        <time>2012-08-26T11:19:19Z</time>
      </trkpt>
      <trkpt lat="44.25451" lon="7.07767">
        <ele>1884.2476806641</ele>
        <time>2012-08-26T11:19:24Z</time>
      </trkpt>
      <trkpt lat="44.25461" lon="7.07759">
        <ele>1884.2922363281</ele>
        <time>2012-08-26T11:19:26Z</time>
      </trkpt>
      <trkpt lat="44.25477" lon="7.07752">
        <ele>1882.5419921875</ele>
        <time>2012-08-26T11:19:29Z</time>
      </trkpt>
      <trkpt lat="44.25492" lon="7.07745">
        <ele>1881.8267822266</ele>
        <time>2012-08-26T11:19:33Z</time>
      </trkpt>
      <trkpt lat="44.25497" lon="7.07743">
        <ele>1881.7939453125</ele>
        <time>2012-08-26T11:19:35Z</time>
      </trkpt>
      <trkpt lat="44.25513" lon="7.07738">
        <ele>1880.4986572266</ele>
        <time>2012-08-26T11:19:41Z</time>
      </trkpt>
      <trkpt lat="44.25518" lon="7.07737">
        <ele>1879.9478759766</ele>
        <time>2012-08-26T11:19:43Z</time>
      </trkpt>
      <trkpt lat="44.25532" lon="7.07734">
        <ele>1877.4760742188</ele>
        <time>2012-08-26T11:19:48Z</time>
      </trkpt>
      <trkpt lat="44.25545" lon="7.0773">
        <ele>1874.3229980469</ele>
        <time>2012-08-26T11:19:51Z</time>
      </trkpt>
      <trkpt lat="44.25557" lon="7.07722">
        <ele>1873.5397949219</ele>
        <time>2012-08-26T11:19:55Z</time>
      </trkpt>
      <trkpt lat="44.25564" lon="7.07719">
        <ele>1871.7958984375</ele>
        <time>2012-08-26T11:20:01Z</time>
      </trkpt>
      <trkpt lat="44.25573" lon="7.07715">
        <ele>1870.0932617188</ele>
        <time>2012-08-26T11:20:05Z</time>
      </trkpt>
      <trkpt lat="44.25576" lon="7.07715">
        <ele>1868.9140625</ele>
        <time>2012-08-26T11:20:08Z</time>
      </trkpt>
      <trkpt lat="44.25581" lon="7.07714">
        <ele>1867.134765625</ele>
        <time>2012-08-26T11:20:12Z</time>
      </trkpt>
      <trkpt lat="44.25598" lon="7.07708">
        <ele>1862.9680175781</ele>
        <time>2012-08-26T11:20:17Z</time>
      </trkpt>
      <trkpt lat="44.25603" lon="7.07704">
        <ele>1861.6236572266</ele>
        <time>2012-08-26T11:20:20Z</time>
      </trkpt>
      <trkpt lat="44.25607" lon="7.07704">
        <ele>1860.3029785156</ele>
        <time>2012-08-26T11:20:25Z</time>
      </trkpt>
      <trkpt lat="44.25618" lon="7.07699">
        <ele>1857.2532958984</ele>
        <time>2012-08-26T11:20:30Z</time>
      </trkpt>
      <trkpt lat="44.25632" lon="7.07697">
        <ele>1854.0731201172</ele>
        <time>2012-08-26T11:20:34Z</time>
      </trkpt>
      <trkpt lat="44.25648" lon="7.07691">
        <ele>1849.0512695312</ele>
        <time>2012-08-26T11:20:40Z</time>
      </trkpt>
      <trkpt lat="44.25657" lon="7.07689">
        <ele>1844.8625488281</ele>
        <time>2012-08-26T11:20:43Z</time>
      </trkpt>
      <trkpt lat="44.25666" lon="7.07689">
        <ele>1839.8900146484</ele>
        <time>2012-08-26T11:20:48Z</time>
      </trkpt>
      <trkpt lat="44.2567" lon="7.07687">
        <ele>1838.4342041016</ele>
        <time>2012-08-26T11:20:52Z</time>
      </trkpt>
      <trkpt lat="44.25679" lon="7.07689">
        <ele>1832.7127685547</ele>
        <time>2012-08-26T11:21:00Z</time>
      </trkpt>
      <trkpt lat="44.25681" lon="7.07686">
        <ele>1832.5565185547</ele>
        <time>2012-08-26T11:21:05Z</time>
      </trkpt>
      <trkpt lat="44.25684" lon="7.07686">
        <ele>1831.0648193359</ele>
        <time>2012-08-26T11:21:11Z</time>
      </trkpt>
      <trkpt lat="44.25699" lon="7.07682">
        <ele>1823.4228515625</ele>
        <time>2012-08-26T11:21:20Z</time>
      </trkpt>
      <trkpt lat="44.25715" lon="7.07675">
        <ele>1817.2926025391</ele>
        <time>2012-08-26T11:21:24Z</time>
      </trkpt>
      <trkpt lat="44.25729" lon="7.07672">
        <ele>1810.6536865234</ele>
        <time>2012-08-26T11:21:28Z</time>
      </trkpt>
      <trkpt lat="44.25746" lon="7.07675">
        <ele>1800.5045166016</ele>
        <time>2012-08-26T11:21:33Z</time>
      </trkpt>
      <trkpt lat="44.25763" lon="7.07679">
        <ele>1788.9989013672</ele>
        <time>2012-08-26T11:21:37Z</time>
      </trkpt>
      <trkpt lat="44.25766" lon="7.0768">
        <ele>1786.7110595703</ele>
        <time>2012-08-26T11:21:38Z</time>
      </trkpt>
      <trkpt lat="44.25781" lon="7.07674">
        <ele>1779.5374755859</ele>
        <time>2012-08-26T11:21:43Z</time>
      </trkpt>
      <trkpt lat="44.25788" lon="7.07675">
        <ele>1779.0590820312</ele>
        <time>2012-08-26T11:21:47Z</time>
      </trkpt>
      <trkpt lat="44.2579" lon="7.07675">
        <ele>1778.9332275391</ele>
        <time>2012-08-26T11:21:48Z</time>
      </trkpt>
      <trkpt lat="44.258" lon="7.07672">
        <ele>1778.3397216797</ele>
        <time>2012-08-26T11:21:52Z</time>
      </trkpt>
      <trkpt lat="44.25819" lon="7.07674">
        <ele>1776.3662109375</ele>
        <time>2012-08-26T11:21:57Z</time>
      </trkpt>
      <trkpt lat="44.25834" lon="7.07673">
        <ele>1774.2130126953</ele>
        <time>2012-08-26T11:22:02Z</time>
      </trkpt>
      <trkpt lat="44.2584" lon="7.07675">
        <ele>1772.7043457031</ele>
        <time>2012-08-26T11:22:05Z</time>
      </trkpt>
      <trkpt lat="44.25849" lon="7.07672">
        <ele>1770.1916503906</ele>
        <time>2012-08-26T11:22:09Z</time>
      </trkpt>
      <trkpt lat="44.25853" lon="7.07674">
        <ele>1769.3759765625</ele>
        <time>2012-08-26T11:22:11Z</time>
      </trkpt>
      <trkpt lat="44.25858" lon="7.07673">
        <ele>1767.8585205078</ele>
        <time>2012-08-26T11:22:14Z</time>
      </trkpt>
      <trkpt lat="44.25866" lon="7.07672">
        <ele>1766.2193603516</ele>
        <time>2012-08-26T11:22:19Z</time>
      </trkpt>
      <trkpt lat="44.25872" lon="7.0767">
        <ele>1765.3352050781</ele>
        <time>2012-08-26T11:22:21Z</time>
      </trkpt>
      <trkpt lat="44.25896" lon="7.07658">
        <ele>1759.7456054688</ele>
        <time>2012-08-26T11:22:27Z</time>
      </trkpt>
      <trkpt lat="44.25906" lon="7.07643">
        <ele>1754.5958251953</ele>
        <time>2012-08-26T11:22:30Z</time>
      </trkpt>
      <trkpt lat="44.25918" lon="7.07612">
        <ele>1748.0258789062</ele>
        <time>2012-08-26T11:22:35Z</time>
      </trkpt>
      <trkpt lat="44.25929" lon="7.07595">
        <ele>1745.0928955078</ele>
        <time>2012-08-26T11:22:40Z</time>
      </trkpt>
      <trkpt lat="44.25933" lon="7.07593">
        <ele>1744.6391601562</ele>
        <time>2012-08-26T11:22:41Z</time>
      </trkpt>
      <trkpt lat="44.25941" lon="7.07585">
        <ele>1743.3189697266</ele>
        <time>2012-08-26T11:22:46Z</time>
      </trkpt>
      <trkpt lat="44.25949" lon="7.07579">
        <ele>1740.9693603516</ele>
        <time>2012-08-26T11:22:50Z</time>
      </trkpt>
      <trkpt lat="44.25959" lon="7.07571">
        <ele>1736.8371582031</ele>
        <time>2012-08-26T11:22:54Z</time>
      </trkpt>
      <trkpt lat="44.25976" lon="7.07554">
        <ele>1731.1094970703</ele>
        <time>2012-08-26T11:23:00Z</time>
      </trkpt>
      <trkpt lat="44.25986" lon="7.07544">
        <ele>1727.5042724609</ele>
        <time>2012-08-26T11:23:04Z</time>
      </trkpt>
      <trkpt lat="44.25988" lon="7.07542">
        <ele>1726.9932861328</ele>
        <time>2012-08-26T11:23:05Z</time>
      </trkpt>
      <trkpt lat="44.25993" lon="7.07538">
        <ele>1725.5246582031</ele>
        <time>2012-08-26T11:23:08Z</time>
      </trkpt>
      <trkpt lat="44.26001" lon="7.07526">
        <ele>1722.5831298828</ele>
        <time>2012-08-26T11:23:13Z</time>
      </trkpt>
      <trkpt lat="44.26003" lon="7.07524">
        <ele>1721.9522705078</ele>
        <time>2012-08-26T11:23:14Z</time>
      </trkpt>
      <trkpt lat="44.26015" lon="7.0751">
        <ele>1717.8889160156</ele>
        <time>2012-08-26T11:23:20Z</time>
      </trkpt>
      <trkpt lat="44.26025" lon="7.07498">
        <ele>1714.2996826172</ele>
        <time>2012-08-26T11:23:25Z</time>
      </trkpt>
      <trkpt lat="44.26027" lon="7.07491">
        <ele>1712.9603271484</ele>
        <time>2012-08-26T11:23:33Z</time>
      </trkpt>
      <trkpt lat="44.26027" lon="7.07489">
        <ele>1712.6263427734</ele>
        <time>2012-08-26T11:23:34Z</time>
      </trkpt>
      <trkpt lat="44.26028" lon="7.07484">
        <ele>1711.6459960938</ele>
        <time>2012-08-26T11:23:38Z</time>
      </trkpt>
      <trkpt lat="44.26033" lon="7.07481">
        <ele>1710.4306640625</ele>
        <time>2012-08-26T11:23:45Z</time>
      </trkpt>
      <trkpt lat="44.26033" lon="7.07481">
        <ele>1710.3414306641</ele>
        <time>2012-08-26T11:23:58Z</time>
      </trkpt>
      <trkpt lat="44.26043" lon="7.07485">
        <ele>1709.1329345703</ele>
        <time>2012-08-26T11:24:20Z</time>
      </trkpt>
      <trkpt lat="44.26049" lon="7.07488">
        <ele>1708.3913574219</ele>
        <time>2012-08-26T11:24:28Z</time>
      </trkpt>
      <trkpt lat="44.26044" lon="7.07485">
        <ele>1708.8308105469</ele>
        <time>2012-08-26T11:24:45Z</time>
      </trkpt>
      <trkpt lat="44.26044" lon="7.0748">
        <ele>1708.0549316406</ele>
        <time>2012-08-26T11:24:53Z</time>
      </trkpt>
      <trkpt lat="44.26042" lon="7.07471">
        <ele>1707.1402587891</ele>
        <time>2012-08-26T11:24:57Z</time>
      </trkpt>
      <trkpt lat="44.26046" lon="7.07472">
        <ele>1706.5798339844</ele>
        <time>2012-08-26T11:25:00Z</time>
      </trkpt>
      <trkpt lat="44.26051" lon="7.07474">
        <ele>1706.1940917969</ele>
        <time>2012-08-26T11:25:04Z</time>
      </trkpt>
      <trkpt lat="44.26053" lon="7.07462">
        <ele>1703.9254150391</ele>
        <time>2012-08-26T11:25:09Z</time>
      </trkpt>
      <trkpt lat="44.26052" lon="7.07459">
        <ele>1703.7196044922</ele>
        <time>2012-08-26T11:25:10Z</time>
      </trkpt>
      <trkpt lat="44.26046" lon="7.07453">
        <ele>1703.6583251953</ele>
        <time>2012-08-26T11:25:13Z</time>
      </trkpt>
      <trkpt lat="44.26037" lon="7.07447">
        <ele>1704.0303955078</ele>
        <time>2012-08-26T11:25:18Z</time>
      </trkpt>
      <trkpt lat="44.26036" lon="7.07446">
        <ele>1704.1494140625</ele>
        <time>2012-08-26T11:25:20Z</time>
      </trkpt>
      <trkpt lat="44.26023" lon="7.07438">
        <ele>1704.9506835938</ele>
        <time>2012-08-26T11:25:25Z</time>
      </trkpt>
      <trkpt lat="44.26018" lon="7.07435">
        <ele>1705.3918457031</ele>
        <time>2012-08-26T11:25:27Z</time>
      </trkpt>
      <trkpt lat="44.26011" lon="7.07418">
        <ele>1704.5610351562</ele>
        <time>2012-08-26T11:25:31Z</time>
      </trkpt>
      <trkpt lat="44.26003" lon="7.07396">
        <ele>1704.0679931641</ele>
        <time>2012-08-26T11:25:36Z</time>
      </trkpt>
      <trkpt lat="44.26001" lon="7.0738">
        <ele>1702.8356933594</ele>
        <time>2012-08-26T11:25:41Z</time>
      </trkpt>
      <trkpt lat="44.25994" lon="7.07369">
        <ele>1703.4672851562</ele>
        <time>2012-08-26T11:25:46Z</time>
      </trkpt>
      <trkpt lat="44.25991" lon="7.07359">
        <ele>1703.8151855469</ele>
        <time>2012-08-26T11:25:49Z</time>
      </trkpt>
      <trkpt lat="44.25985" lon="7.07338">
        <ele>1705.0443115234</ele>
        <time>2012-08-26T11:25:54Z</time>
      </trkpt>
      <trkpt lat="44.25987" lon="7.07328">
        <ele>1704.1606445312</ele>
        <time>2012-08-26T11:25:59Z</time>
      </trkpt>
      <trkpt lat="44.25985" lon="7.07321">
        <ele>1704.7950439453</ele>
        <time>2012-08-26T11:26:19Z</time>
      </trkpt>
      <trkpt lat="44.25988" lon="7.07311">
        <ele>1703.5543212891</ele>
        <time>2012-08-26T11:26:22Z</time>
      </trkpt>
      <trkpt lat="44.25989" lon="7.07308">
        <ele>1703.1016845703</ele>
        <time>2012-08-26T11:26:24Z</time>
      </trkpt>
      <trkpt lat="44.25993" lon="7.07304">
        <ele>1701.3815917969</ele>
        <time>2012-08-26T11:26:30Z</time>
      </trkpt>
      <trkpt lat="44.25987" lon="7.07288">
        <ele>1703.3079833984</ele>
        <time>2012-08-26T11:26:34Z</time>
      </trkpt>
      <trkpt lat="44.25988" lon="7.07283">
        <ele>1702.9643554688</ele>
        <time>2012-08-26T11:26:38Z</time>
      </trkpt>
      <trkpt lat="44.25995" lon="7.07276">
        <ele>1700.4990234375</ele>
        <time>2012-08-26T11:26:41Z</time>
      </trkpt>
      <trkpt lat="44.26005" lon="7.07273">
        <ele>1697.0906982422</ele>
        <time>2012-08-26T11:26:47Z</time>
      </trkpt>
      <trkpt lat="44.26007" lon="7.07275">
        <ele>1696.6666259766</ele>
        <time>2012-08-26T11:26:51Z</time>
      </trkpt>
      <trkpt lat="44.26009" lon="7.07272">
        <ele>1695.5992431641</ele>
        <time>2012-08-26T11:26:55Z</time>
      </trkpt>
      <trkpt lat="44.26007" lon="7.07263">
        <ele>1695.9206542969</ele>
        <time>2012-08-26T11:26:58Z</time>
      </trkpt>
      <trkpt lat="44.26009" lon="7.0725">
        <ele>1694.2890625</ele>
        <time>2012-08-26T11:27:03Z</time>
      </trkpt>
      <trkpt lat="44.26013" lon="7.07238">
        <ele>1692.3310546875</ele>
        <time>2012-08-26T11:27:07Z</time>
      </trkpt>
      <trkpt lat="44.26012" lon="7.07235">
        <ele>1692.5238037109</ele>
        <time>2012-08-26T11:27:08Z</time>
      </trkpt>
      <trkpt lat="44.26031" lon="7.07217">
        <ele>1683.5744628906</ele>
        <time>2012-08-26T11:28:49Z</time>
      </trkpt>
      <trkpt lat="44.26028" lon="7.07215">
        <ele>1684.8374023438</ele>
        <time>2012-08-26T11:28:54Z</time>
      </trkpt>
      <trkpt lat="44.26034" lon="7.07203">
        <ele>1684.00390625</ele>
        <time>2012-08-26T11:29:00Z</time>
      </trkpt>
      <trkpt lat="44.26034" lon="7.07198">
        <ele>1684.3890380859</ele>
        <time>2012-08-26T11:29:04Z</time>
      </trkpt>
      <trkpt lat="44.26034" lon="7.07189">
        <ele>1685.6257324219</ele>
        <time>2012-08-26T11:29:09Z</time>
      </trkpt>
      <trkpt lat="44.26037" lon="7.0718">
        <ele>1685.7653808594</ele>
        <time>2012-08-26T11:29:12Z</time>
      </trkpt>
      <trkpt lat="44.26037" lon="7.07165">
        <ele>1687.7508544922</ele>
        <time>2012-08-26T11:29:17Z</time>
      </trkpt>
      <trkpt lat="44.26038" lon="7.07154">
        <ele>1689.0841064453</ele>
        <time>2012-08-26T11:29:21Z</time>
      </trkpt>
      <trkpt lat="44.26045" lon="7.07135">
        <ele>1687.2845458984</ele>
        <time>2012-08-26T11:29:26Z</time>
      </trkpt>
      <trkpt lat="44.26051" lon="7.07123">
        <ele>1687.1019287109</ele>
        <time>2012-08-26T11:29:30Z</time>
      </trkpt>
      <trkpt lat="44.26053" lon="7.07121">
        <ele>1686.76171875</ele>
        <time>2012-08-26T11:29:31Z</time>
      </trkpt>
      <trkpt lat="44.26065" lon="7.07111">
        <ele>1684.0092773438</ele>
        <time>2012-08-26T11:29:36Z</time>
      </trkpt>
      <trkpt lat="44.26077" lon="7.07098">
        <ele>1680.3898925781</ele>
        <time>2012-08-26T11:29:41Z</time>
      </trkpt>
      <trkpt lat="44.26096" lon="7.07081">
        <ele>1673.3297119141</ele>
        <time>2012-08-26T11:29:47Z</time>
      </trkpt>
      <trkpt lat="44.26107" lon="7.07075">
        <ele>1670.2465820312</ele>
        <time>2012-08-26T11:29:52Z</time>
      </trkpt>
      <trkpt lat="44.2612" lon="7.07056">
        <ele>1667.2879638672</ele>
        <time>2012-08-26T11:29:57Z</time>
      </trkpt>
      <trkpt lat="44.26133" lon="7.07037">
        <ele>1662.7375488281</ele>
        <time>2012-08-26T11:30:01Z</time>
      </trkpt>
      <trkpt lat="44.26138" lon="7.07026">
        <ele>1661.1018066406</ele>
        <time>2012-08-26T11:30:03Z</time>
      </trkpt>
      <trkpt lat="44.2615" lon="7.07003">
        <ele>1658.7111816406</ele>
        <time>2012-08-26T11:30:07Z</time>
      </trkpt>
      <trkpt lat="44.26152" lon="7.06994">
        <ele>1659.5571289062</ele>
        <time>2012-08-26T11:30:09Z</time>
      </trkpt>
      <trkpt lat="44.26165" lon="7.06972">
        <ele>1657.5111083984</ele>
        <time>2012-08-26T11:30:14Z</time>
      </trkpt>
      <trkpt lat="44.26178" lon="7.06953">
        <ele>1654.68359375</ele>
        <time>2012-08-26T11:30:18Z</time>
      </trkpt>
      <trkpt lat="44.26188" lon="7.06944">
        <ele>1649.4974365234</ele>
        <time>2012-08-26T11:30:22Z</time>
      </trkpt>
      <trkpt lat="44.26195" lon="7.06928">
        <ele>1649.6658935547</ele>
        <time>2012-08-26T11:30:26Z</time>
      </trkpt>
      <trkpt lat="44.26204" lon="7.0691">
        <ele>1651.1491699219</ele>
        <time>2012-08-26T11:30:31Z</time>
      </trkpt>
      <trkpt lat="44.2621" lon="7.06899">
        <ele>1650.7100830078</ele>
        <time>2012-08-26T11:30:36Z</time>
      </trkpt>
      <trkpt lat="44.26223" lon="7.06882">
        <ele>1648.3728027344</ele>
        <time>2012-08-26T11:30:42Z</time>
      </trkpt>
      <trkpt lat="44.26232" lon="7.06867">
        <ele>1648.9733886719</ele>
        <time>2012-08-26T11:30:47Z</time>
      </trkpt>
      <trkpt lat="44.26233" lon="7.06862">
        <ele>1649.5008544922</ele>
        <time>2012-08-26T11:30:48Z</time>
      </trkpt>
      <trkpt lat="44.26244" lon="7.06848">
        <ele>1646.8117675781</ele>
        <time>2012-08-26T11:30:52Z</time>
      </trkpt>
      <trkpt lat="44.26259" lon="7.06832">
        <ele>1642.3369140625</ele>
        <time>2012-08-26T11:30:56Z</time>
      </trkpt>
      <trkpt lat="44.26276" lon="7.06805">
        <ele>1637.9243164062</ele>
        <time>2012-08-26T11:31:01Z</time>
      </trkpt>
      <trkpt lat="44.26284" lon="7.06789">
        <ele>1634.6958007812</ele>
        <time>2012-08-26T11:31:04Z</time>
      </trkpt>
      <trkpt lat="44.26292" lon="7.06774">
        <ele>1633.0069580078</ele>
        <time>2012-08-26T11:31:07Z</time>
      </trkpt>
      <trkpt lat="44.26304" lon="7.06755">
        <ele>1631.7143554688</ele>
        <time>2012-08-26T11:31:12Z</time>
      </trkpt>
      <trkpt lat="44.26316" lon="7.06732">
        <ele>1631.2674560547</ele>
        <time>2012-08-26T11:31:17Z</time>
      </trkpt>
      <trkpt lat="44.26327" lon="7.06712">
        <ele>1630.5393066406</ele>
        <time>2012-08-26T11:31:21Z</time>
      </trkpt>
      <trkpt lat="44.26338" lon="7.067">
        <ele>1626.1010742188</ele>
        <time>2012-08-26T11:31:24Z</time>
      </trkpt>
      <trkpt lat="44.26357" lon="7.06677">
        <ele>1616.9931640625</ele>
        <time>2012-08-26T11:31:30Z</time>
      </trkpt>
      <trkpt lat="44.26362" lon="7.06667">
        <ele>1617.1176757812</ele>
        <time>2012-08-26T11:31:32Z</time>
      </trkpt>
      <trkpt lat="44.26369" lon="7.06653">
        <ele>1617.1629638672</ele>
        <time>2012-08-26T11:31:35Z</time>
      </trkpt>
      <trkpt lat="44.26382" lon="7.06632">
        <ele>1615.9554443359</ele>
        <time>2012-08-26T11:31:41Z</time>
      </trkpt>
      <trkpt lat="44.26386" lon="7.06615">
        <ele>1620.4216308594</ele>
        <time>2012-08-26T11:31:45Z</time>
      </trkpt>
      <trkpt lat="44.26393" lon="7.06606">
        <ele>1616.8969726562</ele>
        <time>2012-08-26T11:31:48Z</time>
      </trkpt>
      <trkpt lat="44.26404" lon="7.06592">
        <ele>1608.4636230469</ele>
        <time>2012-08-26T11:31:52Z</time>
      </trkpt>
      <trkpt lat="44.26408" lon="7.06586">
        <ele>1606.0302734375</ele>
        <time>2012-08-26T11:31:53Z</time>
      </trkpt>
      <trkpt lat="44.26431" lon="7.06557">
        <ele>1601.6433105469</ele>
        <time>2012-08-26T11:31:59Z</time>
      </trkpt>
      <trkpt lat="44.26435" lon="7.0655">
        <ele>1602.9418945312</ele>
        <time>2012-08-26T11:32:01Z</time>
      </trkpt>
      <trkpt lat="44.26447" lon="7.06535">
        <ele>1603.4891357422</ele>
        <time>2012-08-26T11:32:08Z</time>
      </trkpt>
      <trkpt lat="44.26451" lon="7.06528">
        <ele>1604.4844970703</ele>
        <time>2012-08-26T11:32:10Z</time>
      </trkpt>
      <trkpt lat="44.26455" lon="7.06517">
        <ele>1607.0830078125</ele>
        <time>2012-08-26T11:32:13Z</time>
      </trkpt>
      <trkpt lat="44.26466" lon="7.06497">
        <ele>1608.7587890625</ele>
        <time>2012-08-26T11:32:18Z</time>
      </trkpt>
      <trkpt lat="44.26479" lon="7.06476">
        <ele>1607.2821044922</ele>
        <time>2012-08-26T11:32:23Z</time>
      </trkpt>
      <trkpt lat="44.26487" lon="7.06465">
        <ele>1604.1893310547</ele>
        <time>2012-08-26T11:32:26Z</time>
      </trkpt>
      <trkpt lat="44.26503" lon="7.06457">
        <ele>1593.7270507812</ele>
        <time>2012-08-26T11:32:30Z</time>
      </trkpt>
      <trkpt lat="44.26521" lon="7.06441">
        <ele>1577.3065185547</ele>
        <time>2012-08-26T11:32:34Z</time>
      </trkpt>
      <trkpt lat="44.26527" lon="7.06431">
        <ele>1573.2541503906</ele>
        <time>2012-08-26T11:32:36Z</time>
      </trkpt>
      <trkpt lat="44.26527" lon="7.06413">
        <ele>1577.3243408203</ele>
        <time>2012-08-26T11:32:41Z</time>
      </trkpt>
      <trkpt lat="44.26526" lon="7.06412">
        <ele>1578.3955078125</ele>
        <time>2012-08-26T11:32:43Z</time>
      </trkpt>
      <trkpt lat="44.26535" lon="7.06394">
        <ele>1573.9692382812</ele>
        <time>2012-08-26T11:32:49Z</time>
      </trkpt>
      <trkpt lat="44.26538" lon="7.06376">
        <ele>1573.6650390625</ele>
        <time>2012-08-26T11:32:53Z</time>
      </trkpt>
      <trkpt lat="44.26538" lon="7.06354">
        <ele>1576.640625</ele>
        <time>2012-08-26T11:32:57Z</time>
      </trkpt>
      <trkpt lat="44.26544" lon="7.06336">
        <ele>1574.5972900391</ele>
        <time>2012-08-26T11:33:01Z</time>
      </trkpt>
      <trkpt lat="44.26548" lon="7.06329">
        <ele>1571.4368896484</ele>
        <time>2012-08-26T11:33:03Z</time>
      </trkpt>
      <trkpt lat="44.26558" lon="7.06316">
        <ele>1564.3151855469</ele>
        <time>2012-08-26T11:33:07Z</time>
      </trkpt>
      <trkpt lat="44.26563" lon="7.06303">
        <ele>1561.6745605469</ele>
        <time>2012-08-26T11:33:12Z</time>
      </trkpt>
      <trkpt lat="44.26564" lon="7.06295">
        <ele>1560.9060058594</ele>
        <time>2012-08-26T11:33:15Z</time>
      </trkpt>
      <trkpt lat="44.26554" lon="7.06291">
        <ele>1569.3513183594</ele>
        <time>2012-08-26T11:33:19Z</time>
      </trkpt>
      <trkpt lat="44.26555" lon="7.0629">
        <ele>1568.28125</ele>
        <time>2012-08-26T11:33:30Z</time>
      </trkpt>
      <trkpt lat="44.26572" lon="7.06271">
        <ele>1554.78125</ele>
        <time>2012-08-26T11:33:35Z</time>
      </trkpt>
      <trkpt lat="44.26584" lon="7.06252">
        <ele>1542.6085205078</ele>
        <time>2012-08-26T11:33:38Z</time>
      </trkpt>
      <trkpt lat="44.26599" lon="7.06232">
        <ele>1529.2806396484</ele>
        <time>2012-08-26T11:33:42Z</time>
      </trkpt>
      <trkpt lat="44.26611" lon="7.06212">
        <ele>1518.53515625</ele>
        <time>2012-08-26T11:33:46Z</time>
      </trkpt>
      <trkpt lat="44.26618" lon="7.06199">
        <ele>1512.8731689453</ele>
        <time>2012-08-26T11:33:49Z</time>
      </trkpt>
      <trkpt lat="44.26618" lon="7.0618">
        <ele>1509.6745605469</ele>
        <time>2012-08-26T11:33:52Z</time>
      </trkpt>
      <trkpt lat="44.26617" lon="7.06149">
        <ele>1504.7474365234</ele>
        <time>2012-08-26T11:33:56Z</time>
      </trkpt>
      <trkpt lat="44.26611" lon="7.06117">
        <ele>1502.1717529297</ele>
        <time>2012-08-26T11:34:02Z</time>
      </trkpt>
      <trkpt lat="44.26606" lon="7.06085">
        <ele>1499.4852294922</ele>
        <time>2012-08-26T11:34:06Z</time>
      </trkpt>
      <trkpt lat="44.26604" lon="7.06079">
        <ele>1498.4866943359</ele>
        <time>2012-08-26T11:34:07Z</time>
      </trkpt>
      <trkpt lat="44.26591" lon="7.06045">
        <ele>1495.8527832031</ele>
        <time>2012-08-26T11:34:13Z</time>
      </trkpt>
      <trkpt lat="44.26585" lon="7.06031">
        <ele>1496.6807861328</ele>
        <time>2012-08-26T11:34:16Z</time>
      </trkpt>
      <trkpt lat="44.26582" lon="7.06019">
        <ele>1495.4418945312</ele>
        <time>2012-08-26T11:34:18Z</time>
      </trkpt>
      <trkpt lat="44.26577" lon="7.06006">
        <ele>1494.4215087891</ele>
        <time>2012-08-26T11:34:20Z</time>
      </trkpt>
      <trkpt lat="44.26576" lon="7.0598">
        <ele>1489.1853027344</ele>
        <time>2012-08-26T11:34:24Z</time>
      </trkpt>
      <trkpt lat="44.26566" lon="7.05942">
        <ele>1484.0045166016</ele>
        <time>2012-08-26T11:34:30Z</time>
      </trkpt>
      <trkpt lat="44.26563" lon="7.05922">
        <ele>1480.365234375</ele>
        <time>2012-08-26T11:34:35Z</time>
      </trkpt>
      <trkpt lat="44.26562" lon="7.05904">
        <ele>1476.9697265625</ele>
        <time>2012-08-26T11:34:39Z</time>
      </trkpt>
      <trkpt lat="44.26556" lon="7.05889">
        <ele>1476.6976318359</ele>
        <time>2012-08-26T11:34:42Z</time>
      </trkpt>
      <trkpt lat="44.26554" lon="7.05862">
        <ele>1470.8516845703</ele>
        <time>2012-08-26T11:34:47Z</time>
      </trkpt>
      <trkpt lat="44.26556" lon="7.05851">
        <ele>1466.2880859375</ele>
        <time>2012-08-26T11:34:49Z</time>
      </trkpt>
      <trkpt lat="44.26552" lon="7.05839">
        <ele>1464.05859375</ele>
        <time>2012-08-26T11:34:51Z</time>
      </trkpt>
      <trkpt lat="44.26549" lon="7.05829">
        <ele>1461.6108398438</ele>
        <time>2012-08-26T11:34:53Z</time>
      </trkpt>
      <trkpt lat="44.26545" lon="7.05821">
        <ele>1460.6525878906</ele>
        <time>2012-08-26T11:34:55Z</time>
      </trkpt>
      <trkpt lat="44.2654" lon="7.05813">
        <ele>1459.3336181641</ele>
        <time>2012-08-26T11:34:57Z</time>
      </trkpt>
      <trkpt lat="44.26526" lon="7.05788">
        <ele>1455.7524414062</ele>
        <time>2012-08-26T11:35:02Z</time>
      </trkpt>
      <trkpt lat="44.26506" lon="7.05756">
        <ele>1451.6047363281</ele>
        <time>2012-08-26T11:35:07Z</time>
      </trkpt>
      <trkpt lat="44.2649" lon="7.05736">
        <ele>1450.1411132812</ele>
        <time>2012-08-26T11:35:10Z</time>
      </trkpt>
      <trkpt lat="44.2648" lon="7.05715">
        <ele>1447.5065917969</ele>
        <time>2012-08-26T11:35:13Z</time>
      </trkpt>
      <trkpt lat="44.2648" lon="7.05707">
        <ele>1445.7557373047</ele>
        <time>2012-08-26T11:35:15Z</time>
      </trkpt>
      <trkpt lat="44.26472" lon="7.05695">
        <ele>1445.130859375</ele>
        <time>2012-08-26T11:35:19Z</time>
      </trkpt>
      <trkpt lat="44.26464" lon="7.05691">
        <ele>1447.2042236328</ele>
        <time>2012-08-26T11:35:25Z</time>
      </trkpt>
      <trkpt lat="44.26461" lon="7.0569">
        <ele>1447.9545898438</ele>
        <time>2012-08-26T11:35:32Z</time>
      </trkpt>
      <trkpt lat="44.26449" lon="7.05676">
        <ele>1449.7001953125</ele>
        <time>2012-08-26T11:35:37Z</time>
      </trkpt>
      <trkpt lat="44.26444" lon="7.05668">
        <ele>1450.2175292969</ele>
        <time>2012-08-26T11:35:39Z</time>
      </trkpt>
      <trkpt lat="44.26441" lon="7.05664">
        <ele>1450.0478515625</ele>
        <time>2012-08-26T11:35:40Z</time>
      </trkpt>
      <trkpt lat="44.26426" lon="7.05642">
        <ele>1448.8891601562</ele>
        <time>2012-08-26T11:35:44Z</time>
      </trkpt>
      <trkpt lat="44.26409" lon="7.0561">
        <ele>1445.2396240234</ele>
        <time>2012-08-26T11:39:01Z</time>
      </trkpt>
      <trkpt lat="44.26427" lon="7.05604">
        <ele>1443.4530029297</ele>
        <time>2012-08-26T11:39:34Z</time>
      </trkpt>
      <trkpt lat="44.26453" lon="7.05599">
        <ele>1440.9764404297</ele>
        <time>2012-08-26T11:40:08Z</time>
      </trkpt>
      <trkpt lat="44.26453" lon="7.05595">
        <ele>1441.3880615234</ele>
        <time>2012-08-26T11:41:18Z</time>
      </trkpt>
      <trkpt lat="44.26483" lon="7.05618">
        <ele>1439</ele>
        <time>2012-08-26T11:44:39Z</time>
      </trkpt>
      <trkpt lat="44.26529" lon="7.05614">
        <ele>1437.6380615234</ele>
        <time>2012-08-26T11:46:26Z</time>
      </trkpt>
      <trkpt lat="44.26539" lon="7.05615">
        <ele>1437.1339111328</ele>
        <time>2012-08-26T11:46:42Z</time>
      </trkpt>
      <trkpt lat="44.26556" lon="7.05617">
        <ele>1436.1688232422</ele>
        <time>2012-08-26T11:46:49Z</time>
      </trkpt>
      <trkpt lat="44.26565" lon="7.05619">
        <ele>1435.3935546875</ele>
        <time>2012-08-26T11:46:55Z</time>
      </trkpt>
      <trkpt lat="44.26566" lon="7.05619">
        <ele>1435.3138427734</ele>
        <time>2012-08-26T11:46:59Z</time>
      </trkpt>
      <trkpt lat="44.26568" lon="7.05621">
        <ele>1434.7271728516</ele>
        <time>2012-08-26T11:47:23Z</time>
      </trkpt>
      <trkpt lat="44.26594" lon="7.05622">
        <ele>1434.2138671875</ele>
        <time>2012-08-26T11:51:33Z</time>
      </trkpt>
      <trkpt lat="44.26587" lon="7.05621">
        <ele>1434.1330566406</ele>
        <time>2012-08-26T11:51:47Z</time>
      </trkpt>
      <trkpt lat="44.2658" lon="7.05619">
        <ele>1434.404296875</ele>
        <time>2012-08-26T11:52:19Z</time>
      </trkpt>
      <trkpt lat="44.26348" lon="7.05595">
        <ele>1454.3840332031</ele>
        <time>2012-08-26T12:04:56Z</time>
      </trkpt>
      <trkpt lat="44.26358" lon="7.05599">
        <ele>1452.9404296875</ele>
        <time>2012-08-26T12:06:52Z</time>
      </trkpt>
      <trkpt lat="44.26365" lon="7.05584">
        <ele>1452.6224365234</ele>
        <time>2012-08-26T12:09:27Z</time>
      </trkpt>
      <trkpt lat="44.26361" lon="7.05573">
        <ele>1453.3640136719</ele>
        <time>2012-08-26T12:09:34Z</time>
      </trkpt>
      <trkpt lat="44.2636" lon="7.05564">
        <ele>1453.7741699219</ele>
        <time>2012-08-26T12:09:40Z</time>
      </trkpt>
      <trkpt lat="44.26363" lon="7.05558">
        <ele>1453.7969970703</ele>
        <time>2012-08-26T12:09:45Z</time>
      </trkpt>
      <trkpt lat="44.26359" lon="7.05552">
        <ele>1454.4918212891</ele>
        <time>2012-08-26T12:09:56Z</time>
      </trkpt>
      <trkpt lat="44.26353" lon="7.05562">
        <ele>1454.7447509766</ele>
        <time>2012-08-26T12:10:01Z</time>
      </trkpt>
      <trkpt lat="44.26356" lon="7.05571">
        <ele>1454.0969238281</ele>
        <time>2012-08-26T12:10:03Z</time>
      </trkpt>
      <trkpt lat="44.26369" lon="7.05592">
        <ele>1451.7266845703</ele>
        <time>2012-08-26T12:10:09Z</time>
      </trkpt>
      <trkpt lat="44.26379" lon="7.05593">
        <ele>1450.4709472656</ele>
        <time>2012-08-26T12:10:14Z</time>
      </trkpt>
      <trkpt lat="44.26393" lon="7.05585">
        <ele>1449.4276123047</ele>
        <time>2012-08-26T12:10:18Z</time>
      </trkpt>
      <trkpt lat="44.26416" lon="7.05575">
        <ele>1447.9760742188</ele>
        <time>2012-08-26T12:10:24Z</time>
      </trkpt>
      <trkpt lat="44.26433" lon="7.05571">
        <ele>1446.8576660156</ele>
        <time>2012-08-26T12:10:30Z</time>
      </trkpt>
      <trkpt lat="44.26451" lon="7.05567">
        <ele>1445.4166259766</ele>
        <time>2012-08-26T12:10:36Z</time>
      </trkpt>
      <trkpt lat="44.26475" lon="7.05562">
        <ele>1443.8022460938</ele>
        <time>2012-08-26T12:10:45Z</time>
      </trkpt>
      <trkpt lat="44.26485" lon="7.05559">
        <ele>1444.4459228516</ele>
        <time>2012-08-26T12:10:49Z</time>
      </trkpt>
      <trkpt lat="44.26503" lon="7.05553">
        <ele>1445.6177978516</ele>
        <time>2012-08-26T12:10:55Z</time>
      </trkpt>
      <trkpt lat="44.26522" lon="7.05549">
        <ele>1446.3363037109</ele>
        <time>2012-08-26T12:11:01Z</time>
      </trkpt>
      <trkpt lat="44.26546" lon="7.0555">
        <ele>1449.4262695312</ele>
        <time>2012-08-26T12:11:08Z</time>
      </trkpt>
      <trkpt lat="44.26567" lon="7.05556">
        <ele>1450.6931152344</ele>
        <time>2012-08-26T12:11:12Z</time>
      </trkpt>
      <trkpt lat="44.26582" lon="7.05551">
        <ele>1455.5338134766</ele>
        <time>2012-08-26T12:11:16Z</time>
      </trkpt>
      <trkpt lat="44.26585" lon="7.05546">
        <ele>1457.7965087891</ele>
        <time>2012-08-26T12:11:18Z</time>
      </trkpt>
      <trkpt lat="44.26586" lon="7.0554">
        <ele>1459.9055175781</ele>
        <time>2012-08-26T12:11:20Z</time>
      </trkpt>
      <trkpt lat="44.26587" lon="7.05532">
        <ele>1462.9879150391</ele>
        <time>2012-08-26T12:11:23Z</time>
      </trkpt>
      <trkpt lat="44.26588" lon="7.05526">
        <ele>1464.9810791016</ele>
        <time>2012-08-26T12:11:25Z</time>
      </trkpt>
      <trkpt lat="44.26587" lon="7.05524">
        <ele>1465.7447509766</ele>
        <time>2012-08-26T12:11:26Z</time>
      </trkpt>
      <trkpt lat="44.26586" lon="7.05518">
        <ele>1467.3962402344</ele>
        <time>2012-08-26T12:11:28Z</time>
      </trkpt>
      <trkpt lat="44.26586" lon="7.05516">
        <ele>1468.2083740234</ele>
        <time>2012-08-26T12:11:29Z</time>
      </trkpt>
      <trkpt lat="44.26584" lon="7.05501">
        <ele>1472.9350585938</ele>
        <time>2012-08-26T12:11:36Z</time>
      </trkpt>
      <trkpt lat="44.26584" lon="7.05499">
        <ele>1473.4196777344</ele>
        <time>2012-08-26T12:11:37Z</time>
      </trkpt>
      <trkpt lat="44.26579" lon="7.05481">
        <ele>1477.3513183594</ele>
        <time>2012-08-26T12:11:46Z</time>
      </trkpt>
      <trkpt lat="44.26575" lon="7.05475">
        <ele>1478.3916015625</ele>
        <time>2012-08-26T12:11:49Z</time>
      </trkpt>
      <trkpt lat="44.26568" lon="7.05464">
        <ele>1481.408203125</ele>
        <time>2012-08-26T12:11:56Z</time>
      </trkpt>
      <trkpt lat="44.26559" lon="7.05455">
        <ele>1483.0096435547</ele>
        <time>2012-08-26T12:12:02Z</time>
      </trkpt>
      <trkpt lat="44.26546" lon="7.05447">
        <ele>1483.9078369141</ele>
        <time>2012-08-26T12:12:09Z</time>
      </trkpt>
      <trkpt lat="44.26537" lon="7.05441">
        <ele>1484.3504638672</ele>
        <time>2012-08-26T12:12:16Z</time>
      </trkpt>
      <trkpt lat="44.26526" lon="7.05436">
        <ele>1484.1882324219</ele>
        <time>2012-08-26T12:12:24Z</time>
      </trkpt>
      <trkpt lat="44.2652" lon="7.05433">
        <ele>1484.3666992188</ele>
        <time>2012-08-26T12:12:31Z</time>
      </trkpt>
      <trkpt lat="44.26513" lon="7.05431">
        <ele>1484.2294921875</ele>
        <time>2012-08-26T12:12:37Z</time>
      </trkpt>
      <trkpt lat="44.26502" lon="7.05428">
        <ele>1483.9135742188</ele>
        <time>2012-08-26T12:12:45Z</time>
      </trkpt>
      <trkpt lat="44.26491" lon="7.05427">
        <ele>1482.5222167969</ele>
        <time>2012-08-26T12:12:52Z</time>
      </trkpt>
      <trkpt lat="44.26481" lon="7.05424">
        <ele>1481.5471191406</ele>
        <time>2012-08-26T12:12:59Z</time>
      </trkpt>
      <trkpt lat="44.26472" lon="7.05421">
        <ele>1480.8466796875</ele>
        <time>2012-08-26T12:13:06Z</time>
      </trkpt>
      <trkpt lat="44.26464" lon="7.05417">
        <ele>1480.2642822266</ele>
        <time>2012-08-26T12:13:13Z</time>
      </trkpt>
      <trkpt lat="44.26448" lon="7.05414">
        <ele>1478.5533447266</ele>
        <time>2012-08-26T12:13:23Z</time>
      </trkpt>
      <trkpt lat="44.2644" lon="7.0541">
        <ele>1478.0311279297</ele>
        <time>2012-08-26T12:13:29Z</time>
      </trkpt>
      <trkpt lat="44.26429" lon="7.05405">
        <ele>1477.3549804688</ele>
        <time>2012-08-26T12:13:36Z</time>
      </trkpt>
      <trkpt lat="44.26421" lon="7.05401">
        <ele>1476.7121582031</ele>
        <time>2012-08-26T12:13:42Z</time>
      </trkpt>
      <trkpt lat="44.26413" lon="7.05396">
        <ele>1476.6354980469</ele>
        <time>2012-08-26T12:13:49Z</time>
      </trkpt>
      <trkpt lat="44.26401" lon="7.0539">
        <ele>1476.5574951172</ele>
        <time>2012-08-26T12:13:56Z</time>
      </trkpt>
      <trkpt lat="44.2639" lon="7.05382">
        <ele>1477.9206542969</ele>
        <time>2012-08-26T12:14:03Z</time>
      </trkpt>
      <trkpt lat="44.2639" lon="7.05382">
        <ele>1477.974609375</ele>
        <time>2012-08-26T12:14:04Z</time>
      </trkpt>
      <trkpt lat="44.26382" lon="7.0538">
        <ele>1476.8602294922</ele>
        <time>2012-08-26T12:14:12Z</time>
      </trkpt>
      <trkpt lat="44.26381" lon="7.05379">
        <ele>1476.7598876953</ele>
        <time>2012-08-26T12:14:13Z</time>
      </trkpt>
      <trkpt lat="44.26367" lon="7.05377">
        <ele>1474.2983398438</ele>
        <time>2012-08-26T12:14:22Z</time>
      </trkpt>
      <trkpt lat="44.26366" lon="7.05377">
        <ele>1474.4827880859</ele>
        <time>2012-08-26T12:14:23Z</time>
      </trkpt>
      <trkpt lat="44.26365" lon="7.05369">
        <ele>1477.384765625</ele>
        <time>2012-08-26T12:14:28Z</time>
      </trkpt>
      <trkpt lat="44.26368" lon="7.05364">
        <ele>1480.2225341797</ele>
        <time>2012-08-26T12:14:32Z</time>
      </trkpt>
      <trkpt lat="44.26378" lon="7.05361">
        <ele>1483.5148925781</ele>
        <time>2012-08-26T12:14:40Z</time>
      </trkpt>
      <trkpt lat="44.26382" lon="7.0536">
        <ele>1484.9672851562</ele>
        <time>2012-08-26T12:14:44Z</time>
      </trkpt>
      <trkpt lat="44.2639" lon="7.05354">
        <ele>1488.3797607422</ele>
        <time>2012-08-26T12:14:50Z</time>
      </trkpt>
      <trkpt lat="44.26403" lon="7.05346">
        <ele>1491.4886474609</ele>
        <time>2012-08-26T12:14:58Z</time>
      </trkpt>
      <trkpt lat="44.26414" lon="7.05339">
        <ele>1494.3006591797</ele>
        <time>2012-08-26T12:15:05Z</time>
      </trkpt>
      <trkpt lat="44.26426" lon="7.05338">
        <ele>1496.6573486328</ele>
        <time>2012-08-26T12:15:11Z</time>
      </trkpt>
      <trkpt lat="44.26443" lon="7.05339">
        <ele>1500.0631103516</ele>
        <time>2012-08-26T12:15:19Z</time>
      </trkpt>
      <trkpt lat="44.2645" lon="7.05342">
        <ele>1500.9018554688</ele>
        <time>2012-08-26T12:15:23Z</time>
      </trkpt>
      <trkpt lat="44.26456" lon="7.05343">
        <ele>1501.9975585938</ele>
        <time>2012-08-26T12:15:27Z</time>
      </trkpt>
      <trkpt lat="44.2646" lon="7.05336">
        <ele>1505.0177001953</ele>
        <time>2012-08-26T12:15:32Z</time>
      </trkpt>
      <trkpt lat="44.2646" lon="7.05334">
        <ele>1505.8121337891</ele>
        <time>2012-08-26T12:15:34Z</time>
      </trkpt>
      <trkpt lat="44.2646" lon="7.0533">
        <ele>1506.7255859375</ele>
        <time>2012-08-26T12:15:38Z</time>
      </trkpt>
      <trkpt lat="44.26455" lon="7.05328">
        <ele>1506.3645019531</ele>
        <time>2012-08-26T12:15:42Z</time>
      </trkpt>
      <trkpt lat="44.26449" lon="7.05327">
        <ele>1505.3681640625</ele>
        <time>2012-08-26T12:15:46Z</time>
      </trkpt>
      <trkpt lat="44.26437" lon="7.05322">
        <ele>1504.1470947266</ele>
        <time>2012-08-26T12:15:55Z</time>
      </trkpt>
      <trkpt lat="44.26427" lon="7.0532">
        <ele>1502.6228027344</ele>
        <time>2012-08-26T12:16:01Z</time>
      </trkpt>
      <trkpt lat="44.26416" lon="7.05318">
        <ele>1500.8822021484</ele>
        <time>2012-08-26T12:16:08Z</time>
      </trkpt>
      <trkpt lat="44.26399" lon="7.05316">
        <ele>1501.2576904297</ele>
        <time>2012-08-26T12:16:17Z</time>
      </trkpt>
      <trkpt lat="44.26382" lon="7.05316">
        <ele>1499.7779541016</ele>
        <time>2012-08-26T12:16:26Z</time>
      </trkpt>
      <trkpt lat="44.26363" lon="7.05316">
        <ele>1495.8970947266</ele>
        <time>2012-08-26T12:16:37Z</time>
      </trkpt>
      <trkpt lat="44.26354" lon="7.05314">
        <ele>1495.0814208984</ele>
        <time>2012-08-26T12:16:43Z</time>
      </trkpt>
      <trkpt lat="44.26343" lon="7.05306">
        <ele>1495.7620849609</ele>
        <time>2012-08-26T12:16:52Z</time>
      </trkpt>
      <trkpt lat="44.26342" lon="7.05304">
        <ele>1496.0209960938</ele>
        <time>2012-08-26T12:16:53Z</time>
      </trkpt>
      <trkpt lat="44.26331" lon="7.05298">
        <ele>1496.3770751953</ele>
        <time>2012-08-26T12:17:01Z</time>
      </trkpt>
      <trkpt lat="44.26327" lon="7.05292">
        <ele>1497.7957763672</ele>
        <time>2012-08-26T12:17:06Z</time>
      </trkpt>
      <trkpt lat="44.26318" lon="7.05286">
        <ele>1498.9058837891</ele>
        <time>2012-08-26T12:17:14Z</time>
      </trkpt>
      <trkpt lat="44.26302" lon="7.05279">
        <ele>1499.6329345703</ele>
        <time>2012-08-26T12:17:25Z</time>
      </trkpt>
      <trkpt lat="44.26291" lon="7.05271">
        <ele>1502.9556884766</ele>
        <time>2012-08-26T12:17:33Z</time>
      </trkpt>
      <trkpt lat="44.26287" lon="7.05266">
        <ele>1505.4046630859</ele>
        <time>2012-08-26T12:17:37Z</time>
      </trkpt>
      <trkpt lat="44.26289" lon="7.05258">
        <ele>1509.203125</ele>
        <time>2012-08-26T12:17:42Z</time>
      </trkpt>
      <trkpt lat="44.26301" lon="7.05257">
        <ele>1510.8142089844</ele>
        <time>2012-08-26T12:17:50Z</time>
      </trkpt>
      <trkpt lat="44.26307" lon="7.0526">
        <ele>1509.9771728516</ele>
        <time>2012-08-26T12:17:55Z</time>
      </trkpt>
      <trkpt lat="44.26318" lon="7.05262">
        <ele>1510.6462402344</ele>
        <time>2012-08-26T12:18:01Z</time>
      </trkpt>
      <trkpt lat="44.2632" lon="7.05262">
        <ele>1510.8225097656</ele>
        <time>2012-08-26T12:18:02Z</time>
      </trkpt>
      <trkpt lat="44.26328" lon="7.05262">
        <ele>1511.7358398438</ele>
        <time>2012-08-26T12:18:07Z</time>
      </trkpt>
      <trkpt lat="44.26333" lon="7.05254">
        <ele>1517.4879150391</ele>
        <time>2012-08-26T12:18:12Z</time>
      </trkpt>
      <trkpt lat="44.26329" lon="7.05244">
        <ele>1521.4320068359</ele>
        <time>2012-08-26T12:18:19Z</time>
      </trkpt>
      <trkpt lat="44.26317" lon="7.05236">
        <ele>1522.5924072266</ele>
        <time>2012-08-26T12:18:28Z</time>
      </trkpt>
      <trkpt lat="44.26306" lon="7.05228">
        <ele>1523.595703125</ele>
        <time>2012-08-26T12:18:36Z</time>
      </trkpt>
      <trkpt lat="44.26296" lon="7.05221">
        <ele>1524.177734375</ele>
        <time>2012-08-26T12:18:43Z</time>
      </trkpt>
      <trkpt lat="44.26292" lon="7.05221">
        <ele>1523.5632324219</ele>
        <time>2012-08-26T12:18:46Z</time>
      </trkpt>
      <trkpt lat="44.26285" lon="7.05217">
        <ele>1523.5219726562</ele>
        <time>2012-08-26T12:18:51Z</time>
      </trkpt>
      <trkpt lat="44.26273" lon="7.05208">
        <ele>1524.3061523438</ele>
        <time>2012-08-26T12:19:00Z</time>
      </trkpt>
      <trkpt lat="44.26258" lon="7.05201">
        <ele>1525.1293945312</ele>
        <time>2012-08-26T12:19:10Z</time>
      </trkpt>
      <trkpt lat="44.26249" lon="7.05195">
        <ele>1525.6590576172</ele>
        <time>2012-08-26T12:19:17Z</time>
      </trkpt>
      <trkpt lat="44.26242" lon="7.05189">
        <ele>1526.6605224609</ele>
        <time>2012-08-26T12:19:23Z</time>
      </trkpt>
      <trkpt lat="44.26231" lon="7.05178">
        <ele>1528.9229736328</ele>
        <time>2012-08-26T12:19:31Z</time>
      </trkpt>
      <trkpt lat="44.26228" lon="7.05173">
        <ele>1530.4368896484</ele>
        <time>2012-08-26T12:19:34Z</time>
      </trkpt>
      <trkpt lat="44.26216" lon="7.05162">
        <ele>1533.2020263672</ele>
        <time>2012-08-26T12:19:42Z</time>
      </trkpt>
      <trkpt lat="44.26208" lon="7.0515">
        <ele>1536.775390625</ele>
        <time>2012-08-26T12:19:49Z</time>
      </trkpt>
      <trkpt lat="44.26204" lon="7.05139">
        <ele>1540.7197265625</ele>
        <time>2012-08-26T12:19:56Z</time>
      </trkpt>
      <trkpt lat="44.26201" lon="7.05135">
        <ele>1541.3337402344</ele>
        <time>2012-08-26T12:19:59Z</time>
      </trkpt>
      <trkpt lat="44.26198" lon="7.05127">
        <ele>1543.0548095703</ele>
        <time>2012-08-26T12:20:04Z</time>
      </trkpt>
      <trkpt lat="44.26197" lon="7.05125">
        <ele>1543.3280029297</ele>
        <time>2012-08-26T12:20:05Z</time>
      </trkpt>
      <trkpt lat="44.26188" lon="7.05107">
        <ele>1545.6787109375</ele>
        <time>2012-08-26T12:20:16Z</time>
      </trkpt>
      <trkpt lat="44.26184" lon="7.05094">
        <ele>1547.8262939453</ele>
        <time>2012-08-26T12:20:23Z</time>
      </trkpt>
      <trkpt lat="44.26178" lon="7.05082">
        <ele>1549.6655273438</ele>
        <time>2012-08-26T12:20:30Z</time>
      </trkpt>
      <trkpt lat="44.26169" lon="7.05081">
        <ele>1547.5296630859</ele>
        <time>2012-08-26T12:20:36Z</time>
      </trkpt>
      <trkpt lat="44.26157" lon="7.05088">
        <ele>1542.8529052734</ele>
        <time>2012-08-26T12:20:43Z</time>
      </trkpt>
      <trkpt lat="44.26146" lon="7.05086">
        <ele>1542.1149902344</ele>
        <time>2012-08-26T12:20:49Z</time>
      </trkpt>
      <trkpt lat="44.26133" lon="7.05074">
        <ele>1543.8087158203</ele>
        <time>2012-08-26T12:20:58Z</time>
      </trkpt>
      <trkpt lat="44.26119" lon="7.05063">
        <ele>1544.3391113281</ele>
        <time>2012-08-26T12:21:06Z</time>
      </trkpt>
      <trkpt lat="44.2611" lon="7.05059">
        <ele>1543.7108154297</ele>
        <time>2012-08-26T12:21:11Z</time>
      </trkpt>
      <trkpt lat="44.26109" lon="7.05059">
        <ele>1543.5357666016</ele>
        <time>2012-08-26T12:21:12Z</time>
      </trkpt>
      <trkpt lat="44.26098" lon="7.05059">
        <ele>1541.1668701172</ele>
        <time>2012-08-26T12:21:19Z</time>
      </trkpt>
      <trkpt lat="44.26088" lon="7.05057">
        <ele>1539.5704345703</ele>
        <time>2012-08-26T12:21:26Z</time>
      </trkpt>
      <trkpt lat="44.26083" lon="7.05049">
        <ele>1541.2520751953</ele>
        <time>2012-08-26T12:21:32Z</time>
      </trkpt>
      <trkpt lat="44.26082" lon="7.05046">
        <ele>1542.1475830078</ele>
        <time>2012-08-26T12:21:34Z</time>
      </trkpt>
      <trkpt lat="44.26086" lon="7.05039">
        <ele>1545.6535644531</ele>
        <time>2012-08-26T12:21:39Z</time>
      </trkpt>
      <trkpt lat="44.26096" lon="7.05033">
        <ele>1549.8077392578</ele>
        <time>2012-08-26T12:21:46Z</time>
      </trkpt>
      <trkpt lat="44.26108" lon="7.05028">
        <ele>1554.0272216797</ele>
        <time>2012-08-26T12:21:54Z</time>
      </trkpt>
      <trkpt lat="44.26124" lon="7.0502">
        <ele>1560.3697509766</ele>
        <time>2012-08-26T12:22:05Z</time>
      </trkpt>
      <trkpt lat="44.26137" lon="7.05021">
        <ele>1562.8851318359</ele>
        <time>2012-08-26T12:22:14Z</time>
      </trkpt>
      <trkpt lat="44.26149" lon="7.05019">
        <ele>1564.9802246094</ele>
        <time>2012-08-26T12:22:22Z</time>
      </trkpt>
      <trkpt lat="44.26152" lon="7.05019">
        <ele>1565.4985351562</ele>
        <time>2012-08-26T12:22:24Z</time>
      </trkpt>
      <trkpt lat="44.26162" lon="7.05009">
        <ele>1568.9569091797</ele>
        <time>2012-08-26T12:22:33Z</time>
      </trkpt>
      <trkpt lat="44.26168" lon="7.05005">
        <ele>1571.3026123047</ele>
        <time>2012-08-26T12:22:39Z</time>
      </trkpt>
      <trkpt lat="44.26177" lon="7.05005">
        <ele>1573.3559570312</ele>
        <time>2012-08-26T12:22:45Z</time>
      </trkpt>
      <trkpt lat="44.26188" lon="7.05">
        <ele>1577.3350830078</ele>
        <time>2012-08-26T12:22:52Z</time>
      </trkpt>
      <trkpt lat="44.26199" lon="7.04997">
        <ele>1580.2938232422</ele>
        <time>2012-08-26T12:22:59Z</time>
      </trkpt>
      <trkpt lat="44.26208" lon="7.04999">
        <ele>1581.1658935547</ele>
        <time>2012-08-26T12:23:06Z</time>
      </trkpt>
      <trkpt lat="44.26219" lon="7.05">
        <ele>1582.4467773438</ele>
        <time>2012-08-26T12:23:13Z</time>
      </trkpt>
      <trkpt lat="44.26228" lon="7.05004">
        <ele>1582.5393066406</ele>
        <time>2012-08-26T12:23:19Z</time>
      </trkpt>
      <trkpt lat="44.2623" lon="7.05007">
        <ele>1582.1788330078</ele>
        <time>2012-08-26T12:23:22Z</time>
      </trkpt>
      <trkpt lat="44.26235" lon="7.0501">
        <ele>1581.7238769531</ele>
        <time>2012-08-26T12:23:27Z</time>
      </trkpt>
      <trkpt lat="44.26236" lon="7.05013">
        <ele>1581.2518310547</ele>
        <time>2012-08-26T12:23:29Z</time>
      </trkpt>
      <trkpt lat="44.26244" lon="7.05019">
        <ele>1580.6630859375</ele>
        <time>2012-08-26T12:23:36Z</time>
      </trkpt>
      <trkpt lat="44.26256" lon="7.0503">
        <ele>1578.5167236328</ele>
        <time>2012-08-26T12:23:45Z</time>
      </trkpt>
      <trkpt lat="44.2626" lon="7.05033">
        <ele>1577.65625</ele>
        <time>2012-08-26T12:23:49Z</time>
      </trkpt>
      <trkpt lat="44.26268" lon="7.05038">
        <ele>1576.6251220703</ele>
        <time>2012-08-26T12:23:55Z</time>
      </trkpt>
      <trkpt lat="44.26273" lon="7.05033">
        <ele>1578.3975830078</ele>
        <time>2012-08-26T12:24:00Z</time>
      </trkpt>
      <trkpt lat="44.26272" lon="7.05025">
        <ele>1580.4556884766</ele>
        <time>2012-08-26T12:24:04Z</time>
      </trkpt>
      <trkpt lat="44.26264" lon="7.05015">
        <ele>1582.9351806641</ele>
        <time>2012-08-26T12:24:12Z</time>
      </trkpt>
      <trkpt lat="44.26256" lon="7.05004">
        <ele>1585.484375</ele>
        <time>2012-08-26T12:24:20Z</time>
      </trkpt>
      <trkpt lat="44.26248" lon="7.04993">
        <ele>1587.3770751953</ele>
        <time>2012-08-26T12:24:27Z</time>
      </trkpt>
      <trkpt lat="44.26241" lon="7.04983">
        <ele>1588.521484375</ele>
        <time>2012-08-26T12:24:34Z</time>
      </trkpt>
      <trkpt lat="44.26235" lon="7.04974">
        <ele>1589.3836669922</ele>
        <time>2012-08-26T12:24:40Z</time>
      </trkpt>
      <trkpt lat="44.26226" lon="7.04969">
        <ele>1589.0814208984</ele>
        <time>2012-08-26T12:24:46Z</time>
      </trkpt>
      <trkpt lat="44.26213" lon="7.04958">
        <ele>1589.1859130859</ele>
        <time>2012-08-26T12:24:56Z</time>
      </trkpt>
      <trkpt lat="44.26202" lon="7.04945">
        <ele>1589.9617919922</ele>
        <time>2012-08-26T12:25:06Z</time>
      </trkpt>
      <trkpt lat="44.26192" lon="7.04933">
        <ele>1591.1499023438</ele>
        <time>2012-08-26T12:25:14Z</time>
      </trkpt>
      <trkpt lat="44.2618" lon="7.04919">
        <ele>1592.8204345703</ele>
        <time>2012-08-26T12:25:24Z</time>
      </trkpt>
      <trkpt lat="44.2617" lon="7.04912">
        <ele>1593.2951660156</ele>
        <time>2012-08-26T12:25:31Z</time>
      </trkpt>
      <trkpt lat="44.26162" lon="7.0491">
        <ele>1593.0668945312</ele>
        <time>2012-08-26T12:25:36Z</time>
      </trkpt>
      <trkpt lat="44.26149" lon="7.04897">
        <ele>1594.3234863281</ele>
        <time>2012-08-26T12:25:46Z</time>
      </trkpt>
      <trkpt lat="44.2614" lon="7.04887">
        <ele>1595.5753173828</ele>
        <time>2012-08-26T12:25:54Z</time>
      </trkpt>
      <trkpt lat="44.2613" lon="7.04877">
        <ele>1595.7244873047</ele>
        <time>2012-08-26T12:26:02Z</time>
      </trkpt>
      <trkpt lat="44.2612" lon="7.04867">
        <ele>1596.6949462891</ele>
        <time>2012-08-26T12:26:10Z</time>
      </trkpt>
      <trkpt lat="44.26113" lon="7.04857">
        <ele>1598.0611572266</ele>
        <time>2012-08-26T12:26:17Z</time>
      </trkpt>
      <trkpt lat="44.26103" lon="7.04846">
        <ele>1598.4543457031</ele>
        <time>2012-08-26T12:26:26Z</time>
      </trkpt>
      <trkpt lat="44.26096" lon="7.04839">
        <ele>1598.6500244141</ele>
        <time>2012-08-26T12:26:32Z</time>
      </trkpt>
      <trkpt lat="44.26087" lon="7.04833">
        <ele>1597.8902587891</ele>
        <time>2012-08-26T12:26:39Z</time>
      </trkpt>
      <trkpt lat="44.26086" lon="7.04832">
        <ele>1598.0106201172</ele>
        <time>2012-08-26T12:26:40Z</time>
      </trkpt>
      <trkpt lat="44.26074" lon="7.04821">
        <ele>1598.5555419922</ele>
        <time>2012-08-26T12:26:49Z</time>
      </trkpt>
      <trkpt lat="44.26065" lon="7.0481">
        <ele>1599.9421386719</ele>
        <time>2012-08-26T12:26:57Z</time>
      </trkpt>
      <trkpt lat="44.26054" lon="7.04791">
        <ele>1602.5777587891</ele>
        <time>2012-08-26T12:27:08Z</time>
      </trkpt>
      <trkpt lat="44.26046" lon="7.0478">
        <ele>1604.0421142578</ele>
        <time>2012-08-26T12:27:16Z</time>
      </trkpt>
      <trkpt lat="44.26037" lon="7.04769">
        <ele>1605.3084716797</ele>
        <time>2012-08-26T12:27:24Z</time>
      </trkpt>
      <trkpt lat="44.26032" lon="7.04763">
        <ele>1605.7581787109</ele>
        <time>2012-08-26T12:27:28Z</time>
      </trkpt>
      <trkpt lat="44.26027" lon="7.04757">
        <ele>1606.2993164062</ele>
        <time>2012-08-26T12:27:33Z</time>
      </trkpt>
      <trkpt lat="44.26022" lon="7.04751">
        <ele>1606.6990966797</ele>
        <time>2012-08-26T12:27:38Z</time>
      </trkpt>
      <trkpt lat="44.2601" lon="7.04738">
        <ele>1607.2974853516</ele>
        <time>2012-08-26T12:27:47Z</time>
      </trkpt>
      <trkpt lat="44.26001" lon="7.04728">
        <ele>1607.8795166016</ele>
        <time>2012-08-26T12:27:54Z</time>
      </trkpt>
      <trkpt lat="44.25998" lon="7.04723">
        <ele>1608.5588378906</ele>
        <time>2012-08-26T12:27:58Z</time>
      </trkpt>
      <trkpt lat="44.25995" lon="7.04719">
        <ele>1608.9688720703</ele>
        <time>2012-08-26T12:28:02Z</time>
      </trkpt>
      <trkpt lat="44.25992" lon="7.04715">
        <ele>1609.3024902344</ele>
        <time>2012-08-26T12:28:06Z</time>
      </trkpt>
      <trkpt lat="44.25988" lon="7.04713">
        <ele>1609.1767578125</ele>
        <time>2012-08-26T12:28:10Z</time>
      </trkpt>
      <trkpt lat="44.25983" lon="7.04706">
        <ele>1609.7078857422</ele>
        <time>2012-08-26T12:28:16Z</time>
      </trkpt>
      <trkpt lat="44.25981" lon="7.04702">
        <ele>1610.1038818359</ele>
        <time>2012-08-26T12:28:18Z</time>
      </trkpt>
      <trkpt lat="44.25971" lon="7.0469">
        <ele>1610.8565673828</ele>
        <time>2012-08-26T12:28:26Z</time>
      </trkpt>
      <trkpt lat="44.25963" lon="7.04679">
        <ele>1611.9417724609</ele>
        <time>2012-08-26T12:28:34Z</time>
      </trkpt>
      <trkpt lat="44.25961" lon="7.04676">
        <ele>1612.3516845703</ele>
        <time>2012-08-26T12:28:36Z</time>
      </trkpt>
      <trkpt lat="44.25955" lon="7.04668">
        <ele>1612.9185791016</ele>
        <time>2012-08-26T12:28:42Z</time>
      </trkpt>
      <trkpt lat="44.25952" lon="7.04658">
        <ele>1614.1875</ele>
        <time>2012-08-26T12:28:48Z</time>
      </trkpt>
      <trkpt lat="44.25954" lon="7.04656">
        <ele>1614.9942626953</ele>
        <time>2012-08-26T12:28:50Z</time>
      </trkpt>
      <trkpt lat="44.25957" lon="7.04656">
        <ele>1615.6843261719</ele>
        <time>2012-08-26T12:28:53Z</time>
      </trkpt>
      <trkpt lat="44.25965" lon="7.04661">
        <ele>1616.4963378906</ele>
        <time>2012-08-26T12:28:59Z</time>
      </trkpt>
      <trkpt lat="44.25972" lon="7.04669">
        <ele>1616.3737792969</ele>
        <time>2012-08-26T12:29:05Z</time>
      </trkpt>
      <trkpt lat="44.2598" lon="7.04676">
        <ele>1615.9404296875</ele>
        <time>2012-08-26T12:29:11Z</time>
      </trkpt>
      <trkpt lat="44.25992" lon="7.04686">
        <ele>1615.7585449219</ele>
        <time>2012-08-26T12:29:19Z</time>
      </trkpt>
      <trkpt lat="44.26" lon="7.04691">
        <ele>1615.9146728516</ele>
        <time>2012-08-26T12:29:24Z</time>
      </trkpt>
      <trkpt lat="44.2601" lon="7.04696">
        <ele>1616.1634521484</ele>
        <time>2012-08-26T12:29:30Z</time>
      </trkpt>
      <trkpt lat="44.26023" lon="7.04702">
        <ele>1616.6887207031</ele>
        <time>2012-08-26T12:29:38Z</time>
      </trkpt>
      <trkpt lat="44.26043" lon="7.0471">
        <ele>1618.7690429688</ele>
        <time>2012-08-26T12:29:47Z</time>
      </trkpt>
      <trkpt lat="44.26059" lon="7.0472">
        <ele>1620.1123046875</ele>
        <time>2012-08-26T12:29:56Z</time>
      </trkpt>
      <trkpt lat="44.26071" lon="7.04726">
        <ele>1620.8413085938</ele>
        <time>2012-08-26T12:30:03Z</time>
      </trkpt>
      <trkpt lat="44.26077" lon="7.04723">
        <ele>1622.7237548828</ele>
        <time>2012-08-26T12:30:08Z</time>
      </trkpt>
      <trkpt lat="44.26075" lon="7.04715">
        <ele>1623.8541259766</ele>
        <time>2012-08-26T12:30:13Z</time>
      </trkpt>
      <trkpt lat="44.26065" lon="7.04703">
        <ele>1624.5786132812</ele>
        <time>2012-08-26T12:30:21Z</time>
      </trkpt>
      <trkpt lat="44.26054" lon="7.04692">
        <ele>1625.3547363281</ele>
        <time>2012-08-26T12:30:29Z</time>
      </trkpt>
      <trkpt lat="44.26048" lon="7.04682">
        <ele>1626.1536865234</ele>
        <time>2012-08-26T12:30:35Z</time>
      </trkpt>
      <trkpt lat="44.26038" lon="7.04671">
        <ele>1626.9150390625</ele>
        <time>2012-08-26T12:30:43Z</time>
      </trkpt>
      <trkpt lat="44.26033" lon="7.04661">
        <ele>1628.0858154297</ele>
        <time>2012-08-26T12:30:49Z</time>
      </trkpt>
      <trkpt lat="44.26025" lon="7.0465">
        <ele>1629.1901855469</ele>
        <time>2012-08-26T12:30:56Z</time>
      </trkpt>
      <trkpt lat="44.26018" lon="7.04635">
        <ele>1630.8712158203</ele>
        <time>2012-08-26T12:31:04Z</time>
      </trkpt>
      <trkpt lat="44.26011" lon="7.04624">
        <ele>1631.6951904297</ele>
        <time>2012-08-26T12:31:10Z</time>
      </trkpt>
      <trkpt lat="44.26002" lon="7.04611">
        <ele>1632.2874755859</ele>
        <time>2012-08-26T12:31:17Z</time>
      </trkpt>
      <trkpt lat="44.25991" lon="7.04594">
        <ele>1633.4633789062</ele>
        <time>2012-08-26T12:31:26Z</time>
      </trkpt>
      <trkpt lat="44.25985" lon="7.04575">
        <ele>1635.9995117188</ele>
        <time>2012-08-26T12:31:35Z</time>
      </trkpt>
      <trkpt lat="44.25983" lon="7.0456">
        <ele>1639.0311279297</ele>
        <time>2012-08-26T12:31:42Z</time>
      </trkpt>
      <trkpt lat="44.25979" lon="7.04548">
        <ele>1640.5916748047</ele>
        <time>2012-08-26T12:31:48Z</time>
      </trkpt>
      <trkpt lat="44.25976" lon="7.04532">
        <ele>1643.0378417969</ele>
        <time>2012-08-26T12:31:56Z</time>
      </trkpt>
      <trkpt lat="44.2597" lon="7.04515">
        <ele>1644.8883056641</ele>
        <time>2012-08-26T12:32:05Z</time>
      </trkpt>
      <trkpt lat="44.25964" lon="7.04501">
        <ele>1646.0230712891</ele>
        <time>2012-08-26T12:32:14Z</time>
      </trkpt>
      <trkpt lat="44.25957" lon="7.04486">
        <ele>1647.3001708984</ele>
        <time>2012-08-26T12:32:22Z</time>
      </trkpt>
      <trkpt lat="44.25951" lon="7.04473">
        <ele>1648.4417724609</ele>
        <time>2012-08-26T12:32:29Z</time>
      </trkpt>
      <trkpt lat="44.25946" lon="7.04464">
        <ele>1649.41796875</ele>
        <time>2012-08-26T12:32:35Z</time>
      </trkpt>
      <trkpt lat="44.25943" lon="7.04451">
        <ele>1652.0493164062</ele>
        <time>2012-08-26T12:32:42Z</time>
      </trkpt>
      <trkpt lat="44.25941" lon="7.04433">
        <ele>1655.4700927734</ele>
        <time>2012-08-26T12:32:51Z</time>
      </trkpt>
      <trkpt lat="44.2594" lon="7.04416">
        <ele>1658.3016357422</ele>
        <time>2012-08-26T12:32:59Z</time>
      </trkpt>
      <trkpt lat="44.25938" lon="7.04398">
        <ele>1660.892578125</ele>
        <time>2012-08-26T12:33:07Z</time>
      </trkpt>
      <trkpt lat="44.25936" lon="7.04382">
        <ele>1662.8518066406</ele>
        <time>2012-08-26T12:33:15Z</time>
      </trkpt>
      <trkpt lat="44.25933" lon="7.04371">
        <ele>1663.6964111328</ele>
        <time>2012-08-26T12:33:21Z</time>
      </trkpt>
      <trkpt lat="44.25929" lon="7.04358">
        <ele>1664.8210449219</ele>
        <time>2012-08-26T12:33:28Z</time>
      </trkpt>
      <trkpt lat="44.25925" lon="7.04343">
        <ele>1666.5582275391</ele>
        <time>2012-08-26T12:33:36Z</time>
      </trkpt>
      <trkpt lat="44.25922" lon="7.04326">
        <ele>1668.3631591797</ele>
        <time>2012-08-26T12:33:44Z</time>
      </trkpt>
      <trkpt lat="44.25915" lon="7.04307">
        <ele>1669.6763916016</ele>
        <time>2012-08-26T12:33:53Z</time>
      </trkpt>
      <trkpt lat="44.25912" lon="7.04294">
        <ele>1670.8402099609</ele>
        <time>2012-08-26T12:33:59Z</time>
      </trkpt>
      <trkpt lat="44.25908" lon="7.04278">
        <ele>1671.9886474609</ele>
        <time>2012-08-26T12:34:06Z</time>
      </trkpt>
      <trkpt lat="44.25906" lon="7.04262">
        <ele>1673.5386962891</ele>
        <time>2012-08-26T12:34:14Z</time>
      </trkpt>
      <trkpt lat="44.25906" lon="7.0426">
        <ele>1673.734375</ele>
        <time>2012-08-26T12:34:15Z</time>
      </trkpt>
      <trkpt lat="44.25909" lon="7.04256">
        <ele>1674.5120849609</ele>
        <time>2012-08-26T12:34:20Z</time>
      </trkpt>
      <trkpt lat="44.25909" lon="7.04254">
        <ele>1674.7386474609</ele>
        <time>2012-08-26T12:34:46Z</time>
      </trkpt>
      <trkpt lat="44.25907" lon="7.04254">
        <ele>1674.5378417969</ele>
        <time>2012-08-26T12:34:52Z</time>
      </trkpt>
      <trkpt lat="44.25906" lon="7.04254">
        <ele>1674.4656982422</ele>
        <time>2012-08-26T12:35:00Z</time>
      </trkpt>
      <trkpt lat="44.25908" lon="7.04256">
        <ele>1674.4605712891</ele>
        <time>2012-08-26T12:35:11Z</time>
      </trkpt>
      <trkpt lat="44.25916" lon="7.04263">
        <ele>1674.486328125</ele>
        <time>2012-08-26T12:35:16Z</time>
      </trkpt>
      <trkpt lat="44.25926" lon="7.04273">
        <ele>1674.8881835938</ele>
        <time>2012-08-26T12:35:21Z</time>
      </trkpt>
      <trkpt lat="44.25938" lon="7.04282">
        <ele>1675.4772949219</ele>
        <time>2012-08-26T12:35:27Z</time>
      </trkpt>
      <trkpt lat="44.2595" lon="7.04295">
        <ele>1675.4250488281</ele>
        <time>2012-08-26T12:35:33Z</time>
      </trkpt>
      <trkpt lat="44.25964" lon="7.04309">
        <ele>1675.9943847656</ele>
        <time>2012-08-26T12:35:40Z</time>
      </trkpt>
      <trkpt lat="44.25981" lon="7.04325">
        <ele>1676.3741455078</ele>
        <time>2012-08-26T12:35:48Z</time>
      </trkpt>
      <trkpt lat="44.26003" lon="7.04345">
        <ele>1676.6263427734</ele>
        <time>2012-08-26T12:35:57Z</time>
      </trkpt>
      <trkpt lat="44.26017" lon="7.04357">
        <ele>1676.3859863281</ele>
        <time>2012-08-26T12:36:04Z</time>
      </trkpt>
      <trkpt lat="44.26031" lon="7.04371">
        <ele>1676.7967529297</ele>
        <time>2012-08-26T12:36:11Z</time>
      </trkpt>
      <trkpt lat="44.26045" lon="7.04382">
        <ele>1678.6077880859</ele>
        <time>2012-08-26T12:36:18Z</time>
      </trkpt>
      <trkpt lat="44.26059" lon="7.04393">
        <ele>1680.1373291016</ele>
        <time>2012-08-26T12:36:25Z</time>
      </trkpt>
      <trkpt lat="44.26067" lon="7.044">
        <ele>1680.9114990234</ele>
        <time>2012-08-26T12:36:32Z</time>
      </trkpt>
      <trkpt lat="44.26072" lon="7.04412">
        <ele>1680.3947753906</ele>
        <time>2012-08-26T12:36:38Z</time>
      </trkpt>
      <trkpt lat="44.26079" lon="7.04432">
        <ele>1679.5662841797</ele>
        <time>2012-08-26T12:36:46Z</time>
      </trkpt>
      <trkpt lat="44.2608" lon="7.04433">
        <ele>1679.5307617188</ele>
        <time>2012-08-26T12:36:52Z</time>
      </trkpt>
      <trkpt lat="44.26081" lon="7.04432">
        <ele>1679.9251708984</ele>
        <time>2012-08-26T12:37:58Z</time>
      </trkpt>
      <trkpt lat="44.2608" lon="7.04432">
        <ele>1679.5400390625</ele>
        <time>2012-08-26T12:39:09Z</time>
      </trkpt>
      <trkpt lat="44.2608" lon="7.04434">
        <ele>1679.4053955078</ele>
        <time>2012-08-26T12:39:14Z</time>
      </trkpt>
      <trkpt lat="44.26081" lon="7.04429">
        <ele>1680.1949462891</ele>
        <time>2012-08-26T12:40:27Z</time>
      </trkpt>
      <trkpt lat="44.26081" lon="7.0443">
        <ele>1680.0881347656</ele>
        <time>2012-08-26T12:40:33Z</time>
      </trkpt>
      <trkpt lat="44.26078" lon="7.04432">
        <ele>1679.1961669922</ele>
        <time>2012-08-26T12:41:18Z</time>
      </trkpt>
      <trkpt lat="44.26077" lon="7.04431">
        <ele>1679.2801513672</ele>
        <time>2012-08-26T12:41:27Z</time>
      </trkpt>
      <trkpt lat="44.26082" lon="7.04435">
        <ele>1679.7987060547</ele>
        <time>2012-08-26T12:42:05Z</time>
      </trkpt>
      <trkpt lat="44.26081" lon="7.04434">
        <ele>1679.7064208984</ele>
        <time>2012-08-26T12:42:11Z</time>
      </trkpt>
      <trkpt lat="44.2608" lon="7.04431">
        <ele>1679.7996826172</ele>
        <time>2012-08-26T12:42:17Z</time>
      </trkpt>
      <trkpt lat="44.26079" lon="7.04429">
        <ele>1679.8745117188</ele>
        <time>2012-08-26T12:42:19Z</time>
      </trkpt>
      <trkpt lat="44.26074" lon="7.04406">
        <ele>1681.4556884766</ele>
        <time>2012-08-26T12:42:27Z</time>
      </trkpt>
      <trkpt lat="44.26069" lon="7.04399">
        <ele>1681.3098144531</ele>
        <time>2012-08-26T12:42:32Z</time>
      </trkpt>
      <trkpt lat="44.26055" lon="7.04387">
        <ele>1680.044921875</ele>
        <time>2012-08-26T12:42:37Z</time>
      </trkpt>
      <trkpt lat="44.26032" lon="7.04368">
        <ele>1677.3039550781</ele>
        <time>2012-08-26T12:42:44Z</time>
      </trkpt>
      <trkpt lat="44.26019" lon="7.04355">
        <ele>1676.8872070312</ele>
        <time>2012-08-26T12:42:48Z</time>
      </trkpt>
      <trkpt lat="44.25994" lon="7.04333">
        <ele>1677.2432861328</ele>
        <time>2012-08-26T12:42:55Z</time>
      </trkpt>
      <trkpt lat="44.25977" lon="7.04315">
        <ele>1677.17578125</ele>
        <time>2012-08-26T12:43:01Z</time>
      </trkpt>
      <trkpt lat="44.25961" lon="7.043">
        <ele>1676.6563720703</ele>
        <time>2012-08-26T12:43:06Z</time>
      </trkpt>
      <trkpt lat="44.25943" lon="7.04283">
        <ele>1676.1489257812</ele>
        <time>2012-08-26T12:43:11Z</time>
      </trkpt>
      <trkpt lat="44.25932" lon="7.04272">
        <ele>1675.7928466797</ele>
        <time>2012-08-26T12:43:14Z</time>
      </trkpt>
      <trkpt lat="44.25909" lon="7.04251">
        <ele>1675.0167236328</ele>
        <time>2012-08-26T12:43:21Z</time>
      </trkpt>
      <trkpt lat="44.25901" lon="7.04242">
        <ele>1675.1917724609</ele>
        <time>2012-08-26T12:43:25Z</time>
      </trkpt>
      <trkpt lat="44.2589" lon="7.04224">
        <ele>1675.9282226562</ele>
        <time>2012-08-26T12:43:31Z</time>
      </trkpt>
      <trkpt lat="44.25884" lon="7.04219">
        <ele>1676.0422363281</ele>
        <time>2012-08-26T12:43:33Z</time>
      </trkpt>
      <trkpt lat="44.25865" lon="7.04222">
        <ele>1674.263671875</ele>
        <time>2012-08-26T12:43:39Z</time>
      </trkpt>
      <trkpt lat="44.25849" lon="7.04233">
        <ele>1676.8489990234</ele>
        <time>2012-08-26T12:43:46Z</time>
      </trkpt>
      <trkpt lat="44.25842" lon="7.04248">
        <ele>1678.2252197266</ele>
        <time>2012-08-26T12:43:51Z</time>
      </trkpt>
      <trkpt lat="44.25836" lon="7.04269">
        <ele>1679.287109375</ele>
        <time>2012-08-26T12:43:56Z</time>
      </trkpt>
      <trkpt lat="44.25834" lon="7.04299">
        <ele>1677.5152587891</ele>
        <time>2012-08-26T12:44:01Z</time>
      </trkpt>
      <trkpt lat="44.25837" lon="7.04318">
        <ele>1674.7729492188</ele>
        <time>2012-08-26T12:44:04Z</time>
      </trkpt>
      <trkpt lat="44.2584" lon="7.04354">
        <ele>1669.1566162109</ele>
        <time>2012-08-26T12:44:09Z</time>
      </trkpt>
      <trkpt lat="44.25848" lon="7.04382">
        <ele>1663.0881347656</ele>
        <time>2012-08-26T12:44:13Z</time>
      </trkpt>
      <trkpt lat="44.25862" lon="7.04424">
        <ele>1652.1246337891</ele>
        <time>2012-08-26T12:44:20Z</time>
      </trkpt>
      <trkpt lat="44.25864" lon="7.04434">
        <ele>1650.7294921875</ele>
        <time>2012-08-26T12:44:22Z</time>
      </trkpt>
      <trkpt lat="44.2587" lon="7.04474">
        <ele>1643.9138183594</ele>
        <time>2012-08-26T12:44:29Z</time>
      </trkpt>
      <trkpt lat="44.25871" lon="7.04483">
        <ele>1642.8479003906</ele>
        <time>2012-08-26T12:44:33Z</time>
      </trkpt>
      <trkpt lat="44.2587" lon="7.04484">
        <ele>1642.806640625</ele>
        <time>2012-08-26T12:44:38Z</time>
      </trkpt>
      <trkpt lat="44.25871" lon="7.04491">
        <ele>1641.9466552734</ele>
        <time>2012-08-26T12:44:43Z</time>
      </trkpt>
      <trkpt lat="44.25863" lon="7.04504">
        <ele>1642.3110351562</ele>
        <time>2012-08-26T12:44:47Z</time>
      </trkpt>
      <trkpt lat="44.25857" lon="7.0451">
        <ele>1643.9447021484</ele>
        <time>2012-08-26T12:44:51Z</time>
      </trkpt>
      <trkpt lat="44.25851" lon="7.04516">
        <ele>1646.4881591797</ele>
        <time>2012-08-26T12:44:57Z</time>
      </trkpt>
      <trkpt lat="44.2585" lon="7.04517">
        <ele>1646.9597167969</ele>
        <time>2012-08-26T12:44:58Z</time>
      </trkpt>
      <trkpt lat="44.25844" lon="7.04526">
        <ele>1648.8895263672</ele>
        <time>2012-08-26T12:45:05Z</time>
      </trkpt>
      <trkpt lat="44.25843" lon="7.04528">
        <ele>1648.8951416016</ele>
        <time>2012-08-26T12:45:06Z</time>
      </trkpt>
      <trkpt lat="44.25841" lon="7.04536">
        <ele>1649.1320800781</ele>
        <time>2012-08-26T12:45:12Z</time>
      </trkpt>
      <trkpt lat="44.25837" lon="7.04545">
        <ele>1649.6468505859</ele>
        <time>2012-08-26T12:45:19Z</time>
      </trkpt>
      <trkpt lat="44.25835" lon="7.04554">
        <ele>1649.4927978516</ele>
        <time>2012-08-26T12:45:26Z</time>
      </trkpt>
      <trkpt lat="44.25833" lon="7.0456">
        <ele>1649.4428710938</ele>
        <time>2012-08-26T12:45:31Z</time>
      </trkpt>
      <trkpt lat="44.2583" lon="7.04568">
        <ele>1649.9166259766</ele>
        <time>2012-08-26T12:45:36Z</time>
      </trkpt>
      <trkpt lat="44.25824" lon="7.04576">
        <ele>1651.7019042969</ele>
        <time>2012-08-26T12:45:44Z</time>
      </trkpt>
      <trkpt lat="44.25819" lon="7.04584">
        <ele>1653.3937988281</ele>
        <time>2012-08-26T12:45:51Z</time>
      </trkpt>
      <trkpt lat="44.25816" lon="7.04592">
        <ele>1654.4842529297</ele>
        <time>2012-08-26T12:45:58Z</time>
      </trkpt>
      <trkpt lat="44.2581" lon="7.04598">
        <ele>1657.2761230469</ele>
        <time>2012-08-26T12:46:06Z</time>
      </trkpt>
      <trkpt lat="44.25805" lon="7.04602">
        <ele>1660.1540527344</ele>
        <time>2012-08-26T12:46:12Z</time>
      </trkpt>
      <trkpt lat="44.25802" lon="7.04609">
        <ele>1661.8129882812</ele>
        <time>2012-08-26T12:46:18Z</time>
      </trkpt>
      <trkpt lat="44.258" lon="7.04616">
        <ele>1663.0223388672</ele>
        <time>2012-08-26T12:46:23Z</time>
      </trkpt>
      <trkpt lat="44.25795" lon="7.04624">
        <ele>1664.8509521484</ele>
        <time>2012-08-26T12:46:30Z</time>
      </trkpt>
      <trkpt lat="44.2579" lon="7.04633">
        <ele>1667.1398925781</ele>
        <time>2012-08-26T12:46:38Z</time>
      </trkpt>
      <trkpt lat="44.25787" lon="7.04641">
        <ele>1667.9627685547</ele>
        <time>2012-08-26T12:46:44Z</time>
      </trkpt>
      <trkpt lat="44.25785" lon="7.04647">
        <ele>1668.4573974609</ele>
        <time>2012-08-26T12:46:48Z</time>
      </trkpt>
      <trkpt lat="44.25784" lon="7.04657">
        <ele>1668.6851806641</ele>
        <time>2012-08-26T12:46:56Z</time>
      </trkpt>
      <trkpt lat="44.2578" lon="7.04663">
        <ele>1669.7857666016</ele>
        <time>2012-08-26T12:47:01Z</time>
      </trkpt>
      <trkpt lat="44.25778" lon="7.04673">
        <ele>1670.5498046875</ele>
        <time>2012-08-26T12:47:07Z</time>
      </trkpt>
      <trkpt lat="44.25774" lon="7.04681">
        <ele>1673.1784667969</ele>
        <time>2012-08-26T12:47:12Z</time>
      </trkpt>
      <trkpt lat="44.25773" lon="7.04685">
        <ele>1674.21875</ele>
        <time>2012-08-26T12:47:15Z</time>
      </trkpt>
      <trkpt lat="44.25771" lon="7.04698">
        <ele>1674.8565673828</ele>
        <time>2012-08-26T12:47:22Z</time>
      </trkpt>
      <trkpt lat="44.25771" lon="7.047">
        <ele>1674.9503173828</ele>
        <time>2012-08-26T12:47:24Z</time>
      </trkpt>
      <trkpt lat="44.25771" lon="7.04703">
        <ele>1674.6865234375</ele>
        <time>2012-08-26T12:47:26Z</time>
      </trkpt>
      <trkpt lat="44.2577" lon="7.04711">
        <ele>1674.2998046875</ele>
        <time>2012-08-26T12:47:31Z</time>
      </trkpt>
      <trkpt lat="44.25769" lon="7.04718">
        <ele>1674.3013916016</ele>
        <time>2012-08-26T12:47:37Z</time>
      </trkpt>
      <trkpt lat="44.25767" lon="7.04722">
        <ele>1675.8553466797</ele>
        <time>2012-08-26T12:47:42Z</time>
      </trkpt>
      <trkpt lat="44.25761" lon="7.04729">
        <ele>1680.2407226562</ele>
        <time>2012-08-26T12:47:48Z</time>
      </trkpt>
      <trkpt lat="44.25757" lon="7.04736">
        <ele>1682.6466064453</ele>
        <time>2012-08-26T12:47:55Z</time>
      </trkpt>
      <trkpt lat="44.25754" lon="7.04744">
        <ele>1684.2913818359</ele>
        <time>2012-08-26T12:48:01Z</time>
      </trkpt>
      <trkpt lat="44.2575" lon="7.04751">
        <ele>1686.8822021484</ele>
        <time>2012-08-26T12:48:06Z</time>
      </trkpt>
      <trkpt lat="44.25746" lon="7.04756">
        <ele>1688.763671875</ele>
        <time>2012-08-26T12:48:12Z</time>
      </trkpt>
      <trkpt lat="44.25745" lon="7.04761">
        <ele>1688.9542236328</ele>
        <time>2012-08-26T12:48:17Z</time>
      </trkpt>
      <trkpt lat="44.25741" lon="7.04768">
        <ele>1690.1695556641</ele>
        <time>2012-08-26T12:48:22Z</time>
      </trkpt>
      <trkpt lat="44.2574" lon="7.04769">
        <ele>1690.7257080078</ele>
        <time>2012-08-26T12:48:23Z</time>
      </trkpt>
      <trkpt lat="44.25735" lon="7.04775">
        <ele>1693.1273193359</ele>
        <time>2012-08-26T12:48:29Z</time>
      </trkpt>
      <trkpt lat="44.25733" lon="7.04778">
        <ele>1693.8043212891</ele>
        <time>2012-08-26T12:48:32Z</time>
      </trkpt>
      <trkpt lat="44.25726" lon="7.04786">
        <ele>1696.3923339844</ele>
        <time>2012-08-26T12:48:39Z</time>
      </trkpt>
      <trkpt lat="44.2572" lon="7.04789">
        <ele>1699.3859863281</ele>
        <time>2012-08-26T12:48:45Z</time>
      </trkpt>
      <trkpt lat="44.25712" lon="7.04792">
        <ele>1704.8598632812</ele>
        <time>2012-08-26T12:48:51Z</time>
      </trkpt>
      <trkpt lat="44.25708" lon="7.04794">
        <ele>1707.4791259766</ele>
        <time>2012-08-26T12:48:55Z</time>
      </trkpt>
      <trkpt lat="44.25698" lon="7.048">
        <ele>1712.2208251953</ele>
        <time>2012-08-26T12:49:04Z</time>
      </trkpt>
      <trkpt lat="44.25693" lon="7.048">
        <ele>1715.611328125</ele>
        <time>2012-08-26T12:49:12Z</time>
      </trkpt>
      <trkpt lat="44.25686" lon="7.04801">
        <ele>1718.6319580078</ele>
        <time>2012-08-26T12:49:19Z</time>
      </trkpt>
      <trkpt lat="44.25681" lon="7.04804">
        <ele>1720.1146240234</ele>
        <time>2012-08-26T12:49:25Z</time>
      </trkpt>
      <trkpt lat="44.25674" lon="7.04807">
        <ele>1721.8052978516</ele>
        <time>2012-08-26T12:49:30Z</time>
      </trkpt>
      <trkpt lat="44.25673" lon="7.04808">
        <ele>1721.8602294922</ele>
        <time>2012-08-26T12:49:31Z</time>
      </trkpt>
      <trkpt lat="44.25666" lon="7.04819">
        <ele>1719.2252197266</ele>
        <time>2012-08-26T12:49:39Z</time>
      </trkpt>
      <trkpt lat="44.25663" lon="7.04826">
        <ele>1717.1315917969</ele>
        <time>2012-08-26T12:49:45Z</time>
      </trkpt>
      <trkpt lat="44.25661" lon="7.04829">
        <ele>1715.8936767578</ele>
        <time>2012-08-26T12:49:49Z</time>
      </trkpt>
      <trkpt lat="44.25658" lon="7.04834">
        <ele>1714.2938232422</ele>
        <time>2012-08-26T12:49:52Z</time>
      </trkpt>
      <trkpt lat="44.25655" lon="7.04837">
        <ele>1713.7514648438</ele>
        <time>2012-08-26T12:49:56Z</time>
      </trkpt>
      <trkpt lat="44.2565" lon="7.04841">
        <ele>1713.7788085938</ele>
        <time>2012-08-26T12:50:00Z</time>
      </trkpt>
      <trkpt lat="44.25646" lon="7.04842">
        <ele>1714.4243164062</ele>
        <time>2012-08-26T12:50:03Z</time>
      </trkpt>
      <trkpt lat="44.25643" lon="7.04843">
        <ele>1714.6783447266</ele>
        <time>2012-08-26T12:50:05Z</time>
      </trkpt>
      <trkpt lat="44.2564" lon="7.04846">
        <ele>1714.2182617188</ele>
        <time>2012-08-26T12:50:09Z</time>
      </trkpt>
      <trkpt lat="44.25638" lon="7.04848">
        <ele>1713.9514160156</ele>
        <time>2012-08-26T12:50:11Z</time>
      </trkpt>
      <trkpt lat="44.25632" lon="7.04851">
        <ele>1714.2918701172</ele>
        <time>2012-08-26T12:50:15Z</time>
      </trkpt>
      <trkpt lat="44.25629" lon="7.04852">
        <ele>1714.4075927734</ele>
        <time>2012-08-26T12:50:18Z</time>
      </trkpt>
      <trkpt lat="44.25626" lon="7.04854">
        <ele>1714.2860107422</ele>
        <time>2012-08-26T12:50:23Z</time>
      </trkpt>
      <trkpt lat="44.25623" lon="7.04861">
        <ele>1712.2109375</ele>
        <time>2012-08-26T12:50:28Z</time>
      </trkpt>
      <trkpt lat="44.25618" lon="7.04864">
        <ele>1712.0218505859</ele>
        <time>2012-08-26T12:50:31Z</time>
      </trkpt>
      <trkpt lat="44.25612" lon="7.04866">
        <ele>1712.6761474609</ele>
        <time>2012-08-26T12:50:38Z</time>
      </trkpt>
      <trkpt lat="44.25609" lon="7.04869">
        <ele>1712.6456298828</ele>
        <time>2012-08-26T12:50:42Z</time>
      </trkpt>
      <trkpt lat="44.25607" lon="7.0487">
        <ele>1712.9647216797</ele>
        <time>2012-08-26T12:50:44Z</time>
      </trkpt>
      <trkpt lat="44.25603" lon="7.04874">
        <ele>1713.3605957031</ele>
        <time>2012-08-26T12:50:48Z</time>
      </trkpt>
      <trkpt lat="44.25596" lon="7.04881">
        <ele>1713.3741455078</ele>
        <time>2012-08-26T12:50:55Z</time>
      </trkpt>
      <trkpt lat="44.25594" lon="7.04887">
        <ele>1712.0582275391</ele>
        <time>2012-08-26T12:51:00Z</time>
      </trkpt>
      <trkpt lat="44.25589" lon="7.04894">
        <ele>1711.4982910156</ele>
        <time>2012-08-26T12:51:06Z</time>
      </trkpt>
      <trkpt lat="44.25586" lon="7.04897">
        <ele>1711.3386230469</ele>
        <time>2012-08-26T12:51:09Z</time>
      </trkpt>
      <trkpt lat="44.25584" lon="7.04904">
        <ele>1709.5952148438</ele>
        <time>2012-08-26T12:51:14Z</time>
      </trkpt>
      <trkpt lat="44.25581" lon="7.0491">
        <ele>1708.349609375</ele>
        <time>2012-08-26T12:51:18Z</time>
      </trkpt>
      <trkpt lat="44.25577" lon="7.04918">
        <ele>1707.2802734375</ele>
        <time>2012-08-26T12:51:26Z</time>
      </trkpt>
      <trkpt lat="44.25574" lon="7.04923">
        <ele>1706.6898193359</ele>
        <time>2012-08-26T12:51:30Z</time>
      </trkpt>
      <trkpt lat="44.2557" lon="7.04931">
        <ele>1705.6186523438</ele>
        <time>2012-08-26T12:51:36Z</time>
      </trkpt>
      <trkpt lat="44.25568" lon="7.04937">
        <ele>1704.0737304688</ele>
        <time>2012-08-26T12:51:40Z</time>
      </trkpt>
      <trkpt lat="44.25566" lon="7.04943">
        <ele>1703.21875</ele>
        <time>2012-08-26T12:51:44Z</time>
      </trkpt>
      <trkpt lat="44.25559" lon="7.04956">
        <ele>1702.0070800781</ele>
        <time>2012-08-26T12:51:52Z</time>
      </trkpt>
      <trkpt lat="44.25557" lon="7.04957">
        <ele>1702.265625</ele>
        <time>2012-08-26T12:51:54Z</time>
      </trkpt>
      <trkpt lat="44.25553" lon="7.0495">
        <ele>1706.1447753906</ele>
        <time>2012-08-26T12:52:00Z</time>
      </trkpt>
      <trkpt lat="44.25554" lon="7.04945">
        <ele>1707.6208496094</ele>
        <time>2012-08-26T12:52:07Z</time>
      </trkpt>
      <trkpt lat="44.25555" lon="7.04943">
        <ele>1707.7779541016</ele>
        <time>2012-08-26T12:52:09Z</time>
      </trkpt>
      <trkpt lat="44.25558" lon="7.04939">
        <ele>1707.8193359375</ele>
        <time>2012-08-26T12:52:12Z</time>
      </trkpt>
      <trkpt lat="44.2556" lon="7.0493">
        <ele>1710.2294921875</ele>
        <time>2012-08-26T12:52:19Z</time>
      </trkpt>
      <trkpt lat="44.2556" lon="7.04926">
        <ele>1711.7056884766</ele>
        <time>2012-08-26T12:52:22Z</time>
      </trkpt>
      <trkpt lat="44.25562" lon="7.04914">
        <ele>1715.1657714844</ele>
        <time>2012-08-26T12:52:29Z</time>
      </trkpt>
      <trkpt lat="44.25563" lon="7.04903">
        <ele>1718.42578125</ele>
        <time>2012-08-26T12:52:36Z</time>
      </trkpt>
      <trkpt lat="44.25564" lon="7.04899">
        <ele>1719.4771728516</ele>
        <time>2012-08-26T12:52:38Z</time>
      </trkpt>
      <trkpt lat="44.25565" lon="7.04887">
        <ele>1723.1556396484</ele>
        <time>2012-08-26T12:52:45Z</time>
      </trkpt>
      <trkpt lat="44.25566" lon="7.04879">
        <ele>1725.7570800781</ele>
        <time>2012-08-26T12:52:50Z</time>
      </trkpt>
      <trkpt lat="44.25568" lon="7.04871">
        <ele>1728.3581542969</ele>
        <time>2012-08-26T12:52:56Z</time>
      </trkpt>
      <trkpt lat="44.25568" lon="7.04869">
        <ele>1728.8944091797</ele>
        <time>2012-08-26T12:52:57Z</time>
      </trkpt>
      <trkpt lat="44.25571" lon="7.04862">
        <ele>1730.880859375</ele>
        <time>2012-08-26T12:53:01Z</time>
      </trkpt>
      <trkpt lat="44.25571" lon="7.04858">
        <ele>1732.0667724609</ele>
        <time>2012-08-26T12:53:03Z</time>
      </trkpt>
      <trkpt lat="44.25571" lon="7.04854">
        <ele>1733.5186767578</ele>
        <time>2012-08-26T12:53:05Z</time>
      </trkpt>
      <trkpt lat="44.25574" lon="7.04843">
        <ele>1737.1689453125</ele>
        <time>2012-08-26T12:53:13Z</time>
      </trkpt>
      <trkpt lat="44.25578" lon="7.04833">
        <ele>1739.6544189453</ele>
        <time>2012-08-26T12:53:21Z</time>
      </trkpt>
      <trkpt lat="44.25581" lon="7.04831">
        <ele>1740.0842285156</ele>
        <time>2012-08-26T12:53:23Z</time>
      </trkpt>
      <trkpt lat="44.25586" lon="7.04826">
        <ele>1741.0616455078</ele>
        <time>2012-08-26T12:53:29Z</time>
      </trkpt>
      <trkpt lat="44.25589" lon="7.04821">
        <ele>1743.0462646484</ele>
        <time>2012-08-26T12:53:33Z</time>
      </trkpt>
      <trkpt lat="44.25598" lon="7.0481">
        <ele>1745.8686523438</ele>
        <time>2012-08-26T12:53:44Z</time>
      </trkpt>
      <trkpt lat="44.25598" lon="7.04808">
        <ele>1747.0760498047</ele>
        <time>2012-08-26T12:53:46Z</time>
      </trkpt>
      <trkpt lat="44.25602" lon="7.04797">
        <ele>1751.9095458984</ele>
        <time>2012-08-26T12:53:54Z</time>
      </trkpt>
      <trkpt lat="44.25603" lon="7.04795">
        <ele>1752.4418945312</ele>
        <time>2012-08-26T12:53:55Z</time>
      </trkpt>
      <trkpt lat="44.25607" lon="7.04788">
        <ele>1755.5556640625</ele>
        <time>2012-08-26T12:54:01Z</time>
      </trkpt>
      <trkpt lat="44.25604" lon="7.04784">
        <ele>1758.6304931641</ele>
        <time>2012-08-26T12:54:06Z</time>
      </trkpt>
      <trkpt lat="44.25598" lon="7.0479">
        <ele>1756.8979492188</ele>
        <time>2012-08-26T12:54:12Z</time>
      </trkpt>
      <trkpt lat="44.25595" lon="7.04798">
        <ele>1753.2620849609</ele>
        <time>2012-08-26T12:54:17Z</time>
      </trkpt>
      <trkpt lat="44.25585" lon="7.04803">
        <ele>1753.5881347656</ele>
        <time>2012-08-26T12:54:25Z</time>
      </trkpt>
      <trkpt lat="44.25581" lon="7.04804">
        <ele>1754.1180419922</ele>
        <time>2012-08-26T12:54:28Z</time>
      </trkpt>
      <trkpt lat="44.25572" lon="7.04808">
        <ele>1753.6721191406</ele>
        <time>2012-08-26T12:54:35Z</time>
      </trkpt>
      <trkpt lat="44.25564" lon="7.04814">
        <ele>1752.7473144531</ele>
        <time>2012-08-26T12:54:43Z</time>
      </trkpt>
      <trkpt lat="44.25557" lon="7.04821">
        <ele>1751.0219726562</ele>
        <time>2012-08-26T12:54:51Z</time>
      </trkpt>
      <trkpt lat="44.25552" lon="7.04832">
        <ele>1747.7493896484</ele>
        <time>2012-08-26T12:54:57Z</time>
      </trkpt>
      <trkpt lat="44.25543" lon="7.04841">
        <ele>1747.0440673828</ele>
        <time>2012-08-26T12:55:04Z</time>
      </trkpt>
      <trkpt lat="44.25539" lon="7.04843">
        <ele>1747.4113769531</ele>
        <time>2012-08-26T12:55:07Z</time>
      </trkpt>
      <trkpt lat="44.25531" lon="7.0485">
        <ele>1747.2637939453</ele>
        <time>2012-08-26T12:55:14Z</time>
      </trkpt>
      <trkpt lat="44.25523" lon="7.04853">
        <ele>1748.4663085938</ele>
        <time>2012-08-26T12:55:22Z</time>
      </trkpt>
      <trkpt lat="44.25516" lon="7.04854">
        <ele>1750.2116699219</ele>
        <time>2012-08-26T12:55:29Z</time>
      </trkpt>
      <trkpt lat="44.25509" lon="7.04859">
        <ele>1750.7448730469</ele>
        <time>2012-08-26T12:55:36Z</time>
      </trkpt>
      <trkpt lat="44.25508" lon="7.0486">
        <ele>1750.9217529297</ele>
        <time>2012-08-26T12:55:37Z</time>
      </trkpt>
      <trkpt lat="44.25507" lon="7.04872">
        <ele>1747.3400878906</ele>
        <time>2012-08-26T12:55:45Z</time>
      </trkpt>
      <trkpt lat="44.25507" lon="7.04873">
        <ele>1746.8610839844</ele>
        <time>2012-08-26T12:55:46Z</time>
      </trkpt>
      <trkpt lat="44.25503" lon="7.04882">
        <ele>1745.2080078125</ele>
        <time>2012-08-26T12:55:53Z</time>
      </trkpt>
      <trkpt lat="44.25497" lon="7.04889">
        <ele>1744.8031005859</ele>
        <time>2012-08-26T12:56:00Z</time>
      </trkpt>
      <trkpt lat="44.25492" lon="7.04891">
        <ele>1746.1610107422</ele>
        <time>2012-08-26T12:56:04Z</time>
      </trkpt>
      <trkpt lat="44.25486" lon="7.04902">
        <ele>1745.1156005859</ele>
        <time>2012-08-26T12:56:11Z</time>
      </trkpt>
      <trkpt lat="44.25481" lon="7.04905">
        <ele>1745.869140625</ele>
        <time>2012-08-26T12:56:16Z</time>
      </trkpt>
      <trkpt lat="44.2548" lon="7.04906">
        <ele>1746.2193603516</ele>
        <time>2012-08-26T12:56:18Z</time>
      </trkpt>
      <trkpt lat="44.25475" lon="7.04912">
        <ele>1746.2399902344</ele>
        <time>2012-08-26T12:56:23Z</time>
      </trkpt>
      <trkpt lat="44.25473" lon="7.0492">
        <ele>1744.5867919922</ele>
        <time>2012-08-26T12:56:28Z</time>
      </trkpt>
      <trkpt lat="44.2547" lon="7.04933">
        <ele>1742.06640625</ele>
        <time>2012-08-26T12:56:36Z</time>
      </trkpt>
      <trkpt lat="44.25468" lon="7.04944">
        <ele>1739.6927490234</ele>
        <time>2012-08-26T12:56:42Z</time>
      </trkpt>
      <trkpt lat="44.25468" lon="7.04945">
        <ele>1739.4617919922</ele>
        <time>2012-08-26T12:56:43Z</time>
      </trkpt>
      <trkpt lat="44.25462" lon="7.0495">
        <ele>1740.8200683594</ele>
        <time>2012-08-26T12:56:49Z</time>
      </trkpt>
      <trkpt lat="44.25459" lon="7.04942">
        <ele>1743.509765625</ele>
        <time>2012-08-26T12:56:55Z</time>
      </trkpt>
      <trkpt lat="44.25458" lon="7.04936">
        <ele>1745.3687744141</ele>
        <time>2012-08-26T12:56:59Z</time>
      </trkpt>
      <trkpt lat="44.25458" lon="7.04922">
        <ele>1749.2462158203</ele>
        <time>2012-08-26T12:57:07Z</time>
      </trkpt>
      <trkpt lat="44.25463" lon="7.04909">
        <ele>1750.916015625</ele>
        <time>2012-08-26T12:57:14Z</time>
      </trkpt>
      <trkpt lat="44.25465" lon="7.04897">
        <ele>1753.4067382812</ele>
        <time>2012-08-26T12:57:20Z</time>
      </trkpt>
      <trkpt lat="44.25467" lon="7.04884">
        <ele>1756.1060791016</ele>
        <time>2012-08-26T12:57:26Z</time>
      </trkpt>
      <trkpt lat="44.25468" lon="7.04876">
        <ele>1757.6052246094</ele>
        <time>2012-08-26T12:57:30Z</time>
      </trkpt>
      <trkpt lat="44.25467" lon="7.04857">
        <ele>1763.2667236328</ele>
        <time>2012-08-26T12:57:40Z</time>
      </trkpt>
      <trkpt lat="44.25464" lon="7.04842">
        <ele>1769.1909179688</ele>
        <time>2012-08-26T12:57:49Z</time>
      </trkpt>
      <trkpt lat="44.25465" lon="7.04831">
        <ele>1772.6333007812</ele>
        <time>2012-08-26T12:57:55Z</time>
      </trkpt>
      <trkpt lat="44.2547" lon="7.0482">
        <ele>1775.5400390625</ele>
        <time>2012-08-26T12:58:03Z</time>
      </trkpt>
      <trkpt lat="44.25475" lon="7.04812">
        <ele>1777.2252197266</ele>
        <time>2012-08-26T12:58:09Z</time>
      </trkpt>
      <trkpt lat="44.25483" lon="7.04803">
        <ele>1778.8045654297</ele>
        <time>2012-08-26T12:58:17Z</time>
      </trkpt>
      <trkpt lat="44.25485" lon="7.04798">
        <ele>1780.1519775391</ele>
        <time>2012-08-26T12:58:23Z</time>
      </trkpt>
      <trkpt lat="44.25489" lon="7.04793">
        <ele>1781.0930175781</ele>
        <time>2012-08-26T12:58:28Z</time>
      </trkpt>
      <trkpt lat="44.25491" lon="7.04791">
        <ele>1781.6495361328</ele>
        <time>2012-08-26T12:58:30Z</time>
      </trkpt>
      <trkpt lat="44.25493" lon="7.04786">
        <ele>1783.0998535156</ele>
        <time>2012-08-26T12:58:34Z</time>
      </trkpt>
      <trkpt lat="44.25499" lon="7.04779">
        <ele>1784.9031982422</ele>
        <time>2012-08-26T12:58:41Z</time>
      </trkpt>
      <trkpt lat="44.25501" lon="7.04774">
        <ele>1786.0548095703</ele>
        <time>2012-08-26T12:58:46Z</time>
      </trkpt>
      <trkpt lat="44.25506" lon="7.0477">
        <ele>1786.75390625</ele>
        <time>2012-08-26T12:58:51Z</time>
      </trkpt>
      <trkpt lat="44.25508" lon="7.04768">
        <ele>1786.8502197266</ele>
        <time>2012-08-26T12:58:53Z</time>
      </trkpt>
      <trkpt lat="44.25509" lon="7.04767">
        <ele>1787.1457519531</ele>
        <time>2012-08-26T12:58:55Z</time>
      </trkpt>
      <trkpt lat="44.25512" lon="7.04767">
        <ele>1786.5183105469</ele>
        <time>2012-08-26T12:58:58Z</time>
      </trkpt>
      <trkpt lat="44.25516" lon="7.0476">
        <ele>1788.3956298828</ele>
        <time>2012-08-26T12:59:05Z</time>
      </trkpt>
      <trkpt lat="44.25515" lon="7.04756">
        <ele>1790.3671875</ele>
        <time>2012-08-26T12:59:08Z</time>
      </trkpt>
      <trkpt lat="44.25508" lon="7.04752">
        <ele>1793.1883544922</ele>
        <time>2012-08-26T12:59:14Z</time>
      </trkpt>
      <trkpt lat="44.25501" lon="7.04757">
        <ele>1793.0042724609</ele>
        <time>2012-08-26T12:59:22Z</time>
      </trkpt>
      <trkpt lat="44.25495" lon="7.04761">
        <ele>1792.4566650391</ele>
        <time>2012-08-26T12:59:27Z</time>
      </trkpt>
      <trkpt lat="44.2549" lon="7.04763">
        <ele>1792.6192626953</ele>
        <time>2012-08-26T12:59:32Z</time>
      </trkpt>
      <trkpt lat="44.25484" lon="7.04767">
        <ele>1791.8707275391</ele>
        <time>2012-08-26T12:59:38Z</time>
      </trkpt>
      <trkpt lat="44.25478" lon="7.0477">
        <ele>1792.0638427734</ele>
        <time>2012-08-26T12:59:44Z</time>
      </trkpt>
      <trkpt lat="44.25469" lon="7.04772">
        <ele>1793.2313232422</ele>
        <time>2012-08-26T12:59:51Z</time>
      </trkpt>
      <trkpt lat="44.25465" lon="7.04773">
        <ele>1793.8149414062</ele>
        <time>2012-08-26T12:59:54Z</time>
      </trkpt>
      <trkpt lat="44.25461" lon="7.04772">
        <ele>1795.2637939453</ele>
        <time>2012-08-26T12:59:58Z</time>
      </trkpt>
      <trkpt lat="44.25456" lon="7.04773">
        <ele>1796.5889892578</ele>
        <time>2012-08-26T13:00:03Z</time>
      </trkpt>
      <trkpt lat="44.2545" lon="7.04772">
        <ele>1798.3983154297</ele>
        <time>2012-08-26T13:00:10Z</time>
      </trkpt>
      <trkpt lat="44.25441" lon="7.04773">
        <ele>1801.0931396484</ele>
        <time>2012-08-26T13:00:17Z</time>
      </trkpt>
      <trkpt lat="44.25431" lon="7.04773">
        <ele>1804.1629638672</ele>
        <time>2012-08-26T13:00:25Z</time>
      </trkpt>
      <trkpt lat="44.25427" lon="7.04773">
        <ele>1805.8020019531</ele>
        <time>2012-08-26T13:00:29Z</time>
      </trkpt>
      <trkpt lat="44.25422" lon="7.0477">
        <ele>1808.2312011719</ele>
        <time>2012-08-26T13:00:34Z</time>
      </trkpt>
      <trkpt lat="44.25419" lon="7.04768">
        <ele>1810.044921875</ele>
        <time>2012-08-26T13:00:38Z</time>
      </trkpt>
      <trkpt lat="44.25411" lon="7.04764">
        <ele>1813.3492431641</ele>
        <time>2012-08-26T13:00:45Z</time>
      </trkpt>
      <trkpt lat="44.25404" lon="7.04761">
        <ele>1815.7980957031</ele>
        <time>2012-08-26T13:00:52Z</time>
      </trkpt>
      <trkpt lat="44.25393" lon="7.0476">
        <ele>1818.724609375</ele>
        <time>2012-08-26T13:01:01Z</time>
      </trkpt>
      <trkpt lat="44.25385" lon="7.04758">
        <ele>1820.7554931641</ele>
        <time>2012-08-26T13:01:08Z</time>
      </trkpt>
      <trkpt lat="44.25376" lon="7.04755">
        <ele>1822.9742431641</ele>
        <time>2012-08-26T13:01:16Z</time>
      </trkpt>
      <trkpt lat="44.25369" lon="7.04753">
        <ele>1824.7626953125</ele>
        <time>2012-08-26T13:01:22Z</time>
      </trkpt>
      <trkpt lat="44.25365" lon="7.04754">
        <ele>1825.2448730469</ele>
        <time>2012-08-26T13:01:25Z</time>
      </trkpt>
      <trkpt lat="44.25359" lon="7.04753">
        <ele>1826.4865722656</ele>
        <time>2012-08-26T13:01:30Z</time>
      </trkpt>
      <trkpt lat="44.2535" lon="7.0475">
        <ele>1828.189453125</ele>
        <time>2012-08-26T13:01:38Z</time>
      </trkpt>
      <trkpt lat="44.25344" lon="7.04751">
        <ele>1828.4915771484</ele>
        <time>2012-08-26T13:01:43Z</time>
      </trkpt>
      <trkpt lat="44.25336" lon="7.04754">
        <ele>1828.4366455078</ele>
        <time>2012-08-26T13:01:49Z</time>
      </trkpt>
      <trkpt lat="44.25328" lon="7.04758">
        <ele>1827.6889648438</ele>
        <time>2012-08-26T13:01:56Z</time>
      </trkpt>
      <trkpt lat="44.25317" lon="7.04762">
        <ele>1826.4942626953</ele>
        <time>2012-08-26T13:02:04Z</time>
      </trkpt>
      <trkpt lat="44.25316" lon="7.04757">
        <ele>1828.0872802734</ele>
        <time>2012-08-26T13:02:09Z</time>
      </trkpt>
      <trkpt lat="44.25318" lon="7.04755">
        <ele>1828.6228027344</ele>
        <time>2012-08-26T13:02:11Z</time>
      </trkpt>
      <trkpt lat="44.25323" lon="7.04753">
        <ele>1829.0485839844</ele>
        <time>2012-08-26T13:02:16Z</time>
      </trkpt>
      <trkpt lat="44.25333" lon="7.04745">
        <ele>1831.6488037109</ele>
        <time>2012-08-26T13:02:25Z</time>
      </trkpt>
      <trkpt lat="44.25339" lon="7.04735">
        <ele>1834.0333251953</ele>
        <time>2012-08-26T13:02:31Z</time>
      </trkpt>
      <trkpt lat="44.25347" lon="7.04727">
        <ele>1835.4821777344</ele>
        <time>2012-08-26T13:02:38Z</time>
      </trkpt>
      <trkpt lat="44.25355" lon="7.0472">
        <ele>1836.5483398438</ele>
        <time>2012-08-26T13:02:44Z</time>
      </trkpt>
      <trkpt lat="44.25363" lon="7.04717">
        <ele>1836.7082519531</ele>
        <time>2012-08-26T13:02:50Z</time>
      </trkpt>
      <trkpt lat="44.25372" lon="7.04707">
        <ele>1838.7106933594</ele>
        <time>2012-08-26T13:02:58Z</time>
      </trkpt>
      <trkpt lat="44.25381" lon="7.04699">
        <ele>1839.8394775391</ele>
        <time>2012-08-26T13:03:04Z</time>
      </trkpt>
      <trkpt lat="44.25394" lon="7.04699">
        <ele>1837.8178710938</ele>
        <time>2012-08-26T13:03:11Z</time>
      </trkpt>
      <trkpt lat="44.25409" lon="7.04696">
        <ele>1836.7683105469</ele>
        <time>2012-08-26T13:03:18Z</time>
      </trkpt>
      <trkpt lat="44.25418" lon="7.04693">
        <ele>1836.5955810547</ele>
        <time>2012-08-26T13:03:23Z</time>
      </trkpt>
      <trkpt lat="44.25425" lon="7.04686">
        <ele>1838.6616210938</ele>
        <time>2012-08-26T13:03:29Z</time>
      </trkpt>
      <trkpt lat="44.25426" lon="7.04683">
        <ele>1840.1722412109</ele>
        <time>2012-08-26T13:03:31Z</time>
      </trkpt>
      <trkpt lat="44.25421" lon="7.04678">
        <ele>1843.5970458984</ele>
        <time>2012-08-26T13:03:37Z</time>
      </trkpt>
      <trkpt lat="44.25419" lon="7.04679">
        <ele>1843.5629882812</ele>
        <time>2012-08-26T13:03:39Z</time>
      </trkpt>
      <trkpt lat="44.25409" lon="7.04684">
        <ele>1842.5456542969</ele>
        <time>2012-08-26T13:03:47Z</time>
      </trkpt>
      <trkpt lat="44.25406" lon="7.04684">
        <ele>1843.0129394531</ele>
        <time>2012-08-26T13:03:50Z</time>
      </trkpt>
      <trkpt lat="44.25396" lon="7.04679">
        <ele>1847.2860107422</ele>
        <time>2012-08-26T13:03:59Z</time>
      </trkpt>
      <trkpt lat="44.25388" lon="7.04672">
        <ele>1851.9604492188</ele>
        <time>2012-08-26T13:04:06Z</time>
      </trkpt>
      <trkpt lat="44.25382" lon="7.04668">
        <ele>1855.5825195312</ele>
        <time>2012-08-26T13:04:12Z</time>
      </trkpt>
      <trkpt lat="44.25377" lon="7.04666">
        <ele>1857.4124755859</ele>
        <time>2012-08-26T13:04:16Z</time>
      </trkpt>
      <trkpt lat="44.25373" lon="7.04663">
        <ele>1859.3800048828</ele>
        <time>2012-08-26T13:04:20Z</time>
      </trkpt>
      <trkpt lat="44.25364" lon="7.04662">
        <ele>1861.5950927734</ele>
        <time>2012-08-26T13:04:27Z</time>
      </trkpt>
      <trkpt lat="44.25352" lon="7.04664">
        <ele>1861.9720458984</ele>
        <time>2012-08-26T13:04:36Z</time>
      </trkpt>
      <trkpt lat="44.25344" lon="7.04669">
        <ele>1860.7862548828</ele>
        <time>2012-08-26T13:04:43Z</time>
      </trkpt>
      <trkpt lat="44.25337" lon="7.04677">
        <ele>1857.1940917969</ele>
        <time>2012-08-26T13:04:51Z</time>
      </trkpt>
      <trkpt lat="44.25332" lon="7.04684">
        <ele>1854.4279785156</ele>
        <time>2012-08-26T13:04:58Z</time>
      </trkpt>
      <trkpt lat="44.25331" lon="7.04685">
        <ele>1854.0072021484</ele>
        <time>2012-08-26T13:04:59Z</time>
      </trkpt>
      <trkpt lat="44.25323" lon="7.04687">
        <ele>1853.3620605469</ele>
        <time>2012-08-26T13:05:07Z</time>
      </trkpt>
      <trkpt lat="44.25316" lon="7.0469">
        <ele>1851.9645996094</ele>
        <time>2012-08-26T13:05:14Z</time>
      </trkpt>
      <trkpt lat="44.25309" lon="7.04694">
        <ele>1850.3522949219</ele>
        <time>2012-08-26T13:05:21Z</time>
      </trkpt>
      <trkpt lat="44.25301" lon="7.04697">
        <ele>1848.9197998047</ele>
        <time>2012-08-26T13:05:28Z</time>
      </trkpt>
      <trkpt lat="44.25294" lon="7.04694">
        <ele>1850.2738037109</ele>
        <time>2012-08-26T13:05:35Z</time>
      </trkpt>
      <trkpt lat="44.25287" lon="7.04686">
        <ele>1854.6770019531</ele>
        <time>2012-08-26T13:05:43Z</time>
      </trkpt>
      <trkpt lat="44.25282" lon="7.04676">
        <ele>1859.9813232422</ele>
        <time>2012-08-26T13:05:50Z</time>
      </trkpt>
      <trkpt lat="44.25277" lon="7.04667">
        <ele>1864.6458740234</ele>
        <time>2012-08-26T13:05:58Z</time>
      </trkpt>
      <trkpt lat="44.25271" lon="7.0466">
        <ele>1865.9350585938</ele>
        <time>2012-08-26T13:06:04Z</time>
      </trkpt>
      <trkpt lat="44.25268" lon="7.04655">
        <ele>1867.2432861328</ele>
        <time>2012-08-26T13:06:08Z</time>
      </trkpt>
      <trkpt lat="44.25265" lon="7.0465">
        <ele>1868.6951904297</ele>
        <time>2012-08-26T13:06:12Z</time>
      </trkpt>
      <trkpt lat="44.25257" lon="7.04642">
        <ele>1870.2738037109</ele>
        <time>2012-08-26T13:06:21Z</time>
      </trkpt>
      <trkpt lat="44.25251" lon="7.04635">
        <ele>1872.0545654297</ele>
        <time>2012-08-26T13:06:27Z</time>
      </trkpt>
      <trkpt lat="44.25244" lon="7.04628">
        <ele>1873.8837890625</ele>
        <time>2012-08-26T13:06:34Z</time>
      </trkpt>
      <trkpt lat="44.25239" lon="7.04621">
        <ele>1875.6109619141</ele>
        <time>2012-08-26T13:06:40Z</time>
      </trkpt>
      <trkpt lat="44.25235" lon="7.04616">
        <ele>1876.4929199219</ele>
        <time>2012-08-26T13:06:45Z</time>
      </trkpt>
      <trkpt lat="44.25227" lon="7.04606">
        <ele>1878.0905761719</ele>
        <time>2012-08-26T13:06:55Z</time>
      </trkpt>
      <trkpt lat="44.2522" lon="7.04601">
        <ele>1878.916015625</ele>
        <time>2012-08-26T13:07:02Z</time>
      </trkpt>
      <trkpt lat="44.25211" lon="7.04595">
        <ele>1880.1066894531</ele>
        <time>2012-08-26T13:07:11Z</time>
      </trkpt>
      <trkpt lat="44.25203" lon="7.04592">
        <ele>1880.1512451172</ele>
        <time>2012-08-26T13:07:19Z</time>
      </trkpt>
      <trkpt lat="44.25197" lon="7.04591">
        <ele>1879.6684570312</ele>
        <time>2012-08-26T13:07:25Z</time>
      </trkpt>
      <trkpt lat="44.2519" lon="7.04589">
        <ele>1879.3726806641</ele>
        <time>2012-08-26T13:07:32Z</time>
      </trkpt>
      <trkpt lat="44.25182" lon="7.04588">
        <ele>1878.5590820312</ele>
        <time>2012-08-26T13:07:39Z</time>
      </trkpt>
      <trkpt lat="44.2518" lon="7.04588">
        <ele>1878.3942871094</ele>
        <time>2012-08-26T13:07:40Z</time>
      </trkpt>
      <trkpt lat="44.25175" lon="7.04585">
        <ele>1878.6345214844</ele>
        <time>2012-08-26T13:07:46Z</time>
      </trkpt>
      <trkpt lat="44.25165" lon="7.04578">
        <ele>1880.4149169922</ele>
        <time>2012-08-26T13:07:56Z</time>
      </trkpt>
      <trkpt lat="44.2516" lon="7.04574">
        <ele>1881.5411376953</ele>
        <time>2012-08-26T13:08:01Z</time>
      </trkpt>
      <trkpt lat="44.25151" lon="7.04576">
        <ele>1880.0379638672</ele>
        <time>2012-08-26T13:08:09Z</time>
      </trkpt>
      <trkpt lat="44.25144" lon="7.0458">
        <ele>1878.201171875</ele>
        <time>2012-08-26T13:08:15Z</time>
      </trkpt>
      <trkpt lat="44.25136" lon="7.04584">
        <ele>1876.8953857422</ele>
        <time>2012-08-26T13:08:21Z</time>
      </trkpt>
      <trkpt lat="44.2513" lon="7.04587">
        <ele>1876.5158691406</ele>
        <time>2012-08-26T13:08:26Z</time>
      </trkpt>
      <trkpt lat="44.25126" lon="7.0459">
        <ele>1875.7916259766</ele>
        <time>2012-08-26T13:08:31Z</time>
      </trkpt>
      <trkpt lat="44.25118" lon="7.04595">
        <ele>1874.9124755859</ele>
        <time>2012-08-26T13:08:39Z</time>
      </trkpt>
      <trkpt lat="44.25112" lon="7.046">
        <ele>1873.5512695312</ele>
        <time>2012-08-26T13:08:46Z</time>
      </trkpt>
      <trkpt lat="44.25109" lon="7.04611">
        <ele>1870.4178466797</ele>
        <time>2012-08-26T13:08:53Z</time>
      </trkpt>
      <trkpt lat="44.25107" lon="7.04624">
        <ele>1866.5648193359</ele>
        <time>2012-08-26T13:09:01Z</time>
      </trkpt>
      <trkpt lat="44.25105" lon="7.04633">
        <ele>1864.0563964844</ele>
        <time>2012-08-26T13:09:07Z</time>
      </trkpt>
      <trkpt lat="44.25101" lon="7.04641">
        <ele>1863.4066162109</ele>
        <time>2012-08-26T13:09:13Z</time>
      </trkpt>
      <trkpt lat="44.25095" lon="7.04647">
        <ele>1865.0959472656</ele>
        <time>2012-08-26T13:09:19Z</time>
      </trkpt>
      <trkpt lat="44.2509" lon="7.0465">
        <ele>1867.1597900391</ele>
        <time>2012-08-26T13:09:23Z</time>
      </trkpt>
      <trkpt lat="44.25087" lon="7.0465">
        <ele>1868.0480957031</ele>
        <time>2012-08-26T13:09:25Z</time>
      </trkpt>
      <trkpt lat="44.25082" lon="7.04653">
        <ele>1870.1257324219</ele>
        <time>2012-08-26T13:09:32Z</time>
      </trkpt>
      <trkpt lat="44.25072" lon="7.04656">
        <ele>1873.5220947266</ele>
        <time>2012-08-26T13:09:41Z</time>
      </trkpt>
      <trkpt lat="44.25064" lon="7.04658">
        <ele>1876.5751953125</ele>
        <time>2012-08-26T13:09:48Z</time>
      </trkpt>
      <trkpt lat="44.25056" lon="7.04658">
        <ele>1879.7996826172</ele>
        <time>2012-08-26T13:09:56Z</time>
      </trkpt>
      <trkpt lat="44.25049" lon="7.04661">
        <ele>1883.5787353516</ele>
        <time>2012-08-26T13:10:03Z</time>
      </trkpt>
      <trkpt lat="44.25048" lon="7.04662">
        <ele>1883.9697265625</ele>
        <time>2012-08-26T13:10:04Z</time>
      </trkpt>
      <trkpt lat="44.25039" lon="7.04665">
        <ele>1888.5131835938</ele>
        <time>2012-08-26T13:10:13Z</time>
      </trkpt>
      <trkpt lat="44.25032" lon="7.04668">
        <ele>1891.5008544922</ele>
        <time>2012-08-26T13:10:19Z</time>
      </trkpt>
      <trkpt lat="44.25024" lon="7.04676">
        <ele>1893.8697509766</ele>
        <time>2012-08-26T13:10:26Z</time>
      </trkpt>
      <trkpt lat="44.25017" lon="7.04678">
        <ele>1895.4598388672</ele>
        <time>2012-08-26T13:10:32Z</time>
      </trkpt>
      <trkpt lat="44.25011" lon="7.04684">
        <ele>1896.3614501953</ele>
        <time>2012-08-26T13:10:38Z</time>
      </trkpt>
      <trkpt lat="44.25004" lon="7.04688">
        <ele>1897.3717041016</ele>
        <time>2012-08-26T13:10:45Z</time>
      </trkpt>
      <trkpt lat="44.24997" lon="7.04692">
        <ele>1898.0451660156</ele>
        <time>2012-08-26T13:10:51Z</time>
      </trkpt>
      <trkpt lat="44.24989" lon="7.04697">
        <ele>1898.7592773438</ele>
        <time>2012-08-26T13:10:58Z</time>
      </trkpt>
      <trkpt lat="44.24979" lon="7.04697">
        <ele>1900.4910888672</ele>
        <time>2012-08-26T13:11:06Z</time>
      </trkpt>
      <trkpt lat="44.24969" lon="7.047">
        <ele>1902.2314453125</ele>
        <time>2012-08-26T13:11:13Z</time>
      </trkpt>
      <trkpt lat="44.24964" lon="7.04701">
        <ele>1903.8646240234</ele>
        <time>2012-08-26T13:11:18Z</time>
      </trkpt>
      <trkpt lat="44.24956" lon="7.04704">
        <ele>1906.1629638672</ele>
        <time>2012-08-26T13:11:26Z</time>
      </trkpt>
      <trkpt lat="44.24947" lon="7.04705">
        <ele>1908.6944580078</ele>
        <time>2012-08-26T13:11:34Z</time>
      </trkpt>
      <trkpt lat="44.24946" lon="7.04705">
        <ele>1908.8704833984</ele>
        <time>2012-08-26T13:11:35Z</time>
      </trkpt>
      <trkpt lat="44.24941" lon="7.04709">
        <ele>1909.7131347656</ele>
        <time>2012-08-26T13:11:40Z</time>
      </trkpt>
      <trkpt lat="44.24934" lon="7.04709">
        <ele>1911.2149658203</ele>
        <time>2012-08-26T13:11:46Z</time>
      </trkpt>
      <trkpt lat="44.24925" lon="7.04712">
        <ele>1912.7766113281</ele>
        <time>2012-08-26T13:11:53Z</time>
      </trkpt>
      <trkpt lat="44.24915" lon="7.04716">
        <ele>1915.2864990234</ele>
        <time>2012-08-26T13:11:59Z</time>
      </trkpt>
      <trkpt lat="44.24903" lon="7.04719">
        <ele>1919.3287353516</ele>
        <time>2012-08-26T13:12:06Z</time>
      </trkpt>
      <trkpt lat="44.24892" lon="7.04723">
        <ele>1923.0385742188</ele>
        <time>2012-08-26T13:12:12Z</time>
      </trkpt>
      <trkpt lat="44.24874" lon="7.04722">
        <ele>1929.1739501953</ele>
        <time>2012-08-26T13:12:20Z</time>
      </trkpt>
      <trkpt lat="44.2486" lon="7.04723">
        <ele>1933.5258789062</ele>
        <time>2012-08-26T13:12:28Z</time>
      </trkpt>
      <trkpt lat="44.24858" lon="7.04724">
        <ele>1932.7225341797</ele>
        <time>2012-08-26T13:12:29Z</time>
      </trkpt>
      <trkpt lat="44.24853" lon="7.0473">
        <ele>1929.8798828125</ele>
        <time>2012-08-26T13:12:33Z</time>
      </trkpt>
      <trkpt lat="44.24844" lon="7.04741">
        <ele>1925.2724609375</ele>
        <time>2012-08-26T13:22:22Z</time>
      </trkpt>
      <trkpt lat="44.24845" lon="7.04742">
        <ele>1925.2175292969</ele>
        <time>2012-08-26T13:22:48Z</time>
      </trkpt>
      <trkpt lat="44.24846" lon="7.04742">
        <ele>1925.4715576172</ele>
        <time>2012-08-26T13:22:59Z</time>
      </trkpt>
      <trkpt lat="44.24847" lon="7.04739">
        <ele>1926.7143554688</ele>
        <time>2012-08-26T13:25:37Z</time>
      </trkpt>
      <trkpt lat="44.24849" lon="7.04741">
        <ele>1926.7692871094</ele>
        <time>2012-08-26T13:27:06Z</time>
      </trkpt>
      <trkpt lat="44.24849" lon="7.04741">
        <ele>1926.9409179688</ele>
        <time>2012-08-26T13:27:10Z</time>
      </trkpt>
      <trkpt lat="44.24849" lon="7.0474">
        <ele>1926.9204101562</ele>
        <time>2012-08-26T13:27:26Z</time>
      </trkpt>
      <trkpt lat="44.24848" lon="7.04741">
        <ele>1926.6868896484</ele>
        <time>2012-08-26T13:27:31Z</time>
      </trkpt>
      <trkpt lat="44.24847" lon="7.04742">
        <ele>1926.0483398438</ele>
        <time>2012-08-26T13:27:43Z</time>
      </trkpt>
      <trkpt lat="44.24846" lon="7.04744">
        <ele>1925.5745849609</ele>
        <time>2012-08-26T13:27:49Z</time>
      </trkpt>
      <trkpt lat="44.24846" lon="7.04739">
        <ele>1925.9384765625</ele>
        <time>2012-08-26T13:28:16Z</time>
      </trkpt>
      <trkpt lat="44.24844" lon="7.04754">
        <ele>1923.5102539062</ele>
        <time>2012-08-26T13:28:22Z</time>
      </trkpt>
      <trkpt lat="44.24842" lon="7.04767">
        <ele>1922.0452880859</ele>
        <time>2012-08-26T13:28:27Z</time>
      </trkpt>
      <trkpt lat="44.24839" lon="7.0478">
        <ele>1920.3498535156</ele>
        <time>2012-08-26T13:28:31Z</time>
      </trkpt>
      <trkpt lat="44.24838" lon="7.04802">
        <ele>1918.7276611328</ele>
        <time>2012-08-26T13:28:36Z</time>
      </trkpt>
      <trkpt lat="44.24831" lon="7.04798">
        <ele>1917.9458007812</ele>
        <time>2012-08-26T13:28:40Z</time>
      </trkpt>
      <trkpt lat="44.24825" lon="7.04771">
        <ele>1918.4282226562</ele>
        <time>2012-08-26T13:28:46Z</time>
      </trkpt>
      <trkpt lat="44.24821" lon="7.04753">
        <ele>1918.9644775391</ele>
        <time>2012-08-26T13:28:49Z</time>
      </trkpt>
      <trkpt lat="44.24806" lon="7.04741">
        <ele>1918.3980712891</ele>
        <time>2012-08-26T13:28:53Z</time>
      </trkpt>
      <trkpt lat="44.24789" lon="7.04735">
        <ele>1917.3657226562</ele>
        <time>2012-08-26T13:28:56Z</time>
      </trkpt>
      <trkpt lat="44.24765" lon="7.04723">
        <ele>1917.9130859375</ele>
        <time>2012-08-26T13:29:01Z</time>
      </trkpt>
      <trkpt lat="44.24756" lon="7.04717">
        <ele>1918.5036621094</ele>
        <time>2012-08-26T13:29:04Z</time>
      </trkpt>
      <trkpt lat="44.24751" lon="7.04714">
        <ele>1918.5847167969</ele>
        <time>2012-08-26T13:29:06Z</time>
      </trkpt>
      <trkpt lat="44.24736" lon="7.04704">
        <ele>1918.9755859375</ele>
        <time>2012-08-26T13:29:13Z</time>
      </trkpt>
      <trkpt lat="44.24719" lon="7.047">
        <ele>1918.7950439453</ele>
        <time>2012-08-26T13:29:20Z</time>
      </trkpt>
      <trkpt lat="44.24702" lon="7.047">
        <ele>1918.8139648438</ele>
        <time>2012-08-26T13:29:28Z</time>
      </trkpt>
      <trkpt lat="44.24686" lon="7.04698">
        <ele>1918.9049072266</ele>
        <time>2012-08-26T13:29:36Z</time>
      </trkpt>
      <trkpt lat="44.24669" lon="7.04698">
        <ele>1918.9868164062</ele>
        <time>2012-08-26T13:29:44Z</time>
      </trkpt>
      <trkpt lat="44.24654" lon="7.04695">
        <ele>1919</ele>
        <time>2012-08-26T13:29:53Z</time>
      </trkpt>
      <trkpt lat="44.24644" lon="7.04694">
        <ele>1919.0045166016</ele>
        <time>2012-08-26T13:29:58Z</time>
      </trkpt>
      <trkpt lat="44.24631" lon="7.04695">
        <ele>1919.2797851562</ele>
        <time>2012-08-26T13:30:05Z</time>
      </trkpt>
      <trkpt lat="44.24621" lon="7.04695">
        <ele>1919.63671875</ele>
        <time>2012-08-26T13:30:11Z</time>
      </trkpt>
      <trkpt lat="44.24608" lon="7.04693">
        <ele>1920</ele>
        <time>2012-08-26T13:30:19Z</time>
      </trkpt>
      <trkpt lat="44.24594" lon="7.04694">
        <ele>1920</ele>
        <time>2012-08-26T13:30:27Z</time>
      </trkpt>
      <trkpt lat="44.24581" lon="7.04698">
        <ele>1920</ele>
        <time>2012-08-26T13:30:35Z</time>
      </trkpt>
      <trkpt lat="44.24574" lon="7.04692">
        <ele>1920</ele>
        <time>2012-08-26T13:30:41Z</time>
      </trkpt>
      <trkpt lat="44.24572" lon="7.0469">
        <ele>1920</ele>
        <time>2012-08-26T13:30:43Z</time>
      </trkpt>
      <trkpt lat="44.2456" lon="7.04689">
        <ele>1920</ele>
        <time>2012-08-26T13:30:52Z</time>
      </trkpt>
      <trkpt lat="44.24554" lon="7.04682">
        <ele>1920</ele>
        <time>2012-08-26T13:30:59Z</time>
      </trkpt>
      <trkpt lat="44.24548" lon="7.04679">
        <ele>1920</ele>
        <time>2012-08-26T13:31:05Z</time>
      </trkpt>
      <trkpt lat="44.24538" lon="7.04675">
        <ele>1920</ele>
        <time>2012-08-26T13:31:15Z</time>
      </trkpt>
      <trkpt lat="44.24534" lon="7.04667">
        <ele>1920</ele>
        <time>2012-08-26T13:31:22Z</time>
      </trkpt>
      <trkpt lat="44.24533" lon="7.04666">
        <ele>1920</ele>
        <time>2012-08-26T13:31:23Z</time>
      </trkpt>
      <trkpt lat="44.24526" lon="7.04659">
        <ele>1920</ele>
        <time>2012-08-26T13:31:32Z</time>
      </trkpt>
      <trkpt lat="44.24522" lon="7.04654">
        <ele>1920</ele>
        <time>2012-08-26T13:31:38Z</time>
      </trkpt>
      <trkpt lat="44.24518" lon="7.04646">
        <ele>1920</ele>
        <time>2012-08-26T13:31:45Z</time>
      </trkpt>
      <trkpt lat="44.24517" lon="7.04644">
        <ele>1920</ele>
        <time>2012-08-26T13:31:46Z</time>
      </trkpt>
      <trkpt lat="44.24516" lon="7.04634">
        <ele>1920</ele>
        <time>2012-08-26T13:31:54Z</time>
      </trkpt>
      <trkpt lat="44.24512" lon="7.04626">
        <ele>1920</ele>
        <time>2012-08-26T13:32:01Z</time>
      </trkpt>
      <trkpt lat="44.24505" lon="7.04622">
        <ele>1920</ele>
        <time>2012-08-26T13:32:09Z</time>
      </trkpt>
      <trkpt lat="44.24498" lon="7.04618">
        <ele>1920</ele>
        <time>2012-08-26T13:32:15Z</time>
      </trkpt>
      <trkpt lat="44.24496" lon="7.04617">
        <ele>1920</ele>
        <time>2012-08-26T13:32:17Z</time>
      </trkpt>
      <trkpt lat="44.24492" lon="7.04609">
        <ele>1920.3131103516</ele>
        <time>2012-08-26T13:32:24Z</time>
      </trkpt>
      <trkpt lat="44.24492" lon="7.04599">
        <ele>1921.5537109375</ele>
        <time>2012-08-26T13:32:31Z</time>
      </trkpt>
      <trkpt lat="44.24488" lon="7.04591">
        <ele>1922.6110839844</ele>
        <time>2012-08-26T13:32:38Z</time>
      </trkpt>
      <trkpt lat="44.24486" lon="7.04587">
        <ele>1922.9996337891</ele>
        <time>2012-08-26T13:32:41Z</time>
      </trkpt>
      <trkpt lat="44.2448" lon="7.04582">
        <ele>1923.5263671875</ele>
        <time>2012-08-26T13:32:49Z</time>
      </trkpt>
      <trkpt lat="44.24476" lon="7.04577">
        <ele>1924.3366699219</ele>
        <time>2012-08-26T13:32:55Z</time>
      </trkpt>
      <trkpt lat="44.2448" lon="7.04568">
        <ele>1926.0634765625</ele>
        <time>2012-08-26T13:33:02Z</time>
      </trkpt>
      <trkpt lat="44.24483" lon="7.04567">
        <ele>1926.3433837891</ele>
        <time>2012-08-26T13:33:04Z</time>
      </trkpt>
      <trkpt lat="44.24485" lon="7.04566">
        <ele>1926.5767822266</ele>
        <time>2012-08-26T13:33:06Z</time>
      </trkpt>
      <trkpt lat="44.24492" lon="7.04561">
        <ele>1927.7407226562</ele>
        <time>2012-08-26T13:33:13Z</time>
      </trkpt>
      <trkpt lat="44.24489" lon="7.04556">
        <ele>1928.4821777344</ele>
        <time>2012-08-26T13:33:17Z</time>
      </trkpt>
      <trkpt lat="44.24482" lon="7.04556">
        <ele>1928.2934570312</ele>
        <time>2012-08-26T13:33:24Z</time>
      </trkpt>
      <trkpt lat="44.24479" lon="7.04555">
        <ele>1928.4033203125</ele>
        <time>2012-08-26T13:33:27Z</time>
      </trkpt>
      <trkpt lat="44.24472" lon="7.04553">
        <ele>1928.4616699219</ele>
        <time>2012-08-26T13:33:34Z</time>
      </trkpt>
      <trkpt lat="44.24466" lon="7.0455">
        <ele>1929.2252197266</ele>
        <time>2012-08-26T13:33:41Z</time>
      </trkpt>
      <trkpt lat="44.24461" lon="7.04544">
        <ele>1930.2974853516</ele>
        <time>2012-08-26T13:33:48Z</time>
      </trkpt>
      <trkpt lat="44.24455" lon="7.0454">
        <ele>1930.9985351562</ele>
        <time>2012-08-26T13:33:54Z</time>
      </trkpt>
      <trkpt lat="44.24446" lon="7.04539">
        <ele>1931.4190673828</ele>
        <time>2012-08-26T13:34:03Z</time>
      </trkpt>
      <trkpt lat="44.24439" lon="7.04537">
        <ele>1932.5196533203</ele>
        <time>2012-08-26T13:34:09Z</time>
      </trkpt>
      <trkpt lat="44.2443" lon="7.04531">
        <ele>1934.6879882812</ele>
        <time>2012-08-26T13:34:18Z</time>
      </trkpt>
      <trkpt lat="44.24425" lon="7.04529">
        <ele>1935.7633056641</ele>
        <time>2012-08-26T13:34:24Z</time>
      </trkpt>
      <trkpt lat="44.24418" lon="7.04525">
        <ele>1937.0509033203</ele>
        <time>2012-08-26T13:34:31Z</time>
      </trkpt>
      <trkpt lat="44.24413" lon="7.0452">
        <ele>1938.1372070312</ele>
        <time>2012-08-26T13:34:38Z</time>
      </trkpt>
      <trkpt lat="44.24405" lon="7.04514">
        <ele>1939.0874023438</ele>
        <time>2012-08-26T13:34:47Z</time>
      </trkpt>
      <trkpt lat="44.24399" lon="7.0451">
        <ele>1939.6136474609</ele>
        <time>2012-08-26T13:34:54Z</time>
      </trkpt>
      <trkpt lat="44.24391" lon="7.04507">
        <ele>1939.9346923828</ele>
        <time>2012-08-26T13:35:01Z</time>
      </trkpt>
      <trkpt lat="44.24383" lon="7.04504">
        <ele>1940</ele>
        <time>2012-08-26T13:35:08Z</time>
      </trkpt>
      <trkpt lat="44.24374" lon="7.04502">
        <ele>1940</ele>
        <time>2012-08-26T13:35:15Z</time>
      </trkpt>
      <trkpt lat="44.24365" lon="7.04499">
        <ele>1940.1842041016</ele>
        <time>2012-08-26T13:35:23Z</time>
      </trkpt>
      <trkpt lat="44.24356" lon="7.04493">
        <ele>1941.1916503906</ele>
        <time>2012-08-26T13:35:31Z</time>
      </trkpt>
      <trkpt lat="44.24349" lon="7.0449">
        <ele>1941.8096923828</ele>
        <time>2012-08-26T13:35:37Z</time>
      </trkpt>
      <trkpt lat="44.24343" lon="7.04483">
        <ele>1943.0799560547</ele>
        <time>2012-08-26T13:35:44Z</time>
      </trkpt>
      <trkpt lat="44.24338" lon="7.04476">
        <ele>1944.2471923828</ele>
        <time>2012-08-26T13:35:51Z</time>
      </trkpt>
      <trkpt lat="44.24331" lon="7.04472">
        <ele>1945.4030761719</ele>
        <time>2012-08-26T13:35:58Z</time>
      </trkpt>
      <trkpt lat="44.24325" lon="7.04471">
        <ele>1947.0806884766</ele>
        <time>2012-08-26T13:36:04Z</time>
      </trkpt>
      <trkpt lat="44.24324" lon="7.04471">
        <ele>1947.5216064453</ele>
        <time>2012-08-26T13:36:05Z</time>
      </trkpt>
      <trkpt lat="44.24318" lon="7.04464">
        <ele>1951.6820068359</ele>
        <time>2012-08-26T13:36:13Z</time>
      </trkpt>
      <trkpt lat="44.24313" lon="7.04459">
        <ele>1955.0045166016</ele>
        <time>2012-08-26T13:36:20Z</time>
      </trkpt>
      <trkpt lat="44.24306" lon="7.04453">
        <ele>1958.2703857422</ele>
        <time>2012-08-26T13:36:28Z</time>
      </trkpt>
      <trkpt lat="44.24302" lon="7.04451">
        <ele>1959.6641845703</ele>
        <time>2012-08-26T13:36:33Z</time>
      </trkpt>
      <trkpt lat="44.24296" lon="7.04447">
        <ele>1961.4792480469</ele>
        <time>2012-08-26T13:36:40Z</time>
      </trkpt>
      <trkpt lat="44.2429" lon="7.04443">
        <ele>1963.0649414062</ele>
        <time>2012-08-26T13:36:47Z</time>
      </trkpt>
      <trkpt lat="44.24286" lon="7.04438">
        <ele>1964.4803466797</ele>
        <time>2012-08-26T13:36:53Z</time>
      </trkpt>
      <trkpt lat="44.2428" lon="7.04432">
        <ele>1966.0812988281</ele>
        <time>2012-08-26T13:37:00Z</time>
      </trkpt>
      <trkpt lat="44.24275" lon="7.04428">
        <ele>1967.6442871094</ele>
        <time>2012-08-26T13:37:06Z</time>
      </trkpt>
      <trkpt lat="44.24268" lon="7.04421">
        <ele>1970.8513183594</ele>
        <time>2012-08-26T13:37:15Z</time>
      </trkpt>
      <trkpt lat="44.24261" lon="7.04416">
        <ele>1973.060546875</ele>
        <time>2012-08-26T13:37:22Z</time>
      </trkpt>
      <trkpt lat="44.24254" lon="7.04409">
        <ele>1975.4693603516</ele>
        <time>2012-08-26T13:37:31Z</time>
      </trkpt>
      <trkpt lat="44.24249" lon="7.04403">
        <ele>1977.01171875</ele>
        <time>2012-08-26T13:37:38Z</time>
      </trkpt>
      <trkpt lat="44.24244" lon="7.04399">
        <ele>1977.9438476562</ele>
        <time>2012-08-26T13:37:45Z</time>
      </trkpt>
      <trkpt lat="44.24238" lon="7.04398">
        <ele>1978.4072265625</ele>
        <time>2012-08-26T13:37:51Z</time>
      </trkpt>
      <trkpt lat="44.24235" lon="7.04399">
        <ele>1978.4948730469</ele>
        <time>2012-08-26T13:37:54Z</time>
      </trkpt>
      <trkpt lat="44.24229" lon="7.044">
        <ele>1978.7894287109</ele>
        <time>2012-08-26T13:38:00Z</time>
      </trkpt>
      <trkpt lat="44.24222" lon="7.04398">
        <ele>1979.3361816406</ele>
        <time>2012-08-26T13:38:07Z</time>
      </trkpt>
      <trkpt lat="44.24213" lon="7.04398">
        <ele>1979.5559082031</ele>
        <time>2012-08-26T13:38:15Z</time>
      </trkpt>
      <trkpt lat="44.24207" lon="7.04395">
        <ele>1979.8112792969</ele>
        <time>2012-08-26T13:38:22Z</time>
      </trkpt>
      <trkpt lat="44.242" lon="7.04392">
        <ele>1979.9490966797</ele>
        <time>2012-08-26T13:38:29Z</time>
      </trkpt>
      <trkpt lat="44.24192" lon="7.04389">
        <ele>1980.2258300781</ele>
        <time>2012-08-26T13:38:38Z</time>
      </trkpt>
      <trkpt lat="44.24186" lon="7.04384">
        <ele>1982.0438232422</ele>
        <time>2012-08-26T13:38:45Z</time>
      </trkpt>
      <trkpt lat="44.24179" lon="7.04378">
        <ele>1984.5002441406</ele>
        <time>2012-08-26T13:38:53Z</time>
      </trkpt>
      <trkpt lat="44.2417" lon="7.04374">
        <ele>1986.4143066406</ele>
        <time>2012-08-26T13:39:01Z</time>
      </trkpt>
      <trkpt lat="44.24162" lon="7.04372">
        <ele>1988.8459472656</ele>
        <time>2012-08-26T13:39:09Z</time>
      </trkpt>
      <trkpt lat="44.24152" lon="7.04369">
        <ele>1992.2440185547</ele>
        <time>2012-08-26T13:39:18Z</time>
      </trkpt>
      <trkpt lat="44.24143" lon="7.04367">
        <ele>1994.9438476562</ele>
        <time>2012-08-26T13:39:26Z</time>
      </trkpt>
      <trkpt lat="44.24134" lon="7.04365">
        <ele>1996.7446289062</ele>
        <time>2012-08-26T13:39:33Z</time>
      </trkpt>
      <trkpt lat="44.24122" lon="7.0436">
        <ele>1998.4656982422</ele>
        <time>2012-08-26T13:39:42Z</time>
      </trkpt>
      <trkpt lat="44.24112" lon="7.04355">
        <ele>2001.29296875</ele>
        <time>2012-08-26T13:39:50Z</time>
      </trkpt>
      <trkpt lat="44.24102" lon="7.04347">
        <ele>2006.1456298828</ele>
        <time>2012-08-26T13:39:58Z</time>
      </trkpt>
      <trkpt lat="44.2409" lon="7.04341">
        <ele>2010.6414794922</ele>
        <time>2012-08-26T13:40:08Z</time>
      </trkpt>
      <trkpt lat="44.24087" lon="7.04336">
        <ele>2013.1357421875</ele>
        <time>2012-08-26T13:40:12Z</time>
      </trkpt>
      <trkpt lat="44.24084" lon="7.04334">
        <ele>2014.6978759766</ele>
        <time>2012-08-26T13:40:16Z</time>
      </trkpt>
      <trkpt lat="44.24079" lon="7.04332">
        <ele>2017.177734375</ele>
        <time>2012-08-26T13:40:20Z</time>
      </trkpt>
      <trkpt lat="44.2407" lon="7.04329">
        <ele>2020.9931640625</ele>
        <time>2012-08-26T13:40:28Z</time>
      </trkpt>
      <trkpt lat="44.24058" lon="7.04326">
        <ele>2026.1180419922</ele>
        <time>2012-08-26T13:40:38Z</time>
      </trkpt>
      <trkpt lat="44.24047" lon="7.04323">
        <ele>2029.3837890625</ele>
        <time>2012-08-26T13:40:47Z</time>
      </trkpt>
      <trkpt lat="44.24044" lon="7.04321">
        <ele>2030.8946533203</ele>
        <time>2012-08-26T13:40:50Z</time>
      </trkpt>
      <trkpt lat="44.2404" lon="7.04316">
        <ele>2032.9997558594</ele>
        <time>2012-08-26T13:40:54Z</time>
      </trkpt>
      <trkpt lat="44.24037" lon="7.04315">
        <ele>2033.9927978516</ele>
        <time>2012-08-26T13:40:56Z</time>
      </trkpt>
      <trkpt lat="44.24033" lon="7.0431">
        <ele>2036.0679931641</ele>
        <time>2012-08-26T13:41:00Z</time>
      </trkpt>
      <trkpt lat="44.24022" lon="7.04303">
        <ele>2039.4862060547</ele>
        <time>2012-08-26T13:41:09Z</time>
      </trkpt>
      <trkpt lat="44.24015" lon="7.04296">
        <ele>2042.1359863281</ele>
        <time>2012-08-26T13:41:16Z</time>
      </trkpt>
      <trkpt lat="44.24011" lon="7.04289">
        <ele>2044.2860107422</ele>
        <time>2012-08-26T13:41:22Z</time>
      </trkpt>
      <trkpt lat="44.24009" lon="7.04284">
        <ele>2045.5847167969</ele>
        <time>2012-08-26T13:41:26Z</time>
      </trkpt>
      <trkpt lat="44.23999" lon="7.04281">
        <ele>2047.4420166016</ele>
        <time>2012-08-26T13:41:35Z</time>
      </trkpt>
      <trkpt lat="44.23993" lon="7.04274">
        <ele>2049.8540039062</ele>
        <time>2012-08-26T13:41:43Z</time>
      </trkpt>
      <trkpt lat="44.23991" lon="7.04268">
        <ele>2051.5666503906</ele>
        <time>2012-08-26T13:41:48Z</time>
      </trkpt>
      <trkpt lat="44.23992" lon="7.04263">
        <ele>2052.4787597656</ele>
        <time>2012-08-26T13:41:51Z</time>
      </trkpt>
      <trkpt lat="44.23996" lon="7.0426">
        <ele>2052.9282226562</ele>
        <time>2012-08-26T13:41:55Z</time>
      </trkpt>
      <trkpt lat="44.24002" lon="7.0426">
        <ele>2052.3771972656</ele>
        <time>2012-08-26T13:42:00Z</time>
      </trkpt>
      <trkpt lat="44.24005" lon="7.0425">
        <ele>2054.4870605469</ele>
        <time>2012-08-26T13:42:09Z</time>
      </trkpt>
      <trkpt lat="44.24003" lon="7.04248">
        <ele>2055.3073730469</ele>
        <time>2012-08-26T13:42:11Z</time>
      </trkpt>
      <trkpt lat="44.23998" lon="7.04243">
        <ele>2057.3647460938</ele>
        <time>2012-08-26T13:42:17Z</time>
      </trkpt>
      <trkpt lat="44.23991" lon="7.04232">
        <ele>2061.4897460938</ele>
        <time>2012-08-26T13:42:27Z</time>
      </trkpt>
      <trkpt lat="44.23987" lon="7.04226">
        <ele>2063.6303710938</ele>
        <time>2012-08-26T13:42:33Z</time>
      </trkpt>
      <trkpt lat="44.23985" lon="7.04223">
        <ele>2064.7839355469</ele>
        <time>2012-08-26T13:42:36Z</time>
      </trkpt>
      <trkpt lat="44.2398" lon="7.04217">
        <ele>2067.1220703125</ele>
        <time>2012-08-26T13:42:43Z</time>
      </trkpt>
      <trkpt lat="44.23977" lon="7.04211">
        <ele>2069.2661132812</ele>
        <time>2012-08-26T13:42:49Z</time>
      </trkpt>
      <trkpt lat="44.23974" lon="7.04204">
        <ele>2071.8530273438</ele>
        <time>2012-08-26T13:42:55Z</time>
      </trkpt>
      <trkpt lat="44.2397" lon="7.04197">
        <ele>2074.1865234375</ele>
        <time>2012-08-26T13:43:02Z</time>
      </trkpt>
      <trkpt lat="44.23964" lon="7.04192">
        <ele>2075.7673339844</ele>
        <time>2012-08-26T13:43:09Z</time>
      </trkpt>
      <trkpt lat="44.23959" lon="7.04188">
        <ele>2076.8935546875</ele>
        <time>2012-08-26T13:43:15Z</time>
      </trkpt>
      <trkpt lat="44.23953" lon="7.04183">
        <ele>2078.431640625</ele>
        <time>2012-08-26T13:43:22Z</time>
      </trkpt>
      <trkpt lat="44.23948" lon="7.04176">
        <ele>2080.216796875</ele>
        <time>2012-08-26T13:43:28Z</time>
      </trkpt>
      <trkpt lat="44.23942" lon="7.04166">
        <ele>2083.2409667969</ele>
        <time>2012-08-26T13:43:37Z</time>
      </trkpt>
      <trkpt lat="44.23937" lon="7.04157">
        <ele>2085.3642578125</ele>
        <time>2012-08-26T13:43:44Z</time>
      </trkpt>
      <trkpt lat="44.23936" lon="7.04155">
        <ele>2085.7116699219</ele>
        <time>2012-08-26T13:43:45Z</time>
      </trkpt>
      <trkpt lat="44.23934" lon="7.0415">
        <ele>2086.9223632812</ele>
        <time>2012-08-26T13:43:49Z</time>
      </trkpt>
      <trkpt lat="44.2393" lon="7.04143">
        <ele>2088.4643554688</ele>
        <time>2012-08-26T13:43:55Z</time>
      </trkpt>
      <trkpt lat="44.23927" lon="7.04137">
        <ele>2089.984375</ele>
        <time>2012-08-26T13:44:00Z</time>
      </trkpt>
      <trkpt lat="44.2392" lon="7.0413">
        <ele>2091.6323242188</ele>
        <time>2012-08-26T13:44:08Z</time>
      </trkpt>
      <trkpt lat="44.23912" lon="7.04126">
        <ele>2092.5939941406</ele>
        <time>2012-08-26T13:44:15Z</time>
      </trkpt>
      <trkpt lat="44.23905" lon="7.0412">
        <ele>2094.1062011719</ele>
        <time>2012-08-26T13:44:23Z</time>
      </trkpt>
      <trkpt lat="44.239" lon="7.04117">
        <ele>2094.9250488281</ele>
        <time>2012-08-26T13:44:29Z</time>
      </trkpt>
      <trkpt lat="44.23894" lon="7.04112">
        <ele>2095.9445800781</ele>
        <time>2012-08-26T13:44:36Z</time>
      </trkpt>
      <trkpt lat="44.23887" lon="7.04108">
        <ele>2096.8354492188</ele>
        <time>2012-08-26T13:44:44Z</time>
      </trkpt>
      <trkpt lat="44.23884" lon="7.04105">
        <ele>2097.4189453125</ele>
        <time>2012-08-26T13:44:47Z</time>
      </trkpt>
      <trkpt lat="44.2388" lon="7.04101">
        <ele>2098.4453125</ele>
        <time>2012-08-26T13:44:52Z</time>
      </trkpt>
      <trkpt lat="44.23872" lon="7.04096">
        <ele>2099.4077148438</ele>
        <time>2012-08-26T13:45:02Z</time>
      </trkpt>
      <trkpt lat="44.23866" lon="7.04094">
        <ele>2099.8823242188</ele>
        <time>2012-08-26T13:45:09Z</time>
      </trkpt>
      <trkpt lat="44.23859" lon="7.04099">
        <ele>2098.7619628906</ele>
        <time>2012-08-26T13:45:17Z</time>
      </trkpt>
      <trkpt lat="44.23855" lon="7.041">
        <ele>2098.5727539062</ele>
        <time>2012-08-26T13:45:20Z</time>
      </trkpt>
      <trkpt lat="44.23854" lon="7.04092">
        <ele>2100.3383789062</ele>
        <time>2012-08-26T13:45:25Z</time>
      </trkpt>
      <trkpt lat="44.23854" lon="7.0409">
        <ele>2100.6728515625</ele>
        <time>2012-08-26T13:45:26Z</time>
      </trkpt>
      <trkpt lat="44.23861" lon="7.04083">
        <ele>2102.2194824219</ele>
        <time>2012-08-26T13:45:34Z</time>
      </trkpt>
      <trkpt lat="44.23863" lon="7.0408">
        <ele>2103.1062011719</ele>
        <time>2012-08-26T13:45:37Z</time>
      </trkpt>
      <trkpt lat="44.23861" lon="7.04074">
        <ele>2105.2709960938</ele>
        <time>2012-08-26T13:45:43Z</time>
      </trkpt>
      <trkpt lat="44.23858" lon="7.04074">
        <ele>2105.2419433594</ele>
        <time>2012-08-26T13:45:46Z</time>
      </trkpt>
      <trkpt lat="44.23849" lon="7.04079">
        <ele>2103.8293457031</ele>
        <time>2012-08-26T13:45:54Z</time>
      </trkpt>
      <trkpt lat="44.23848" lon="7.04079">
        <ele>2103.6604003906</ele>
        <time>2012-08-26T13:45:55Z</time>
      </trkpt>
      <trkpt lat="44.23846" lon="7.0408">
        <ele>2103.3771972656</ele>
        <time>2012-08-26T13:45:57Z</time>
      </trkpt>
      <trkpt lat="44.23841" lon="7.04076">
        <ele>2104.5373535156</ele>
        <time>2012-08-26T13:46:03Z</time>
      </trkpt>
      <trkpt lat="44.23845" lon="7.04068">
        <ele>2106.8566894531</ele>
        <time>2012-08-26T13:46:09Z</time>
      </trkpt>
      <trkpt lat="44.2385" lon="7.04066">
        <ele>2107.6723632812</ele>
        <time>2012-08-26T13:46:14Z</time>
      </trkpt>
      <trkpt lat="44.23849" lon="7.0406">
        <ele>2109.4462890625</ele>
        <time>2012-08-26T13:46:19Z</time>
      </trkpt>
      <trkpt lat="44.23848" lon="7.04058">
        <ele>2109.7331542969</ele>
        <time>2012-08-26T13:46:21Z</time>
      </trkpt>
      <trkpt lat="44.2384" lon="7.04059">
        <ele>2108.8315429688</ele>
        <time>2012-08-26T13:46:28Z</time>
      </trkpt>
      <trkpt lat="44.23838" lon="7.0406">
        <ele>2108.5231933594</ele>
        <time>2012-08-26T13:46:30Z</time>
      </trkpt>
      <trkpt lat="44.23832" lon="7.04063">
        <ele>2107.2863769531</ele>
        <time>2012-08-26T13:46:36Z</time>
      </trkpt>
      <trkpt lat="44.23827" lon="7.04061">
        <ele>2107.5163574219</ele>
        <time>2012-08-26T13:46:41Z</time>
      </trkpt>
      <trkpt lat="44.23829" lon="7.04051">
        <ele>2109.5795898438</ele>
        <time>2012-08-26T13:46:48Z</time>
      </trkpt>
      <trkpt lat="44.23832" lon="7.04048">
        <ele>2110.341796875</ele>
        <time>2012-08-26T13:46:53Z</time>
      </trkpt>
      <trkpt lat="44.2383" lon="7.04046">
        <ele>2110.6540527344</ele>
        <time>2012-08-26T13:46:56Z</time>
      </trkpt>
      <trkpt lat="44.23822" lon="7.04048">
        <ele>2109.9846191406</ele>
        <time>2012-08-26T13:47:03Z</time>
      </trkpt>
      <trkpt lat="44.23821" lon="7.04048">
        <ele>2109.9143066406</ele>
        <time>2012-08-26T13:47:04Z</time>
      </trkpt>
      <trkpt lat="44.2382" lon="7.04048">
        <ele>2109.9450683594</ele>
        <time>2012-08-26T13:47:06Z</time>
      </trkpt>
      <trkpt lat="44.23821" lon="7.04039">
        <ele>2111.5571289062</ele>
        <time>2012-08-26T13:47:12Z</time>
      </trkpt>
      <trkpt lat="44.23827" lon="7.04033">
        <ele>2112.8273925781</ele>
        <time>2012-08-26T13:47:20Z</time>
      </trkpt>
      <trkpt lat="44.23823" lon="7.0403">
        <ele>2113.1791992188</ele>
        <time>2012-08-26T13:47:25Z</time>
      </trkpt>
      <trkpt lat="44.23819" lon="7.04031">
        <ele>2112.8615722656</ele>
        <time>2012-08-26T13:47:28Z</time>
      </trkpt>
      <trkpt lat="44.23815" lon="7.04033">
        <ele>2112.453125</ele>
        <time>2012-08-26T13:47:32Z</time>
      </trkpt>
      <trkpt lat="44.23812" lon="7.04035">
        <ele>2112.0358886719</ele>
        <time>2012-08-26T13:47:35Z</time>
      </trkpt>
      <trkpt lat="44.23807" lon="7.04031">
        <ele>2112.482421875</ele>
        <time>2012-08-26T13:47:42Z</time>
      </trkpt>
      <trkpt lat="44.23804" lon="7.04024">
        <ele>2113.8366699219</ele>
        <time>2012-08-26T13:47:48Z</time>
      </trkpt>
      <trkpt lat="44.23801" lon="7.04017">
        <ele>2115.7592773438</ele>
        <time>2012-08-26T13:47:55Z</time>
      </trkpt>
      <trkpt lat="44.23796" lon="7.04014">
        <ele>2116.5883789062</ele>
        <time>2012-08-26T13:48:02Z</time>
      </trkpt>
      <trkpt lat="44.23788" lon="7.04016">
        <ele>2116.0356445312</ele>
        <time>2012-08-26T13:48:10Z</time>
      </trkpt>
      <trkpt lat="44.23781" lon="7.04017">
        <ele>2115.8073730469</ele>
        <time>2012-08-26T13:48:17Z</time>
      </trkpt>
      <trkpt lat="44.23777" lon="7.04014">
        <ele>2116.4152832031</ele>
        <time>2012-08-26T13:48:21Z</time>
      </trkpt>
      <trkpt lat="44.23772" lon="7.04007">
        <ele>2118.3017578125</ele>
        <time>2012-08-26T13:48:29Z</time>
      </trkpt>
      <trkpt lat="44.23766" lon="7.04003">
        <ele>2119.1901855469</ele>
        <time>2012-08-26T13:48:36Z</time>
      </trkpt>
      <trkpt lat="44.23761" lon="7.03998">
        <ele>2120.7639160156</ele>
        <time>2012-08-26T13:48:42Z</time>
      </trkpt>
      <trkpt lat="44.23758" lon="7.03997">
        <ele>2121.4848632812</ele>
        <time>2012-08-26T13:48:46Z</time>
      </trkpt>
      <trkpt lat="44.23757" lon="7.03996">
        <ele>2121.7319335938</ele>
        <time>2012-08-26T13:48:47Z</time>
      </trkpt>
      <trkpt lat="44.23753" lon="7.03989">
        <ele>2124.9248046875</ele>
        <time>2012-08-26T13:48:53Z</time>
      </trkpt>
      <trkpt lat="44.23753" lon="7.03987">
        <ele>2125.4604492188</ele>
        <time>2012-08-26T13:48:54Z</time>
      </trkpt>
      <trkpt lat="44.23754" lon="7.03984">
        <ele>2126.7583007812</ele>
        <time>2012-08-26T13:48:56Z</time>
      </trkpt>
      <trkpt lat="44.2376" lon="7.03983">
        <ele>2127.541015625</ele>
        <time>2012-08-26T13:49:02Z</time>
      </trkpt>
      <trkpt lat="44.23766" lon="7.03982">
        <ele>2127.8911132812</ele>
        <time>2012-08-26T13:49:08Z</time>
      </trkpt>
      <trkpt lat="44.23766" lon="7.03975">
        <ele>2130.81640625</ele>
        <time>2012-08-26T13:49:14Z</time>
      </trkpt>
      <trkpt lat="44.2376" lon="7.03971">
        <ele>2132.4008789062</ele>
        <time>2012-08-26T13:49:20Z</time>
      </trkpt>
      <trkpt lat="44.23757" lon="7.0397">
        <ele>2133.0153808594</ele>
        <time>2012-08-26T13:49:23Z</time>
      </trkpt>
      <trkpt lat="44.23749" lon="7.03965">
        <ele>2135.0068359375</ele>
        <time>2012-08-26T13:49:32Z</time>
      </trkpt>
      <trkpt lat="44.23741" lon="7.03957">
        <ele>2138.1838378906</ele>
        <time>2012-08-26T13:49:41Z</time>
      </trkpt>
      <trkpt lat="44.23736" lon="7.03952">
        <ele>2140.0109863281</ele>
        <time>2012-08-26T13:49:47Z</time>
      </trkpt>
      <trkpt lat="44.23734" lon="7.03948">
        <ele>2141.5490722656</ele>
        <time>2012-08-26T13:49:52Z</time>
      </trkpt>
      <trkpt lat="44.23732" lon="7.03946">
        <ele>2142.3610839844</ele>
        <time>2012-08-26T13:50:08Z</time>
      </trkpt>
      <trkpt lat="44.23729" lon="7.03942">
        <ele>2143.8874511719</ele>
        <time>2012-08-26T13:50:12Z</time>
      </trkpt>
      <trkpt lat="44.23724" lon="7.03937">
        <ele>2145.8889160156</ele>
        <time>2012-08-26T13:50:18Z</time>
      </trkpt>
      <trkpt lat="44.23719" lon="7.0393">
        <ele>2148.34765625</ele>
        <time>2012-08-26T13:50:25Z</time>
      </trkpt>
      <trkpt lat="44.23714" lon="7.03922">
        <ele>2150.9289550781</ele>
        <time>2012-08-26T13:50:33Z</time>
      </trkpt>
      <trkpt lat="44.23709" lon="7.03915">
        <ele>2153.2387695312</ele>
        <time>2012-08-26T13:50:40Z</time>
      </trkpt>
      <trkpt lat="44.23705" lon="7.03908">
        <ele>2155.0678710938</ele>
        <time>2012-08-26T13:50:46Z</time>
      </trkpt>
      <trkpt lat="44.23701" lon="7.03903">
        <ele>2156.3142089844</ele>
        <time>2012-08-26T13:50:51Z</time>
      </trkpt>
      <trkpt lat="44.23697" lon="7.03904">
        <ele>2155.3364257812</ele>
        <time>2012-08-26T13:50:56Z</time>
      </trkpt>
      <trkpt lat="44.23689" lon="7.0391">
        <ele>2153.2365722656</ele>
        <time>2012-08-26T13:51:04Z</time>
      </trkpt>
      <trkpt lat="44.23687" lon="7.03911">
        <ele>2152.9975585938</ele>
        <time>2012-08-26T13:51:06Z</time>
      </trkpt>
      <trkpt lat="44.2368" lon="7.03917">
        <ele>2151.3955078125</ele>
        <time>2012-08-26T13:51:15Z</time>
      </trkpt>
      <trkpt lat="44.23676" lon="7.03923">
        <ele>2149.9787597656</ele>
        <time>2012-08-26T13:51:21Z</time>
      </trkpt>
      <trkpt lat="44.23673" lon="7.0393">
        <ele>2148.5991210938</ele>
        <time>2012-08-26T13:51:27Z</time>
      </trkpt>
      <trkpt lat="44.2367" lon="7.03936">
        <ele>2147.4077148438</ele>
        <time>2012-08-26T13:51:33Z</time>
      </trkpt>
      <trkpt lat="44.23666" lon="7.0394">
        <ele>2147.1606445312</ele>
        <time>2012-08-26T13:51:38Z</time>
      </trkpt>
      <trkpt lat="44.23657" lon="7.03941">
        <ele>2149.4475097656</ele>
        <time>2012-08-26T13:51:46Z</time>
      </trkpt>
      <trkpt lat="44.2365" lon="7.03942">
        <ele>2151.2941894531</ele>
        <time>2012-08-26T13:51:53Z</time>
      </trkpt>
      <trkpt lat="44.23642" lon="7.03949">
        <ele>2152.3918457031</ele>
        <time>2012-08-26T13:52:02Z</time>
      </trkpt>
      <trkpt lat="44.23638" lon="7.03956">
        <ele>2152.6901855469</ele>
        <time>2012-08-26T13:52:08Z</time>
      </trkpt>
      <trkpt lat="44.23632" lon="7.03959">
        <ele>2154.2541503906</ele>
        <time>2012-08-26T13:52:14Z</time>
      </trkpt>
      <trkpt lat="44.23624" lon="7.03962">
        <ele>2156.9035644531</ele>
        <time>2012-08-26T13:52:22Z</time>
      </trkpt>
      <trkpt lat="44.23616" lon="7.03967">
        <ele>2160.2160644531</ele>
        <time>2012-08-26T13:52:31Z</time>
      </trkpt>
      <trkpt lat="44.23608" lon="7.0397">
        <ele>2164.5405273438</ele>
        <time>2012-08-26T13:52:40Z</time>
      </trkpt>
      <trkpt lat="44.23606" lon="7.03971">
        <ele>2165.498046875</ele>
        <time>2012-08-26T13:52:42Z</time>
      </trkpt>
      <trkpt lat="44.23598" lon="7.0397">
        <ele>2169.1838378906</ele>
        <time>2012-08-26T13:52:49Z</time>
      </trkpt>
      <trkpt lat="44.23596" lon="7.03967">
        <ele>2170.7722167969</ele>
        <time>2012-08-26T13:52:52Z</time>
      </trkpt>
      <trkpt lat="44.23598" lon="7.03957">
        <ele>2170.498046875</ele>
        <time>2012-08-26T13:53:00Z</time>
      </trkpt>
      <trkpt lat="44.23605" lon="7.03952">
        <ele>2165.7868652344</ele>
        <time>2012-08-26T13:53:07Z</time>
      </trkpt>
      <trkpt lat="44.23611" lon="7.03946">
        <ele>2160.1574707031</ele>
        <time>2012-08-26T13:53:15Z</time>
      </trkpt>
      <trkpt lat="44.23611" lon="7.03941">
        <ele>2159.931640625</ele>
        <time>2012-08-26T13:53:19Z</time>
      </trkpt>
      <trkpt lat="44.2361" lon="7.03933">
        <ele>2160.9272460938</ele>
        <time>2012-08-26T13:53:26Z</time>
      </trkpt>
      <trkpt lat="44.23606" lon="7.03923">
        <ele>2166.6416015625</ele>
        <time>2012-08-26T13:53:34Z</time>
      </trkpt>
      <trkpt lat="44.23603" lon="7.03907">
        <ele>2171.4885253906</ele>
        <time>2012-08-26T13:53:44Z</time>
      </trkpt>
      <trkpt lat="44.23603" lon="7.03895">
        <ele>2171.3469238281</ele>
        <time>2012-08-26T13:53:52Z</time>
      </trkpt>
      <trkpt lat="44.23604" lon="7.03887">
        <ele>2170.1726074219</ele>
        <time>2012-08-26T13:53:58Z</time>
      </trkpt>
      <trkpt lat="44.23604" lon="7.0388">
        <ele>2171.4604492188</ele>
        <time>2012-08-26T13:54:03Z</time>
      </trkpt>
      <trkpt lat="44.23604" lon="7.03874">
        <ele>2172.1865234375</ele>
        <time>2012-08-26T13:54:08Z</time>
      </trkpt>
      <trkpt lat="44.23603" lon="7.03869">
        <ele>2173.275390625</ele>
        <time>2012-08-26T13:54:14Z</time>
      </trkpt>
      <trkpt lat="44.23602" lon="7.03861">
        <ele>2174.4558105469</ele>
        <time>2012-08-26T13:54:20Z</time>
      </trkpt>
      <trkpt lat="44.236" lon="7.03853">
        <ele>2176.2153320312</ele>
        <time>2012-08-26T13:54:26Z</time>
      </trkpt>
      <trkpt lat="44.23597" lon="7.03845">
        <ele>2178.0861816406</ele>
        <time>2012-08-26T13:54:33Z</time>
      </trkpt>
      <trkpt lat="44.23594" lon="7.03833">
        <ele>2180.0043945312</ele>
        <time>2012-08-26T13:54:42Z</time>
      </trkpt>
      <trkpt lat="44.23591" lon="7.03826">
        <ele>2180.5903320312</ele>
        <time>2012-08-26T13:54:48Z</time>
      </trkpt>
      <trkpt lat="44.23586" lon="7.03816">
        <ele>2180.4689941406</ele>
        <time>2012-08-26T13:54:56Z</time>
      </trkpt>
      <trkpt lat="44.23584" lon="7.03814">
        <ele>2180.0551757812</ele>
        <time>2012-08-26T13:54:59Z</time>
      </trkpt>
      <trkpt lat="44.2358" lon="7.03813">
        <ele>2180</ele>
        <time>2012-08-26T13:55:03Z</time>
      </trkpt>
      <trkpt lat="44.23577" lon="7.03817">
        <ele>2180</ele>
        <time>2012-08-26T13:55:07Z</time>
      </trkpt>
      <trkpt lat="44.23574" lon="7.03826">
        <ele>2180</ele>
        <time>2012-08-26T13:55:14Z</time>
      </trkpt>
      <trkpt lat="44.23573" lon="7.03835">
        <ele>2180.3793945312</ele>
        <time>2012-08-26T13:55:20Z</time>
      </trkpt>
      <trkpt lat="44.23571" lon="7.03841">
        <ele>2182.1513671875</ele>
        <time>2012-08-26T13:55:24Z</time>
      </trkpt>
      <trkpt lat="44.23571" lon="7.03851">
        <ele>2185.3967285156</ele>
        <time>2012-08-26T13:55:31Z</time>
      </trkpt>
      <trkpt lat="44.2357" lon="7.03862">
        <ele>2189.3845214844</ele>
        <time>2012-08-26T13:55:38Z</time>
      </trkpt>
      <trkpt lat="44.23567" lon="7.03871">
        <ele>2193.6215820312</ele>
        <time>2012-08-26T13:55:45Z</time>
      </trkpt>
      <trkpt lat="44.23565" lon="7.03881">
        <ele>2197.2414550781</ele>
        <time>2012-08-26T13:55:53Z</time>
      </trkpt>
      <trkpt lat="44.2356" lon="7.03885">
        <ele>2199.4565429688</ele>
        <time>2012-08-26T13:55:59Z</time>
      </trkpt>
      <trkpt lat="44.23552" lon="7.03884">
        <ele>2201.3273925781</ele>
        <time>2012-08-26T13:56:07Z</time>
      </trkpt>
      <trkpt lat="44.23551" lon="7.03883">
        <ele>2201.427734375</ele>
        <time>2012-08-26T13:56:08Z</time>
      </trkpt>
      <trkpt lat="44.23549" lon="7.03876">
        <ele>2201.8884277344</ele>
        <time>2012-08-26T13:56:14Z</time>
      </trkpt>
      <trkpt lat="44.23549" lon="7.03867">
        <ele>2201.87890625</ele>
        <time>2012-08-26T13:56:22Z</time>
      </trkpt>
      <trkpt lat="44.23545" lon="7.0386">
        <ele>2202.5798339844</ele>
        <time>2012-08-26T13:56:29Z</time>
      </trkpt>
      <trkpt lat="44.2354" lon="7.03857">
        <ele>2202.4255371094</ele>
        <time>2012-08-26T13:56:35Z</time>
      </trkpt>
      <trkpt lat="44.23536" lon="7.03856">
        <ele>2203.9895019531</ele>
        <time>2012-08-26T13:56:39Z</time>
      </trkpt>
      <trkpt lat="44.23529" lon="7.03854">
        <ele>2206.0666503906</ele>
        <time>2012-08-26T13:56:47Z</time>
      </trkpt>
      <trkpt lat="44.23528" lon="7.03853">
        <ele>2205.9470214844</ele>
        <time>2012-08-26T13:56:48Z</time>
      </trkpt>
      <trkpt lat="44.23529" lon="7.03842">
        <ele>2203.3427734375</ele>
        <time>2012-08-26T13:56:56Z</time>
      </trkpt>
      <trkpt lat="44.23528" lon="7.03834">
        <ele>2202.3383789062</ele>
        <time>2012-08-26T13:57:03Z</time>
      </trkpt>
      <trkpt lat="44.23524" lon="7.03824">
        <ele>2198.3515625</ele>
        <time>2012-08-26T13:57:11Z</time>
      </trkpt>
      <trkpt lat="44.23523" lon="7.03822">
        <ele>2197.7338867188</ele>
        <time>2012-08-26T13:57:13Z</time>
      </trkpt>
      <trkpt lat="44.2352" lon="7.03812">
        <ele>2194.2084960938</ele>
        <time>2012-08-26T13:57:20Z</time>
      </trkpt>
      <trkpt lat="44.2352" lon="7.03809">
        <ele>2193.044921875</ele>
        <time>2012-08-26T13:57:22Z</time>
      </trkpt>
      <trkpt lat="44.23516" lon="7.03798">
        <ele>2192.5244140625</ele>
        <time>2012-08-26T13:57:30Z</time>
      </trkpt>
      <trkpt lat="44.23511" lon="7.03792">
        <ele>2195.0227050781</ele>
        <time>2012-08-26T13:57:37Z</time>
      </trkpt>
      <trkpt lat="44.23505" lon="7.03793">
        <ele>2199.1318359375</ele>
        <time>2012-08-26T13:57:43Z</time>
      </trkpt>
      <trkpt lat="44.23497" lon="7.03788">
        <ele>2201.7719726562</ele>
        <time>2012-08-26T13:57:52Z</time>
      </trkpt>
      <trkpt lat="44.2349" lon="7.03788">
        <ele>2204.6557617188</ele>
        <time>2012-08-26T13:58:00Z</time>
      </trkpt>
      <trkpt lat="44.23483" lon="7.03789">
        <ele>2207.2099609375</ele>
        <time>2012-08-26T13:58:07Z</time>
      </trkpt>
      <trkpt lat="44.23479" lon="7.03795">
        <ele>2210.505859375</ele>
        <time>2012-08-26T13:58:14Z</time>
      </trkpt>
      <trkpt lat="44.23477" lon="7.03802">
        <ele>2213.0739746094</ele>
        <time>2012-08-26T13:58:20Z</time>
      </trkpt>
      <trkpt lat="44.23471" lon="7.03802">
        <ele>2215.4213867188</ele>
        <time>2012-08-26T13:58:27Z</time>
      </trkpt>
      <trkpt lat="44.23468" lon="7.03798">
        <ele>2215.0778808594</ele>
        <time>2012-08-26T13:58:33Z</time>
      </trkpt>
      <trkpt lat="44.23468" lon="7.03791">
        <ele>2213.0014648438</ele>
        <time>2012-08-26T13:58:39Z</time>
      </trkpt>
      <trkpt lat="44.23471" lon="7.03782">
        <ele>2209.5541992188</ele>
        <time>2012-08-26T13:58:46Z</time>
      </trkpt>
      <trkpt lat="44.23469" lon="7.03772">
        <ele>2207.2216796875</ele>
        <time>2012-08-26T13:58:54Z</time>
      </trkpt>
      <trkpt lat="44.23463" lon="7.03766">
        <ele>2207.8154296875</ele>
        <time>2012-08-26T13:59:02Z</time>
      </trkpt>
      <trkpt lat="44.23457" lon="7.03762">
        <ele>2208.7487792969</ele>
        <time>2012-08-26T13:59:09Z</time>
      </trkpt>
      <trkpt lat="44.23452" lon="7.03761">
        <ele>2211.0095214844</ele>
        <time>2012-08-26T13:59:15Z</time>
      </trkpt>
      <trkpt lat="44.23446" lon="7.03758">
        <ele>2212.1416015625</ele>
        <time>2012-08-26T13:59:21Z</time>
      </trkpt>
      <trkpt lat="44.23446" lon="7.03752">
        <ele>2211.0349121094</ele>
        <time>2012-08-26T13:59:25Z</time>
      </trkpt>
      <trkpt lat="44.2345" lon="7.03745">
        <ele>2207.8488769531</ele>
        <time>2012-08-26T13:59:32Z</time>
      </trkpt>
      <trkpt lat="44.23454" lon="7.0374">
        <ele>2205.3337402344</ele>
        <time>2012-08-26T13:59:38Z</time>
      </trkpt>
      <trkpt lat="44.23459" lon="7.03733">
        <ele>2202.6545410156</ele>
        <time>2012-08-26T13:59:45Z</time>
      </trkpt>
      <trkpt lat="44.23459" lon="7.03727">
        <ele>2201.96484375</ele>
        <time>2012-08-26T13:59:49Z</time>
      </trkpt>
      <trkpt lat="44.23458" lon="7.03723">
        <ele>2201.6584472656</ele>
        <time>2012-08-26T13:59:52Z</time>
      </trkpt>
      <trkpt lat="44.23455" lon="7.03718">
        <ele>2201.9658203125</ele>
        <time>2012-08-26T13:59:57Z</time>
      </trkpt>
      <trkpt lat="44.23451" lon="7.03716">
        <ele>2202.5515136719</ele>
        <time>2012-08-26T14:00:02Z</time>
      </trkpt>
      <trkpt lat="44.23446" lon="7.03719">
        <ele>2204.1127929688</ele>
        <time>2012-08-26T14:00:09Z</time>
      </trkpt>
      <trkpt lat="44.23439" lon="7.03718">
        <ele>2206.4128417969</ele>
        <time>2012-08-26T14:00:17Z</time>
      </trkpt>
      <trkpt lat="44.23432" lon="7.0372">
        <ele>2208.9877929688</ele>
        <time>2012-08-26T14:00:24Z</time>
      </trkpt>
      <trkpt lat="44.23428" lon="7.03724">
        <ele>2211.1154785156</ele>
        <time>2012-08-26T14:00:29Z</time>
      </trkpt>
      <trkpt lat="44.23427" lon="7.03726">
        <ele>2212.0207519531</ele>
        <time>2012-08-26T14:00:31Z</time>
      </trkpt>
      <trkpt lat="44.2342" lon="7.03725">
        <ele>2214.2377929688</ele>
        <time>2012-08-26T14:00:37Z</time>
      </trkpt>
      <trkpt lat="44.23417" lon="7.03722">
        <ele>2214.7556152344</ele>
        <time>2012-08-26T14:00:44Z</time>
      </trkpt>
      <trkpt lat="44.23419" lon="7.03716">
        <ele>2213.0219726562</ele>
        <time>2012-08-26T14:00:50Z</time>
      </trkpt>
      <trkpt lat="44.23423" lon="7.0371">
        <ele>2210.4555664062</ele>
        <time>2012-08-26T14:00:56Z</time>
      </trkpt>
      <trkpt lat="44.23423" lon="7.03704">
        <ele>2209.5026855469</ele>
        <time>2012-08-26T14:01:01Z</time>
      </trkpt>
      <trkpt lat="44.23418" lon="7.03702">
        <ele>2211.0563964844</ele>
        <time>2012-08-26T14:01:07Z</time>
      </trkpt>
      <trkpt lat="44.23412" lon="7.03709">
        <ele>2214.9145507812</ele>
        <time>2012-08-26T14:01:15Z</time>
      </trkpt>
      <trkpt lat="44.23407" lon="7.03714">
        <ele>2218.66015625</ele>
        <time>2012-08-26T14:01:22Z</time>
      </trkpt>
      <trkpt lat="44.23402" lon="7.03718">
        <ele>2222.1354980469</ele>
        <time>2012-08-26T14:01:28Z</time>
      </trkpt>
      <trkpt lat="44.234" lon="7.03717">
        <ele>2222.6240234375</ele>
        <time>2012-08-26T14:01:29Z</time>
      </trkpt>
      <trkpt lat="44.23396" lon="7.0371">
        <ele>2223.2038574219</ele>
        <time>2012-08-26T14:01:35Z</time>
      </trkpt>
      <trkpt lat="44.234" lon="7.037">
        <ele>2219.1081542969</ele>
        <time>2012-08-26T14:01:43Z</time>
      </trkpt>
      <trkpt lat="44.23402" lon="7.03688">
        <ele>2216.6906738281</ele>
        <time>2012-08-26T14:01:52Z</time>
      </trkpt>
      <trkpt lat="44.23399" lon="7.0368">
        <ele>2217.4099121094</ele>
        <time>2012-08-26T14:01:59Z</time>
      </trkpt>
      <trkpt lat="44.23398" lon="7.03681">
        <ele>2217.8271484375</ele>
        <time>2012-08-26T14:02:00Z</time>
      </trkpt>
      <trkpt lat="44.23393" lon="7.03684">
        <ele>2219.8332519531</ele>
        <time>2012-08-26T14:02:05Z</time>
      </trkpt>
      <trkpt lat="44.23389" lon="7.03684">
        <ele>2221.5393066406</ele>
        <time>2012-08-26T14:02:10Z</time>
      </trkpt>
      <trkpt lat="44.23384" lon="7.03687">
        <ele>2223.7365722656</ele>
        <time>2012-08-26T14:02:16Z</time>
      </trkpt>
      <trkpt lat="44.23376" lon="7.03692">
        <ele>2227.3002929688</ele>
        <time>2012-08-26T14:02:24Z</time>
      </trkpt>
      <trkpt lat="44.23373" lon="7.03691">
        <ele>2228.2683105469</ele>
        <time>2012-08-26T14:02:27Z</time>
      </trkpt>
      <trkpt lat="44.23372" lon="7.03684">
        <ele>2227.7397460938</ele>
        <time>2012-08-26T14:02:32Z</time>
      </trkpt>
      <trkpt lat="44.23375" lon="7.03673">
        <ele>2224.814453125</ele>
        <time>2012-08-26T14:02:40Z</time>
      </trkpt>
      <trkpt lat="44.23375" lon="7.03663">
        <ele>2223.9072265625</ele>
        <time>2012-08-26T14:02:47Z</time>
      </trkpt>
      <trkpt lat="44.23369" lon="7.03661">
        <ele>2225.8081054688</ele>
        <time>2012-08-26T14:02:53Z</time>
      </trkpt>
      <trkpt lat="44.23365" lon="7.03666">
        <ele>2227.5642089844</ele>
        <time>2012-08-26T14:02:58Z</time>
      </trkpt>
      <trkpt lat="44.23361" lon="7.03672">
        <ele>2229.8935546875</ele>
        <time>2012-08-26T14:03:04Z</time>
      </trkpt>
      <trkpt lat="44.2336" lon="7.03673">
        <ele>2230.2233886719</ele>
        <time>2012-08-26T14:03:05Z</time>
      </trkpt>
      <trkpt lat="44.23353" lon="7.03681">
        <ele>2233.3493652344</ele>
        <time>2012-08-26T14:03:14Z</time>
      </trkpt>
      <trkpt lat="44.23349" lon="7.0369">
        <ele>2235.3352050781</ele>
        <time>2012-08-26T14:03:21Z</time>
      </trkpt>
      <trkpt lat="44.23347" lon="7.0369">
        <ele>2235.9501953125</ele>
        <time>2012-08-26T14:03:23Z</time>
      </trkpt>
      <trkpt lat="44.23343" lon="7.0368">
        <ele>2235.8962402344</ele>
        <time>2012-08-26T14:03:31Z</time>
      </trkpt>
      <trkpt lat="44.23345" lon="7.03671">
        <ele>2234.1540527344</ele>
        <time>2012-08-26T14:03:37Z</time>
      </trkpt>
      <trkpt lat="44.2335" lon="7.03663">
        <ele>2231.9448242188</ele>
        <time>2012-08-26T14:03:43Z</time>
      </trkpt>
      <trkpt lat="44.23352" lon="7.03651">
        <ele>2230.5737304688</ele>
        <time>2012-08-26T14:03:51Z</time>
      </trkpt>
      <trkpt lat="44.23353" lon="7.03646">
        <ele>2230.1206054688</ele>
        <time>2012-08-26T14:03:55Z</time>
      </trkpt>
      <trkpt lat="44.23351" lon="7.03645">
        <ele>2230.7604980469</ele>
        <time>2012-08-26T14:03:58Z</time>
      </trkpt>
      <trkpt lat="44.23343" lon="7.03651">
        <ele>2233.375</ele>
        <time>2012-08-26T14:04:06Z</time>
      </trkpt>
      <trkpt lat="44.23343" lon="7.03654">
        <ele>2233.7333984375</ele>
        <time>2012-08-26T14:04:08Z</time>
      </trkpt>
      <trkpt lat="44.23336" lon="7.03661">
        <ele>2235.8916015625</ele>
        <time>2012-08-26T14:04:16Z</time>
      </trkpt>
      <trkpt lat="44.23336" lon="7.03662">
        <ele>2236.1577148438</ele>
        <time>2012-08-26T14:04:17Z</time>
      </trkpt>
      <trkpt lat="44.23329" lon="7.03675">
        <ele>2240.0988769531</ele>
        <time>2012-08-26T14:04:25Z</time>
      </trkpt>
      <trkpt lat="44.23325" lon="7.0369">
        <ele>2244.048828125</ele>
        <time>2012-08-26T14:04:34Z</time>
      </trkpt>
      <trkpt lat="44.23323" lon="7.03692">
        <ele>2245.5217285156</ele>
        <time>2012-08-26T14:04:36Z</time>
      </trkpt>
      <trkpt lat="44.23318" lon="7.03686">
        <ele>2247.2624511719</ele>
        <time>2012-08-26T14:04:42Z</time>
      </trkpt>
      <trkpt lat="44.23318" lon="7.03684">
        <ele>2247.0717773438</ele>
        <time>2012-08-26T14:04:43Z</time>
      </trkpt>
      <trkpt lat="44.23322" lon="7.03672">
        <ele>2243.9406738281</ele>
        <time>2012-08-26T14:04:50Z</time>
      </trkpt>
      <trkpt lat="44.23322" lon="7.03662">
        <ele>2242.7844238281</ele>
        <time>2012-08-26T14:04:56Z</time>
      </trkpt>
      <trkpt lat="44.23322" lon="7.03654">
        <ele>2241.9494628906</ele>
        <time>2012-08-26T14:05:01Z</time>
      </trkpt>
      <trkpt lat="44.23326" lon="7.03635">
        <ele>2239.015625</ele>
        <time>2012-08-26T14:05:12Z</time>
      </trkpt>
      <trkpt lat="44.2333" lon="7.03621">
        <ele>2237.3791503906</ele>
        <time>2012-08-26T14:05:20Z</time>
      </trkpt>
      <trkpt lat="44.2333" lon="7.03616">
        <ele>2237.3061523438</ele>
        <time>2012-08-26T14:05:23Z</time>
      </trkpt>
      <trkpt lat="44.23327" lon="7.03608">
        <ele>2238.279296875</ele>
        <time>2012-08-26T14:05:30Z</time>
      </trkpt>
      <trkpt lat="44.23322" lon="7.0361">
        <ele>2239.6499023438</ele>
        <time>2012-08-26T14:05:35Z</time>
      </trkpt>
      <trkpt lat="44.23318" lon="7.03619">
        <ele>2241.4116210938</ele>
        <time>2012-08-26T14:05:41Z</time>
      </trkpt>
      <trkpt lat="44.23317" lon="7.03622">
        <ele>2242.0092773438</ele>
        <time>2012-08-26T14:05:43Z</time>
      </trkpt>
      <trkpt lat="44.23312" lon="7.03633">
        <ele>2244.7348632812</ele>
        <time>2012-08-26T14:05:50Z</time>
      </trkpt>
      <trkpt lat="44.23307" lon="7.03643">
        <ele>2247.7360839844</ele>
        <time>2012-08-26T14:05:56Z</time>
      </trkpt>
      <trkpt lat="44.23304" lon="7.03638">
        <ele>2248.5651855469</ele>
        <time>2012-08-26T14:06:01Z</time>
      </trkpt>
      <trkpt lat="44.23306" lon="7.03629">
        <ele>2246.6357421875</ele>
        <time>2012-08-26T14:06:06Z</time>
      </trkpt>
      <trkpt lat="44.23309" lon="7.03613">
        <ele>2244.0354003906</ele>
        <time>2012-08-26T14:06:14Z</time>
      </trkpt>
      <trkpt lat="44.23311" lon="7.03595">
        <ele>2243.9982910156</ele>
        <time>2012-08-26T14:06:22Z</time>
      </trkpt>
      <trkpt lat="44.23312" lon="7.03591">
        <ele>2243.9897460938</ele>
        <time>2012-08-26T14:06:24Z</time>
      </trkpt>
      <trkpt lat="44.23307" lon="7.03586">
        <ele>2245.5390625</ele>
        <time>2012-08-26T14:06:30Z</time>
      </trkpt>
      <trkpt lat="44.23306" lon="7.03589">
        <ele>2245.8098144531</ele>
        <time>2012-08-26T14:06:32Z</time>
      </trkpt>
      <trkpt lat="44.23302" lon="7.03603">
        <ele>2246.4313964844</ele>
        <time>2012-08-26T14:06:39Z</time>
      </trkpt>
      <trkpt lat="44.23296" lon="7.03612">
        <ele>2248.2045898438</ele>
        <time>2012-08-26T14:06:45Z</time>
      </trkpt>
      <trkpt lat="44.23292" lon="7.03625">
        <ele>2250.9289550781</ele>
        <time>2012-08-26T14:06:52Z</time>
      </trkpt>
      <trkpt lat="44.23288" lon="7.03637">
        <ele>2253.6120605469</ele>
        <time>2012-08-26T14:06:58Z</time>
      </trkpt>
      <trkpt lat="44.23283" lon="7.03652">
        <ele>2256.55078125</ele>
        <time>2012-08-26T14:07:06Z</time>
      </trkpt>
      <trkpt lat="44.2328" lon="7.03661">
        <ele>2257.9487304688</ele>
        <time>2012-08-26T14:07:12Z</time>
      </trkpt>
      <trkpt lat="44.23273" lon="7.03661">
        <ele>2260.3098144531</ele>
        <time>2012-08-26T14:07:18Z</time>
      </trkpt>
      <trkpt lat="44.23273" lon="7.03654">
        <ele>2259.794921875</ele>
        <time>2012-08-26T14:07:22Z</time>
      </trkpt>
      <trkpt lat="44.23275" lon="7.03641">
        <ele>2258.0712890625</ele>
        <time>2012-08-26T14:07:29Z</time>
      </trkpt>
      <trkpt lat="44.23277" lon="7.03624">
        <ele>2255.9560546875</ele>
        <time>2012-08-26T14:07:37Z</time>
      </trkpt>
      <trkpt lat="44.23277" lon="7.0361">
        <ele>2254.5771484375</ele>
        <time>2012-08-26T14:07:44Z</time>
      </trkpt>
      <trkpt lat="44.23277" lon="7.03594">
        <ele>2254.830078125</ele>
        <time>2012-08-26T14:07:51Z</time>
      </trkpt>
      <trkpt lat="44.23278" lon="7.0358">
        <ele>2255.1867675781</ele>
        <time>2012-08-26T14:07:58Z</time>
      </trkpt>
      <trkpt lat="44.23282" lon="7.03564">
        <ele>2255.8112792969</ele>
        <time>2012-08-26T14:08:07Z</time>
      </trkpt>
      <trkpt lat="44.23284" lon="7.03559">
        <ele>2256.0451660156</ele>
        <time>2012-08-26T14:08:10Z</time>
      </trkpt>
      <trkpt lat="44.23278" lon="7.03558">
        <ele>2257.6184082031</ele>
        <time>2012-08-26T14:08:16Z</time>
      </trkpt>
      <trkpt lat="44.23277" lon="7.03563">
        <ele>2257.7072753906</ele>
        <time>2012-08-26T14:08:20Z</time>
      </trkpt>
      <trkpt lat="44.23275" lon="7.03567">
        <ele>2257.8840332031</ele>
        <time>2012-08-26T14:08:23Z</time>
      </trkpt>
      <trkpt lat="44.23269" lon="7.03579">
        <ele>2258.7902832031</ele>
        <time>2012-08-26T14:08:31Z</time>
      </trkpt>
      <trkpt lat="44.23262" lon="7.03592">
        <ele>2261.2607421875</ele>
        <time>2012-08-26T14:08:39Z</time>
      </trkpt>
      <trkpt lat="44.2326" lon="7.03596">
        <ele>2261.990234375</ele>
        <time>2012-08-26T14:08:42Z</time>
      </trkpt>
      <trkpt lat="44.23256" lon="7.036">
        <ele>2263.3688964844</ele>
        <time>2012-08-26T14:08:46Z</time>
      </trkpt>
      <trkpt lat="44.23253" lon="7.03607">
        <ele>2264.7749023438</ele>
        <time>2012-08-26T14:08:53Z</time>
      </trkpt>
      <trkpt lat="44.23249" lon="7.03616">
        <ele>2267.0329589844</ele>
        <time>2012-08-26T14:09:00Z</time>
      </trkpt>
      <trkpt lat="44.23246" lon="7.0362">
        <ele>2268.9313964844</ele>
        <time>2012-08-26T14:09:04Z</time>
      </trkpt>
      <trkpt lat="44.23242" lon="7.03631">
        <ele>2271.5959472656</ele>
        <time>2012-08-26T14:09:11Z</time>
      </trkpt>
      <trkpt lat="44.23241" lon="7.03632">
        <ele>2272.0837402344</ele>
        <time>2012-08-26T14:09:12Z</time>
      </trkpt>
      <trkpt lat="44.23239" lon="7.0364">
        <ele>2273.9855957031</ele>
        <time>2012-08-26T14:09:18Z</time>
      </trkpt>
      <trkpt lat="44.2324" lon="7.03656">
        <ele>2274.9072265625</ele>
        <time>2012-08-26T14:09:26Z</time>
      </trkpt>
      <trkpt lat="44.23241" lon="7.03667">
        <ele>2275.3950195312</ele>
        <time>2012-08-26T14:09:33Z</time>
      </trkpt>
      <trkpt lat="44.23238" lon="7.03672">
        <ele>2276.9672851562</ele>
        <time>2012-08-26T14:09:37Z</time>
      </trkpt>
      <trkpt lat="44.23234" lon="7.03678">
        <ele>2279.1958007812</ele>
        <time>2012-08-26T14:09:43Z</time>
      </trkpt>
      <trkpt lat="44.23229" lon="7.03682">
        <ele>2281.41796875</ele>
        <time>2012-08-26T14:09:48Z</time>
      </trkpt>
      <trkpt lat="44.23228" lon="7.03683">
        <ele>2281.7602539062</ele>
        <time>2012-08-26T14:09:49Z</time>
      </trkpt>
      <trkpt lat="44.23221" lon="7.03693">
        <ele>2284.478515625</ele>
        <time>2012-08-26T14:09:58Z</time>
      </trkpt>
      <trkpt lat="44.23214" lon="7.03706">
        <ele>2285.1384277344</ele>
        <time>2012-08-26T14:10:07Z</time>
      </trkpt>
      <trkpt lat="44.23212" lon="7.03719">
        <ele>2283.0625</ele>
        <time>2012-08-26T14:10:14Z</time>
      </trkpt>
      <trkpt lat="44.23213" lon="7.03723">
        <ele>2282.1784667969</ele>
        <time>2012-08-26T14:10:16Z</time>
      </trkpt>
      <trkpt lat="44.23212" lon="7.03729">
        <ele>2280.5732421875</ele>
        <time>2012-08-26T14:10:20Z</time>
      </trkpt>
      <trkpt lat="44.23209" lon="7.0374">
        <ele>2277.9914550781</ele>
        <time>2012-08-26T14:10:27Z</time>
      </trkpt>
      <trkpt lat="44.23205" lon="7.03744">
        <ele>2277.1555175781</ele>
        <time>2012-08-26T14:10:31Z</time>
      </trkpt>
      <trkpt lat="44.23201" lon="7.03743">
        <ele>2277.6396484375</ele>
        <time>2012-08-26T14:10:34Z</time>
      </trkpt>
      <trkpt lat="44.232" lon="7.03739">
        <ele>2278.6557617188</ele>
        <time>2012-08-26T14:10:37Z</time>
      </trkpt>
      <trkpt lat="44.23204" lon="7.03729">
        <ele>2280.9802246094</ele>
        <time>2012-08-26T14:10:45Z</time>
      </trkpt>
      <trkpt lat="44.23203" lon="7.03716">
        <ele>2284.7055664062</ele>
        <time>2012-08-26T14:10:54Z</time>
      </trkpt>
      <trkpt lat="44.23201" lon="7.03698">
        <ele>2291.119140625</ele>
        <time>2012-08-26T14:11:04Z</time>
      </trkpt>
      <trkpt lat="44.23201" lon="7.03681">
        <ele>2294.4655761719</ele>
        <time>2012-08-26T14:11:14Z</time>
      </trkpt>
      <trkpt lat="44.23203" lon="7.03668">
        <ele>2295.5900878906</ele>
        <time>2012-08-26T14:11:22Z</time>
      </trkpt>
      <trkpt lat="44.23205" lon="7.03655">
        <ele>2292.9565429688</ele>
        <time>2012-08-26T14:11:30Z</time>
      </trkpt>
      <trkpt lat="44.23207" lon="7.03646">
        <ele>2290.41015625</ele>
        <time>2012-08-26T14:11:36Z</time>
      </trkpt>
      <trkpt lat="44.23209" lon="7.03634">
        <ele>2287.82421875</ele>
        <time>2012-08-26T14:11:42Z</time>
      </trkpt>
      <trkpt lat="44.23209" lon="7.03621">
        <ele>2285.685546875</ele>
        <time>2012-08-26T14:11:50Z</time>
      </trkpt>
      <trkpt lat="44.2321" lon="7.03609">
        <ele>2283.9592285156</ele>
        <time>2012-08-26T14:11:57Z</time>
      </trkpt>
      <trkpt lat="44.2321" lon="7.03597">
        <ele>2283.4602050781</ele>
        <time>2012-08-26T14:12:04Z</time>
      </trkpt>
      <trkpt lat="44.2321" lon="7.0359">
        <ele>2283.2678222656</ele>
        <time>2012-08-26T14:12:08Z</time>
      </trkpt>
      <trkpt lat="44.23205" lon="7.03579">
        <ele>2284.4995117188</ele>
        <time>2012-08-26T14:12:16Z</time>
      </trkpt>
      <trkpt lat="44.23203" lon="7.03577">
        <ele>2285.1069335938</ele>
        <time>2012-08-26T14:12:19Z</time>
      </trkpt>
      <trkpt lat="44.23201" lon="7.03572">
        <ele>2285.5407714844</ele>
        <time>2012-08-26T14:12:25Z</time>
      </trkpt>
      <trkpt lat="44.232" lon="7.03573">
        <ele>2285.6975097656</ele>
        <time>2012-08-26T14:12:29Z</time>
      </trkpt>
      <trkpt lat="44.23197" lon="7.03571">
        <ele>2286.4819335938</ele>
        <time>2012-08-26T14:12:34Z</time>
      </trkpt>
      <trkpt lat="44.2319" lon="7.03564">
        <ele>2288.072265625</ele>
        <time>2012-08-26T14:12:40Z</time>
      </trkpt>
      <trkpt lat="44.23181" lon="7.03552">
        <ele>2289.8447265625</ele>
        <time>2012-08-26T14:12:49Z</time>
      </trkpt>
      <trkpt lat="44.23172" lon="7.03542">
        <ele>2291.0622558594</ele>
        <time>2012-08-26T14:12:57Z</time>
      </trkpt>
      <trkpt lat="44.23164" lon="7.03534">
        <ele>2291.8898925781</ele>
        <time>2012-08-26T14:13:04Z</time>
      </trkpt>
      <trkpt lat="44.23158" lon="7.03531">
        <ele>2292.9104003906</ele>
        <time>2012-08-26T14:13:10Z</time>
      </trkpt>
      <trkpt lat="44.23155" lon="7.0353">
        <ele>2293.2775878906</ele>
        <time>2012-08-26T14:13:12Z</time>
      </trkpt>
      <trkpt lat="44.2315" lon="7.03531">
        <ele>2294.2307128906</ele>
        <time>2012-08-26T14:13:16Z</time>
      </trkpt>
      <trkpt lat="44.2314" lon="7.03535">
        <ele>2296.5869140625</ele>
        <time>2012-08-26T14:13:24Z</time>
      </trkpt>
      <trkpt lat="44.2313" lon="7.0354">
        <ele>2297.9411621094</ele>
        <time>2012-08-26T14:13:32Z</time>
      </trkpt>
      <trkpt lat="44.23119" lon="7.03547">
        <ele>2299.5290527344</ele>
        <time>2012-08-26T14:13:40Z</time>
      </trkpt>
      <trkpt lat="44.23108" lon="7.03556">
        <ele>2301.4733886719</ele>
        <time>2012-08-26T14:13:47Z</time>
      </trkpt>
      <trkpt lat="44.23099" lon="7.03562">
        <ele>2303.2448730469</ele>
        <time>2012-08-26T14:13:53Z</time>
      </trkpt>
      <trkpt lat="44.2309" lon="7.03567">
        <ele>2304.8894042969</ele>
        <time>2012-08-26T14:14:00Z</time>
      </trkpt>
      <trkpt lat="44.23083" lon="7.0357">
        <ele>2306.0922851562</ele>
        <time>2012-08-26T14:14:06Z</time>
      </trkpt>
      <trkpt lat="44.23071" lon="7.0357">
        <ele>2308.4340820312</ele>
        <time>2012-08-26T14:14:12Z</time>
      </trkpt>
      <trkpt lat="44.23059" lon="7.03569">
        <ele>2310.7790527344</ele>
        <time>2012-08-26T14:14:19Z</time>
      </trkpt>
      <trkpt lat="44.23046" lon="7.03569">
        <ele>2313.6147460938</ele>
        <time>2012-08-26T14:14:28Z</time>
      </trkpt>
      <trkpt lat="44.23031" lon="7.03565">
        <ele>2316.8830566406</ele>
        <time>2012-08-26T14:14:36Z</time>
      </trkpt>
      <trkpt lat="44.23018" lon="7.03563">
        <ele>2319.4487304688</ele>
        <time>2012-08-26T14:14:42Z</time>
      </trkpt>
      <trkpt lat="44.23009" lon="7.03565">
        <ele>2321.0932617188</ele>
        <time>2012-08-26T14:14:48Z</time>
      </trkpt>
      <trkpt lat="44.23" lon="7.03568">
        <ele>2322.5581054688</ele>
        <time>2012-08-26T14:14:54Z</time>
      </trkpt>
      <trkpt lat="44.22996" lon="7.03579">
        <ele>2323.4228515625</ele>
        <time>2012-08-26T14:15:00Z</time>
      </trkpt>
      <trkpt lat="44.22996" lon="7.03595">
        <ele>2322.8073730469</ele>
        <time>2012-08-26T14:15:07Z</time>
      </trkpt>
      <trkpt lat="44.22995" lon="7.03616">
        <ele>2321.798828125</ele>
        <time>2012-08-26T14:15:16Z</time>
      </trkpt>
      <trkpt lat="44.22991" lon="7.0363">
        <ele>2321.3598632812</ele>
        <time>2012-08-26T14:15:23Z</time>
      </trkpt>
      <trkpt lat="44.22982" lon="7.03643">
        <ele>2323.2016601562</ele>
        <time>2012-08-26T14:15:30Z</time>
      </trkpt>
      <trkpt lat="44.22973" lon="7.03654">
        <ele>2324.6865234375</ele>
        <time>2012-08-26T14:15:37Z</time>
      </trkpt>
      <trkpt lat="44.22969" lon="7.03663">
        <ele>2324.6904296875</ele>
        <time>2012-08-26T14:15:42Z</time>
      </trkpt>
      <trkpt lat="44.22964" lon="7.03672">
        <ele>2324.6801757812</ele>
        <time>2012-08-26T14:15:48Z</time>
      </trkpt>
      <trkpt lat="44.22954" lon="7.03676">
        <ele>2325.5773925781</ele>
        <time>2012-08-26T14:15:55Z</time>
      </trkpt>
      <trkpt lat="44.22943" lon="7.03673">
        <ele>2327.1833496094</ele>
        <time>2012-08-26T14:16:02Z</time>
      </trkpt>
      <trkpt lat="44.2293" lon="7.03669">
        <ele>2328.2250976562</ele>
        <time>2012-08-26T14:16:10Z</time>
      </trkpt>
      <trkpt lat="44.22923" lon="7.03663">
        <ele>2329.3220214844</ele>
        <time>2012-08-26T14:16:16Z</time>
      </trkpt>
      <trkpt lat="44.22923" lon="7.03653">
        <ele>2330.6884765625</ele>
        <time>2012-08-26T14:16:21Z</time>
      </trkpt>
      <trkpt lat="44.22932" lon="7.03648">
        <ele>2331.0866699219</ele>
        <time>2012-08-26T14:16:27Z</time>
      </trkpt>
      <trkpt lat="44.22934" lon="7.03648">
        <ele>2331.0317382812</ele>
        <time>2012-08-26T14:16:28Z</time>
      </trkpt>
      <trkpt lat="44.22946" lon="7.0365">
        <ele>2330.0446777344</ele>
        <time>2012-08-26T14:16:35Z</time>
      </trkpt>
      <trkpt lat="44.22955" lon="7.03645">
        <ele>2328.9699707031</ele>
        <time>2012-08-26T14:16:42Z</time>
      </trkpt>
      <trkpt lat="44.2296" lon="7.03635">
        <ele>2329.0014648438</ele>
        <time>2012-08-26T14:16:48Z</time>
      </trkpt>
      <trkpt lat="44.22961" lon="7.03623">
        <ele>2329.689453125</ele>
        <time>2012-08-26T14:16:54Z</time>
      </trkpt>
      <trkpt lat="44.2296" lon="7.03609">
        <ele>2331.41796875</ele>
        <time>2012-08-26T14:17:02Z</time>
      </trkpt>
      <trkpt lat="44.22955" lon="7.03598">
        <ele>2334.04296875</ele>
        <time>2012-08-26T14:17:09Z</time>
      </trkpt>
      <trkpt lat="44.22947" lon="7.03592">
        <ele>2336.9765625</ele>
        <time>2012-08-26T14:17:16Z</time>
      </trkpt>
      <trkpt lat="44.22937" lon="7.03584">
        <ele>2338.8911132812</ele>
        <time>2012-08-26T14:17:24Z</time>
      </trkpt>
      <trkpt lat="44.2293" lon="7.03581">
        <ele>2339.212890625</ele>
        <time>2012-08-26T14:17:28Z</time>
      </trkpt>
      <trkpt lat="44.22915" lon="7.03581">
        <ele>2339.4372558594</ele>
        <time>2012-08-26T14:17:36Z</time>
      </trkpt>
      <trkpt lat="44.229" lon="7.03584">
        <ele>2339.4704589844</ele>
        <time>2012-08-26T14:17:45Z</time>
      </trkpt>
      <trkpt lat="44.22891" lon="7.03588">
        <ele>2339.3286132812</ele>
        <time>2012-08-26T14:17:51Z</time>
      </trkpt>
      <trkpt lat="44.22883" lon="7.03591">
        <ele>2341.1374511719</ele>
        <time>2012-08-26T14:17:57Z</time>
      </trkpt>
      <trkpt lat="44.22873" lon="7.03591">
        <ele>2344.9157714844</ele>
        <time>2012-08-26T14:18:04Z</time>
      </trkpt>
      <trkpt lat="44.22863" lon="7.03584">
        <ele>2349.9274902344</ele>
        <time>2012-08-26T14:18:11Z</time>
      </trkpt>
      <trkpt lat="44.2286" lon="7.0358">
        <ele>2351.8395996094</ele>
        <time>2012-08-26T14:18:15Z</time>
      </trkpt>
      <trkpt lat="44.22857" lon="7.03574">
        <ele>2353.1667480469</ele>
        <time>2012-08-26T14:18:19Z</time>
      </trkpt>
      <trkpt lat="44.22857" lon="7.03557">
        <ele>2356.9189453125</ele>
        <time>2012-08-26T14:18:29Z</time>
      </trkpt>
      <trkpt lat="44.2286" lon="7.03544">
        <ele>2360.2749023438</ele>
        <time>2012-08-26T14:18:36Z</time>
      </trkpt>
      <trkpt lat="44.22868" lon="7.03534">
        <ele>2360.6335449219</ele>
        <time>2012-08-26T14:18:43Z</time>
      </trkpt>
      <trkpt lat="44.22874" lon="7.03528">
        <ele>2360.0793457031</ele>
        <time>2012-08-26T14:18:49Z</time>
      </trkpt>
      <trkpt lat="44.22885" lon="7.03518">
        <ele>2358.9875488281</ele>
        <time>2012-08-26T14:18:58Z</time>
      </trkpt>
      <trkpt lat="44.22896" lon="7.0351">
        <ele>2357.7802734375</ele>
        <time>2012-08-26T14:19:06Z</time>
      </trkpt>
      <trkpt lat="44.22904" lon="7.03504">
        <ele>2357.2526855469</ele>
        <time>2012-08-26T14:19:12Z</time>
      </trkpt>
      <trkpt lat="44.22906" lon="7.03503">
        <ele>2357.0717773438</ele>
        <time>2012-08-26T14:19:14Z</time>
      </trkpt>
      <trkpt lat="44.22906" lon="7.03495">
        <ele>2358.7541503906</ele>
        <time>2012-08-26T14:19:20Z</time>
      </trkpt>
      <trkpt lat="44.22901" lon="7.03494">
        <ele>2360.443359375</ele>
        <time>2012-08-26T14:19:25Z</time>
      </trkpt>
      <trkpt lat="44.22895" lon="7.03491">
        <ele>2362.4650878906</ele>
        <time>2012-08-26T14:19:31Z</time>
      </trkpt>
      <trkpt lat="44.22886" lon="7.03486">
        <ele>2365.9252929688</ele>
        <time>2012-08-26T14:19:39Z</time>
      </trkpt>
      <trkpt lat="44.22886" lon="7.03485">
        <ele>2366.5285644531</ele>
        <time>2012-08-26T14:19:40Z</time>
      </trkpt>
      <trkpt lat="44.22888" lon="7.03474">
        <ele>2367.8217773438</ele>
        <time>2012-08-26T14:19:47Z</time>
      </trkpt>
      <trkpt lat="44.22893" lon="7.03467">
        <ele>2368.1916503906</ele>
        <time>2012-08-26T14:19:52Z</time>
      </trkpt>
      <trkpt lat="44.22896" lon="7.03456">
        <ele>2369.3298339844</ele>
        <time>2012-08-26T14:19:57Z</time>
      </trkpt>
      <trkpt lat="44.22905" lon="7.03444">
        <ele>2369.6669921875</ele>
        <time>2012-08-26T14:20:04Z</time>
      </trkpt>
      <trkpt lat="44.22915" lon="7.03435">
        <ele>2369.3959960938</ele>
        <time>2012-08-26T14:20:11Z</time>
      </trkpt>
      <trkpt lat="44.22924" lon="7.03426">
        <ele>2368.0539550781</ele>
        <time>2012-08-26T14:20:18Z</time>
      </trkpt>
      <trkpt lat="44.22929" lon="7.03421">
        <ele>2367.5036621094</ele>
        <time>2012-08-26T14:20:22Z</time>
      </trkpt>
      <trkpt lat="44.22927" lon="7.03411">
        <ele>2370.5405273438</ele>
        <time>2012-08-26T14:20:30Z</time>
      </trkpt>
      <trkpt lat="44.22921" lon="7.03415">
        <ele>2371.6955566406</ele>
        <time>2012-08-26T14:20:35Z</time>
      </trkpt>
      <trkpt lat="44.22916" lon="7.03419">
        <ele>2372.7229003906</ele>
        <time>2012-08-26T14:20:40Z</time>
      </trkpt>
      <trkpt lat="44.22904" lon="7.03422">
        <ele>2374.9350585938</ele>
        <time>2012-08-26T14:20:48Z</time>
      </trkpt>
      <trkpt lat="44.22897" lon="7.03429">
        <ele>2374.95703125</ele>
        <time>2012-08-26T14:20:54Z</time>
      </trkpt>
      <trkpt lat="44.22886" lon="7.03438">
        <ele>2375.4895019531</ele>
        <time>2012-08-26T14:21:01Z</time>
      </trkpt>
      <trkpt lat="44.22874" lon="7.03445">
        <ele>2378.2294921875</ele>
        <time>2012-08-26T14:21:09Z</time>
      </trkpt>
      <trkpt lat="44.22865" lon="7.03451">
        <ele>2380.6242675781</ele>
        <time>2012-08-26T14:21:16Z</time>
      </trkpt>
      <trkpt lat="44.22857" lon="7.03455">
        <ele>2380.0869140625</ele>
        <time>2012-08-26T14:21:22Z</time>
      </trkpt>
      <trkpt lat="44.22848" lon="7.03457">
        <ele>2377.271484375</ele>
        <time>2012-08-26T14:21:28Z</time>
      </trkpt>
      <trkpt lat="44.22842" lon="7.03459">
        <ele>2375.30078125</ele>
        <time>2012-08-26T14:21:33Z</time>
      </trkpt>
      <trkpt lat="44.22837" lon="7.03462">
        <ele>2373.5981445312</ele>
        <time>2012-08-26T14:21:37Z</time>
      </trkpt>
      <trkpt lat="44.22831" lon="7.03473">
        <ele>2371.1162109375</ele>
        <time>2012-08-26T14:21:44Z</time>
      </trkpt>
      <trkpt lat="44.22827" lon="7.03477">
        <ele>2370.8212890625</ele>
        <time>2012-08-26T14:21:48Z</time>
      </trkpt>
      <trkpt lat="44.22823" lon="7.03478">
        <ele>2370.9865722656</ele>
        <time>2012-08-26T14:21:52Z</time>
      </trkpt>
      <trkpt lat="44.22815" lon="7.03479">
        <ele>2371.5014648438</ele>
        <time>2012-08-26T14:21:59Z</time>
      </trkpt>
      <trkpt lat="44.22804" lon="7.03473">
        <ele>2373.0341796875</ele>
        <time>2012-08-26T14:22:08Z</time>
      </trkpt>
      <trkpt lat="44.22803" lon="7.03472">
        <ele>2373.2104492188</ele>
        <time>2012-08-26T14:22:09Z</time>
      </trkpt>
      <trkpt lat="44.22794" lon="7.03461">
        <ele>2375.7819824219</ele>
        <time>2012-08-26T14:22:18Z</time>
      </trkpt>
      <trkpt lat="44.22783" lon="7.03453">
        <ele>2378.1921386719</ele>
        <time>2012-08-26T14:22:27Z</time>
      </trkpt>
      <trkpt lat="44.22772" lon="7.03449">
        <ele>2379.8911132812</ele>
        <time>2012-08-26T14:22:36Z</time>
      </trkpt>
      <trkpt lat="44.22761" lon="7.03449">
        <ele>2381.0034179688</ele>
        <time>2012-08-26T14:22:44Z</time>
      </trkpt>
      <trkpt lat="44.22751" lon="7.03446">
        <ele>2382.4934082031</ele>
        <time>2012-08-26T14:22:51Z</time>
      </trkpt>
      <trkpt lat="44.22747" lon="7.03445">
        <ele>2382.9477539062</ele>
        <time>2012-08-26T14:22:55Z</time>
      </trkpt>
      <trkpt lat="44.22734" lon="7.0344">
        <ele>2384.7075195312</ele>
        <time>2012-08-26T14:23:05Z</time>
      </trkpt>
      <trkpt lat="44.22724" lon="7.03439">
        <ele>2385.4992675781</ele>
        <time>2012-08-26T14:23:12Z</time>
      </trkpt>
      <trkpt lat="44.22717" lon="7.03437">
        <ele>2386.3781738281</ele>
        <time>2012-08-26T14:23:18Z</time>
      </trkpt>
      <trkpt lat="44.22709" lon="7.03432">
        <ele>2388.0537109375</ele>
        <time>2012-08-26T14:23:25Z</time>
      </trkpt>
      <trkpt lat="44.22703" lon="7.03427">
        <ele>2389.7702636719</ele>
        <time>2012-08-26T14:23:31Z</time>
      </trkpt>
      <trkpt lat="44.22702" lon="7.03426">
        <ele>2390.044921875</ele>
        <time>2012-08-26T14:23:32Z</time>
      </trkpt>
      <trkpt lat="44.22695" lon="7.03419">
        <ele>2392.2421875</ele>
        <time>2012-08-26T14:23:39Z</time>
      </trkpt>
      <trkpt lat="44.22693" lon="7.03417">
        <ele>2392.8923339844</ele>
        <time>2012-08-26T14:23:41Z</time>
      </trkpt>
      <trkpt lat="44.22684" lon="7.03409">
        <ele>2396.0285644531</ele>
        <time>2012-08-26T14:23:50Z</time>
      </trkpt>
      <trkpt lat="44.22673" lon="7.03402">
        <ele>2398.4934082031</ele>
        <time>2012-08-26T14:23:58Z</time>
      </trkpt>
      <trkpt lat="44.22662" lon="7.03396">
        <ele>2401.498046875</ele>
        <time>2012-08-26T14:24:07Z</time>
      </trkpt>
      <trkpt lat="44.22653" lon="7.03394">
        <ele>2404.0778808594</ele>
        <time>2012-08-26T14:24:14Z</time>
      </trkpt>
      <trkpt lat="44.22645" lon="7.0339">
        <ele>2406.9436035156</ele>
        <time>2012-08-26T14:24:21Z</time>
      </trkpt>
      <trkpt lat="44.22641" lon="7.03385">
        <ele>2409.3620605469</ele>
        <time>2012-08-26T14:24:25Z</time>
      </trkpt>
      <trkpt lat="44.22644" lon="7.03372">
        <ele>2412.7653808594</ele>
        <time>2012-08-26T14:24:33Z</time>
      </trkpt>
      <trkpt lat="44.22647" lon="7.03367">
        <ele>2413.4562988281</ele>
        <time>2012-08-26T14:24:37Z</time>
      </trkpt>
      <trkpt lat="44.22657" lon="7.03362">
        <ele>2412.5952148438</ele>
        <time>2012-08-26T14:24:45Z</time>
      </trkpt>
      <trkpt lat="44.22672" lon="7.03359">
        <ele>2411.4196777344</ele>
        <time>2012-08-26T14:24:53Z</time>
      </trkpt>
      <trkpt lat="44.22684" lon="7.03355">
        <ele>2411.478515625</ele>
        <time>2012-08-26T14:25:00Z</time>
      </trkpt>
      <trkpt lat="44.22697" lon="7.03355">
        <ele>2410.4111328125</ele>
        <time>2012-08-26T14:25:07Z</time>
      </trkpt>
      <trkpt lat="44.22701" lon="7.03355">
        <ele>2409.9089355469</ele>
        <time>2012-08-26T14:25:10Z</time>
      </trkpt>
      <trkpt lat="44.22706" lon="7.03353">
        <ele>2409.8166503906</ele>
        <time>2012-08-26T14:25:15Z</time>
      </trkpt>
      <trkpt lat="44.22712" lon="7.03346">
        <ele>2411.291015625</ele>
        <time>2012-08-26T14:25:21Z</time>
      </trkpt>
      <trkpt lat="44.22718" lon="7.03344">
        <ele>2410.8037109375</ele>
        <time>2012-08-26T14:25:26Z</time>
      </trkpt>
      <trkpt lat="44.22721" lon="7.03342">
        <ele>2410.9165039062</ele>
        <time>2012-08-26T14:25:29Z</time>
      </trkpt>
      <trkpt lat="44.22721" lon="7.03337">
        <ele>2412.2922363281</ele>
        <time>2012-08-26T14:25:33Z</time>
      </trkpt>
      <trkpt lat="44.22717" lon="7.03329">
        <ele>2415.4255371094</ele>
        <time>2012-08-26T14:25:39Z</time>
      </trkpt>
      <trkpt lat="44.22711" lon="7.03326">
        <ele>2417.5</ele>
        <time>2012-08-26T14:25:45Z</time>
      </trkpt>
      <trkpt lat="44.22702" lon="7.03326">
        <ele>2419.1472167969</ele>
        <time>2012-08-26T14:25:52Z</time>
      </trkpt>
      <trkpt lat="44.22699" lon="7.03322">
        <ele>2421.3745117188</ele>
        <time>2012-08-26T14:25:56Z</time>
      </trkpt>
      <trkpt lat="44.22699" lon="7.0332">
        <ele>2422.587890625</ele>
        <time>2012-08-26T14:25:58Z</time>
      </trkpt>
      <trkpt lat="44.22701" lon="7.03312">
        <ele>2425.6218261719</ele>
        <time>2012-08-26T14:26:04Z</time>
      </trkpt>
      <trkpt lat="44.22701" lon="7.03308">
        <ele>2427.5100097656</ele>
        <time>2012-08-26T14:26:08Z</time>
      </trkpt>
      <trkpt lat="44.22691" lon="7.0331">
        <ele>2428.8208007812</ele>
        <time>2012-08-26T14:26:16Z</time>
      </trkpt>
      <trkpt lat="44.2268" lon="7.03313">
        <ele>2430.0310058594</ele>
        <time>2012-08-26T14:26:23Z</time>
      </trkpt>
      <trkpt lat="44.22672" lon="7.03315">
        <ele>2430.5639648438</ele>
        <time>2012-08-26T14:26:29Z</time>
      </trkpt>
      <trkpt lat="44.22659" lon="7.03318">
        <ele>2431.4924316406</ele>
        <time>2012-08-26T14:26:37Z</time>
      </trkpt>
      <trkpt lat="44.22648" lon="7.03317">
        <ele>2433.6298828125</ele>
        <time>2012-08-26T14:26:44Z</time>
      </trkpt>
      <trkpt lat="44.22637" lon="7.03321">
        <ele>2434.2250976562</ele>
        <time>2012-08-26T14:26:52Z</time>
      </trkpt>
      <trkpt lat="44.22631" lon="7.03326">
        <ele>2433.1164550781</ele>
        <time>2012-08-26T14:26:58Z</time>
      </trkpt>
      <trkpt lat="44.22622" lon="7.03332">
        <ele>2432.9938964844</ele>
        <time>2012-08-26T14:27:04Z</time>
      </trkpt>
      <trkpt lat="44.2262" lon="7.03336">
        <ele>2431.7116699219</ele>
        <time>2012-08-26T14:27:08Z</time>
      </trkpt>
      <trkpt lat="44.22613" lon="7.03338">
        <ele>2432.2280273438</ele>
        <time>2012-08-26T14:27:15Z</time>
      </trkpt>
      <trkpt lat="44.2261" lon="7.03337">
        <ele>2433.2421875</ele>
        <time>2012-08-26T14:27:18Z</time>
      </trkpt>
      <trkpt lat="44.22605" lon="7.03337">
        <ele>2434.38671875</ele>
        <time>2012-08-26T14:27:22Z</time>
      </trkpt>
      <trkpt lat="44.22601" lon="7.03336">
        <ele>2435.5305175781</ele>
        <time>2012-08-26T14:27:26Z</time>
      </trkpt>
      <trkpt lat="44.22593" lon="7.03335">
        <ele>2437.7004394531</ele>
        <time>2012-08-26T14:27:33Z</time>
      </trkpt>
      <trkpt lat="44.22586" lon="7.03331">
        <ele>2439.5515136719</ele>
        <time>2012-08-26T14:27:40Z</time>
      </trkpt>
      <trkpt lat="44.22581" lon="7.03327">
        <ele>2440</ele>
        <time>2012-08-26T14:27:47Z</time>
      </trkpt>
      <trkpt lat="44.22578" lon="7.03325">
        <ele>2440</ele>
        <time>2012-08-26T14:27:52Z</time>
      </trkpt>
      <trkpt lat="44.22572" lon="7.03323">
        <ele>2440</ele>
        <time>2012-08-26T14:27:59Z</time>
      </trkpt>
      <trkpt lat="44.22567" lon="7.03323">
        <ele>2440</ele>
        <time>2012-08-26T14:28:03Z</time>
      </trkpt>
      <trkpt lat="44.22561" lon="7.03328">
        <ele>2440</ele>
        <time>2012-08-26T14:28:11Z</time>
      </trkpt>
      <trkpt lat="44.22558" lon="7.0333">
        <ele>2440</ele>
        <time>2012-08-26T14:28:14Z</time>
      </trkpt>
      <trkpt lat="44.22555" lon="7.0333">
        <ele>2439.9440917969</ele>
        <time>2012-08-26T14:28:20Z</time>
      </trkpt>
      <trkpt lat="44.22552" lon="7.03332">
        <ele>2439.779296875</ele>
        <time>2012-08-26T14:28:28Z</time>
      </trkpt>
      <trkpt lat="44.22546" lon="7.03333">
        <ele>2439.33984375</ele>
        <time>2012-08-26T14:28:35Z</time>
      </trkpt>
      <trkpt lat="44.2254" lon="7.03335">
        <ele>2438.7978515625</ele>
        <time>2012-08-26T14:28:43Z</time>
      </trkpt>
      <trkpt lat="44.22538" lon="7.03335">
        <ele>2438.7009277344</ele>
        <time>2012-08-26T14:28:44Z</time>
      </trkpt>
      <trkpt lat="44.22533" lon="7.03343">
        <ele>2438.3972167969</ele>
        <time>2012-08-26T14:28:50Z</time>
      </trkpt>
      <trkpt lat="44.2253" lon="7.03352">
        <ele>2438.5676269531</ele>
        <time>2012-08-26T14:28:55Z</time>
      </trkpt>
      <trkpt lat="44.2253" lon="7.03355">
        <ele>2438.6594238281</ele>
        <time>2012-08-26T14:28:57Z</time>
      </trkpt>
      <trkpt lat="44.22528" lon="7.03359">
        <ele>2438.9001464844</ele>
        <time>2012-08-26T14:29:00Z</time>
      </trkpt>
      <trkpt lat="44.22523" lon="7.03357">
        <ele>2440.1127929688</ele>
        <time>2012-08-26T14:29:06Z</time>
      </trkpt>
      <trkpt lat="44.22522" lon="7.03355">
        <ele>2440.0676269531</ele>
        <time>2012-08-26T14:29:07Z</time>
      </trkpt>
      <trkpt lat="44.22523" lon="7.03341">
        <ele>2438.85546875</ele>
        <time>2012-08-26T14:29:16Z</time>
      </trkpt>
      <trkpt lat="44.22524" lon="7.03326">
        <ele>2438.2197265625</ele>
        <time>2012-08-26T14:29:23Z</time>
      </trkpt>
      <trkpt lat="44.22524" lon="7.03324">
        <ele>2438.2104492188</ele>
        <time>2012-08-26T14:29:24Z</time>
      </trkpt>
      <trkpt lat="44.22524" lon="7.03309">
        <ele>2438.1435546875</ele>
        <time>2012-08-26T14:29:32Z</time>
      </trkpt>
      <trkpt lat="44.22524" lon="7.03291">
        <ele>2438.5905761719</ele>
        <time>2012-08-26T14:29:40Z</time>
      </trkpt>
      <trkpt lat="44.22531" lon="7.03278">
        <ele>2439.1206054688</ele>
        <time>2012-08-26T14:29:45Z</time>
      </trkpt>
      <trkpt lat="44.2254" lon="7.03266">
        <ele>2439.4228515625</ele>
        <time>2012-08-26T14:29:51Z</time>
      </trkpt>
      <trkpt lat="44.22547" lon="7.03248">
        <ele>2439.697265625</ele>
        <time>2012-08-26T14:29:55Z</time>
      </trkpt>
      <trkpt lat="44.22553" lon="7.0322">
        <ele>2439.9367675781</ele>
        <time>2012-08-26T14:29:59Z</time>
      </trkpt>
      <trkpt lat="44.22553" lon="7.03213">
        <ele>2439.9992675781</ele>
        <time>2012-08-26T14:30:00Z</time>
      </trkpt>
      <trkpt lat="44.22546" lon="7.0318">
        <ele>2440.66015625</ele>
        <time>2012-08-26T14:30:05Z</time>
      </trkpt>
      <trkpt lat="44.22542" lon="7.0316">
        <ele>2440.9897460938</ele>
        <time>2012-08-26T14:30:09Z</time>
      </trkpt>
      <trkpt lat="44.2254" lon="7.03152">
        <ele>2441.126953125</ele>
        <time>2012-08-26T14:30:14Z</time>
      </trkpt>
      <trkpt lat="44.22538" lon="7.03147">
        <ele>2441.2644042969</ele>
        <time>2012-08-26T14:30:18Z</time>
      </trkpt>
      <trkpt lat="44.22528" lon="7.03141">
        <ele>2441.951171875</ele>
        <time>2012-08-26T14:31:57Z</time>
      </trkpt>
      <trkpt lat="44.22533" lon="7.03144">
        <ele>2441.6489257812</ele>
        <time>2012-08-26T14:34:00Z</time>
      </trkpt>
      <trkpt lat="44.22532" lon="7.03144">
        <ele>2441.6762695312</ele>
        <time>2012-08-26T14:34:06Z</time>
      </trkpt>
      <trkpt lat="44.22532" lon="7.03144">
        <ele>2441.6762695312</ele>
        <time>2012-08-26T14:34:27Z</time>
      </trkpt>
      <trkpt lat="44.22535" lon="7.03147">
        <ele>2441.51171875</ele>
        <time>2012-08-26T14:34:35Z</time>
      </trkpt>
      <trkpt lat="44.22527" lon="7.0315">
        <ele>2442.1440429688</ele>
        <time>2012-08-26T14:34:46Z</time>
      </trkpt>
      <trkpt lat="44.22524" lon="7.03152">
        <ele>2443.0815429688</ele>
        <time>2012-08-26T14:34:58Z</time>
      </trkpt>
      <trkpt lat="44.22534" lon="7.03145">
        <ele>2441.5390625</ele>
        <time>2012-08-26T14:36:49Z</time>
      </trkpt>
      <trkpt lat="44.22535" lon="7.03152">
        <ele>2441.4841308594</ele>
        <time>2012-08-26T14:40:54Z</time>
      </trkpt>
      <trkpt lat="44.22541" lon="7.03137">
        <ele>2441.255859375</ele>
        <time>2012-08-26T14:54:13Z</time>
      </trkpt>
      <trkpt lat="44.22535" lon="7.03141">
        <ele>2441.51171875</ele>
        <time>2012-08-26T14:54:44Z</time>
      </trkpt>
      <trkpt lat="44.22534" lon="7.03141">
        <ele>2441.56640625</ele>
        <time>2012-08-26T14:55:31Z</time>
      </trkpt>
      <trkpt lat="44.22533" lon="7.03139">
        <ele>2441.6489257812</ele>
        <time>2012-08-26T14:55:40Z</time>
      </trkpt>
      <trkpt lat="44.22533" lon="7.03139">
        <ele>2441.6853027344</ele>
        <time>2012-08-26T14:55:41Z</time>
      </trkpt>
      <trkpt lat="44.22532" lon="7.0314">
        <ele>2441.7314453125</ele>
        <time>2012-08-26T14:55:48Z</time>
      </trkpt>
      <trkpt lat="44.22532" lon="7.03138">
        <ele>2441.9387207031</ele>
        <time>2012-08-26T14:56:26Z</time>
      </trkpt>
      <trkpt lat="44.22527" lon="7.03137">
        <ele>2442.6040039062</ele>
        <time>2012-08-26T14:56:40Z</time>
      </trkpt>
      <trkpt lat="44.22527" lon="7.03136">
        <ele>2442.8579101562</ele>
        <time>2012-08-26T14:56:43Z</time>
      </trkpt>
      <trkpt lat="44.22522" lon="7.03131">
        <ele>2445.4836425781</ele>
        <time>2012-08-26T14:56:51Z</time>
      </trkpt>
      <trkpt lat="44.2252" lon="7.03128">
        <ele>2446.6520996094</ele>
        <time>2012-08-26T14:56:59Z</time>
      </trkpt>
      <trkpt lat="44.22518" lon="7.03126">
        <ele>2447.6083984375</ele>
        <time>2012-08-26T14:57:04Z</time>
      </trkpt>
      <trkpt lat="44.22516" lon="7.03125">
        <ele>2448.3464355469</ele>
        <time>2012-08-26T14:57:08Z</time>
      </trkpt>
      <trkpt lat="44.22512" lon="7.03129">
        <ele>2448.884765625</ele>
        <time>2012-08-26T14:57:18Z</time>
      </trkpt>
      <trkpt lat="44.22507" lon="7.03132">
        <ele>2449.7717285156</ele>
        <time>2012-08-26T14:57:27Z</time>
      </trkpt>
      <trkpt lat="44.22503" lon="7.03132">
        <ele>2451.0444335938</ele>
        <time>2012-08-26T14:57:36Z</time>
      </trkpt>
      <trkpt lat="44.22501" lon="7.03128">
        <ele>2452.2250976562</ele>
        <time>2012-08-26T14:57:42Z</time>
      </trkpt>
      <trkpt lat="44.22499" lon="7.03125">
        <ele>2453.1904296875</ele>
        <time>2012-08-26T14:57:47Z</time>
      </trkpt>
      <trkpt lat="44.22499" lon="7.03119">
        <ele>2454.1003417969</ele>
        <time>2012-08-26T14:57:56Z</time>
      </trkpt>
      <trkpt lat="44.22498" lon="7.03117">
        <ele>2455.2963867188</ele>
        <time>2012-08-26T14:58:01Z</time>
      </trkpt>
      <trkpt lat="44.22493" lon="7.03119">
        <ele>2456.7514648438</ele>
        <time>2012-08-26T14:58:09Z</time>
      </trkpt>
      <trkpt lat="44.22489" lon="7.0312">
        <ele>2458.4533691406</ele>
        <time>2012-08-26T14:58:19Z</time>
      </trkpt>
      <trkpt lat="44.22487" lon="7.03116">
        <ele>2460.1276855469</ele>
        <time>2012-08-26T14:58:25Z</time>
      </trkpt>
      <trkpt lat="44.22487" lon="7.0311">
        <ele>2461.3120117188</ele>
        <time>2012-08-26T14:58:32Z</time>
      </trkpt>
      <trkpt lat="44.22487" lon="7.03105">
        <ele>2462.1586914062</ele>
        <time>2012-08-26T14:58:39Z</time>
      </trkpt>
      <trkpt lat="44.22485" lon="7.03102">
        <ele>2463.8171386719</ele>
        <time>2012-08-26T14:58:45Z</time>
      </trkpt>
      <trkpt lat="44.22483" lon="7.03098">
        <ele>2466.1154785156</ele>
        <time>2012-08-26T14:58:53Z</time>
      </trkpt>
      <trkpt lat="44.22481" lon="7.03095">
        <ele>2467.5810546875</ele>
        <time>2012-08-26T14:59:00Z</time>
      </trkpt>
      <trkpt lat="44.22479" lon="7.03089">
        <ele>2469.9699707031</ele>
        <time>2012-08-26T14:59:09Z</time>
      </trkpt>
      <trkpt lat="44.22478" lon="7.03086">
        <ele>2471.2504882812</ele>
        <time>2012-08-26T14:59:17Z</time>
      </trkpt>
      <trkpt lat="44.22478" lon="7.03081">
        <ele>2472.3669433594</ele>
        <time>2012-08-26T14:59:24Z</time>
      </trkpt>
      <trkpt lat="44.2248" lon="7.03073">
        <ele>2473.513671875</ele>
        <time>2012-08-26T14:59:34Z</time>
      </trkpt>
      <trkpt lat="44.2248" lon="7.03066">
        <ele>2475.0725097656</ele>
        <time>2012-08-26T14:59:42Z</time>
      </trkpt>
      <trkpt lat="44.2248" lon="7.03055">
        <ele>2477.712890625</ele>
        <time>2012-08-26T14:59:52Z</time>
      </trkpt>
      <trkpt lat="44.22481" lon="7.0305">
        <ele>2479.1328125</ele>
        <time>2012-08-26T14:59:59Z</time>
      </trkpt>
      <trkpt lat="44.22482" lon="7.03044">
        <ele>2480.236328125</ele>
        <time>2012-08-26T15:00:07Z</time>
      </trkpt>
      <trkpt lat="44.22482" lon="7.0304">
        <ele>2481.7692871094</ele>
        <time>2012-08-26T15:00:13Z</time>
      </trkpt>
      <trkpt lat="44.22483" lon="7.03033">
        <ele>2482.7727050781</ele>
        <time>2012-08-26T15:00:21Z</time>
      </trkpt>
      <trkpt lat="44.22485" lon="7.03027">
        <ele>2483.1743164062</ele>
        <time>2012-08-26T15:00:30Z</time>
      </trkpt>
      <trkpt lat="44.22485" lon="7.03021">
        <ele>2485.169921875</ele>
        <time>2012-08-26T15:00:39Z</time>
      </trkpt>
      <trkpt lat="44.22482" lon="7.03024">
        <ele>2486.2277832031</ele>
        <time>2012-08-26T15:00:46Z</time>
      </trkpt>
      <trkpt lat="44.22477" lon="7.03024">
        <ele>2489.2973632812</ele>
        <time>2012-08-26T15:00:57Z</time>
      </trkpt>
      <trkpt lat="44.22474" lon="7.03017">
        <ele>2493.5190429688</ele>
        <time>2012-08-26T15:01:07Z</time>
      </trkpt>
      <trkpt lat="44.22473" lon="7.03013">
        <ele>2495.1276855469</ele>
        <time>2012-08-26T15:01:14Z</time>
      </trkpt>
      <trkpt lat="44.22472" lon="7.03009">
        <ele>2496.9333496094</ele>
        <time>2012-08-26T15:01:21Z</time>
      </trkpt>
      <trkpt lat="44.22473" lon="7.03004">
        <ele>2498.4680175781</ele>
        <time>2012-08-26T15:01:30Z</time>
      </trkpt>
      <trkpt lat="44.22474" lon="7.02997">
        <ele>2499.9763183594</ele>
        <time>2012-08-26T15:01:38Z</time>
      </trkpt>
      <trkpt lat="44.22473" lon="7.02994">
        <ele>2501.58203125</ele>
        <time>2012-08-26T15:01:44Z</time>
      </trkpt>
      <trkpt lat="44.22472" lon="7.02994">
        <ele>2502.6667480469</ele>
        <time>2012-08-26T15:01:51Z</time>
      </trkpt>
      <trkpt lat="44.22469" lon="7.02997">
        <ele>2503.2126464844</ele>
        <time>2012-08-26T15:01:59Z</time>
      </trkpt>
      <trkpt lat="44.22467" lon="7.02997">
        <ele>2504.626953125</ele>
        <time>2012-08-26T15:02:05Z</time>
      </trkpt>
      <trkpt lat="44.22463" lon="7.02999">
        <ele>2506.0964355469</ele>
        <time>2012-08-26T15:02:11Z</time>
      </trkpt>
      <trkpt lat="44.22458" lon="7.03005">
        <ele>2507.3349609375</ele>
        <time>2012-08-26T15:02:21Z</time>
      </trkpt>
      <trkpt lat="44.22452" lon="7.03009">
        <ele>2509.7807617188</ele>
        <time>2012-08-26T15:02:32Z</time>
      </trkpt>
      <trkpt lat="44.22449" lon="7.03011">
        <ele>2510.8303222656</ele>
        <time>2012-08-26T15:02:38Z</time>
      </trkpt>
      <trkpt lat="44.22446" lon="7.03012">
        <ele>2512.4345703125</ele>
        <time>2012-08-26T15:02:46Z</time>
      </trkpt>
      <trkpt lat="44.22443" lon="7.03016">
        <ele>2512.7546386719</ele>
        <time>2012-08-26T15:02:55Z</time>
      </trkpt>
      <trkpt lat="44.22437" lon="7.0302">
        <ele>2515.7509765625</ele>
        <time>2012-08-26T15:03:06Z</time>
      </trkpt>
      <trkpt lat="44.22433" lon="7.03026">
        <ele>2516.4536132812</ele>
        <time>2012-08-26T15:03:16Z</time>
      </trkpt>
      <trkpt lat="44.22429" lon="7.03032">
        <ele>2517.8403320312</ele>
        <time>2012-08-26T15:03:28Z</time>
      </trkpt>
      <trkpt lat="44.22426" lon="7.03036">
        <ele>2518.8166503906</ele>
        <time>2012-08-26T15:03:38Z</time>
      </trkpt>
      <trkpt lat="44.22422" lon="7.03041">
        <ele>2520.9191894531</ele>
        <time>2012-08-26T15:03:48Z</time>
      </trkpt>
      <trkpt lat="44.2242" lon="7.03043">
        <ele>2522.3137207031</ele>
        <time>2012-08-26T15:03:54Z</time>
      </trkpt>
      <trkpt lat="44.22416" lon="7.03047">
        <ele>2524.9482421875</ele>
        <time>2012-08-26T15:04:03Z</time>
      </trkpt>
      <trkpt lat="44.22412" lon="7.03052">
        <ele>2525.42578125</ele>
        <time>2012-08-26T15:04:13Z</time>
      </trkpt>
      <trkpt lat="44.2241" lon="7.03057">
        <ele>2525.5185546875</ele>
        <time>2012-08-26T15:04:22Z</time>
      </trkpt>
      <trkpt lat="44.22408" lon="7.03062">
        <ele>2525.24609375</ele>
        <time>2012-08-26T15:04:32Z</time>
      </trkpt>
      <trkpt lat="44.22404" lon="7.03068">
        <ele>2526.3120117188</ele>
        <time>2012-08-26T15:04:43Z</time>
      </trkpt>
      <trkpt lat="44.22401" lon="7.03075">
        <ele>2526.8332519531</ele>
        <time>2012-08-26T15:04:54Z</time>
      </trkpt>
      <trkpt lat="44.22398" lon="7.03079">
        <ele>2528.0092773438</ele>
        <time>2012-08-26T15:05:02Z</time>
      </trkpt>
      <trkpt lat="44.22395" lon="7.03084">
        <ele>2529.26171875</ele>
        <time>2012-08-26T15:05:10Z</time>
      </trkpt>
      <trkpt lat="44.22392" lon="7.03092">
        <ele>2530.294921875</ele>
        <time>2012-08-26T15:05:22Z</time>
      </trkpt>
      <trkpt lat="44.2239" lon="7.03099">
        <ele>2530.771484375</ele>
        <time>2012-08-26T15:05:30Z</time>
      </trkpt>
      <trkpt lat="44.22387" lon="7.03108">
        <ele>2531.7800292969</ele>
        <time>2012-08-26T15:05:40Z</time>
      </trkpt>
      <trkpt lat="44.22384" lon="7.03112">
        <ele>2532.2021484375</ele>
        <time>2012-08-26T15:05:46Z</time>
      </trkpt>
      <trkpt lat="44.22381" lon="7.03118">
        <ele>2532.5517578125</ele>
        <time>2012-08-26T15:05:55Z</time>
      </trkpt>
      <trkpt lat="44.22379" lon="7.03129">
        <ele>2532.8146972656</ele>
        <time>2012-08-26T15:06:07Z</time>
      </trkpt>
      <trkpt lat="44.22377" lon="7.03136">
        <ele>2532.8291015625</ele>
        <time>2012-08-26T15:06:16Z</time>
      </trkpt>
      <trkpt lat="44.22375" lon="7.03145">
        <ele>2533.2700195312</ele>
        <time>2012-08-26T15:06:26Z</time>
      </trkpt>
      <trkpt lat="44.22373" lon="7.03153">
        <ele>2533.3720703125</ele>
        <time>2012-08-26T15:06:36Z</time>
      </trkpt>
      <trkpt lat="44.2237" lon="7.0316">
        <ele>2534.0603027344</ele>
        <time>2012-08-26T15:06:46Z</time>
      </trkpt>
      <trkpt lat="44.22369" lon="7.03171">
        <ele>2534.66015625</ele>
        <time>2012-08-26T15:06:58Z</time>
      </trkpt>
      <trkpt lat="44.22369" lon="7.03179">
        <ele>2535.1721191406</ele>
        <time>2012-08-26T15:07:20Z</time>
      </trkpt>
      <trkpt lat="44.22371" lon="7.03178">
        <ele>2534.3896484375</ele>
        <time>2012-08-26T15:07:35Z</time>
      </trkpt>
      <trkpt lat="44.2237" lon="7.03174">
        <ele>2534.4736328125</ele>
        <time>2012-08-26T15:07:52Z</time>
      </trkpt>
      <trkpt lat="44.22369" lon="7.0317">
        <ele>2534.5417480469</ele>
        <time>2012-08-26T15:08:06Z</time>
      </trkpt>
      <trkpt lat="44.22368" lon="7.03166">
        <ele>2534.6193847656</ele>
        <time>2012-08-26T15:08:09Z</time>
      </trkpt>
      <trkpt lat="44.22366" lon="7.03154">
        <ele>2535.6499023438</ele>
        <time>2012-08-26T15:08:18Z</time>
      </trkpt>
      <trkpt lat="44.22366" lon="7.03138">
        <ele>2536.5654296875</ele>
        <time>2012-08-26T15:08:29Z</time>
      </trkpt>
      <trkpt lat="44.22361" lon="7.03134">
        <ele>2537.77734375</ele>
        <time>2012-08-26T15:08:36Z</time>
      </trkpt>
      <trkpt lat="44.22358" lon="7.03127">
        <ele>2536.7094726562</ele>
        <time>2012-08-26T15:08:43Z</time>
      </trkpt>
      <trkpt lat="44.22356" lon="7.03121">
        <ele>2535.3869628906</ele>
        <time>2012-08-26T15:08:50Z</time>
      </trkpt>
      <trkpt lat="44.22353" lon="7.03115">
        <ele>2533.9814453125</ele>
        <time>2012-08-26T15:08:58Z</time>
      </trkpt>
      <trkpt lat="44.22354" lon="7.03111">
        <ele>2534.2822265625</ele>
        <time>2012-08-26T15:09:05Z</time>
      </trkpt>
      <trkpt lat="44.22354" lon="7.03106">
        <ele>2534.3374023438</ele>
        <time>2012-08-26T15:09:12Z</time>
      </trkpt>
      <trkpt lat="44.22354" lon="7.03104">
        <ele>2534.0827636719</ele>
        <time>2012-08-26T15:09:20Z</time>
      </trkpt>
      <trkpt lat="44.22353" lon="7.031">
        <ele>2533.7578125</ele>
        <time>2012-08-26T15:09:26Z</time>
      </trkpt>
      <trkpt lat="44.22354" lon="7.03101">
        <ele>2533.984375</ele>
        <time>2012-08-26T15:09:35Z</time>
      </trkpt>
      <trkpt lat="44.22354" lon="7.03098">
        <ele>2534.1301269531</ele>
        <time>2012-08-26T15:09:45Z</time>
      </trkpt>
      <trkpt lat="44.22355" lon="7.03095">
        <ele>2534.4836425781</ele>
        <time>2012-08-26T15:09:47Z</time>
      </trkpt>
      <trkpt lat="44.2236" lon="7.03079">
        <ele>2537.4560546875</ele>
        <time>2012-08-26T15:09:55Z</time>
      </trkpt>
      <trkpt lat="44.22369" lon="7.03058">
        <ele>2537.1005859375</ele>
        <time>2012-08-26T15:10:02Z</time>
      </trkpt>
      <trkpt lat="44.22372" lon="7.03044">
        <ele>2537.1489257812</ele>
        <time>2012-08-26T15:10:07Z</time>
      </trkpt>
      <trkpt lat="44.22375" lon="7.03029">
        <ele>2537.4426269531</ele>
        <time>2012-08-26T15:10:14Z</time>
      </trkpt>
      <trkpt lat="44.22379" lon="7.03016">
        <ele>2537.8850097656</ele>
        <time>2012-08-26T15:10:19Z</time>
      </trkpt>
      <trkpt lat="44.22379" lon="7.03015">
        <ele>2537.9291992188</ele>
        <time>2012-08-26T15:10:24Z</time>
      </trkpt>
      <trkpt lat="44.2238" lon="7.03016">
        <ele>2537.9191894531</ele>
        <time>2012-08-26T15:10:29Z</time>
      </trkpt>
      <trkpt lat="44.2238" lon="7.03016">
        <ele>2537.8801269531</ele>
        <time>2012-08-26T15:10:40Z</time>
      </trkpt>
      <trkpt lat="44.22379" lon="7.03017">
        <ele>2537.8513183594</ele>
        <time>2012-08-26T15:10:47Z</time>
      </trkpt>
      <trkpt lat="44.22379" lon="7.03016">
        <ele>2537.8940429688</ele>
        <time>2012-08-26T15:10:55Z</time>
      </trkpt>
      <trkpt lat="44.22379" lon="7.03016">
        <ele>2537.8916015625</ele>
        <time>2012-08-26T15:11:07Z</time>
      </trkpt>
      <trkpt lat="44.22379" lon="7.03016">
        <ele>2537.8962402344</ele>
        <time>2012-08-26T15:11:09Z</time>
      </trkpt>
      <trkpt lat="44.2238" lon="7.03016">
        <ele>2537.9008789062</ele>
        <time>2012-08-26T15:11:10Z</time>
      </trkpt>
      <trkpt lat="44.22379" lon="7.03016">
        <ele>2537.8962402344</ele>
        <time>2012-08-26T15:11:18Z</time>
      </trkpt>
      <trkpt lat="44.2238" lon="7.03015">
        <ele>2537.9284667969</ele>
        <time>2012-08-26T15:11:34Z</time>
      </trkpt>
      <trkpt lat="44.2238" lon="7.03014">
        <ele>2537.9875488281</ele>
        <time>2012-08-26T15:11:50Z</time>
      </trkpt>
      <trkpt lat="44.22381" lon="7.03014">
        <ele>2538.0190429688</ele>
        <time>2012-08-26T15:12:01Z</time>
      </trkpt>
      <trkpt lat="44.2238" lon="7.03014">
        <ele>2538.0109863281</ele>
        <time>2012-08-26T15:12:13Z</time>
      </trkpt>
      <trkpt lat="44.22374" lon="7.03012">
        <ele>2538.0537109375</ele>
        <time>2012-08-26T15:12:16Z</time>
      </trkpt>
      <trkpt lat="44.22373" lon="7.03012">
        <ele>2538.0595703125</ele>
        <time>2012-08-26T15:12:17Z</time>
      </trkpt>
      <trkpt lat="44.22368" lon="7.03008">
        <ele>2538.1118164062</ele>
        <time>2012-08-26T15:12:24Z</time>
      </trkpt>
      <trkpt lat="44.22367" lon="7.03006">
        <ele>2538.1181640625</ele>
        <time>2012-08-26T15:12:26Z</time>
      </trkpt>
      <trkpt lat="44.2236" lon="7.03001">
        <ele>2537.083984375</ele>
        <time>2012-08-26T15:15:13Z</time>
      </trkpt>
      <trkpt lat="44.22361" lon="7.03002">
        <ele>2537.6362304688</ele>
        <time>2012-08-26T15:15:19Z</time>
      </trkpt>
      <trkpt lat="44.22361" lon="7.03002">
        <ele>2537.9135742188</ele>
        <time>2012-08-26T15:15:26Z</time>
      </trkpt>
      <trkpt lat="44.22362" lon="7.03002">
        <ele>2538.01953125</ele>
        <time>2012-08-26T15:15:49Z</time>
      </trkpt>
      <trkpt lat="44.22362" lon="7.03002">
        <ele>2538.0202636719</ele>
        <time>2012-08-26T15:16:08Z</time>
      </trkpt>
      <trkpt lat="44.22361" lon="7.02996">
        <ele>2538.3083496094</ele>
        <time>2012-08-26T15:16:15Z</time>
      </trkpt>
      <trkpt lat="44.22363" lon="7.02987">
        <ele>2539.3977050781</ele>
        <time>2012-08-26T15:16:24Z</time>
      </trkpt>
      <trkpt lat="44.22363" lon="7.02985">
        <ele>2539.6208496094</ele>
        <time>2012-08-26T15:16:27Z</time>
      </trkpt>
      <trkpt lat="44.22364" lon="7.02981">
        <ele>2540.0715332031</ele>
        <time>2012-08-26T15:16:33Z</time>
      </trkpt>
      <trkpt lat="44.22363" lon="7.02976">
        <ele>2540.6171875</ele>
        <time>2012-08-26T15:16:39Z</time>
      </trkpt>
      <trkpt lat="44.22363" lon="7.02968">
        <ele>2541.0104980469</ele>
        <time>2012-08-26T15:16:48Z</time>
      </trkpt>
      <trkpt lat="44.22363" lon="7.02962">
        <ele>2541.0190429688</ele>
        <time>2012-08-26T15:16:55Z</time>
      </trkpt>
      <trkpt lat="44.22361" lon="7.02954">
        <ele>2540.91015625</ele>
        <time>2012-08-26T15:17:04Z</time>
      </trkpt>
      <trkpt lat="44.22361" lon="7.0295">
        <ele>2540.6218261719</ele>
        <time>2012-08-26T15:17:11Z</time>
      </trkpt>
      <trkpt lat="44.22356" lon="7.0294">
        <ele>2537.2172851562</ele>
        <time>2012-08-26T15:17:19Z</time>
      </trkpt>
      <trkpt lat="44.22356" lon="7.02926">
        <ele>2537.3986816406</ele>
        <time>2012-08-26T15:17:27Z</time>
      </trkpt>
      <trkpt lat="44.22362" lon="7.02911">
        <ele>2541.0439453125</ele>
        <time>2012-08-26T15:17:35Z</time>
      </trkpt>
      <trkpt lat="44.22367" lon="7.02893">
        <ele>2541.3698730469</ele>
        <time>2012-08-26T15:17:44Z</time>
      </trkpt>
      <trkpt lat="44.22367" lon="7.02875">
        <ele>2541.1560058594</ele>
        <time>2012-08-26T15:17:51Z</time>
      </trkpt>
      <trkpt lat="44.22366" lon="7.02856">
        <ele>2540.7854003906</ele>
        <time>2012-08-26T15:17:59Z</time>
      </trkpt>
      <trkpt lat="44.22369" lon="7.02841">
        <ele>2541.3374023438</ele>
        <time>2012-08-26T15:18:06Z</time>
      </trkpt>
      <trkpt lat="44.2237" lon="7.02827">
        <ele>2541.3200683594</ele>
        <time>2012-08-26T15:18:13Z</time>
      </trkpt>
      <trkpt lat="44.22373" lon="7.0281">
        <ele>2541.2407226562</ele>
        <time>2012-08-26T15:18:21Z</time>
      </trkpt>
      <trkpt lat="44.22375" lon="7.02796">
        <ele>2541.5295410156</ele>
        <time>2012-08-26T15:18:28Z</time>
      </trkpt>
      <trkpt lat="44.22375" lon="7.02794">
        <ele>2541.4226074219</ele>
        <time>2012-08-26T15:18:29Z</time>
      </trkpt>
      <trkpt lat="44.22375" lon="7.02792">
        <ele>2541.5305175781</ele>
        <time>2012-08-26T15:18:35Z</time>
      </trkpt>
      <trkpt lat="44.22375" lon="7.02786">
        <ele>2541.6477050781</ele>
        <time>2012-08-26T15:18:42Z</time>
      </trkpt>
      <trkpt lat="44.22376" lon="7.02782">
        <ele>2541.8928222656</ele>
        <time>2012-08-26T15:18:49Z</time>
      </trkpt>
      <trkpt lat="44.22376" lon="7.02776">
        <ele>2541.9096679688</ele>
        <time>2012-08-26T15:18:56Z</time>
      </trkpt>
      <trkpt lat="44.22377" lon="7.02768">
        <ele>2542.3344726562</ele>
        <time>2012-08-26T15:19:03Z</time>
      </trkpt>
      <trkpt lat="44.22379" lon="7.02756">
        <ele>2543.1320800781</ele>
        <time>2012-08-26T15:19:13Z</time>
      </trkpt>
      <trkpt lat="44.22379" lon="7.02748">
        <ele>2543.3000488281</ele>
        <time>2012-08-26T15:19:22Z</time>
      </trkpt>
      <trkpt lat="44.2238" lon="7.02742">
        <ele>2544.0554199219</ele>
        <time>2012-08-26T15:19:28Z</time>
      </trkpt>
      <trkpt lat="44.22382" lon="7.02732">
        <ele>2545.2429199219</ele>
        <time>2012-08-26T15:19:36Z</time>
      </trkpt>
      <trkpt lat="44.22384" lon="7.02721">
        <ele>2546.830078125</ele>
        <time>2012-08-26T15:19:46Z</time>
      </trkpt>
      <trkpt lat="44.22386" lon="7.02715">
        <ele>2549.5551757812</ele>
        <time>2012-08-26T15:19:53Z</time>
      </trkpt>
      <trkpt lat="44.22387" lon="7.02707">
        <ele>2551.5104980469</ele>
        <time>2012-08-26T15:20:01Z</time>
      </trkpt>
      <trkpt lat="44.22389" lon="7.027">
        <ele>2554.6325683594</ele>
        <time>2012-08-26T15:20:11Z</time>
      </trkpt>
      <trkpt lat="44.22389" lon="7.02693">
        <ele>2556.1455078125</ele>
        <time>2012-08-26T15:20:20Z</time>
      </trkpt>
      <trkpt lat="44.22389" lon="7.02686">
        <ele>2557.3039550781</ele>
        <time>2012-08-26T15:20:27Z</time>
      </trkpt>
      <trkpt lat="44.2239" lon="7.02675">
        <ele>2558.833984375</ele>
        <time>2012-08-26T15:20:35Z</time>
      </trkpt>
      <trkpt lat="44.22393" lon="7.02667">
        <ele>2560.0988769531</ele>
        <time>2012-08-26T15:20:44Z</time>
      </trkpt>
      <trkpt lat="44.22394" lon="7.02662">
        <ele>2560.3466796875</ele>
        <time>2012-08-26T15:20:51Z</time>
      </trkpt>
      <trkpt lat="44.22396" lon="7.02656">
        <ele>2560.6455078125</ele>
        <time>2012-08-26T15:21:00Z</time>
      </trkpt>
      <trkpt lat="44.22398" lon="7.02649">
        <ele>2560.96484375</ele>
        <time>2012-08-26T15:21:11Z</time>
      </trkpt>
      <trkpt lat="44.22398" lon="7.02643">
        <ele>2561.1569824219</ele>
        <time>2012-08-26T15:21:19Z</time>
      </trkpt>
      <trkpt lat="44.22398" lon="7.02633">
        <ele>2561.4133300781</ele>
        <time>2012-08-26T15:21:30Z</time>
      </trkpt>
      <trkpt lat="44.224" lon="7.02623">
        <ele>2561.6394042969</ele>
        <time>2012-08-26T15:21:41Z</time>
      </trkpt>
      <trkpt lat="44.22402" lon="7.02615">
        <ele>2561.8952636719</ele>
        <time>2012-08-26T15:21:51Z</time>
      </trkpt>
      <trkpt lat="44.22404" lon="7.02607">
        <ele>2562.1394042969</ele>
        <time>2012-08-26T15:22:00Z</time>
      </trkpt>
      <trkpt lat="44.22405" lon="7.02599">
        <ele>2562.2548828125</ele>
        <time>2012-08-26T15:22:09Z</time>
      </trkpt>
      <trkpt lat="44.22407" lon="7.02591">
        <ele>2562.5476074219</ele>
        <time>2012-08-26T15:22:18Z</time>
      </trkpt>
      <trkpt lat="44.22409" lon="7.02582">
        <ele>2562.9895019531</ele>
        <time>2012-08-26T15:22:27Z</time>
      </trkpt>
      <trkpt lat="44.2241" lon="7.02575">
        <ele>2563.3911132812</ele>
        <time>2012-08-26T15:22:36Z</time>
      </trkpt>
      <trkpt lat="44.22411" lon="7.02568">
        <ele>2563.8395996094</ele>
        <time>2012-08-26T15:22:43Z</time>
      </trkpt>
      <trkpt lat="44.22414" lon="7.02555">
        <ele>2565.2536621094</ele>
        <time>2012-08-26T15:22:55Z</time>
      </trkpt>
      <trkpt lat="44.22416" lon="7.02545">
        <ele>2565.9997558594</ele>
        <time>2012-08-26T15:23:04Z</time>
      </trkpt>
      <trkpt lat="44.22416" lon="7.02535">
        <ele>2566.6069335938</ele>
        <time>2012-08-26T15:23:13Z</time>
      </trkpt>
      <trkpt lat="44.22417" lon="7.02529">
        <ele>2567.3745117188</ele>
        <time>2012-08-26T15:23:21Z</time>
      </trkpt>
      <trkpt lat="44.22416" lon="7.02521">
        <ele>2566.9028320312</ele>
        <time>2012-08-26T15:23:29Z</time>
      </trkpt>
      <trkpt lat="44.22414" lon="7.02509">
        <ele>2565.9948730469</ele>
        <time>2012-08-26T15:23:39Z</time>
      </trkpt>
      <trkpt lat="44.22414" lon="7.0251">
        <ele>2566.4033203125</ele>
        <time>2012-08-26T15:23:56Z</time>
      </trkpt>
      <trkpt lat="44.22416" lon="7.02511">
        <ele>2567.1987304688</ele>
        <time>2012-08-26T15:24:00Z</time>
      </trkpt>
      <trkpt lat="44.22415" lon="7.0251">
        <ele>2566.611328125</ele>
        <time>2012-08-26T15:24:06Z</time>
      </trkpt>
      <trkpt lat="44.22414" lon="7.02509">
        <ele>2566.4133300781</ele>
        <time>2012-08-26T15:24:08Z</time>
      </trkpt>
      <trkpt lat="44.22414" lon="7.02509">
        <ele>2566.4155273438</ele>
        <time>2012-08-26T15:24:09Z</time>
      </trkpt>
      <trkpt lat="44.22414" lon="7.0251">
        <ele>2566.40234375</ele>
        <time>2012-08-26T15:24:15Z</time>
      </trkpt>
      <trkpt lat="44.22414" lon="7.02509">
        <ele>2566.4113769531</ele>
        <time>2012-08-26T15:24:22Z</time>
      </trkpt>
      <trkpt lat="44.22414" lon="7.0251">
        <ele>2566.40234375</ele>
        <time>2012-08-26T15:24:27Z</time>
      </trkpt>
      <trkpt lat="44.22415" lon="7.02511">
        <ele>2566.5864257812</ele>
        <time>2012-08-26T15:24:29Z</time>
      </trkpt>
      <trkpt lat="44.22415" lon="7.02516">
        <ele>2566.66796875</ele>
        <time>2012-08-26T15:24:33Z</time>
      </trkpt>
      <trkpt lat="44.22416" lon="7.02537">
        <ele>2566.5141601562</ele>
        <time>2012-08-26T15:24:40Z</time>
      </trkpt>
      <trkpt lat="44.22412" lon="7.02562">
        <ele>2564.2697753906</ele>
        <time>2012-08-26T15:24:45Z</time>
      </trkpt>
      <trkpt lat="44.22409" lon="7.02578">
        <ele>2563.0090332031</ele>
        <time>2012-08-26T15:24:50Z</time>
      </trkpt>
      <trkpt lat="44.22409" lon="7.02578">
        <ele>2563.017578125</ele>
        <time>2012-08-26T15:24:55Z</time>
      </trkpt>
      <trkpt lat="44.22407" lon="7.02584">
        <ele>2562.5725097656</ele>
        <time>2012-08-26T15:25:01Z</time>
      </trkpt>
      <trkpt lat="44.22406" lon="7.02588">
        <ele>2562.3767089844</ele>
        <time>2012-08-26T15:25:04Z</time>
      </trkpt>
      <trkpt lat="44.22404" lon="7.02589">
        <ele>2562.1708984375</ele>
        <time>2012-08-26T15:25:12Z</time>
      </trkpt>
      <trkpt lat="44.22393" lon="7.02602">
        <ele>2561.0615234375</ele>
        <time>2012-08-26T15:25:18Z</time>
      </trkpt>
      <trkpt lat="44.22392" lon="7.02612">
        <ele>2561.1872558594</ele>
        <time>2012-08-26T15:25:22Z</time>
      </trkpt>
      <trkpt lat="44.22398" lon="7.02629">
        <ele>2561.4287109375</ele>
        <time>2012-08-26T15:25:26Z</time>
      </trkpt>
      <trkpt lat="44.22397" lon="7.02647">
        <ele>2561.0041503906</ele>
        <time>2012-08-26T15:25:30Z</time>
      </trkpt>
      <trkpt lat="44.22393" lon="7.02666">
        <ele>2560.18359375</ele>
        <time>2012-08-26T15:25:34Z</time>
      </trkpt>
      <trkpt lat="44.22388" lon="7.02695">
        <ele>2555.3918457031</ele>
        <time>2012-08-26T15:25:39Z</time>
      </trkpt>
      <trkpt lat="44.22386" lon="7.02713">
        <ele>2549.6877441406</ele>
        <time>2012-08-26T15:25:43Z</time>
      </trkpt>
      <trkpt lat="44.22381" lon="7.02735">
        <ele>2544.7309570312</ele>
        <time>2012-08-26T15:25:47Z</time>
      </trkpt>
      <trkpt lat="44.22378" lon="7.02753">
        <ele>2542.5744628906</ele>
        <time>2012-08-26T15:25:51Z</time>
      </trkpt>
      <trkpt lat="44.22375" lon="7.02775">
        <ele>2541.4094238281</ele>
        <time>2012-08-26T15:25:56Z</time>
      </trkpt>
      <trkpt lat="44.22374" lon="7.02799">
        <ele>2541.1181640625</ele>
        <time>2012-08-26T15:26:02Z</time>
      </trkpt>
      <trkpt lat="44.2237" lon="7.02815">
        <ele>2540.7131347656</ele>
        <time>2012-08-26T15:26:06Z</time>
      </trkpt>
      <trkpt lat="44.22369" lon="7.02817">
        <ele>2540.4870605469</ele>
        <time>2012-08-26T15:26:09Z</time>
      </trkpt>
      <trkpt lat="44.22366" lon="7.0282">
        <ele>2540.0207519531</ele>
        <time>2012-08-26T15:26:14Z</time>
      </trkpt>
      <trkpt lat="44.22363" lon="7.02826">
        <ele>2539.7275390625</ele>
        <time>2012-08-26T15:26:18Z</time>
      </trkpt>
      <trkpt lat="44.22358" lon="7.02828">
        <ele>2537.7849121094</ele>
        <time>2012-08-26T15:26:24Z</time>
      </trkpt>
      <trkpt lat="44.22356" lon="7.02826">
        <ele>2537.0473632812</ele>
        <time>2012-08-26T15:27:22Z</time>
      </trkpt>
      <trkpt lat="44.22356" lon="7.02827">
        <ele>2536.9074707031</ele>
        <time>2012-08-26T15:27:27Z</time>
      </trkpt>
      <trkpt lat="44.22356" lon="7.02825">
        <ele>2536.62890625</ele>
        <time>2012-08-26T15:27:35Z</time>
      </trkpt>
      <trkpt lat="44.22356" lon="7.02825">
        <ele>2536.7614746094</ele>
        <time>2012-08-26T15:27:39Z</time>
      </trkpt>
      <trkpt lat="44.22352" lon="7.02807">
        <ele>2533.3422851562</ele>
        <time>2012-08-26T15:27:44Z</time>
      </trkpt>
      <trkpt lat="44.22345" lon="7.02788">
        <ele>2528.1315917969</ele>
        <time>2012-08-26T15:27:48Z</time>
      </trkpt>
      <trkpt lat="44.22346" lon="7.02763">
        <ele>2527.7978515625</ele>
        <time>2012-08-26T15:27:52Z</time>
      </trkpt>
      <trkpt lat="44.22343" lon="7.02722">
        <ele>2525.6044921875</ele>
        <time>2012-08-26T15:27:57Z</time>
      </trkpt>
      <trkpt lat="44.22342" lon="7.02714">
        <ele>2525.2287597656</ele>
        <time>2012-08-26T15:27:58Z</time>
      </trkpt>
      <trkpt lat="44.22336" lon="7.02678">
        <ele>2523.5083007812</ele>
        <time>2012-08-26T15:28:03Z</time>
      </trkpt>
      <trkpt lat="44.22335" lon="7.02658">
        <ele>2525.1081542969</ele>
        <time>2012-08-26T15:28:07Z</time>
      </trkpt>
      <trkpt lat="44.22333" lon="7.02653">
        <ele>2524.8413085938</ele>
        <time>2012-08-26T15:28:08Z</time>
      </trkpt>
      <trkpt lat="44.22327" lon="7.02633">
        <ele>2525.7263183594</ele>
        <time>2012-08-26T15:28:11Z</time>
      </trkpt>
      <trkpt lat="44.22318" lon="7.02606">
        <ele>2526.3271484375</ele>
        <time>2012-08-26T15:28:14Z</time>
      </trkpt>
      <trkpt lat="44.2231" lon="7.02582">
        <ele>2526.2897949219</ele>
        <time>2012-08-26T15:28:18Z</time>
      </trkpt>
      <trkpt lat="44.22306" lon="7.02562">
        <ele>2524.3620605469</ele>
        <time>2012-08-26T15:28:22Z</time>
      </trkpt>
      <trkpt lat="44.22303" lon="7.02539">
        <ele>2522.79296875</ele>
        <time>2012-08-26T15:28:27Z</time>
      </trkpt>
      <trkpt lat="44.22301" lon="7.02535">
        <ele>2522.083984375</ele>
        <time>2012-08-26T15:28:28Z</time>
      </trkpt>
      <trkpt lat="44.22298" lon="7.02516">
        <ele>2520.1635742188</ele>
        <time>2012-08-26T15:28:34Z</time>
      </trkpt>
      <trkpt lat="44.22299" lon="7.02503">
        <ele>2519.9543457031</ele>
        <time>2012-08-26T15:28:39Z</time>
      </trkpt>
      <trkpt lat="44.22299" lon="7.02504">
        <ele>2520.099609375</ele>
        <time>2012-08-26T15:28:50Z</time>
      </trkpt>
      <trkpt lat="44.22301" lon="7.02505">
        <ele>2520.7485351562</ele>
        <time>2012-08-26T15:28:54Z</time>
      </trkpt>
      <trkpt lat="44.22301" lon="7.02505">
        <ele>2520.8718261719</ele>
        <time>2012-08-26T15:28:59Z</time>
      </trkpt>
      <trkpt lat="44.223" lon="7.02503">
        <ele>2520.4223632812</ele>
        <time>2012-08-26T15:29:05Z</time>
      </trkpt>
      <trkpt lat="44.223" lon="7.0249">
        <ele>2520.1135253906</ele>
        <time>2012-08-26T15:29:12Z</time>
      </trkpt>
      <trkpt lat="44.22301" lon="7.02481">
        <ele>2520.3156738281</ele>
        <time>2012-08-26T15:29:18Z</time>
      </trkpt>
      <trkpt lat="44.22301" lon="7.02473">
        <ele>2520.3991699219</ele>
        <time>2012-08-26T15:29:24Z</time>
      </trkpt>
      <trkpt lat="44.22301" lon="7.02466">
        <ele>2520.4729003906</ele>
        <time>2012-08-26T15:29:30Z</time>
      </trkpt>
      <trkpt lat="44.22303" lon="7.02467">
        <ele>2521.0517578125</ele>
        <time>2012-08-26T15:29:36Z</time>
      </trkpt>
      <trkpt lat="44.22302" lon="7.02464">
        <ele>2520.7409667969</ele>
        <time>2012-08-26T15:29:42Z</time>
      </trkpt>
      <trkpt lat="44.22301" lon="7.02458">
        <ele>2520.3884277344</ele>
        <time>2012-08-26T15:29:47Z</time>
      </trkpt>
      <trkpt lat="44.22302" lon="7.02445">
        <ele>2520.5756835938</ele>
        <time>2012-08-26T15:29:54Z</time>
      </trkpt>
      <trkpt lat="44.22304" lon="7.0243">
        <ele>2521.6838378906</ele>
        <time>2012-08-26T15:30:01Z</time>
      </trkpt>
      <trkpt lat="44.22304" lon="7.0243">
        <ele>2521.8737792969</ele>
        <time>2012-08-26T15:30:11Z</time>
      </trkpt>
      <trkpt lat="44.22303" lon="7.02427">
        <ele>2521.5947265625</ele>
        <time>2012-08-26T15:30:23Z</time>
      </trkpt>
      <trkpt lat="44.22304" lon="7.02421">
        <ele>2522.15625</ele>
        <time>2012-08-26T15:30:28Z</time>
      </trkpt>
      <trkpt lat="44.22304" lon="7.02418">
        <ele>2522.0473632812</ele>
        <time>2012-08-26T15:30:38Z</time>
      </trkpt>
      <trkpt lat="44.22305" lon="7.02403">
        <ele>2522.6560058594</ele>
        <time>2012-08-26T15:30:48Z</time>
      </trkpt>
      <trkpt lat="44.22305" lon="7.02394">
        <ele>2522.4245605469</ele>
        <time>2012-08-26T15:30:57Z</time>
      </trkpt>
      <trkpt lat="44.22301" lon="7.02385">
        <ele>2520.412109375</ele>
        <time>2012-08-26T15:31:06Z</time>
      </trkpt>
      <trkpt lat="44.22301" lon="7.02377">
        <ele>2520.142578125</ele>
        <time>2012-08-26T15:31:13Z</time>
      </trkpt>
      <trkpt lat="44.22303" lon="7.02369">
        <ele>2521.2377929688</ele>
        <time>2012-08-26T15:31:21Z</time>
      </trkpt>
      <trkpt lat="44.22305" lon="7.02361">
        <ele>2522.8403320312</ele>
        <time>2012-08-26T15:31:31Z</time>
      </trkpt>
      <trkpt lat="44.22307" lon="7.02352">
        <ele>2523.3015136719</ele>
        <time>2012-08-26T15:31:40Z</time>
      </trkpt>
      <trkpt lat="44.2231" lon="7.02345">
        <ele>2524.2204589844</ele>
        <time>2012-08-26T15:31:50Z</time>
      </trkpt>
      <trkpt lat="44.22313" lon="7.02338">
        <ele>2524.8920898438</ele>
        <time>2012-08-26T15:31:58Z</time>
      </trkpt>
      <trkpt lat="44.22316" lon="7.02327">
        <ele>2525.6623535156</ele>
        <time>2012-08-26T15:32:08Z</time>
      </trkpt>
      <trkpt lat="44.22319" lon="7.02318">
        <ele>2526.060546875</ele>
        <time>2012-08-26T15:32:17Z</time>
      </trkpt>
      <trkpt lat="44.22319" lon="7.02316">
        <ele>2525.9677734375</ele>
        <time>2012-08-26T15:32:26Z</time>
      </trkpt>
      <trkpt lat="44.22318" lon="7.02317">
        <ele>2525.6828613281</ele>
        <time>2012-08-26T15:32:33Z</time>
      </trkpt>
      <trkpt lat="44.22317" lon="7.02317">
        <ele>2525.4116210938</ele>
        <time>2012-08-26T15:32:40Z</time>
      </trkpt>
      <trkpt lat="44.22318" lon="7.02317">
        <ele>2525.5490722656</ele>
        <time>2012-08-26T15:32:48Z</time>
      </trkpt>
      <trkpt lat="44.22319" lon="7.02311">
        <ele>2525.5903320312</ele>
        <time>2012-08-26T15:32:55Z</time>
      </trkpt>
      <trkpt lat="44.22323" lon="7.02298">
        <ele>2526.5710449219</ele>
        <time>2012-08-26T15:33:01Z</time>
      </trkpt>
      <trkpt lat="44.22329" lon="7.02279">
        <ele>2527.4992675781</ele>
        <time>2012-08-26T15:33:09Z</time>
      </trkpt>
      <trkpt lat="44.22331" lon="7.02268">
        <ele>2527.1166992188</ele>
        <time>2012-08-26T15:33:13Z</time>
      </trkpt>
      <trkpt lat="44.2233" lon="7.02263">
        <ele>2526.3266601562</ele>
        <time>2012-08-26T15:33:21Z</time>
      </trkpt>
      <trkpt lat="44.2233" lon="7.02259">
        <ele>2526.0341796875</ele>
        <time>2012-08-26T15:33:27Z</time>
      </trkpt>
      <trkpt lat="44.22333" lon="7.02238">
        <ele>2525.1010742188</ele>
        <time>2012-08-26T15:33:36Z</time>
      </trkpt>
      <trkpt lat="44.22338" lon="7.02221">
        <ele>2525.5590820312</ele>
        <time>2012-08-26T15:33:41Z</time>
      </trkpt>
      <trkpt lat="44.22346" lon="7.022">
        <ele>2526.0297851562</ele>
        <time>2012-08-26T15:33:46Z</time>
      </trkpt>
      <trkpt lat="44.22355" lon="7.02174">
        <ele>2526.1977539062</ele>
        <time>2012-08-26T15:33:52Z</time>
      </trkpt>
      <trkpt lat="44.22356" lon="7.02157">
        <ele>2524.2087402344</ele>
        <time>2012-08-26T15:33:56Z</time>
      </trkpt>
      <trkpt lat="44.22355" lon="7.02129">
        <ele>2519.1796875</ele>
        <time>2012-08-26T15:34:02Z</time>
      </trkpt>
      <trkpt lat="44.22358" lon="7.02105">
        <ele>2516.1909179688</ele>
        <time>2012-08-26T15:34:06Z</time>
      </trkpt>
      <trkpt lat="44.2236" lon="7.02073">
        <ele>2505.6437988281</ele>
        <time>2012-08-26T15:34:11Z</time>
      </trkpt>
      <trkpt lat="44.22363" lon="7.02059">
        <ele>2502.3989257812</ele>
        <time>2012-08-26T15:34:13Z</time>
      </trkpt>
      <trkpt lat="44.22374" lon="7.02041">
        <ele>2504.4194335938</ele>
        <time>2012-08-26T15:34:17Z</time>
      </trkpt>
      <trkpt lat="44.22383" lon="7.02036">
        <ele>2508.6765136719</ele>
        <time>2012-08-26T15:34:20Z</time>
      </trkpt>
      <trkpt lat="44.22398" lon="7.02016">
        <ele>2513.2690429688</ele>
        <time>2012-08-26T15:34:27Z</time>
      </trkpt>
      <trkpt lat="44.22403" lon="7.01998">
        <ele>2513.8271484375</ele>
        <time>2012-08-26T15:34:31Z</time>
      </trkpt>
      <trkpt lat="44.22401" lon="7.0199">
        <ele>2511.7734375</ele>
        <time>2012-08-26T15:34:33Z</time>
      </trkpt>
      <trkpt lat="44.22399" lon="7.01988">
        <ele>2509.6728515625</ele>
        <time>2012-08-26T15:34:37Z</time>
      </trkpt>
      <trkpt lat="44.22397" lon="7.01995">
        <ele>2509.6391601562</ele>
        <time>2012-08-26T15:34:39Z</time>
      </trkpt>
      <trkpt lat="44.22393" lon="7.01997">
        <ele>2507.4230957031</ele>
        <time>2012-08-26T15:34:42Z</time>
      </trkpt>
      <trkpt lat="44.22391" lon="7.01976">
        <ele>2502.03515625</ele>
        <time>2012-08-26T15:34:46Z</time>
      </trkpt>
      <trkpt lat="44.22385" lon="7.01949">
        <ele>2487.2651367188</ele>
        <time>2012-08-26T15:34:50Z</time>
      </trkpt>
      <trkpt lat="44.2238" lon="7.01938">
        <ele>2478.2209472656</ele>
        <time>2012-08-26T15:34:53Z</time>
      </trkpt>
      <trkpt lat="44.22374" lon="7.01941">
        <ele>2475.9958496094</ele>
        <time>2012-08-26T15:34:57Z</time>
      </trkpt>
      <trkpt lat="44.22371" lon="7.01943">
        <ele>2474.3979492188</ele>
        <time>2012-08-26T15:35:00Z</time>
      </trkpt>
      <trkpt lat="44.22371" lon="7.01932">
        <ele>2469.2021484375</ele>
        <time>2012-08-26T15:35:04Z</time>
      </trkpt>
      <trkpt lat="44.22376" lon="7.01915">
        <ele>2463.8107910156</ele>
        <time>2012-08-26T15:35:09Z</time>
      </trkpt>
      <trkpt lat="44.22382" lon="7.01906">
        <ele>2463.2387695312</ele>
        <time>2012-08-26T15:35:14Z</time>
      </trkpt>
      <trkpt lat="44.22387" lon="7.01898">
        <ele>2462.1110839844</ele>
        <time>2012-08-26T15:35:19Z</time>
      </trkpt>
      <trkpt lat="44.22396" lon="7.01886">
        <ele>2463.6020507812</ele>
        <time>2012-08-26T15:35:25Z</time>
      </trkpt>
      <trkpt lat="44.22404" lon="7.01873">
        <ele>2469.4582519531</ele>
        <time>2012-08-26T15:35:30Z</time>
      </trkpt>
      <trkpt lat="44.22405" lon="7.01863">
        <ele>2470.3520507812</ele>
        <time>2012-08-26T15:35:33Z</time>
      </trkpt>
      <trkpt lat="44.22405" lon="7.01857">
        <ele>2470.0981445312</ele>
        <time>2012-08-26T15:35:37Z</time>
      </trkpt>
      <trkpt lat="44.22404" lon="7.01856">
        <ele>2469.2233886719</ele>
        <time>2012-08-26T15:35:43Z</time>
      </trkpt>
      <trkpt lat="44.22405" lon="7.01851">
        <ele>2470.4311523438</ele>
        <time>2012-08-26T15:35:49Z</time>
      </trkpt>
      <trkpt lat="44.22403" lon="7.01844">
        <ele>2468.6408691406</ele>
        <time>2012-08-26T15:35:56Z</time>
      </trkpt>
      <trkpt lat="44.22403" lon="7.0184">
        <ele>2468.333984375</ele>
        <time>2012-08-26T15:36:03Z</time>
      </trkpt>
      <trkpt lat="44.224" lon="7.01831">
        <ele>2466.6208496094</ele>
        <time>2012-08-26T15:36:07Z</time>
      </trkpt>
      <trkpt lat="44.224" lon="7.01832">
        <ele>2466.2299804688</ele>
        <time>2012-08-26T15:36:12Z</time>
      </trkpt>
      <trkpt lat="44.22398" lon="7.01836">
        <ele>2464.5708007812</ele>
        <time>2012-08-26T15:36:18Z</time>
      </trkpt>
      <trkpt lat="44.22396" lon="7.01841">
        <ele>2463.1013183594</ele>
        <time>2012-08-26T15:36:25Z</time>
      </trkpt>
      <trkpt lat="44.22395" lon="7.01843">
        <ele>2462.2048339844</ele>
        <time>2012-08-26T15:36:32Z</time>
      </trkpt>
      <trkpt lat="44.22392" lon="7.01842">
        <ele>2460.0334472656</ele>
        <time>2012-08-26T15:36:40Z</time>
      </trkpt>
      <trkpt lat="44.22393" lon="7.01841">
        <ele>2460.3107910156</ele>
        <time>2012-08-26T15:36:45Z</time>
      </trkpt>
      <trkpt lat="44.22392" lon="7.01839">
        <ele>2459.3405761719</ele>
        <time>2012-08-26T15:36:51Z</time>
      </trkpt>
      <trkpt lat="44.2239" lon="7.01836">
        <ele>2457.6840820312</ele>
        <time>2012-08-26T15:37:00Z</time>
      </trkpt>
      <trkpt lat="44.22389" lon="7.01833">
        <ele>2457.2946777344</ele>
        <time>2012-08-26T15:37:05Z</time>
      </trkpt>
      <trkpt lat="44.22387" lon="7.01829">
        <ele>2456.1032714844</ele>
        <time>2012-08-26T15:37:11Z</time>
      </trkpt>
      <trkpt lat="44.22382" lon="7.01812">
        <ele>2454.1223144531</ele>
        <time>2012-08-26T15:37:17Z</time>
      </trkpt>
      <trkpt lat="44.22375" lon="7.01796">
        <ele>2451.0397949219</ele>
        <time>2012-08-26T15:37:23Z</time>
      </trkpt>
      <trkpt lat="44.22372" lon="7.01787">
        <ele>2450.1174316406</ele>
        <time>2012-08-26T15:37:25Z</time>
      </trkpt>
      <trkpt lat="44.22374" lon="7.01778">
        <ele>2452.8508300781</ele>
        <time>2012-08-26T15:37:33Z</time>
      </trkpt>
      <trkpt lat="44.22374" lon="7.01771">
        <ele>2454.4118652344</ele>
        <time>2012-08-26T15:37:40Z</time>
      </trkpt>
      <trkpt lat="44.22373" lon="7.01763">
        <ele>2455.2036132812</ele>
        <time>2012-08-26T15:37:47Z</time>
      </trkpt>
      <trkpt lat="44.22371" lon="7.01758">
        <ele>2454.8723144531</ele>
        <time>2012-08-26T15:37:54Z</time>
      </trkpt>
      <trkpt lat="44.22366" lon="7.01752">
        <ele>2452.4833984375</ele>
        <time>2012-08-26T15:38:01Z</time>
      </trkpt>
      <trkpt lat="44.22361" lon="7.01745">
        <ele>2450.5568847656</ele>
        <time>2012-08-26T15:38:09Z</time>
      </trkpt>
      <trkpt lat="44.22358" lon="7.01736">
        <ele>2449.1220703125</ele>
        <time>2012-08-26T15:38:17Z</time>
      </trkpt>
      <trkpt lat="44.22353" lon="7.01729">
        <ele>2446.4819335938</ele>
        <time>2012-08-26T15:38:24Z</time>
      </trkpt>
      <trkpt lat="44.22351" lon="7.01725">
        <ele>2446.4436035156</ele>
        <time>2012-08-26T15:38:27Z</time>
      </trkpt>
      <trkpt lat="44.22351" lon="7.01715">
        <ele>2447.9255371094</ele>
        <time>2012-08-26T15:38:35Z</time>
      </trkpt>
      <trkpt lat="44.22351" lon="7.0171">
        <ele>2449.3762207031</ele>
        <time>2012-08-26T15:38:37Z</time>
      </trkpt>
      <trkpt lat="44.22346" lon="7.01702">
        <ele>2447.5815429688</ele>
        <time>2012-08-26T15:38:42Z</time>
      </trkpt>
      <trkpt lat="44.22345" lon="7.01701">
        <ele>2446.921875</ele>
        <time>2012-08-26T15:38:47Z</time>
      </trkpt>
      <trkpt lat="44.22341" lon="7.01698">
        <ele>2444.2739257812</ele>
        <time>2012-08-26T15:38:53Z</time>
      </trkpt>
      <trkpt lat="44.22337" lon="7.01691">
        <ele>2444.0014648438</ele>
        <time>2012-08-26T15:38:59Z</time>
      </trkpt>
      <trkpt lat="44.22331" lon="7.01679">
        <ele>2444.5341796875</ele>
        <time>2012-08-26T15:39:08Z</time>
      </trkpt>
      <trkpt lat="44.22323" lon="7.01668">
        <ele>2442.7194824219</ele>
        <time>2012-08-26T15:39:17Z</time>
      </trkpt>
      <trkpt lat="44.22319" lon="7.01657">
        <ele>2443.8352050781</ele>
        <time>2012-08-26T15:39:24Z</time>
      </trkpt>
      <trkpt lat="44.22315" lon="7.01645">
        <ele>2445.0339355469</ele>
        <time>2012-08-26T15:39:33Z</time>
      </trkpt>
      <trkpt lat="44.2231" lon="7.01637">
        <ele>2444.1086425781</ele>
        <time>2012-08-26T15:39:40Z</time>
      </trkpt>
      <trkpt lat="44.22305" lon="7.01632">
        <ele>2442.4040527344</ele>
        <time>2012-08-26T15:39:47Z</time>
      </trkpt>
      <trkpt lat="44.22301" lon="7.01626">
        <ele>2441.0219726562</ele>
        <time>2012-08-26T15:39:54Z</time>
      </trkpt>
      <trkpt lat="44.22297" lon="7.01622">
        <ele>2439.2602539062</ele>
        <time>2012-08-26T15:39:59Z</time>
      </trkpt>
      <trkpt lat="44.22295" lon="7.01618">
        <ele>2439.3630371094</ele>
        <time>2012-08-26T15:40:04Z</time>
      </trkpt>
      <trkpt lat="44.22295" lon="7.01614">
        <ele>2441.0517578125</ele>
        <time>2012-08-26T15:40:27Z</time>
      </trkpt>
      <trkpt lat="44.2229" lon="7.01608">
        <ele>2439.4919433594</ele>
        <time>2012-08-26T15:40:34Z</time>
      </trkpt>
      <trkpt lat="44.22284" lon="7.01602">
        <ele>2437.5368652344</ele>
        <time>2012-08-26T15:40:40Z</time>
      </trkpt>
      <trkpt lat="44.22276" lon="7.01593">
        <ele>2434.8505859375</ele>
        <time>2012-08-26T15:40:48Z</time>
      </trkpt>
      <trkpt lat="44.22266" lon="7.01587">
        <ele>2431.4245605469</ele>
        <time>2012-08-26T15:40:57Z</time>
      </trkpt>
      <trkpt lat="44.2226" lon="7.0158">
        <ele>2430.8703613281</ele>
        <time>2012-08-26T15:41:04Z</time>
      </trkpt>
      <trkpt lat="44.22258" lon="7.01571">
        <ele>2433.6577148438</ele>
        <time>2012-08-26T15:41:11Z</time>
      </trkpt>
      <trkpt lat="44.22254" lon="7.01566">
        <ele>2433.3627929688</ele>
        <time>2012-08-26T15:41:20Z</time>
      </trkpt>
      <trkpt lat="44.2225" lon="7.01558">
        <ele>2434.6579589844</ele>
        <time>2012-08-26T15:41:27Z</time>
      </trkpt>
      <trkpt lat="44.22245" lon="7.0155">
        <ele>2434.9143066406</ele>
        <time>2012-08-26T15:41:34Z</time>
      </trkpt>
      <trkpt lat="44.2224" lon="7.0154">
        <ele>2435.4565429688</ele>
        <time>2012-08-26T15:41:41Z</time>
      </trkpt>
      <trkpt lat="44.22233" lon="7.01533">
        <ele>2433.6372070312</ele>
        <time>2012-08-26T15:41:49Z</time>
      </trkpt>
      <trkpt lat="44.22227" lon="7.01529">
        <ele>2432.0046386719</ele>
        <time>2012-08-26T15:41:55Z</time>
      </trkpt>
      <trkpt lat="44.22219" lon="7.01524">
        <ele>2428.5712890625</ele>
        <time>2012-08-26T15:42:03Z</time>
      </trkpt>
      <trkpt lat="44.22211" lon="7.01517">
        <ele>2425.3059082031</ele>
        <time>2012-08-26T15:42:11Z</time>
      </trkpt>
      <trkpt lat="44.22209" lon="7.01514">
        <ele>2424.7822265625</ele>
        <time>2012-08-26T15:42:15Z</time>
      </trkpt>
      <trkpt lat="44.22203" lon="7.01505">
        <ele>2423.0869140625</ele>
        <time>2012-08-26T15:42:23Z</time>
      </trkpt>
      <trkpt lat="44.22196" lon="7.01496">
        <ele>2421.1911621094</ele>
        <time>2012-08-26T15:42:31Z</time>
      </trkpt>
      <trkpt lat="44.22189" lon="7.01489">
        <ele>2420.4162597656</ele>
        <time>2012-08-26T15:42:39Z</time>
      </trkpt>
      <trkpt lat="44.22184" lon="7.01486">
        <ele>2418.7685546875</ele>
        <time>2012-08-26T15:42:45Z</time>
      </trkpt>
      <trkpt lat="44.22174" lon="7.01477">
        <ele>2416.7072753906</ele>
        <time>2012-08-26T15:42:56Z</time>
      </trkpt>
      <trkpt lat="44.22165" lon="7.01467">
        <ele>2415.1765136719</ele>
        <time>2012-08-26T15:43:05Z</time>
      </trkpt>
      <trkpt lat="44.22155" lon="7.01459">
        <ele>2412.7316894531</ele>
        <time>2012-08-26T15:43:15Z</time>
      </trkpt>
      <trkpt lat="44.2215" lon="7.0145">
        <ele>2412.7211914062</ele>
        <time>2012-08-26T15:43:23Z</time>
      </trkpt>
      <trkpt lat="44.22146" lon="7.0144">
        <ele>2412.3583984375</ele>
        <time>2012-08-26T15:43:31Z</time>
      </trkpt>
      <trkpt lat="44.22142" lon="7.01432">
        <ele>2410.564453125</ele>
        <time>2012-08-26T15:43:38Z</time>
      </trkpt>
      <trkpt lat="44.22136" lon="7.01422">
        <ele>2408.8725585938</ele>
        <time>2012-08-26T15:43:46Z</time>
      </trkpt>
      <trkpt lat="44.22131" lon="7.01414">
        <ele>2407.876953125</ele>
        <time>2012-08-26T15:43:53Z</time>
      </trkpt>
      <trkpt lat="44.22128" lon="7.01405">
        <ele>2406.0185546875</ele>
        <time>2012-08-26T15:44:00Z</time>
      </trkpt>
      <trkpt lat="44.22124" lon="7.01388">
        <ele>2404.0717773438</ele>
        <time>2012-08-26T15:44:06Z</time>
      </trkpt>
      <trkpt lat="44.22127" lon="7.0137">
        <ele>2400.9997558594</ele>
        <time>2012-08-26T15:44:13Z</time>
      </trkpt>
      <trkpt lat="44.22128" lon="7.01366">
        <ele>2400.6225585938</ele>
        <time>2012-08-26T15:44:19Z</time>
      </trkpt>
      <trkpt lat="44.22129" lon="7.01355">
        <ele>2398.6843261719</ele>
        <time>2012-08-26T15:44:23Z</time>
      </trkpt>
      <trkpt lat="44.22129" lon="7.01349">
        <ele>2396.6147460938</ele>
        <time>2012-08-26T15:44:25Z</time>
      </trkpt>
      <trkpt lat="44.22132" lon="7.01339">
        <ele>2395.8122558594</ele>
        <time>2012-08-26T15:44:28Z</time>
      </trkpt>
      <trkpt lat="44.22128" lon="7.01331">
        <ele>2391.2548828125</ele>
        <time>2012-08-26T15:44:32Z</time>
      </trkpt>
      <trkpt lat="44.22121" lon="7.01316">
        <ele>2383.7807617188</ele>
        <time>2012-08-26T15:44:37Z</time>
      </trkpt>
      <trkpt lat="44.22125" lon="7.01289">
        <ele>2378.3818359375</ele>
        <time>2012-08-26T15:44:42Z</time>
      </trkpt>
      <trkpt lat="44.22128" lon="7.01268">
        <ele>2373.9011230469</ele>
        <time>2012-08-26T15:44:46Z</time>
      </trkpt>
      <trkpt lat="44.22132" lon="7.01255">
        <ele>2372.5415039062</ele>
        <time>2012-08-26T15:44:48Z</time>
      </trkpt>
      <trkpt lat="44.22139" lon="7.01237">
        <ele>2370.2270507812</ele>
        <time>2012-08-26T15:44:51Z</time>
      </trkpt>
      <trkpt lat="44.22141" lon="7.01227">
        <ele>2368.3588867188</ele>
        <time>2012-08-26T15:44:53Z</time>
      </trkpt>
      <trkpt lat="44.22153" lon="7.012">
        <ele>2366.7951660156</ele>
        <time>2012-08-26T15:44:58Z</time>
      </trkpt>
      <trkpt lat="44.22162" lon="7.01178">
        <ele>2365.6728515625</ele>
        <time>2012-08-26T15:45:03Z</time>
      </trkpt>
      <trkpt lat="44.22164" lon="7.01174">
        <ele>2365.470703125</ele>
        <time>2012-08-26T15:45:04Z</time>
      </trkpt>
      <trkpt lat="44.2218" lon="7.0114">
        <ele>2363.98046875</ele>
        <time>2012-08-26T15:45:11Z</time>
      </trkpt>
      <trkpt lat="44.22187" lon="7.01128">
        <ele>2363.8986816406</ele>
        <time>2012-08-26T15:45:13Z</time>
      </trkpt>
      <trkpt lat="44.22197" lon="7.01098">
        <ele>2363.2133789062</ele>
        <time>2012-08-26T15:45:17Z</time>
      </trkpt>
      <trkpt lat="44.22206" lon="7.01051">
        <ele>2360.1105957031</ele>
        <time>2012-08-26T15:45:23Z</time>
      </trkpt>
      <trkpt lat="44.22209" lon="7.0103">
        <ele>2358.6821289062</ele>
        <time>2012-08-26T15:45:26Z</time>
      </trkpt>
      <trkpt lat="44.22212" lon="7.01006">
        <ele>2356.3195800781</ele>
        <time>2012-08-26T15:45:30Z</time>
      </trkpt>
      <trkpt lat="44.22211" lon="7.00992">
        <ele>2354.5979003906</ele>
        <time>2012-08-26T15:45:32Z</time>
      </trkpt>
      <trkpt lat="44.22211" lon="7.0097">
        <ele>2352.6071777344</ele>
        <time>2012-08-26T15:45:37Z</time>
      </trkpt>
      <trkpt lat="44.22212" lon="7.00959">
        <ele>2351.9816894531</ele>
        <time>2012-08-26T15:45:39Z</time>
      </trkpt>
      <trkpt lat="44.22212" lon="7.00931">
        <ele>2349.4235839844</ele>
        <time>2012-08-26T15:45:44Z</time>
      </trkpt>
      <trkpt lat="44.22213" lon="7.00914">
        <ele>2348.3352050781</ele>
        <time>2012-08-26T15:45:49Z</time>
      </trkpt>
      <trkpt lat="44.22213" lon="7.00897">
        <ele>2346.6323242188</ele>
        <time>2012-08-26T15:45:54Z</time>
      </trkpt>
      <trkpt lat="44.22208" lon="7.00892">
        <ele>2342.8635253906</ele>
        <time>2012-08-26T15:45:57Z</time>
      </trkpt>
      <trkpt lat="44.22202" lon="7.00898">
        <ele>2340.2568359375</ele>
        <time>2012-08-26T15:46:00Z</time>
      </trkpt>
      <trkpt lat="44.22197" lon="7.00907">
        <ele>2337.6044921875</ele>
        <time>2012-08-26T15:46:02Z</time>
      </trkpt>
      <trkpt lat="44.22183" lon="7.00928">
        <ele>2333.7998046875</ele>
        <time>2012-08-26T15:46:06Z</time>
      </trkpt>
      <trkpt lat="44.2218" lon="7.00933">
        <ele>2333.1525878906</ele>
        <time>2012-08-26T15:46:07Z</time>
      </trkpt>
      <trkpt lat="44.22165" lon="7.00958">
        <ele>2329.794921875</ele>
        <time>2012-08-26T15:46:11Z</time>
      </trkpt>
      <trkpt lat="44.22156" lon="7.00977">
        <ele>2330.1484375</ele>
        <time>2012-08-26T15:46:14Z</time>
      </trkpt>
      <trkpt lat="44.22151" lon="7.0098">
        <ele>2329.8395996094</ele>
        <time>2012-08-26T15:46:18Z</time>
      </trkpt>
      <trkpt lat="44.22151" lon="7.00976">
        <ele>2329.5888671875</ele>
        <time>2012-08-26T15:46:19Z</time>
      </trkpt>
      <trkpt lat="44.22149" lon="7.00942">
        <ele>2326.8845214844</ele>
        <time>2012-08-26T15:46:24Z</time>
      </trkpt>
      <trkpt lat="44.2215" lon="7.00909">
        <ele>2324.2951660156</ele>
        <time>2012-08-26T15:46:28Z</time>
      </trkpt>
      <trkpt lat="44.22154" lon="7.00887">
        <ele>2322.9458007812</ele>
        <time>2012-08-26T15:46:31Z</time>
      </trkpt>
      <trkpt lat="44.22151" lon="7.00862">
        <ele>2320.9716796875</ele>
        <time>2012-08-26T15:46:35Z</time>
      </trkpt>
      <trkpt lat="44.22151" lon="7.00838">
        <ele>2317.7788085938</ele>
        <time>2012-08-26T15:46:38Z</time>
      </trkpt>
      <trkpt lat="44.22156" lon="7.00802">
        <ele>2313.814453125</ele>
        <time>2012-08-26T15:46:42Z</time>
      </trkpt>
      <trkpt lat="44.22154" lon="7.00754">
        <ele>2305.9645996094</ele>
        <time>2012-08-26T15:46:48Z</time>
      </trkpt>
      <trkpt lat="44.22155" lon="7.00726">
        <ele>2303.3122558594</ele>
        <time>2012-08-26T15:46:51Z</time>
      </trkpt>
      <trkpt lat="44.22156" lon="7.00707">
        <ele>2301.2333984375</ele>
        <time>2012-08-26T15:46:53Z</time>
      </trkpt>
      <trkpt lat="44.22161" lon="7.00676">
        <ele>2299.9826660156</ele>
        <time>2012-08-26T15:46:57Z</time>
      </trkpt>
      <trkpt lat="44.22164" lon="7.00652">
        <ele>2298.2126464844</ele>
        <time>2012-08-26T15:47:00Z</time>
      </trkpt>
      <trkpt lat="44.22168" lon="7.00599">
        <ele>2292.8547363281</ele>
        <time>2012-08-26T15:47:06Z</time>
      </trkpt>
      <trkpt lat="44.22173" lon="7.00562">
        <ele>2289.7766113281</ele>
        <time>2012-08-26T15:47:10Z</time>
      </trkpt>
      <trkpt lat="44.22177" lon="7.00532">
        <ele>2286.7302246094</ele>
        <time>2012-08-26T15:47:13Z</time>
      </trkpt>
      <trkpt lat="44.22182" lon="7.00503">
        <ele>2284.4006347656</ele>
        <time>2012-08-26T15:47:16Z</time>
      </trkpt>
      <trkpt lat="44.22188" lon="7.00459">
        <ele>2281.4819335938</ele>
        <time>2012-08-26T15:47:20Z</time>
      </trkpt>
      <trkpt lat="44.2219" lon="7.00439">
        <ele>2279.982421875</ele>
        <time>2012-08-26T15:47:22Z</time>
      </trkpt>
      <trkpt lat="44.22195" lon="7.00403">
        <ele>2278.5600585938</ele>
        <time>2012-08-26T15:47:26Z</time>
      </trkpt>
      <trkpt lat="44.22197" lon="7.00394">
        <ele>2278.1274414062</ele>
        <time>2012-08-26T15:47:27Z</time>
      </trkpt>
      <trkpt lat="44.22201" lon="7.00377">
        <ele>2276.7751464844</ele>
        <time>2012-08-26T15:47:29Z</time>
      </trkpt>
      <trkpt lat="44.22206" lon="7.00353">
        <ele>2274.732421875</ele>
        <time>2012-08-26T15:47:32Z</time>
      </trkpt>
      <trkpt lat="44.22214" lon="7.00312">
        <ele>2270.8940429688</ele>
        <time>2012-08-26T15:47:37Z</time>
      </trkpt>
      <trkpt lat="44.22223" lon="7.00277">
        <ele>2268.0710449219</ele>
        <time>2012-08-26T15:47:41Z</time>
      </trkpt>
      <trkpt lat="44.22232" lon="7.00244">
        <ele>2264.7683105469</ele>
        <time>2012-08-26T15:47:46Z</time>
      </trkpt>
      <trkpt lat="44.22233" lon="7.00237">
        <ele>2263.9992675781</ele>
        <time>2012-08-26T15:47:47Z</time>
      </trkpt>
      <trkpt lat="44.22238" lon="7.00215">
        <ele>2260.8059082031</ele>
        <time>2012-08-26T15:47:50Z</time>
      </trkpt>
      <trkpt lat="44.2225" lon="7.00182">
        <ele>2255.6940917969</ele>
        <time>2012-08-26T15:47:54Z</time>
      </trkpt>
      <trkpt lat="44.22258" lon="7.00154">
        <ele>2248.5695800781</ele>
        <time>2012-08-26T15:47:58Z</time>
      </trkpt>
      <trkpt lat="44.22262" lon="7.00148">
        <ele>2248.2116699219</ele>
        <time>2012-08-26T15:47:59Z</time>
      </trkpt>
      <trkpt lat="44.22278" lon="7.00122">
        <ele>2244.7111816406</ele>
        <time>2012-08-26T15:48:05Z</time>
      </trkpt>
      <trkpt lat="44.22284" lon="7.00103">
        <ele>2241.6599121094</ele>
        <time>2012-08-26T15:48:09Z</time>
      </trkpt>
      <trkpt lat="44.22287" lon="7.00096">
        <ele>2241.2395019531</ele>
        <time>2012-08-26T15:48:10Z</time>
      </trkpt>
      <trkpt lat="44.22295" lon="7.00075">
        <ele>2239.2294921875</ele>
        <time>2012-08-26T15:48:13Z</time>
      </trkpt>
      <trkpt lat="44.22305" lon="7.00065">
        <ele>2241.7177734375</ele>
        <time>2012-08-26T15:48:15Z</time>
      </trkpt>
      <trkpt lat="44.22324" lon="7.00042">
        <ele>2240.4719238281</ele>
        <time>2012-08-26T15:48:19Z</time>
      </trkpt>
      <trkpt lat="44.22336" lon="7.00044">
        <ele>2242.091796875</ele>
        <time>2012-08-26T15:48:23Z</time>
      </trkpt>
      <trkpt lat="44.2234" lon="7.00055">
        <ele>2240.3522949219</ele>
        <time>2012-08-26T15:48:26Z</time>
      </trkpt>
      <trkpt lat="44.22348" lon="7.0008">
        <ele>2238.5400390625</ele>
        <time>2012-08-26T15:48:32Z</time>
      </trkpt>
      <trkpt lat="44.22353" lon="7.00102">
        <ele>2238.427734375</ele>
        <time>2012-08-26T15:48:37Z</time>
      </trkpt>
      <trkpt lat="44.22355" lon="7.0012">
        <ele>2239.8532714844</ele>
        <time>2012-08-26T15:48:41Z</time>
      </trkpt>
      <trkpt lat="44.22361" lon="7.00145">
        <ele>2238.9853515625</ele>
        <time>2012-08-26T15:48:46Z</time>
      </trkpt>
      <trkpt lat="44.2237" lon="7.00166">
        <ele>2233.0893554688</ele>
        <time>2012-08-26T15:48:51Z</time>
      </trkpt>
      <trkpt lat="44.22385" lon="7.00192">
        <ele>2225.8400878906</ele>
        <time>2012-08-26T15:48:57Z</time>
      </trkpt>
      <trkpt lat="44.22395" lon="7.00208">
        <ele>2221.8698730469</ele>
        <time>2012-08-26T15:49:02Z</time>
      </trkpt>
      <trkpt lat="44.2241" lon="7.00218">
        <ele>2215.1076660156</ele>
        <time>2012-08-26T15:49:07Z</time>
      </trkpt>
      <trkpt lat="44.22427" lon="7.00213">
        <ele>2205.3874511719</ele>
        <time>2012-08-26T15:49:11Z</time>
      </trkpt>
      <trkpt lat="44.22433" lon="7.00212">
        <ele>2202.6323242188</ele>
        <time>2012-08-26T15:49:13Z</time>
      </trkpt>
      <trkpt lat="44.22443" lon="7.00211">
        <ele>2198.2473144531</ele>
        <time>2012-08-26T15:49:17Z</time>
      </trkpt>
      <trkpt lat="44.22453" lon="7.00209">
        <ele>2197.1721191406</ele>
        <time>2012-08-26T15:49:20Z</time>
      </trkpt>
      <trkpt lat="44.22462" lon="7.00205">
        <ele>2196.0952148438</ele>
        <time>2012-08-26T15:49:22Z</time>
      </trkpt>
      <trkpt lat="44.22475" lon="7.00195">
        <ele>2193.9353027344</ele>
        <time>2012-08-26T15:49:25Z</time>
      </trkpt>
      <trkpt lat="44.22496" lon="7.00179">
        <ele>2190.4763183594</ele>
        <time>2012-08-26T15:49:29Z</time>
      </trkpt>
      <trkpt lat="44.22517" lon="7.00148">
        <ele>2188.5063476562</ele>
        <time>2012-08-26T15:49:35Z</time>
      </trkpt>
      <trkpt lat="44.2252" lon="7.00143">
        <ele>2188.1354980469</ele>
        <time>2012-08-26T15:49:36Z</time>
      </trkpt>
      <trkpt lat="44.22525" lon="7.00116">
        <ele>2185.306640625</ele>
        <time>2012-08-26T15:49:40Z</time>
      </trkpt>
      <trkpt lat="44.22533" lon="7.0009">
        <ele>2184.2053222656</ele>
        <time>2012-08-26T15:49:44Z</time>
      </trkpt>
      <trkpt lat="44.2254" lon="7.00068">
        <ele>2186.2380371094</ele>
        <time>2012-08-26T15:49:48Z</time>
      </trkpt>
      <trkpt lat="44.22544" lon="7.00055">
        <ele>2187.4177246094</ele>
        <time>2012-08-26T15:49:50Z</time>
      </trkpt>
      <trkpt lat="44.22549" lon="7.00037">
        <ele>2188.5546875</ele>
        <time>2012-08-26T15:49:54Z</time>
      </trkpt>
      <trkpt lat="44.22557" lon="7.00014">
        <ele>2189.0388183594</ele>
        <time>2012-08-26T15:50:01Z</time>
      </trkpt>
      <trkpt lat="44.22563" lon="7.00002">
        <ele>2189.3049316406</ele>
        <time>2012-08-26T15:50:07Z</time>
      </trkpt>
      <trkpt lat="44.22566" lon="6.99987">
        <ele>2188.9877929688</ele>
        <time>2012-08-26T15:50:14Z</time>
      </trkpt>
      <trkpt lat="44.22567" lon="6.99985">
        <ele>2188.91015625</ele>
        <time>2012-08-26T15:50:15Z</time>
      </trkpt>
      <trkpt lat="44.22565" lon="6.9997">
        <ele>2187.4233398438</ele>
        <time>2012-08-26T15:50:22Z</time>
      </trkpt>
      <trkpt lat="44.22567" lon="6.99957">
        <ele>2187.8994140625</ele>
        <time>2012-08-26T15:50:29Z</time>
      </trkpt>
      <trkpt lat="44.22567" lon="6.99942">
        <ele>2188.0925292969</ele>
        <time>2012-08-26T15:50:35Z</time>
      </trkpt>
      <trkpt lat="44.22569" lon="6.9993">
        <ele>2188.2150878906</ele>
        <time>2012-08-26T15:50:41Z</time>
      </trkpt>
      <trkpt lat="44.2257" lon="6.99927">
        <ele>2188.3376464844</ele>
        <time>2012-08-26T15:50:43Z</time>
      </trkpt>
      <trkpt lat="44.22574" lon="6.99917">
        <ele>2188.6489257812</ele>
        <time>2012-08-26T15:50:49Z</time>
      </trkpt>
      <trkpt lat="44.22575" lon="6.99915">
        <ele>2188.6574707031</ele>
        <time>2012-08-26T15:50:50Z</time>
      </trkpt>
      <trkpt lat="44.22578" lon="6.999">
        <ele>2188.1184082031</ele>
        <time>2012-08-26T15:52:11Z</time>
      </trkpt>
      <trkpt lat="44.22586" lon="6.99888">
        <ele>2188.2041015625</ele>
        <time>2012-08-26T15:52:17Z</time>
      </trkpt>
      <trkpt lat="44.22598" lon="6.99868">
        <ele>2187.7360839844</ele>
        <time>2012-08-26T15:52:23Z</time>
      </trkpt>
      <trkpt lat="44.22609" lon="6.99851">
        <ele>2187.6706542969</ele>
        <time>2012-08-26T15:52:28Z</time>
      </trkpt>
      <trkpt lat="44.22621" lon="6.99834">
        <ele>2187.1169433594</ele>
        <time>2012-08-26T15:52:33Z</time>
      </trkpt>
      <trkpt lat="44.22638" lon="6.99822">
        <ele>2187.7399902344</ele>
        <time>2012-08-26T15:52:38Z</time>
      </trkpt>
      <trkpt lat="44.22658" lon="6.99816">
        <ele>2183.2583007812</ele>
        <time>2012-08-26T15:52:43Z</time>
      </trkpt>
      <trkpt lat="44.22663" lon="6.99807">
        <ele>2180.8833007812</ele>
        <time>2012-08-26T15:52:46Z</time>
      </trkpt>
      <trkpt lat="44.22667" lon="6.99805">
        <ele>2179.7744140625</ele>
        <time>2012-08-26T15:52:48Z</time>
      </trkpt>
      <trkpt lat="44.22671" lon="6.99809">
        <ele>2178.9997558594</ele>
        <time>2012-08-26T15:52:51Z</time>
      </trkpt>
      <trkpt lat="44.22679" lon="6.99806">
        <ele>2175.7678222656</ele>
        <time>2012-08-26T15:52:56Z</time>
      </trkpt>
      <trkpt lat="44.22679" lon="6.998">
        <ele>2174.7136230469</ele>
        <time>2012-08-26T15:52:59Z</time>
      </trkpt>
      <trkpt lat="44.22678" lon="6.9979">
        <ele>2173.3823242188</ele>
        <time>2012-08-26T15:53:03Z</time>
      </trkpt>
      <trkpt lat="44.2268" lon="6.99791">
        <ele>2172.9333496094</ele>
        <time>2012-08-26T15:53:07Z</time>
      </trkpt>
      <trkpt lat="44.22683" lon="6.99794">
        <ele>2172.3649902344</ele>
        <time>2012-08-26T15:53:10Z</time>
      </trkpt>
      <trkpt lat="44.22691" lon="6.99797">
        <ele>2170.1525878906</ele>
        <time>2012-08-26T15:53:14Z</time>
      </trkpt>
      <trkpt lat="44.22692" lon="6.99792">
        <ele>2169.0002441406</ele>
        <time>2012-08-26T15:53:18Z</time>
      </trkpt>
      <trkpt lat="44.22694" lon="6.99786">
        <ele>2167.4130859375</ele>
        <time>2012-08-26T15:53:21Z</time>
      </trkpt>
      <trkpt lat="44.22703" lon="6.99793">
        <ele>2164.4240722656</ele>
        <time>2012-08-26T15:53:25Z</time>
      </trkpt>
      <trkpt lat="44.22709" lon="6.99794">
        <ele>2161.5673828125</ele>
        <time>2012-08-26T15:53:27Z</time>
      </trkpt>
      <trkpt lat="44.22726" lon="6.99784">
        <ele>2151.8703613281</ele>
        <time>2012-08-26T15:53:32Z</time>
      </trkpt>
      <trkpt lat="44.22732" lon="6.99787">
        <ele>2152.2092285156</ele>
        <time>2012-08-26T15:53:34Z</time>
      </trkpt>
      <trkpt lat="44.22741" lon="6.99781">
        <ele>2148.9875488281</ele>
        <time>2012-08-26T15:53:38Z</time>
      </trkpt>
      <trkpt lat="44.22754" lon="6.99761">
        <ele>2141.3364257812</ele>
        <time>2012-08-26T15:53:45Z</time>
      </trkpt>
      <trkpt lat="44.22762" lon="6.99754">
        <ele>2139.8171386719</ele>
        <time>2012-08-26T15:53:48Z</time>
      </trkpt>
      <trkpt lat="44.22773" lon="6.99734">
        <ele>2132.6325683594</ele>
        <time>2012-08-26T15:53:54Z</time>
      </trkpt>
      <trkpt lat="44.22773" lon="6.99727">
        <ele>2129.6164550781</ele>
        <time>2012-08-26T15:53:58Z</time>
      </trkpt>
      <trkpt lat="44.22764" lon="6.99727">
        <ele>2128.1770019531</ele>
        <time>2012-08-26T15:54:02Z</time>
      </trkpt>
      <trkpt lat="44.22765" lon="6.99723">
        <ele>2126.6779785156</ele>
        <time>2012-08-26T15:54:05Z</time>
      </trkpt>
      <trkpt lat="44.22766" lon="6.99723">
        <ele>2126.701171875</ele>
        <time>2012-08-26T15:54:07Z</time>
      </trkpt>
      <trkpt lat="44.2277" lon="6.99715">
        <ele>2124.4592285156</ele>
        <time>2012-08-26T15:54:11Z</time>
      </trkpt>
      <trkpt lat="44.22773" lon="6.99708">
        <ele>2122.3591308594</ele>
        <time>2012-08-26T15:54:13Z</time>
      </trkpt>
      <trkpt lat="44.22778" lon="6.99701">
        <ele>2120.376953125</ele>
        <time>2012-08-26T15:54:16Z</time>
      </trkpt>
      <trkpt lat="44.22778" lon="6.99697">
        <ele>2118.9519042969</ele>
        <time>2012-08-26T15:54:18Z</time>
      </trkpt>
      <trkpt lat="44.22789" lon="6.9968">
        <ele>2114.4516601562</ele>
        <time>2012-08-26T15:54:24Z</time>
      </trkpt>
      <trkpt lat="44.22791" lon="6.99678">
        <ele>2113.8872070312</ele>
        <time>2012-08-26T15:54:25Z</time>
      </trkpt>
      <trkpt lat="44.22795" lon="6.99668">
        <ele>2110.8371582031</ele>
        <time>2012-08-26T15:54:29Z</time>
      </trkpt>
      <trkpt lat="44.228" lon="6.9966">
        <ele>2108.2016601562</ele>
        <time>2012-08-26T15:54:32Z</time>
      </trkpt>
      <trkpt lat="44.22794" lon="6.99659">
        <ele>2108.0556640625</ele>
        <time>2012-08-26T15:54:37Z</time>
      </trkpt>
      <trkpt lat="44.22787" lon="6.99658">
        <ele>2108.1694335938</ele>
        <time>2012-08-26T15:54:39Z</time>
      </trkpt>
      <trkpt lat="44.22768" lon="6.99646">
        <ele>2104.3740234375</ele>
        <time>2012-08-26T15:54:44Z</time>
      </trkpt>
      <trkpt lat="44.22761" lon="6.99633">
        <ele>2099.5310058594</ele>
        <time>2012-08-26T15:54:48Z</time>
      </trkpt>
      <trkpt lat="44.22756" lon="6.99622">
        <ele>2094.837890625</ele>
        <time>2012-08-26T15:54:52Z</time>
      </trkpt>
      <trkpt lat="44.22757" lon="6.9962">
        <ele>2094.2890625</ele>
        <time>2012-08-26T15:54:53Z</time>
      </trkpt>
      <trkpt lat="44.2277" lon="6.99611">
        <ele>2093.6284179688</ele>
        <time>2012-08-26T15:54:59Z</time>
      </trkpt>
      <trkpt lat="44.22773" lon="6.99609">
        <ele>2093.3815917969</ele>
        <time>2012-08-26T15:55:00Z</time>
      </trkpt>
      <trkpt lat="44.22792" lon="6.99593">
        <ele>2088.9865722656</ele>
        <time>2012-08-26T15:55:05Z</time>
      </trkpt>
      <trkpt lat="44.22806" lon="6.99578">
        <ele>2085.7829589844</ele>
        <time>2012-08-26T15:55:09Z</time>
      </trkpt>
      <trkpt lat="44.2282" lon="6.99554">
        <ele>2080.4113769531</ele>
        <time>2012-08-26T15:55:14Z</time>
      </trkpt>
      <trkpt lat="44.22833" lon="6.99538">
        <ele>2075.3046875</ele>
        <time>2012-08-26T15:55:18Z</time>
      </trkpt>
      <trkpt lat="44.2285" lon="6.99524">
        <ele>2072.6245117188</ele>
        <time>2012-08-26T15:55:22Z</time>
      </trkpt>
      <trkpt lat="44.22852" lon="6.99519">
        <ele>2071.2126464844</ele>
        <time>2012-08-26T15:55:23Z</time>
      </trkpt>
      <trkpt lat="44.22857" lon="6.99508">
        <ele>2068.4990234375</ele>
        <time>2012-08-26T15:55:25Z</time>
      </trkpt>
      <trkpt lat="44.22859" lon="6.99493">
        <ele>2064.7744140625</ele>
        <time>2012-08-26T15:55:28Z</time>
      </trkpt>
      <trkpt lat="44.22861" lon="6.99474">
        <ele>2060.3017578125</ele>
        <time>2012-08-26T15:55:33Z</time>
      </trkpt>
      <trkpt lat="44.22855" lon="6.99475">
        <ele>2059.1525878906</ele>
        <time>2012-08-26T15:55:36Z</time>
      </trkpt>
      <trkpt lat="44.22847" lon="6.99478">
        <ele>2058.0166015625</ele>
        <time>2012-08-26T15:55:39Z</time>
      </trkpt>
      <trkpt lat="44.2284" lon="6.99478">
        <ele>2056.1247558594</ele>
        <time>2012-08-26T15:55:41Z</time>
      </trkpt>
      <trkpt lat="44.22839" lon="6.99465">
        <ele>2052.5056152344</ele>
        <time>2012-08-26T15:55:45Z</time>
      </trkpt>
      <trkpt lat="44.22839" lon="6.99458">
        <ele>2050.7060546875</ele>
        <time>2012-08-26T15:55:48Z</time>
      </trkpt>
      <trkpt lat="44.22834" lon="6.99456">
        <ele>2048.9086914062</ele>
        <time>2012-08-26T15:55:50Z</time>
      </trkpt>
      <trkpt lat="44.22836" lon="6.99443">
        <ele>2045.9969482422</ele>
        <time>2012-08-26T15:55:54Z</time>
      </trkpt>
      <trkpt lat="44.22837" lon="6.9944">
        <ele>2045.4887695312</ele>
        <time>2012-08-26T15:55:55Z</time>
      </trkpt>
      <trkpt lat="44.22831" lon="6.99434">
        <ele>2042.6333007812</ele>
        <time>2012-08-26T15:55:58Z</time>
      </trkpt>
      <trkpt lat="44.22818" lon="6.99429">
        <ele>2039.6885986328</ele>
        <time>2012-08-26T15:56:01Z</time>
      </trkpt>
      <trkpt lat="44.22817" lon="6.99424">
        <ele>2038.0614013672</ele>
        <time>2012-08-26T15:56:05Z</time>
      </trkpt>
      <trkpt lat="44.22819" lon="6.99422">
        <ele>2037.6964111328</ele>
        <time>2012-08-26T15:56:06Z</time>
      </trkpt>
      <trkpt lat="44.22827" lon="6.99416">
        <ele>2037.0135498047</ele>
        <time>2012-08-26T15:56:10Z</time>
      </trkpt>
      <trkpt lat="44.22827" lon="6.99417">
        <ele>2037.1618652344</ele>
        <time>2012-08-26T15:56:17Z</time>
      </trkpt>
      <trkpt lat="44.22826" lon="6.99418">
        <ele>2037.2823486328</ele>
        <time>2012-08-26T15:56:29Z</time>
      </trkpt>
      <trkpt lat="44.22827" lon="6.99417">
        <ele>2037.3073730469</ele>
        <time>2012-08-26T15:56:38Z</time>
      </trkpt>
      <trkpt lat="44.22826" lon="6.99417">
        <ele>2037.1990966797</ele>
        <time>2012-08-26T15:56:44Z</time>
      </trkpt>
      <trkpt lat="44.22826" lon="6.99417">
        <ele>2037.1009521484</ele>
        <time>2012-08-26T15:56:51Z</time>
      </trkpt>
      <trkpt lat="44.22826" lon="6.99415">
        <ele>2036.6403808594</ele>
        <time>2012-08-26T15:56:54Z</time>
      </trkpt>
      <trkpt lat="44.22833" lon="6.99394">
        <ele>2031.3746337891</ele>
        <time>2012-08-26T15:57:00Z</time>
      </trkpt>
      <trkpt lat="44.22836" lon="6.99373">
        <ele>2025.0014648438</ele>
        <time>2012-08-26T15:57:04Z</time>
      </trkpt>
      <trkpt lat="44.22837" lon="6.99368">
        <ele>2023.5538330078</ele>
        <time>2012-08-26T15:57:05Z</time>
      </trkpt>
      <trkpt lat="44.22844" lon="6.99353">
        <ele>2018.9940185547</ele>
        <time>2012-08-26T15:57:09Z</time>
      </trkpt>
      <trkpt lat="44.22843" lon="6.99346">
        <ele>2016.9254150391</ele>
        <time>2012-08-26T15:57:12Z</time>
      </trkpt>
      <trkpt lat="44.2284" lon="6.99345">
        <ele>2016.0197753906</ele>
        <time>2012-08-26T15:57:13Z</time>
      </trkpt>
      <trkpt lat="44.22823" lon="6.99342">
        <ele>2010.2415771484</ele>
        <time>2012-08-26T15:57:17Z</time>
      </trkpt>
      <trkpt lat="44.22809" lon="6.9934">
        <ele>2003.8779296875</ele>
        <time>2012-08-26T15:57:21Z</time>
      </trkpt>
      <trkpt lat="44.22802" lon="6.99338">
        <ele>2000.2171630859</ele>
        <time>2012-08-26T15:57:23Z</time>
      </trkpt>
      <trkpt lat="44.22801" lon="6.99327">
        <ele>1995.8927001953</ele>
        <time>2012-08-26T15:57:27Z</time>
      </trkpt>
      <trkpt lat="44.22804" lon="6.99323">
        <ele>1996.0323486328</ele>
        <time>2012-08-26T15:57:28Z</time>
      </trkpt>
      <trkpt lat="44.2281" lon="6.99313">
        <ele>1995.4514160156</ele>
        <time>2012-08-26T15:57:31Z</time>
      </trkpt>
      <trkpt lat="44.22813" lon="6.9931">
        <ele>1995.4517822266</ele>
        <time>2012-08-26T15:57:35Z</time>
      </trkpt>
      <trkpt lat="44.22815" lon="6.99308">
        <ele>1995.294921875</ele>
        <time>2012-08-26T15:57:49Z</time>
      </trkpt>
      <trkpt lat="44.22823" lon="6.99293">
        <ele>1994.0234375</ele>
        <time>2012-08-26T15:57:53Z</time>
      </trkpt>
      <trkpt lat="44.22829" lon="6.99279">
        <ele>1992.6610107422</ele>
        <time>2012-08-26T15:57:56Z</time>
      </trkpt>
      <trkpt lat="44.2284" lon="6.99266">
        <ele>1993.5329589844</ele>
        <time>2012-08-26T15:57:59Z</time>
      </trkpt>
      <trkpt lat="44.22844" lon="6.99257">
        <ele>1992.8514404297</ele>
        <time>2012-08-26T15:58:01Z</time>
      </trkpt>
      <trkpt lat="44.22848" lon="6.9923">
        <ele>1988.0892333984</ele>
        <time>2012-08-26T15:58:06Z</time>
      </trkpt>
      <trkpt lat="44.2285" lon="6.99223">
        <ele>1987.2985839844</ele>
        <time>2012-08-26T15:58:07Z</time>
      </trkpt>
      <trkpt lat="44.22853" lon="6.99212">
        <ele>1985.6038818359</ele>
        <time>2012-08-26T15:58:09Z</time>
      </trkpt>
      <trkpt lat="44.2286" lon="6.99189">
        <ele>1982.1925048828</ele>
        <time>2012-08-26T15:58:14Z</time>
      </trkpt>
      <trkpt lat="44.22863" lon="6.99185">
        <ele>1981.4775390625</ele>
        <time>2012-08-26T15:58:15Z</time>
      </trkpt>
      <trkpt lat="44.22878" lon="6.99159">
        <ele>1974.5838623047</ele>
        <time>2012-08-26T15:58:20Z</time>
      </trkpt>
      <trkpt lat="44.22893" lon="6.99137">
        <ele>1969.1519775391</ele>
        <time>2012-08-26T15:58:25Z</time>
      </trkpt>
      <trkpt lat="44.22904" lon="6.99123">
        <ele>1966.9849853516</ele>
        <time>2012-08-26T15:58:29Z</time>
      </trkpt>
      <trkpt lat="44.22909" lon="6.99115">
        <ele>1965.6105957031</ele>
        <time>2012-08-26T15:58:31Z</time>
      </trkpt>
      <trkpt lat="44.22919" lon="6.99088">
        <ele>1962.1263427734</ele>
        <time>2012-08-26T15:58:37Z</time>
      </trkpt>
      <trkpt lat="44.22927" lon="6.99072">
        <ele>1960.4377441406</ele>
        <time>2012-08-26T15:58:41Z</time>
      </trkpt>
      <trkpt lat="44.22929" lon="6.99057">
        <ele>1957.3774414062</ele>
        <time>2012-08-26T15:58:45Z</time>
      </trkpt>
      <trkpt lat="44.22926" lon="6.99058">
        <ele>1956.0081787109</ele>
        <time>2012-08-26T15:58:47Z</time>
      </trkpt>
      <trkpt lat="44.22917" lon="6.99059">
        <ele>1951.4298095703</ele>
        <time>2012-08-26T15:58:53Z</time>
      </trkpt>
      <trkpt lat="44.22919" lon="6.99049">
        <ele>1949.1783447266</ele>
        <time>2012-08-26T15:58:57Z</time>
      </trkpt>
      <trkpt lat="44.2292" lon="6.99035">
        <ele>1944.7475585938</ele>
        <time>2012-08-26T15:59:01Z</time>
      </trkpt>
      <trkpt lat="44.22925" lon="6.99017">
        <ele>1944.2774658203</ele>
        <time>2012-08-26T15:59:06Z</time>
      </trkpt>
      <trkpt lat="44.22928" lon="6.99006">
        <ele>1944.9899902344</ele>
        <time>2012-08-26T15:59:11Z</time>
      </trkpt>
      <trkpt lat="44.2293" lon="6.98997">
        <ele>1945.1617431641</ele>
        <time>2012-08-26T15:59:13Z</time>
      </trkpt>
      <trkpt lat="44.22935" lon="6.98971">
        <ele>1944.9544677734</ele>
        <time>2012-08-26T15:59:19Z</time>
      </trkpt>
      <trkpt lat="44.22937" lon="6.98941">
        <ele>1941.7899169922</ele>
        <time>2012-08-26T15:59:24Z</time>
      </trkpt>
      <trkpt lat="44.22937" lon="6.98921">
        <ele>1938.5487060547</ele>
        <time>2012-08-26T15:59:28Z</time>
      </trkpt>
      <trkpt lat="44.22934" lon="6.98889">
        <ele>1934.8895263672</ele>
        <time>2012-08-26T15:59:33Z</time>
      </trkpt>
      <trkpt lat="44.22933" lon="6.98882">
        <ele>1933.4118652344</ele>
        <time>2012-08-26T15:59:34Z</time>
      </trkpt>
      <trkpt lat="44.22928" lon="6.98863">
        <ele>1929.0526123047</ele>
        <time>2012-08-26T15:59:36Z</time>
      </trkpt>
      <trkpt lat="44.22924" lon="6.98841">
        <ele>1924.5728759766</ele>
        <time>2012-08-26T15:59:40Z</time>
      </trkpt>
      <trkpt lat="44.22922" lon="6.98836">
        <ele>1923.4688720703</ele>
        <time>2012-08-26T15:59:41Z</time>
      </trkpt>
      <trkpt lat="44.22919" lon="6.98828">
        <ele>1921.6345214844</ele>
        <time>2012-08-26T16:01:53Z</time>
      </trkpt>
      <trkpt lat="44.2292" lon="6.98827">
        <ele>1921.7436523438</ele>
        <time>2012-08-26T16:02:02Z</time>
      </trkpt>
      <trkpt lat="44.22921" lon="6.98825">
        <ele>1921.5480957031</ele>
        <time>2012-08-26T16:03:05Z</time>
      </trkpt>
      <trkpt lat="44.22921" lon="6.98825">
        <ele>1921.5480957031</ele>
        <time>2012-08-26T16:03:22Z</time>
      </trkpt>
      <trkpt lat="44.22921" lon="6.98826">
        <ele>1921.6264648438</ele>
        <time>2012-08-26T16:03:27Z</time>
      </trkpt>
      <trkpt lat="44.22921" lon="6.98826">
        <ele>1921.7259521484</ele>
        <time>2012-08-26T16:03:31Z</time>
      </trkpt>
      <trkpt lat="44.22919" lon="6.98829">
        <ele>1921.8392333984</ele>
        <time>2012-08-26T16:04:16Z</time>
      </trkpt>
      <trkpt lat="44.22919" lon="6.98828">
        <ele>1921.8316650391</ele>
        <time>2012-08-26T16:04:18Z</time>
      </trkpt>
      <trkpt lat="44.22919" lon="6.98828">
        <ele>1921.7786865234</ele>
        <time>2012-08-26T16:04:23Z</time>
      </trkpt>
      <trkpt lat="44.22919" lon="6.98827">
        <ele>1921.5200195312</ele>
        <time>2012-08-26T16:04:38Z</time>
      </trkpt>
      <trkpt lat="44.2292" lon="6.98823">
        <ele>1920.9860839844</ele>
        <time>2012-08-26T16:04:45Z</time>
      </trkpt>
      <trkpt lat="44.22922" lon="6.98809">
        <ele>1918.9862060547</ele>
        <time>2012-08-26T16:04:50Z</time>
      </trkpt>
      <trkpt lat="44.22924" lon="6.98794">
        <ele>1914.6810302734</ele>
        <time>2012-08-26T16:04:54Z</time>
      </trkpt>
      <trkpt lat="44.22932" lon="6.98777">
        <ele>1909.1517333984</ele>
        <time>2012-08-26T16:04:58Z</time>
      </trkpt>
      <trkpt lat="44.22935" lon="6.98769">
        <ele>1906.8480224609</ele>
        <time>2012-08-26T16:05:01Z</time>
      </trkpt>
      <trkpt lat="44.22939" lon="6.98764">
        <ele>1905.4404296875</ele>
        <time>2012-08-26T16:05:04Z</time>
      </trkpt>
      <trkpt lat="44.22948" lon="6.98759">
        <ele>1903.9162597656</ele>
        <time>2012-08-26T16:05:07Z</time>
      </trkpt>
      <trkpt lat="44.22958" lon="6.98743">
        <ele>1897.9212646484</ele>
        <time>2012-08-26T16:05:12Z</time>
      </trkpt>
      <trkpt lat="44.2296" lon="6.9874">
        <ele>1896.5977783203</ele>
        <time>2012-08-26T16:05:13Z</time>
      </trkpt>
      <trkpt lat="44.2297" lon="6.98732">
        <ele>1892.4610595703</ele>
        <time>2012-08-26T16:05:17Z</time>
      </trkpt>
      <trkpt lat="44.22986" lon="6.98725">
        <ele>1888.5389404297</ele>
        <time>2012-08-26T16:05:24Z</time>
      </trkpt>
      <trkpt lat="44.22988" lon="6.98724">
        <ele>1888.1843261719</ele>
        <time>2012-08-26T16:05:25Z</time>
      </trkpt>
      <trkpt lat="44.22988" lon="6.98718">
        <ele>1886.17578125</ele>
        <time>2012-08-26T16:05:28Z</time>
      </trkpt>
      <trkpt lat="44.22993" lon="6.98712">
        <ele>1884.1099853516</ele>
        <time>2012-08-26T16:05:32Z</time>
      </trkpt>
      <trkpt lat="44.22996" lon="6.98709">
        <ele>1883.078125</ele>
        <time>2012-08-26T16:05:34Z</time>
      </trkpt>
      <trkpt lat="44.23002" lon="6.98698">
        <ele>1880.2963867188</ele>
        <time>2012-08-26T16:05:39Z</time>
      </trkpt>
      <trkpt lat="44.23003" lon="6.98698">
        <ele>1880.2404785156</ele>
        <time>2012-08-26T16:05:40Z</time>
      </trkpt>
      <trkpt lat="44.23006" lon="6.98698">
        <ele>1880.4578857422</ele>
        <time>2012-08-26T16:05:47Z</time>
      </trkpt>
      <trkpt lat="44.2301" lon="6.98695">
        <ele>1879.9665527344</ele>
        <time>2012-08-26T16:05:51Z</time>
      </trkpt>
      <trkpt lat="44.23023" lon="6.98692">
        <ele>1880.4906005859</ele>
        <time>2012-08-26T16:05:58Z</time>
      </trkpt>
      <trkpt lat="44.23024" lon="6.98691">
        <ele>1880.5369873047</ele>
        <time>2012-08-26T16:06:03Z</time>
      </trkpt>
      <trkpt lat="44.23027" lon="6.9869">
        <ele>1880.8051757812</ele>
        <time>2012-08-26T16:06:09Z</time>
      </trkpt>
      <trkpt lat="44.2303" lon="6.98688">
        <ele>1881.9038085938</ele>
        <time>2012-08-26T16:06:16Z</time>
      </trkpt>
      <trkpt lat="44.23031" lon="6.98687">
        <ele>1882.7619628906</ele>
        <time>2012-08-26T16:06:24Z</time>
      </trkpt>
      <trkpt lat="44.23033" lon="6.98683">
        <ele>1883.5411376953</ele>
        <time>2012-08-26T16:06:29Z</time>
      </trkpt>
      <trkpt lat="44.23035" lon="6.98675">
        <ele>1884.4401855469</ele>
        <time>2012-08-26T16:06:35Z</time>
      </trkpt>
      <trkpt lat="44.23038" lon="6.98666">
        <ele>1886.0721435547</ele>
        <time>2012-08-26T16:06:42Z</time>
      </trkpt>
      <trkpt lat="44.23041" lon="6.98646">
        <ele>1887.6108398438</ele>
        <time>2012-08-26T16:06:49Z</time>
      </trkpt>
      <trkpt lat="44.23043" lon="6.98626">
        <ele>1888.0979003906</ele>
        <time>2012-08-26T16:06:55Z</time>
      </trkpt>
      <trkpt lat="44.23041" lon="6.98604">
        <ele>1886.4388427734</ele>
        <time>2012-08-26T16:07:02Z</time>
      </trkpt>
      <trkpt lat="44.23038" lon="6.98586">
        <ele>1885.2542724609</ele>
        <time>2012-08-26T16:07:08Z</time>
      </trkpt>
      <trkpt lat="44.23037" lon="6.98569">
        <ele>1884.3461914062</ele>
        <time>2012-08-26T16:07:14Z</time>
      </trkpt>
      <trkpt lat="44.23034" lon="6.98548">
        <ele>1881.5914306641</ele>
        <time>2012-08-26T16:07:21Z</time>
      </trkpt>
      <trkpt lat="44.23035" lon="6.98536">
        <ele>1878.5786132812</ele>
        <time>2012-08-26T16:07:26Z</time>
      </trkpt>
      <trkpt lat="44.23035" lon="6.98533">
        <ele>1877.7552490234</ele>
        <time>2012-08-26T16:07:47Z</time>
      </trkpt>
      <trkpt lat="44.23034" lon="6.98533">
        <ele>1877.5557861328</ele>
        <time>2012-08-26T16:07:55Z</time>
      </trkpt>
      <trkpt lat="44.23035" lon="6.98531">
        <ele>1877.1062011719</ele>
        <time>2012-08-26T16:08:02Z</time>
      </trkpt>
      <trkpt lat="44.23043" lon="6.98514">
        <ele>1872.0924072266</ele>
        <time>2012-08-26T16:08:07Z</time>
      </trkpt>
      <trkpt lat="44.23052" lon="6.98503">
        <ele>1868.8142089844</ele>
        <time>2012-08-26T16:08:11Z</time>
      </trkpt>
      <trkpt lat="44.2306" lon="6.98488">
        <ele>1866.3853759766</ele>
        <time>2012-08-26T16:08:15Z</time>
      </trkpt>
      <trkpt lat="44.23063" lon="6.98481">
        <ele>1866.3371582031</ele>
        <time>2012-08-26T16:08:17Z</time>
      </trkpt>
      <trkpt lat="44.23063" lon="6.9848">
        <ele>1865.5900878906</ele>
        <time>2012-08-26T16:08:21Z</time>
      </trkpt>
      <trkpt lat="44.23063" lon="6.9848">
        <ele>1865.5765380859</ele>
        <time>2012-08-26T16:08:24Z</time>
      </trkpt>
      <trkpt lat="44.23063" lon="6.98481">
        <ele>1866.0537109375</ele>
        <time>2012-08-26T16:08:28Z</time>
      </trkpt>
      <trkpt lat="44.23064" lon="6.9848">
        <ele>1866.4659423828</ele>
        <time>2012-08-26T16:08:37Z</time>
      </trkpt>
      <trkpt lat="44.23065" lon="6.98479">
        <ele>1866.5927734375</ele>
        <time>2012-08-26T16:08:41Z</time>
      </trkpt>
      <trkpt lat="44.23065" lon="6.98479">
        <ele>1866.6163330078</ele>
        <time>2012-08-26T16:08:50Z</time>
      </trkpt>
      <trkpt lat="44.23068" lon="6.98469">
        <ele>1866.1245117188</ele>
        <time>2012-08-26T16:08:54Z</time>
      </trkpt>
      <trkpt lat="44.23079" lon="6.98451">
        <ele>1869.4857177734</ele>
        <time>2012-08-26T16:08:59Z</time>
      </trkpt>
      <trkpt lat="44.23082" lon="6.9845">
        <ele>1870.8452148438</ele>
        <time>2012-08-26T16:09:00Z</time>
      </trkpt>
      <trkpt lat="44.23083" lon="6.98436">
        <ele>1869.1042480469</ele>
        <time>2012-08-26T16:09:05Z</time>
      </trkpt>
      <trkpt lat="44.23078" lon="6.9842">
        <ele>1863.7275390625</ele>
        <time>2012-08-26T16:09:12Z</time>
      </trkpt>
      <trkpt lat="44.23074" lon="6.98405">
        <ele>1859.4267578125</ele>
        <time>2012-08-26T16:09:16Z</time>
      </trkpt>
      <trkpt lat="44.23073" lon="6.98373">
        <ele>1854.3681640625</ele>
        <time>2012-08-26T16:09:22Z</time>
      </trkpt>
      <trkpt lat="44.23068" lon="6.98344">
        <ele>1847.8988037109</ele>
        <time>2012-08-26T16:09:27Z</time>
      </trkpt>
      <trkpt lat="44.23072" lon="6.98331">
        <ele>1848.6079101562</ele>
        <time>2012-08-26T16:09:31Z</time>
      </trkpt>
      <trkpt lat="44.23074" lon="6.98322">
        <ele>1849.0300292969</ele>
        <time>2012-08-26T16:09:34Z</time>
      </trkpt>
      <trkpt lat="44.23071" lon="6.98308">
        <ele>1845.5948486328</ele>
        <time>2012-08-26T16:09:39Z</time>
      </trkpt>
      <trkpt lat="44.23067" lon="6.98286">
        <ele>1840.6072998047</ele>
        <time>2012-08-26T16:09:44Z</time>
      </trkpt>
      <trkpt lat="44.23063" lon="6.98262">
        <ele>1836.2934570312</ele>
        <time>2012-08-26T16:09:49Z</time>
      </trkpt>
      <trkpt lat="44.23054" lon="6.98235">
        <ele>1829.7026367188</ele>
        <time>2012-08-26T16:09:54Z</time>
      </trkpt>
      <trkpt lat="44.23052" lon="6.98228">
        <ele>1828.9234619141</ele>
        <time>2012-08-26T16:09:55Z</time>
      </trkpt>
      <trkpt lat="44.23042" lon="6.98198">
        <ele>1825.1877441406</ele>
        <time>2012-08-26T16:09:59Z</time>
      </trkpt>
      <trkpt lat="44.23036" lon="6.98185">
        <ele>1823.3188476562</ele>
        <time>2012-08-26T16:10:01Z</time>
      </trkpt>
      <trkpt lat="44.2302" lon="6.9815">
        <ele>1817.9881591797</ele>
        <time>2012-08-26T16:10:07Z</time>
      </trkpt>
      <trkpt lat="44.2301" lon="6.98133">
        <ele>1813.1495361328</ele>
        <time>2012-08-26T16:10:11Z</time>
      </trkpt>
      <trkpt lat="44.23005" lon="6.98109">
        <ele>1807.7121582031</ele>
        <time>2012-08-26T16:10:17Z</time>
      </trkpt>
      <trkpt lat="44.23005" lon="6.98089">
        <ele>1804.5441894531</ele>
        <time>2012-08-26T16:10:22Z</time>
      </trkpt>
      <trkpt lat="44.23004" lon="6.98084">
        <ele>1803.4437255859</ele>
        <time>2012-08-26T16:10:39Z</time>
      </trkpt>
      <trkpt lat="44.23003" lon="6.98084">
        <ele>1803.2535400391</ele>
        <time>2012-08-26T16:10:49Z</time>
      </trkpt>
      <trkpt lat="44.23004" lon="6.98083">
        <ele>1803.2462158203</ele>
        <time>2012-08-26T16:11:06Z</time>
      </trkpt>
      <trkpt lat="44.23004" lon="6.98083">
        <ele>1803.2186279297</ele>
        <time>2012-08-26T16:11:11Z</time>
      </trkpt>
      <trkpt lat="44.23005" lon="6.98078">
        <ele>1803.0407714844</ele>
        <time>2012-08-26T16:11:18Z</time>
      </trkpt>
      <trkpt lat="44.23001" lon="6.98063">
        <ele>1800.8664550781</ele>
        <time>2012-08-26T16:11:22Z</time>
      </trkpt>
      <trkpt lat="44.23" lon="6.9806">
        <ele>1800.3802490234</ele>
        <time>2012-08-26T16:11:23Z</time>
      </trkpt>
      <trkpt lat="44.22998" lon="6.98037">
        <ele>1792.5905761719</ele>
        <time>2012-08-26T16:11:29Z</time>
      </trkpt>
      <trkpt lat="44.22994" lon="6.98014">
        <ele>1782.7777099609</ele>
        <time>2012-08-26T16:11:34Z</time>
      </trkpt>
      <trkpt lat="44.22994" lon="6.98006">
        <ele>1779.6352539062</ele>
        <time>2012-08-26T16:11:36Z</time>
      </trkpt>
      <trkpt lat="44.2299" lon="6.98003">
        <ele>1777.7143554688</ele>
        <time>2012-08-26T16:11:40Z</time>
      </trkpt>
      <trkpt lat="44.22982" lon="6.98005">
        <ele>1777.1274414062</ele>
        <time>2012-08-26T16:11:44Z</time>
      </trkpt>
      <trkpt lat="44.22976" lon="6.98005">
        <ele>1775.9149169922</ele>
        <time>2012-08-26T16:11:48Z</time>
      </trkpt>
      <trkpt lat="44.22972" lon="6.97987">
        <ele>1769.6822509766</ele>
        <time>2012-08-26T16:11:53Z</time>
      </trkpt>
      <trkpt lat="44.22969" lon="6.97964">
        <ele>1762.0759277344</ele>
        <time>2012-08-26T16:11:59Z</time>
      </trkpt>
      <trkpt lat="44.22968" lon="6.97948">
        <ele>1757.2556152344</ele>
        <time>2012-08-26T16:12:04Z</time>
      </trkpt>
      <trkpt lat="44.22969" lon="6.97945">
        <ele>1756.5964355469</ele>
        <time>2012-08-26T16:12:05Z</time>
      </trkpt>
      <trkpt lat="44.22962" lon="6.97946">
        <ele>1755.5114746094</ele>
        <time>2012-08-26T16:12:11Z</time>
      </trkpt>
      <trkpt lat="44.22958" lon="6.97944">
        <ele>1754.396484375</ele>
        <time>2012-08-26T16:12:14Z</time>
      </trkpt>
      <trkpt lat="44.2296" lon="6.97936">
        <ele>1752.3337402344</ele>
        <time>2012-08-26T16:12:17Z</time>
      </trkpt>
      <trkpt lat="44.22956" lon="6.97925">
        <ele>1747.9669189453</ele>
        <time>2012-08-26T16:12:23Z</time>
      </trkpt>
      <trkpt lat="44.22953" lon="6.97926">
        <ele>1747.3807373047</ele>
        <time>2012-08-26T16:12:24Z</time>
      </trkpt>
      <trkpt lat="44.22937" lon="6.97929">
        <ele>1744.7082519531</ele>
        <time>2012-08-26T16:12:29Z</time>
      </trkpt>
      <trkpt lat="44.22931" lon="6.97931">
        <ele>1743.8619384766</ele>
        <time>2012-08-26T16:12:31Z</time>
      </trkpt>
      <trkpt lat="44.2293" lon="6.97924">
        <ele>1741.6810302734</ele>
        <time>2012-08-26T16:12:35Z</time>
      </trkpt>
      <trkpt lat="44.22938" lon="6.979">
        <ele>1736.8231201172</ele>
        <time>2012-08-26T16:12:41Z</time>
      </trkpt>
      <trkpt lat="44.2294" lon="6.97898">
        <ele>1736.5854492188</ele>
        <time>2012-08-26T16:12:42Z</time>
      </trkpt>
      <trkpt lat="44.22937" lon="6.97897">
        <ele>1735.9373779297</ele>
        <time>2012-08-26T16:12:47Z</time>
      </trkpt>
      <trkpt lat="44.22932" lon="6.97898">
        <ele>1735.3032226562</ele>
        <time>2012-08-26T16:12:49Z</time>
      </trkpt>
      <trkpt lat="44.22918" lon="6.97892">
        <ele>1731.1204833984</ele>
        <time>2012-08-26T16:12:55Z</time>
      </trkpt>
      <trkpt lat="44.22906" lon="6.97886">
        <ele>1726.5467529297</ele>
        <time>2012-08-26T16:12:59Z</time>
      </trkpt>
      <trkpt lat="44.22896" lon="6.97881">
        <ele>1723.5145263672</ele>
        <time>2012-08-26T16:13:02Z</time>
      </trkpt>
      <trkpt lat="44.22891" lon="6.97868">
        <ele>1720.8956298828</ele>
        <time>2012-08-26T16:13:06Z</time>
      </trkpt>
      <trkpt lat="44.22889" lon="6.9786">
        <ele>1719.7611083984</ele>
        <time>2012-08-26T16:13:09Z</time>
      </trkpt>
      <trkpt lat="44.22889" lon="6.97856">
        <ele>1718.6656494141</ele>
        <time>2012-08-26T16:13:11Z</time>
      </trkpt>
      <trkpt lat="44.22885" lon="6.97853">
        <ele>1717.2102050781</ele>
        <time>2012-08-26T16:13:13Z</time>
      </trkpt>
      <trkpt lat="44.2288" lon="6.97853">
        <ele>1716.2768554688</ele>
        <time>2012-08-26T16:13:15Z</time>
      </trkpt>
      <trkpt lat="44.22876" lon="6.97848">
        <ele>1714.5063476562</ele>
        <time>2012-08-26T16:13:19Z</time>
      </trkpt>
      <trkpt lat="44.22871" lon="6.97847">
        <ele>1713.2147216797</ele>
        <time>2012-08-26T16:13:23Z</time>
      </trkpt>
      <trkpt lat="44.22865" lon="6.97843">
        <ele>1711.3415527344</ele>
        <time>2012-08-26T16:13:26Z</time>
      </trkpt>
      <trkpt lat="44.22864" lon="6.97832">
        <ele>1709.2210693359</ele>
        <time>2012-08-26T16:13:31Z</time>
      </trkpt>
      <trkpt lat="44.22871" lon="6.9782">
        <ele>1707.7901611328</ele>
        <time>2012-08-26T16:13:35Z</time>
      </trkpt>
      <trkpt lat="44.22866" lon="6.97813">
        <ele>1706.0356445312</ele>
        <time>2012-08-26T16:13:38Z</time>
      </trkpt>
      <trkpt lat="44.2286" lon="6.97804">
        <ele>1703.5308837891</ele>
        <time>2012-08-26T16:13:42Z</time>
      </trkpt>
      <trkpt lat="44.22853" lon="6.97795">
        <ele>1699.9118652344</ele>
        <time>2012-08-26T16:13:46Z</time>
      </trkpt>
      <trkpt lat="44.22852" lon="6.97794">
        <ele>1699.3330078125</ele>
        <time>2012-08-26T16:13:49Z</time>
      </trkpt>
      <trkpt lat="44.22852" lon="6.97794">
        <ele>1699.3984375</ele>
        <time>2012-08-26T16:13:56Z</time>
      </trkpt>
      <trkpt lat="44.22852" lon="6.97795">
        <ele>1699.4854736328</ele>
        <time>2012-08-26T16:14:00Z</time>
      </trkpt>
      <trkpt lat="44.22853" lon="6.97778">
        <ele>1695.8970947266</ele>
        <time>2012-08-26T16:14:06Z</time>
      </trkpt>
      <trkpt lat="44.22856" lon="6.97772">
        <ele>1694.8703613281</ele>
        <time>2012-08-26T16:14:08Z</time>
      </trkpt>
      <trkpt lat="44.22858" lon="6.97767">
        <ele>1694.0909423828</ele>
        <time>2012-08-26T16:14:11Z</time>
      </trkpt>
      <trkpt lat="44.2285" lon="6.97759">
        <ele>1689.5198974609</ele>
        <time>2012-08-26T16:14:15Z</time>
      </trkpt>
      <trkpt lat="44.22842" lon="6.97751">
        <ele>1684.9197998047</ele>
        <time>2012-08-26T16:14:19Z</time>
      </trkpt>
      <trkpt lat="44.22842" lon="6.97746">
        <ele>1683.3725585938</ele>
        <time>2012-08-26T16:14:23Z</time>
      </trkpt>
      <trkpt lat="44.22836" lon="6.9774">
        <ele>1680.1024169922</ele>
        <time>2012-08-26T16:14:28Z</time>
      </trkpt>
      <trkpt lat="44.22832" lon="6.97735">
        <ele>1678.0275878906</ele>
        <time>2012-08-26T16:14:30Z</time>
      </trkpt>
      <trkpt lat="44.22821" lon="6.97724">
        <ele>1673.0965576172</ele>
        <time>2012-08-26T16:14:36Z</time>
      </trkpt>
      <trkpt lat="44.22814" lon="6.97718">
        <ele>1670.4161376953</ele>
        <time>2012-08-26T16:14:39Z</time>
      </trkpt>
      <trkpt lat="44.22807" lon="6.9771">
        <ele>1667.0361328125</ele>
        <time>2012-08-26T16:14:43Z</time>
      </trkpt>
      <trkpt lat="44.22805" lon="6.97709">
        <ele>1666.4587402344</ele>
        <time>2012-08-26T16:14:44Z</time>
      </trkpt>
      <trkpt lat="44.22789" lon="6.97707">
        <ele>1661.9166259766</ele>
        <time>2012-08-26T16:14:50Z</time>
      </trkpt>
      <trkpt lat="44.22778" lon="6.97705">
        <ele>1658.66015625</ele>
        <time>2012-08-26T16:14:54Z</time>
      </trkpt>
      <trkpt lat="44.22763" lon="6.97706">
        <ele>1654.0354003906</ele>
        <time>2012-08-26T16:14:59Z</time>
      </trkpt>
      <trkpt lat="44.22752" lon="6.97704">
        <ele>1649.8122558594</ele>
        <time>2012-08-26T16:15:03Z</time>
      </trkpt>
      <trkpt lat="44.2275" lon="6.97704">
        <ele>1648.9663085938</ele>
        <time>2012-08-26T16:15:08Z</time>
      </trkpt>
      <trkpt lat="44.2275" lon="6.97704">
        <ele>1649.15625</ele>
        <time>2012-08-26T16:15:16Z</time>
      </trkpt>
      <trkpt lat="44.2275" lon="6.97704">
        <ele>1649.0125732422</ele>
        <time>2012-08-26T16:15:22Z</time>
      </trkpt>
      <trkpt lat="44.2275" lon="6.97703">
        <ele>1648.6384277344</ele>
        <time>2012-08-26T16:15:29Z</time>
      </trkpt>
      <trkpt lat="44.2275" lon="6.97702">
        <ele>1648.3001708984</ele>
        <time>2012-08-26T16:15:38Z</time>
      </trkpt>
      <trkpt lat="44.22746" lon="6.97704">
        <ele>1647.7052001953</ele>
        <time>2012-08-26T16:15:44Z</time>
      </trkpt>
      <trkpt lat="44.22733" lon="6.9771">
        <ele>1644.8951416016</ele>
        <time>2012-08-26T16:15:48Z</time>
      </trkpt>
      <trkpt lat="44.22723" lon="6.97716">
        <ele>1642.2570800781</ele>
        <time>2012-08-26T16:15:51Z</time>
      </trkpt>
      <trkpt lat="44.22711" lon="6.97723">
        <ele>1637.9696044922</ele>
        <time>2012-08-26T16:15:55Z</time>
      </trkpt>
      <trkpt lat="44.22702" lon="6.97732">
        <ele>1636.4787597656</ele>
        <time>2012-08-26T16:15:59Z</time>
      </trkpt>
      <trkpt lat="44.22698" lon="6.97728">
        <ele>1633.5364990234</ele>
        <time>2012-08-26T16:16:03Z</time>
      </trkpt>
      <trkpt lat="44.22696" lon="6.97729">
        <ele>1633.1756591797</ele>
        <time>2012-08-26T16:16:07Z</time>
      </trkpt>
      <trkpt lat="44.22693" lon="6.97727">
        <ele>1630.8726806641</ele>
        <time>2012-08-26T16:16:11Z</time>
      </trkpt>
      <trkpt lat="44.22697" lon="6.97712">
        <ele>1627.9337158203</ele>
        <time>2012-08-26T16:16:15Z</time>
      </trkpt>
      <trkpt lat="44.22699" lon="6.97699">
        <ele>1625.0102539062</ele>
        <time>2012-08-26T16:16:19Z</time>
      </trkpt>
      <trkpt lat="44.22699" lon="6.97685">
        <ele>1620.8718261719</ele>
        <time>2012-08-26T16:16:24Z</time>
      </trkpt>
      <trkpt lat="44.22699" lon="6.97673">
        <ele>1617.4387207031</ele>
        <time>2012-08-26T16:16:28Z</time>
      </trkpt>
      <trkpt lat="44.22696" lon="6.97676">
        <ele>1616.9177246094</ele>
        <time>2012-08-26T16:16:31Z</time>
      </trkpt>
      <trkpt lat="44.22686" lon="6.9769">
        <ele>1616.5729980469</ele>
        <time>2012-08-26T16:16:36Z</time>
      </trkpt>
      <trkpt lat="44.22677" lon="6.977">
        <ele>1615.5988769531</ele>
        <time>2012-08-26T16:16:40Z</time>
      </trkpt>
      <trkpt lat="44.22663" lon="6.97713">
        <ele>1613.3475341797</ele>
        <time>2012-08-26T16:16:45Z</time>
      </trkpt>
      <trkpt lat="44.22649" lon="6.97731">
        <ele>1610.5119628906</ele>
        <time>2012-08-26T16:16:50Z</time>
      </trkpt>
      <trkpt lat="44.22637" lon="6.97737">
        <ele>1605.9466552734</ele>
        <time>2012-08-26T16:16:56Z</time>
      </trkpt>
      <trkpt lat="44.22629" lon="6.97742">
        <ele>1603.3165283203</ele>
        <time>2012-08-26T16:16:59Z</time>
      </trkpt>
      <trkpt lat="44.22618" lon="6.97748">
        <ele>1600.4302978516</ele>
        <time>2012-08-26T16:17:03Z</time>
      </trkpt>
      <trkpt lat="44.22615" lon="6.97752">
        <ele>1600.0808105469</ele>
        <time>2012-08-26T16:17:07Z</time>
      </trkpt>
      <trkpt lat="44.22615" lon="6.97752">
        <ele>1599.9846191406</ele>
        <time>2012-08-26T16:17:13Z</time>
      </trkpt>
      <trkpt lat="44.22614" lon="6.97755">
        <ele>1599.7077636719</ele>
        <time>2012-08-26T16:17:22Z</time>
      </trkpt>
      <trkpt lat="44.22608" lon="6.97759">
        <ele>1597.8018798828</ele>
        <time>2012-08-26T16:17:26Z</time>
      </trkpt>
      <trkpt lat="44.22601" lon="6.97752">
        <ele>1593.7750244141</ele>
        <time>2012-08-26T16:17:30Z</time>
      </trkpt>
      <trkpt lat="44.226" lon="6.97749">
        <ele>1592.5434570312</ele>
        <time>2012-08-26T16:17:31Z</time>
      </trkpt>
      <trkpt lat="44.22598" lon="6.97743">
        <ele>1590.1594238281</ele>
        <time>2012-08-26T16:17:33Z</time>
      </trkpt>
      <trkpt lat="44.22591" lon="6.97745">
        <ele>1587.5297851562</ele>
        <time>2012-08-26T16:17:37Z</time>
      </trkpt>
      <trkpt lat="44.22587" lon="6.9775">
        <ele>1586.6657714844</ele>
        <time>2012-08-26T16:17:39Z</time>
      </trkpt>
      <trkpt lat="44.22583" lon="6.97742">
        <ele>1583.6700439453</ele>
        <time>2012-08-26T16:17:43Z</time>
      </trkpt>
      <trkpt lat="44.22581" lon="6.97732">
        <ele>1581.2647705078</ele>
        <time>2012-08-26T16:17:47Z</time>
      </trkpt>
      <trkpt lat="44.2258" lon="6.97733">
        <ele>1580.9158935547</ele>
        <time>2012-08-26T16:17:49Z</time>
      </trkpt>
      <trkpt lat="44.22574" lon="6.97742">
        <ele>1580.068359375</ele>
        <time>2012-08-26T16:17:53Z</time>
      </trkpt>
      <trkpt lat="44.22566" lon="6.97733">
        <ele>1575.1842041016</ele>
        <time>2012-08-26T16:17:57Z</time>
      </trkpt>
      <trkpt lat="44.22558" lon="6.97726">
        <ele>1570.0208740234</ele>
        <time>2012-08-26T16:18:01Z</time>
      </trkpt>
      <trkpt lat="44.22554" lon="6.97723">
        <ele>1567.8947753906</ele>
        <time>2012-08-26T16:18:03Z</time>
      </trkpt>
      <trkpt lat="44.22543" lon="6.97713">
        <ele>1562.560546875</ele>
        <time>2012-08-26T16:18:08Z</time>
      </trkpt>
      <trkpt lat="44.22534" lon="6.97692">
        <ele>1556.7318115234</ele>
        <time>2012-08-26T16:18:13Z</time>
      </trkpt>
      <trkpt lat="44.22526" lon="6.97683">
        <ele>1552.3651123047</ele>
        <time>2012-08-26T16:18:18Z</time>
      </trkpt>
      <trkpt lat="44.22529" lon="6.97678">
        <ele>1552.0219726562</ele>
        <time>2012-08-26T16:18:21Z</time>
      </trkpt>
      <trkpt lat="44.22528" lon="6.97677">
        <ele>1551.4818115234</ele>
        <time>2012-08-26T16:18:22Z</time>
      </trkpt>
      <trkpt lat="44.22519" lon="6.97684">
        <ele>1549.3575439453</ele>
        <time>2012-08-26T16:18:27Z</time>
      </trkpt>
      <trkpt lat="44.22513" lon="6.97696">
        <ele>1548.8968505859</ele>
        <time>2012-08-26T16:18:30Z</time>
      </trkpt>
      <trkpt lat="44.22499" lon="6.97697">
        <ele>1542.2401123047</ele>
        <time>2012-08-26T16:18:35Z</time>
      </trkpt>
      <trkpt lat="44.22495" lon="6.97693">
        <ele>1541.6076660156</ele>
        <time>2012-08-26T16:18:37Z</time>
      </trkpt>
      <trkpt lat="44.22498" lon="6.97678">
        <ele>1539.5697021484</ele>
        <time>2012-08-26T16:18:42Z</time>
      </trkpt>
      <trkpt lat="44.22502" lon="6.97662">
        <ele>1537.6013183594</ele>
        <time>2012-08-26T16:18:46Z</time>
      </trkpt>
      <trkpt lat="44.22503" lon="6.9764">
        <ele>1532.2886962891</ele>
        <time>2012-08-26T16:18:51Z</time>
      </trkpt>
      <trkpt lat="44.22503" lon="6.97626">
        <ele>1529.5567626953</ele>
        <time>2012-08-26T16:18:54Z</time>
      </trkpt>
      <trkpt lat="44.22501" lon="6.97624">
        <ele>1528.2061767578</ele>
        <time>2012-08-26T16:18:56Z</time>
      </trkpt>
      <trkpt lat="44.22497" lon="6.97612">
        <ele>1524.4719238281</ele>
        <time>2012-08-26T16:19:00Z</time>
      </trkpt>
      <trkpt lat="44.22492" lon="6.97585">
        <ele>1518.7501220703</ele>
        <time>2012-08-26T16:19:06Z</time>
      </trkpt>
      <trkpt lat="44.22485" lon="6.97572">
        <ele>1516.0646972656</ele>
        <time>2012-08-26T16:19:09Z</time>
      </trkpt>
      <trkpt lat="44.22478" lon="6.97549">
        <ele>1511.9924316406</ele>
        <time>2012-08-26T16:19:14Z</time>
      </trkpt>
      <trkpt lat="44.22476" lon="6.97546">
        <ele>1511.3332519531</ele>
        <time>2012-08-26T16:19:15Z</time>
      </trkpt>
      <trkpt lat="44.22469" lon="6.97543">
        <ele>1509.2927246094</ele>
        <time>2012-08-26T16:19:20Z</time>
      </trkpt>
      <trkpt lat="44.22468" lon="6.9753">
        <ele>1507.1005859375</ele>
        <time>2012-08-26T16:19:24Z</time>
      </trkpt>
      <trkpt lat="44.22461" lon="6.97514">
        <ele>1503.0180664062</ele>
        <time>2012-08-26T16:19:29Z</time>
      </trkpt>
      <trkpt lat="44.22457" lon="6.97519">
        <ele>1502.5078125</ele>
        <time>2012-08-26T16:19:32Z</time>
      </trkpt>
      <trkpt lat="44.22456" lon="6.97512">
        <ele>1501.3040771484</ele>
        <time>2012-08-26T16:19:35Z</time>
      </trkpt>
      <trkpt lat="44.22452" lon="6.97504">
        <ele>1499.4055175781</ele>
        <time>2012-08-26T16:19:39Z</time>
      </trkpt>
      <trkpt lat="44.22449" lon="6.97504">
        <ele>1498.5883789062</ele>
        <time>2012-08-26T16:19:40Z</time>
      </trkpt>
      <trkpt lat="44.22442" lon="6.97501">
        <ele>1496.3669433594</ele>
        <time>2012-08-26T16:19:42Z</time>
      </trkpt>
      <trkpt lat="44.22433" lon="6.97502">
        <ele>1493.0213623047</ele>
        <time>2012-08-26T16:19:45Z</time>
      </trkpt>
      <trkpt lat="44.22428" lon="6.97513">
        <ele>1492.41015625</ele>
        <time>2012-08-26T16:19:49Z</time>
      </trkpt>
      <trkpt lat="44.22424" lon="6.97519">
        <ele>1491.4918212891</ele>
        <time>2012-08-26T16:19:52Z</time>
      </trkpt>
      <trkpt lat="44.2242" lon="6.9751">
        <ele>1489.3288574219</ele>
        <time>2012-08-26T16:19:55Z</time>
      </trkpt>
      <trkpt lat="44.22416" lon="6.97496">
        <ele>1485.9478759766</ele>
        <time>2012-08-26T16:19:59Z</time>
      </trkpt>
      <trkpt lat="44.22405" lon="6.97476">
        <ele>1476.8181152344</ele>
        <time>2012-08-26T16:20:04Z</time>
      </trkpt>
      <trkpt lat="44.22398" lon="6.9746">
        <ele>1470.6146240234</ele>
        <time>2012-08-26T16:20:08Z</time>
      </trkpt>
      <trkpt lat="44.22396" lon="6.97446">
        <ele>1467.3969726562</ele>
        <time>2012-08-26T16:20:12Z</time>
      </trkpt>
      <trkpt lat="44.22392" lon="6.97448">
        <ele>1465.6029052734</ele>
        <time>2012-08-26T16:20:16Z</time>
      </trkpt>
      <trkpt lat="44.22391" lon="6.97451">
        <ele>1465.2377929688</ele>
        <time>2012-08-26T16:20:17Z</time>
      </trkpt>
      <trkpt lat="44.22385" lon="6.97448">
        <ele>1461.9187011719</ele>
        <time>2012-08-26T16:20:21Z</time>
      </trkpt>
      <trkpt lat="44.22381" lon="6.97443">
        <ele>1458.9755859375</ele>
        <time>2012-08-26T16:20:27Z</time>
      </trkpt>
      <trkpt lat="44.2238" lon="6.97445">
        <ele>1458.7670898438</ele>
        <time>2012-08-26T16:20:29Z</time>
      </trkpt>
      <trkpt lat="44.22379" lon="6.97443">
        <ele>1458.0985107422</ele>
        <time>2012-08-26T16:20:42Z</time>
      </trkpt>
      <trkpt lat="44.22379" lon="6.97444">
        <ele>1458.2344970703</ele>
        <time>2012-08-26T16:20:48Z</time>
      </trkpt>
      <trkpt lat="44.22379" lon="6.97445">
        <ele>1458.2932128906</ele>
        <time>2012-08-26T16:20:58Z</time>
      </trkpt>
      <trkpt lat="44.22377" lon="6.97447">
        <ele>1458.0598144531</ele>
        <time>2012-08-26T16:21:12Z</time>
      </trkpt>
      <trkpt lat="44.22377" lon="6.97448">
        <ele>1457.7302246094</ele>
        <time>2012-08-26T16:21:47Z</time>
      </trkpt>
      <trkpt lat="44.22377" lon="6.97448">
        <ele>1457.9018554688</ele>
        <time>2012-08-26T16:22:04Z</time>
      </trkpt>
      <trkpt lat="44.22376" lon="6.97447">
        <ele>1457.4143066406</ele>
        <time>2012-08-26T16:22:08Z</time>
      </trkpt>
      <trkpt lat="44.22368" lon="6.97444">
        <ele>1453.1961669922</ele>
        <time>2012-08-26T16:22:13Z</time>
      </trkpt>
      <trkpt lat="44.22369" lon="6.97442">
        <ele>1453.1243896484</ele>
        <time>2012-08-26T16:22:14Z</time>
      </trkpt>
      <trkpt lat="44.22364" lon="6.97443">
        <ele>1450.9779052734</ele>
        <time>2012-08-26T16:22:20Z</time>
      </trkpt>
      <trkpt lat="44.22363" lon="6.97446">
        <ele>1450.8706054688</ele>
        <time>2012-08-26T16:22:21Z</time>
      </trkpt>
      <trkpt lat="44.22361" lon="6.97456">
        <ele>1451.6188964844</ele>
        <time>2012-08-26T16:22:24Z</time>
      </trkpt>
      <trkpt lat="44.22355" lon="6.97464">
        <ele>1451.7012939453</ele>
        <time>2012-08-26T16:22:28Z</time>
      </trkpt>
      <trkpt lat="44.2235" lon="6.97475">
        <ele>1452.4017333984</ele>
        <time>2012-08-26T16:22:32Z</time>
      </trkpt>
      <trkpt lat="44.22344" lon="6.97473">
        <ele>1451.0146484375</ele>
        <time>2012-08-26T16:22:34Z</time>
      </trkpt>
      <trkpt lat="44.22332" lon="6.97463">
        <ele>1447.0397949219</ele>
        <time>2012-08-26T16:22:46Z</time>
      </trkpt>
      <trkpt lat="44.22331" lon="6.97461">
        <ele>1446.2501220703</ele>
        <time>2012-08-26T16:22:52Z</time>
      </trkpt>
      <trkpt lat="44.22327" lon="6.97446">
        <ele>1442.2744140625</ele>
        <time>2012-08-26T16:22:57Z</time>
      </trkpt>
      <trkpt lat="44.22324" lon="6.97448">
        <ele>1441.2924804688</ele>
        <time>2012-08-26T16:23:02Z</time>
      </trkpt>
      <trkpt lat="44.22323" lon="6.97461">
        <ele>1442.7138671875</ele>
        <time>2012-08-26T16:23:05Z</time>
      </trkpt>
      <trkpt lat="44.22319" lon="6.97473">
        <ele>1442.6040039062</ele>
        <time>2012-08-26T16:23:10Z</time>
      </trkpt>
      <trkpt lat="44.22318" lon="6.97472">
        <ele>1441.7457275391</ele>
        <time>2012-08-26T16:23:11Z</time>
      </trkpt>
      <trkpt lat="44.22308" lon="6.97456">
        <ele>1434.5496826172</ele>
        <time>2012-08-26T16:23:17Z</time>
      </trkpt>
      <trkpt lat="44.22305" lon="6.97441">
        <ele>1430.8298339844</ele>
        <time>2012-08-26T16:23:22Z</time>
      </trkpt>
      <trkpt lat="44.22304" lon="6.97441">
        <ele>1430.5638427734</ele>
        <time>2012-08-26T16:23:23Z</time>
      </trkpt>
      <trkpt lat="44.22301" lon="6.97454">
        <ele>1431.0700683594</ele>
        <time>2012-08-26T16:23:28Z</time>
      </trkpt>
      <trkpt lat="44.22298" lon="6.97458">
        <ele>1430.4141845703</ele>
        <time>2012-08-26T16:23:30Z</time>
      </trkpt>
      <trkpt lat="44.22297" lon="6.97453">
        <ele>1429.0013427734</ele>
        <time>2012-08-26T16:23:33Z</time>
      </trkpt>
      <trkpt lat="44.22294" lon="6.9744">
        <ele>1425.0706787109</ele>
        <time>2012-08-26T16:23:37Z</time>
      </trkpt>
      <trkpt lat="44.22294" lon="6.97434">
        <ele>1424.0148925781</ele>
        <time>2012-08-26T16:23:40Z</time>
      </trkpt>
      <trkpt lat="44.22293" lon="6.97434">
        <ele>1423.4055175781</ele>
        <time>2012-08-26T16:23:45Z</time>
      </trkpt>
      <trkpt lat="44.22292" lon="6.97432">
        <ele>1422.5385742188</ele>
        <time>2012-08-26T16:23:48Z</time>
      </trkpt>
      <trkpt lat="44.22289" lon="6.97414">
        <ele>1417.4361572266</ele>
        <time>2012-08-26T16:23:53Z</time>
      </trkpt>
      <trkpt lat="44.2228" lon="6.97405">
        <ele>1411.5791015625</ele>
        <time>2012-08-26T16:23:57Z</time>
      </trkpt>
      <trkpt lat="44.22268" lon="6.97399">
        <ele>1407.5389404297</ele>
        <time>2012-08-26T16:24:02Z</time>
      </trkpt>
      <trkpt lat="44.22258" lon="6.97391">
        <ele>1404.0914306641</ele>
        <time>2012-08-26T16:24:06Z</time>
      </trkpt>
      <trkpt lat="44.22257" lon="6.97388">
        <ele>1403.3850097656</ele>
        <time>2012-08-26T16:24:07Z</time>
      </trkpt>
      <trkpt lat="44.22253" lon="6.97385">
        <ele>1401.8552246094</ele>
        <time>2012-08-26T16:24:12Z</time>
      </trkpt>
      <trkpt lat="44.22252" lon="6.97378">
        <ele>1400.1213378906</ele>
        <time>2012-08-26T16:24:15Z</time>
      </trkpt>
      <trkpt lat="44.2225" lon="6.97382">
        <ele>1400.4562988281</ele>
        <time>2012-08-26T16:24:20Z</time>
      </trkpt>
      <trkpt lat="44.22249" lon="6.97397">
        <ele>1403.1311035156</ele>
        <time>2012-08-26T16:24:25Z</time>
      </trkpt>
      <trkpt lat="44.22246" lon="6.97395">
        <ele>1400.927734375</ele>
        <time>2012-08-26T16:24:28Z</time>
      </trkpt>
      <trkpt lat="44.22245" lon="6.97392">
        <ele>1399.8703613281</ele>
        <time>2012-08-26T16:24:29Z</time>
      </trkpt>
      <trkpt lat="44.22241" lon="6.97387">
        <ele>1396.3981933594</ele>
        <time>2012-08-26T16:24:32Z</time>
      </trkpt>
      <trkpt lat="44.22231" lon="6.97387">
        <ele>1390.4896240234</ele>
        <time>2012-08-26T16:24:37Z</time>
      </trkpt>
      <trkpt lat="44.22228" lon="6.97387">
        <ele>1388.783203125</ele>
        <time>2012-08-26T16:24:39Z</time>
      </trkpt>
      <trkpt lat="44.22219" lon="6.97385">
        <ele>1383.0787353516</ele>
        <time>2012-08-26T16:24:46Z</time>
      </trkpt>
      <trkpt lat="44.22212" lon="6.97385">
        <ele>1379.5753173828</ele>
        <time>2012-08-26T16:24:51Z</time>
      </trkpt>
      <trkpt lat="44.22213" lon="6.97384">
        <ele>1379.7060546875</ele>
        <time>2012-08-26T16:25:02Z</time>
      </trkpt>
      <trkpt lat="44.22214" lon="6.97384">
        <ele>1380.1717529297</ele>
        <time>2012-08-26T16:25:10Z</time>
      </trkpt>
      <trkpt lat="44.22223" lon="6.97387">
        <ele>1385.8753662109</ele>
        <time>2012-08-26T16:25:16Z</time>
      </trkpt>
      <trkpt lat="44.22232" lon="6.97389">
        <ele>1391.4337158203</ele>
        <time>2012-08-26T16:25:20Z</time>
      </trkpt>
      <trkpt lat="44.22232" lon="6.9739">
        <ele>1391.8635253906</ele>
        <time>2012-08-26T16:25:25Z</time>
      </trkpt>
      <trkpt lat="44.22233" lon="6.97392">
        <ele>1392.9371337891</ele>
        <time>2012-08-26T16:25:31Z</time>
      </trkpt>
      <trkpt lat="44.22237" lon="6.9739">
        <ele>1394.8149414062</ele>
        <time>2012-08-26T16:25:37Z</time>
      </trkpt>
      <trkpt lat="44.22238" lon="6.97386">
        <ele>1394.2490234375</ele>
        <time>2012-08-26T16:25:43Z</time>
      </trkpt>
      <trkpt lat="44.22237" lon="6.97379">
        <ele>1392.1684570312</ele>
        <time>2012-08-26T16:25:48Z</time>
      </trkpt>
      <trkpt lat="44.22237" lon="6.97374">
        <ele>1391.1693115234</ele>
        <time>2012-08-26T16:25:50Z</time>
      </trkpt>
      <trkpt lat="44.22232" lon="6.97353">
        <ele>1383.1700439453</ele>
        <time>2012-08-26T16:25:55Z</time>
      </trkpt>
      <trkpt lat="44.22227" lon="6.97334">
        <ele>1375.6357421875</ele>
        <time>2012-08-26T16:25:59Z</time>
      </trkpt>
      <trkpt lat="44.22223" lon="6.97312">
        <ele>1367.1596679688</ele>
        <time>2012-08-26T16:26:03Z</time>
      </trkpt>
      <trkpt lat="44.22226" lon="6.97289">
        <ele>1363.1871337891</ele>
        <time>2012-08-26T16:26:07Z</time>
      </trkpt>
      <trkpt lat="44.22231" lon="6.9728">
        <ele>1362.8103027344</ele>
        <time>2012-08-26T16:26:11Z</time>
      </trkpt>
      <trkpt lat="44.2223" lon="6.97281">
        <ele>1362.9005126953</ele>
        <time>2012-08-26T16:26:16Z</time>
      </trkpt>
      <trkpt lat="44.2223" lon="6.97278">
        <ele>1362.1403808594</ele>
        <time>2012-08-26T16:26:32Z</time>
      </trkpt>
      <trkpt lat="44.22232" lon="6.97273">
        <ele>1361.8161621094</ele>
        <time>2012-08-26T16:26:34Z</time>
      </trkpt>
      <trkpt lat="44.22229" lon="6.97273">
        <ele>1360.5295410156</ele>
        <time>2012-08-26T16:26:38Z</time>
      </trkpt>
      <trkpt lat="44.22224" lon="6.97275">
        <ele>1359.3446044922</ele>
        <time>2012-08-26T16:26:40Z</time>
      </trkpt>
      <trkpt lat="44.22216" lon="6.97279">
        <ele>1356.2673339844</ele>
        <time>2012-08-26T16:26:44Z</time>
      </trkpt>
      <trkpt lat="44.22216" lon="6.97276">
        <ele>1356.0554199219</ele>
        <time>2012-08-26T16:26:45Z</time>
      </trkpt>
      <trkpt lat="44.22218" lon="6.97255">
        <ele>1353.271484375</ele>
        <time>2012-08-26T16:26:50Z</time>
      </trkpt>
      <trkpt lat="44.2222" lon="6.97236">
        <ele>1350.6958007812</ele>
        <time>2012-08-26T16:26:54Z</time>
      </trkpt>
      <trkpt lat="44.22215" lon="6.97214">
        <ele>1344.9544677734</ele>
        <time>2012-08-26T16:26:59Z</time>
      </trkpt>
      <trkpt lat="44.22214" lon="6.97206">
        <ele>1343.1434326172</ele>
        <time>2012-08-26T16:27:01Z</time>
      </trkpt>
      <trkpt lat="44.22208" lon="6.97199">
        <ele>1339.7961425781</ele>
        <time>2012-08-26T16:27:05Z</time>
      </trkpt>
      <trkpt lat="44.22197" lon="6.97203">
        <ele>1336.671875</ele>
        <time>2012-08-26T16:27:09Z</time>
      </trkpt>
      <trkpt lat="44.22193" lon="6.97201">
        <ele>1334.7984619141</ele>
        <time>2012-08-26T16:27:11Z</time>
      </trkpt>
      <trkpt lat="44.22184" lon="6.9719">
        <ele>1329.9587402344</ele>
        <time>2012-08-26T16:27:16Z</time>
      </trkpt>
      <trkpt lat="44.22184" lon="6.9719">
        <ele>1330.0093994141</ele>
        <time>2012-08-26T16:27:23Z</time>
      </trkpt>
      <trkpt lat="44.22184" lon="6.97189">
        <ele>1329.6661376953</ele>
        <time>2012-08-26T16:27:26Z</time>
      </trkpt>
      <trkpt lat="44.22174" lon="6.97173">
        <ele>1324.4887695312</ele>
        <time>2012-08-26T16:27:32Z</time>
      </trkpt>
      <trkpt lat="44.22167" lon="6.97162">
        <ele>1321.2607421875</ele>
        <time>2012-08-26T16:27:35Z</time>
      </trkpt>
      <trkpt lat="44.22169" lon="6.97144">
        <ele>1318.6137695312</ele>
        <time>2012-08-26T16:27:42Z</time>
      </trkpt>
      <trkpt lat="44.22173" lon="6.97128">
        <ele>1314.6737060547</ele>
        <time>2012-08-26T16:27:46Z</time>
      </trkpt>
      <trkpt lat="44.22176" lon="6.97119">
        <ele>1312.0617675781</ele>
        <time>2012-08-26T16:27:50Z</time>
      </trkpt>
      <trkpt lat="44.2216" lon="6.9712">
        <ele>1307.4438476562</ele>
        <time>2012-08-26T16:27:54Z</time>
      </trkpt>
      <trkpt lat="44.22156" lon="6.97121">
        <ele>1306.2888183594</ele>
        <time>2012-08-26T16:27:55Z</time>
      </trkpt>
      <trkpt lat="44.22132" lon="6.97126">
        <ele>1300.4830322266</ele>
        <time>2012-08-26T16:28:01Z</time>
      </trkpt>
      <trkpt lat="44.22128" lon="6.97127">
        <ele>1299.84375</ele>
        <time>2012-08-26T16:28:02Z</time>
      </trkpt>
      <trkpt lat="44.22107" lon="6.97138">
        <ele>1297.5834960938</ele>
        <time>2012-08-26T16:28:07Z</time>
      </trkpt>
      <trkpt lat="44.221" lon="6.97136">
        <ele>1293.9219970703</ele>
        <time>2012-08-26T16:28:10Z</time>
      </trkpt>
      <trkpt lat="44.22098" lon="6.97138">
        <ele>1293.7446289062</ele>
        <time>2012-08-26T16:28:13Z</time>
      </trkpt>
      <trkpt lat="44.22095" lon="6.97151">
        <ele>1294.81640625</ele>
        <time>2012-08-26T16:28:17Z</time>
      </trkpt>
      <trkpt lat="44.22095" lon="6.97164">
        <ele>1297.5895996094</ele>
        <time>2012-08-26T16:28:21Z</time>
      </trkpt>
      <trkpt lat="44.22091" lon="6.97168">
        <ele>1296.9681396484</ele>
        <time>2012-08-26T16:28:25Z</time>
      </trkpt>
      <trkpt lat="44.22091" lon="6.97166">
        <ele>1296.4233398438</ele>
        <time>2012-08-26T16:28:29Z</time>
      </trkpt>
      <trkpt lat="44.22089" lon="6.97162">
        <ele>1295.158203125</ele>
        <time>2012-08-26T16:28:34Z</time>
      </trkpt>
      <trkpt lat="44.22084" lon="6.97147">
        <ele>1289.4112548828</ele>
        <time>2012-08-26T16:28:39Z</time>
      </trkpt>
      <trkpt lat="44.22087" lon="6.97119">
        <ele>1283.7091064453</ele>
        <time>2012-08-26T16:28:44Z</time>
      </trkpt>
      <trkpt lat="44.2209" lon="6.97114">
        <ele>1283.2158203125</ele>
        <time>2012-08-26T16:28:45Z</time>
      </trkpt>
      <trkpt lat="44.22095" lon="6.97101">
        <ele>1280.7504882812</ele>
        <time>2012-08-26T16:28:47Z</time>
      </trkpt>
      <trkpt lat="44.22102" lon="6.97087">
        <ele>1278.4234619141</ele>
        <time>2012-08-26T16:28:49Z</time>
      </trkpt>
      <trkpt lat="44.2211" lon="6.97072">
        <ele>1275.8568115234</ele>
        <time>2012-08-26T16:28:51Z</time>
      </trkpt>
      <trkpt lat="44.22132" lon="6.9704">
        <ele>1270.2381591797</ele>
        <time>2012-08-26T16:28:56Z</time>
      </trkpt>
      <trkpt lat="44.22145" lon="6.97023">
        <ele>1267.3785400391</ele>
        <time>2012-08-26T16:28:59Z</time>
      </trkpt>
      <trkpt lat="44.22175" lon="6.96989">
        <ele>1264.8642578125</ele>
        <time>2012-08-26T16:29:05Z</time>
      </trkpt>
      <trkpt lat="44.2218" lon="6.96983">
        <ele>1265.1508789062</ele>
        <time>2012-08-26T16:29:06Z</time>
      </trkpt>
      <trkpt lat="44.22196" lon="6.96941">
        <ele>1254.2950439453</ele>
        <time>2012-08-26T16:29:11Z</time>
      </trkpt>
      <trkpt lat="44.22202" lon="6.96922">
        <ele>1247.8010253906</ele>
        <time>2012-08-26T16:29:13Z</time>
      </trkpt>
      <trkpt lat="44.22222" lon="6.96887">
        <ele>1240.2631835938</ele>
        <time>2012-08-26T16:29:18Z</time>
      </trkpt>
      <trkpt lat="44.2224" lon="6.96863">
        <ele>1236.2745361328</ele>
        <time>2012-08-26T16:29:22Z</time>
      </trkpt>
      <trkpt lat="44.22258" lon="6.96844">
        <ele>1232.5598144531</ele>
        <time>2012-08-26T16:29:25Z</time>
      </trkpt>
      <trkpt lat="44.22284" lon="6.96806">
        <ele>1221.2747802734</ele>
        <time>2012-08-26T16:29:30Z</time>
      </trkpt>
      <trkpt lat="44.22321" lon="6.96775">
        <ele>1225.3922119141</ele>
        <time>2012-08-26T16:29:36Z</time>
      </trkpt>
      <trkpt lat="44.2237" lon="6.96742">
        <ele>1222.3631591797</ele>
        <time>2012-08-26T16:29:43Z</time>
      </trkpt>
      <trkpt lat="44.22406" lon="6.96715">
        <ele>1212.3723144531</ele>
        <time>2012-08-26T16:29:49Z</time>
      </trkpt>
      <trkpt lat="44.22426" lon="6.96697">
        <ele>1208.1424560547</ele>
        <time>2012-08-26T16:29:54Z</time>
      </trkpt>
      <trkpt lat="44.22429" lon="6.96694">
        <ele>1207.7551269531</ele>
        <time>2012-08-26T16:29:55Z</time>
      </trkpt>
      <trkpt lat="44.22436" lon="6.96689">
        <ele>1207.6994628906</ele>
        <time>2012-08-26T16:30:00Z</time>
      </trkpt>
      <trkpt lat="44.22432" lon="6.96689">
        <ele>1205.908203125</ele>
        <time>2012-08-26T16:30:05Z</time>
      </trkpt>
      <trkpt lat="44.22433" lon="6.96686">
        <ele>1205.1320800781</ele>
        <time>2012-08-26T16:30:07Z</time>
      </trkpt>
      <trkpt lat="44.22434" lon="6.96684">
        <ele>1204.4698486328</ele>
        <time>2012-08-26T16:30:12Z</time>
      </trkpt>
      <trkpt lat="44.22436" lon="6.9668">
        <ele>1203.3015136719</ele>
        <time>2012-08-26T16:30:17Z</time>
      </trkpt>
      <trkpt lat="44.22437" lon="6.9668">
        <ele>1203.5421142578</ele>
        <time>2012-08-26T16:30:23Z</time>
      </trkpt>
      <trkpt lat="44.22438" lon="6.96679">
        <ele>1203.7611083984</ele>
        <time>2012-08-26T16:30:38Z</time>
      </trkpt>
      <trkpt lat="44.22441" lon="6.96676">
        <ele>1203.298828125</ele>
        <time>2012-08-26T16:30:46Z</time>
      </trkpt>
      <trkpt lat="44.2245" lon="6.96668">
        <ele>1201.1810302734</ele>
        <time>2012-08-26T16:30:50Z</time>
      </trkpt>
      <trkpt lat="44.22458" lon="6.96665">
        <ele>1200.3095703125</ele>
        <time>2012-08-26T16:30:52Z</time>
      </trkpt>
      <trkpt lat="44.22467" lon="6.96657">
        <ele>1197.3203125</ele>
        <time>2012-08-26T16:30:56Z</time>
      </trkpt>
      <trkpt lat="44.2247" lon="6.96655">
        <ele>1196.2696533203</ele>
        <time>2012-08-26T16:30:57Z</time>
      </trkpt>
      <trkpt lat="44.22484" lon="6.96645">
        <ele>1194.8336181641</ele>
        <time>2012-08-26T16:31:01Z</time>
      </trkpt>
      <trkpt lat="44.22494" lon="6.96633">
        <ele>1189.7379150391</ele>
        <time>2012-08-26T16:31:07Z</time>
      </trkpt>
      <trkpt lat="44.22507" lon="6.96618">
        <ele>1182.4147949219</ele>
        <time>2012-08-26T16:31:13Z</time>
      </trkpt>
      <trkpt lat="44.2252" lon="6.96609">
        <ele>1182.5622558594</ele>
        <time>2012-08-26T16:31:17Z</time>
      </trkpt>
      <trkpt lat="44.22533" lon="6.96594">
        <ele>1179.7767333984</ele>
        <time>2012-08-26T16:31:21Z</time>
      </trkpt>
      <trkpt lat="44.22548" lon="6.96585">
        <ele>1180.3724365234</ele>
        <time>2012-08-26T16:31:25Z</time>
      </trkpt>
      <trkpt lat="44.22565" lon="6.9658">
        <ele>1182.955078125</ele>
        <time>2012-08-26T16:31:30Z</time>
      </trkpt>
      <trkpt lat="44.22575" lon="6.96568">
        <ele>1179.7216796875</ele>
        <time>2012-08-26T16:31:34Z</time>
      </trkpt>
      <trkpt lat="44.22588" lon="6.96561">
        <ele>1180.7442626953</ele>
        <time>2012-08-26T16:31:38Z</time>
      </trkpt>
      <trkpt lat="44.22601" lon="6.96546">
        <ele>1179.87890625</ele>
        <time>2012-08-26T16:31:43Z</time>
      </trkpt>
      <trkpt lat="44.22613" lon="6.9653">
        <ele>1176.7474365234</ele>
        <time>2012-08-26T16:31:48Z</time>
      </trkpt>
      <trkpt lat="44.22626" lon="6.96518">
        <ele>1175.5979003906</ele>
        <time>2012-08-26T16:31:53Z</time>
      </trkpt>
      <trkpt lat="44.2264" lon="6.96505">
        <ele>1173.8521728516</ele>
        <time>2012-08-26T16:31:58Z</time>
      </trkpt>
      <trkpt lat="44.22647" lon="6.96499">
        <ele>1173.1903076172</ele>
        <time>2012-08-26T16:32:02Z</time>
      </trkpt>
      <trkpt lat="44.22649" lon="6.96496">
        <ele>1172.6926269531</ele>
        <time>2012-08-26T16:32:03Z</time>
      </trkpt>
      <trkpt lat="44.22646" lon="6.96492">
        <ele>1170.1306152344</ele>
        <time>2012-08-26T16:32:08Z</time>
      </trkpt>
      <trkpt lat="44.22645" lon="6.96492">
        <ele>1169.6652832031</ele>
        <time>2012-08-26T16:32:13Z</time>
      </trkpt>
      <trkpt lat="44.22646" lon="6.9649">
        <ele>1169.1697998047</ele>
        <time>2012-08-26T16:32:20Z</time>
      </trkpt>
      <trkpt lat="44.22645" lon="6.96489">
        <ele>1168.5052490234</ele>
        <time>2012-08-26T16:32:25Z</time>
      </trkpt>
      <trkpt lat="44.22644" lon="6.96488">
        <ele>1167.7767333984</ele>
        <time>2012-08-26T16:32:33Z</time>
      </trkpt>
      <trkpt lat="44.22644" lon="6.96487">
        <ele>1167.3923339844</ele>
        <time>2012-08-26T16:32:39Z</time>
      </trkpt>
      <trkpt lat="44.22644" lon="6.96485">
        <ele>1166.7731933594</ele>
        <time>2012-08-26T16:32:49Z</time>
      </trkpt>
      <trkpt lat="44.22643" lon="6.96486">
        <ele>1166.3243408203</ele>
        <time>2012-08-26T16:33:01Z</time>
      </trkpt>
      <trkpt lat="44.22642" lon="6.96486">
        <ele>1166.4271240234</ele>
        <time>2012-08-26T16:33:02Z</time>
      </trkpt>
      <trkpt lat="44.22629" lon="6.96493">
        <ele>1164.0120849609</ele>
        <time>2012-08-26T16:33:07Z</time>
      </trkpt>
      <trkpt lat="44.22604" lon="6.96504">
        <ele>1158.1705322266</ele>
        <time>2012-08-26T16:33:12Z</time>
      </trkpt>
      <trkpt lat="44.22595" lon="6.9651">
        <ele>1156.8315429688</ele>
        <time>2012-08-26T16:33:14Z</time>
      </trkpt>
      <trkpt lat="44.22588" lon="6.96502">
        <ele>1148.9008789062</ele>
        <time>2012-08-26T16:33:18Z</time>
      </trkpt>
      <trkpt lat="44.22603" lon="6.96493">
        <ele>1152.1822509766</ele>
        <time>2012-08-26T16:33:21Z</time>
      </trkpt>
      <trkpt lat="44.22632" lon="6.96475">
        <ele>1157.5911865234</ele>
        <time>2012-08-26T16:33:26Z</time>
      </trkpt>
      <trkpt lat="44.22646" lon="6.9646">
        <ele>1155.322265625</ele>
        <time>2012-08-26T16:33:29Z</time>
      </trkpt>
      <trkpt lat="44.2267" lon="6.96448">
        <ele>1154.8697509766</ele>
        <time>2012-08-26T16:33:34Z</time>
      </trkpt>
      <trkpt lat="44.22674" lon="6.96448">
        <ele>1155.2749023438</ele>
        <time>2012-08-26T16:33:35Z</time>
      </trkpt>
      <trkpt lat="44.22679" lon="6.96449">
        <ele>1155.9443359375</ele>
        <time>2012-08-26T16:33:39Z</time>
      </trkpt>
      <trkpt lat="44.22679" lon="6.96449">
        <ele>1155.5598144531</ele>
        <time>2012-08-26T16:33:51Z</time>
      </trkpt>
      <trkpt lat="44.22675" lon="6.96447">
        <ele>1154.7633056641</ele>
        <time>2012-08-26T16:33:56Z</time>
      </trkpt>
      <trkpt lat="44.22673" lon="6.96447">
        <ele>1154.6466064453</ele>
        <time>2012-08-26T16:34:03Z</time>
      </trkpt>
      <trkpt lat="44.22673" lon="6.96446">
        <ele>1154.1865234375</ele>
        <time>2012-08-26T16:34:13Z</time>
      </trkpt>
      <trkpt lat="44.22672" lon="6.96446">
        <ele>1153.7642822266</ele>
        <time>2012-08-26T16:34:22Z</time>
      </trkpt>
      <trkpt lat="44.22672" lon="6.96445">
        <ele>1153.4038085938</ele>
        <time>2012-08-26T16:34:30Z</time>
      </trkpt>
      <trkpt lat="44.22672" lon="6.96445">
        <ele>1153.2698974609</ele>
        <time>2012-08-26T16:34:44Z</time>
      </trkpt>
      <trkpt lat="44.22672" lon="6.96445">
        <ele>1153.2218017578</ele>
        <time>2012-08-26T16:34:48Z</time>
      </trkpt>
      <trkpt lat="44.2267" lon="6.96443">
        <ele>1152.4167480469</ele>
        <time>2012-08-26T16:34:52Z</time>
      </trkpt>
      <trkpt lat="44.22655" lon="6.96435">
        <ele>1144.5013427734</ele>
        <time>2012-08-26T16:34:58Z</time>
      </trkpt>
      <trkpt lat="44.22653" lon="6.96435">
        <ele>1144.0083007812</ele>
        <time>2012-08-26T16:35:01Z</time>
      </trkpt>
      <trkpt lat="44.2265" lon="6.96435">
        <ele>1142.8809814453</ele>
        <time>2012-08-26T16:35:10Z</time>
      </trkpt>
      <trkpt lat="44.22646" lon="6.96436">
        <ele>1142.4017333984</ele>
        <time>2012-08-26T16:35:15Z</time>
      </trkpt>
      <trkpt lat="44.22635" lon="6.96444">
        <ele>1142.9486083984</ele>
        <time>2012-08-26T16:35:20Z</time>
      </trkpt>
      <trkpt lat="44.22625" lon="6.96447">
        <ele>1139.5639648438</ele>
        <time>2012-08-26T16:35:24Z</time>
      </trkpt>
      <trkpt lat="44.22607" lon="6.9645">
        <ele>1132.7308349609</ele>
        <time>2012-08-26T16:35:31Z</time>
      </trkpt>
      <trkpt lat="44.22606" lon="6.9645">
        <ele>1132.279296875</ele>
        <time>2012-08-26T16:35:32Z</time>
      </trkpt>
      <trkpt lat="44.22604" lon="6.96449">
        <ele>1131.4445800781</ele>
        <time>2012-08-26T16:35:38Z</time>
      </trkpt>
      <trkpt lat="44.22606" lon="6.96449">
        <ele>1131.8035888672</ele>
        <time>2012-08-26T16:35:42Z</time>
      </trkpt>
      <trkpt lat="44.22606" lon="6.96448">
        <ele>1131.6584472656</ele>
        <time>2012-08-26T16:35:46Z</time>
      </trkpt>
      <trkpt lat="44.22607" lon="6.96447">
        <ele>1131.3992919922</ele>
        <time>2012-08-26T16:35:51Z</time>
      </trkpt>
      <trkpt lat="44.22607" lon="6.96446">
        <ele>1131.029296875</ele>
        <time>2012-08-26T16:35:57Z</time>
      </trkpt>
      <trkpt lat="44.22606" lon="6.96446">
        <ele>1130.3115234375</ele>
        <time>2012-08-26T16:36:10Z</time>
      </trkpt>
      <trkpt lat="44.22606" lon="6.96445">
        <ele>1130.0952148438</ele>
        <time>2012-08-26T16:36:19Z</time>
      </trkpt>
      <trkpt lat="44.22605" lon="6.96445">
        <ele>1129.5764160156</ele>
        <time>2012-08-26T16:36:32Z</time>
      </trkpt>
      <trkpt lat="44.22604" lon="6.96444">
        <ele>1129.1882324219</ele>
        <time>2012-08-26T16:36:40Z</time>
      </trkpt>
      <trkpt lat="44.22604" lon="6.96444">
        <ele>1129.1882324219</ele>
        <time>2012-08-26T16:36:42Z</time>
      </trkpt>
      <trkpt lat="44.22604" lon="6.96445">
        <ele>1129.1226806641</ele>
        <time>2012-08-26T16:36:43Z</time>
      </trkpt>
      <trkpt lat="44.22602" lon="6.96445">
        <ele>1128.8388671875</ele>
        <time>2012-08-26T16:36:50Z</time>
      </trkpt>
      <trkpt lat="44.22596" lon="6.96447">
        <ele>1127.4166259766</ele>
        <time>2012-08-26T16:36:54Z</time>
      </trkpt>
      <trkpt lat="44.22594" lon="6.96447">
        <ele>1126.2985839844</ele>
        <time>2012-08-26T16:36:56Z</time>
      </trkpt>
      <trkpt lat="44.22596" lon="6.9644">
        <ele>1123.9761962891</ele>
        <time>2012-08-26T16:37:02Z</time>
      </trkpt>
      <trkpt lat="44.22594" lon="6.96437">
        <ele>1122.0054931641</ele>
        <time>2012-08-26T16:37:05Z</time>
      </trkpt>
      <trkpt lat="44.22601" lon="6.96434">
        <ele>1123.2827148438</ele>
        <time>2012-08-26T16:37:08Z</time>
      </trkpt>
      <trkpt lat="44.22613" lon="6.96426">
        <ele>1125.0782470703</ele>
        <time>2012-08-26T16:37:14Z</time>
      </trkpt>
      <trkpt lat="44.22617" lon="6.96417">
        <ele>1122.3358154297</ele>
        <time>2012-08-26T16:37:19Z</time>
      </trkpt>
      <trkpt lat="44.2262" lon="6.96407">
        <ele>1118.7667236328</ele>
        <time>2012-08-26T16:37:22Z</time>
      </trkpt>
      <trkpt lat="44.22631" lon="6.96383">
        <ele>1110.5601806641</ele>
        <time>2012-08-26T16:37:29Z</time>
      </trkpt>
      <trkpt lat="44.22643" lon="6.96369">
        <ele>1105.0296630859</ele>
        <time>2012-08-26T16:37:34Z</time>
      </trkpt>
      <trkpt lat="44.22655" lon="6.96365">
        <ele>1103.8857421875</ele>
        <time>2012-08-26T16:37:38Z</time>
      </trkpt>
      <trkpt lat="44.22657" lon="6.96366">
        <ele>1104.6694335938</ele>
        <time>2012-08-26T16:37:39Z</time>
      </trkpt>
      <trkpt lat="44.22671" lon="6.96357">
        <ele>1102.8079833984</ele>
        <time>2012-08-26T16:37:44Z</time>
      </trkpt>
      <trkpt lat="44.22686" lon="6.9634">
        <ele>1102.9367675781</ele>
        <time>2012-08-26T16:37:50Z</time>
      </trkpt>
      <trkpt lat="44.22689" lon="6.96329">
        <ele>1100.3353271484</ele>
        <time>2012-08-26T16:37:53Z</time>
      </trkpt>
      <trkpt lat="44.22683" lon="6.96311">
        <ele>1092.6629638672</ele>
        <time>2012-08-26T16:37:58Z</time>
      </trkpt>
      <trkpt lat="44.22682" lon="6.96299">
        <ele>1088.7186279297</ele>
        <time>2012-08-26T16:38:02Z</time>
      </trkpt>
      <trkpt lat="44.22685" lon="6.9629">
        <ele>1087.1350097656</ele>
        <time>2012-08-26T16:38:08Z</time>
      </trkpt>
      <trkpt lat="44.2268" lon="6.96286">
        <ele>1084.7479248047</ele>
        <time>2012-08-26T16:38:13Z</time>
      </trkpt>
      <trkpt lat="44.22675" lon="6.96281">
        <ele>1081.8387451172</ele>
        <time>2012-08-26T16:38:17Z</time>
      </trkpt>
      <trkpt lat="44.22672" lon="6.96276">
        <ele>1080.220703125</ele>
        <time>2012-08-26T16:38:19Z</time>
      </trkpt>
      <trkpt lat="44.22671" lon="6.96273">
        <ele>1079.4967041016</ele>
        <time>2012-08-26T16:38:21Z</time>
      </trkpt>
      <trkpt lat="44.22667" lon="6.96267">
        <ele>1077.9279785156</ele>
        <time>2012-08-26T16:38:25Z</time>
      </trkpt>
      <trkpt lat="44.22665" lon="6.96266">
        <ele>1077.3739013672</ele>
        <time>2012-08-26T16:38:29Z</time>
      </trkpt>
      <trkpt lat="44.22653" lon="6.9627">
        <ele>1075.5446777344</ele>
        <time>2012-08-26T16:38:34Z</time>
      </trkpt>
      <trkpt lat="44.22646" lon="6.96278">
        <ele>1075.2896728516</ele>
        <time>2012-08-26T16:38:38Z</time>
      </trkpt>
      <trkpt lat="44.22647" lon="6.96292">
        <ele>1077.5727539062</ele>
        <time>2012-08-26T16:38:43Z</time>
      </trkpt>
      <trkpt lat="44.22643" lon="6.96302">
        <ele>1077.8061523438</ele>
        <time>2012-08-26T16:38:46Z</time>
      </trkpt>
      <trkpt lat="44.22632" lon="6.96299">
        <ele>1075.7496337891</ele>
        <time>2012-08-26T16:38:49Z</time>
      </trkpt>
      <trkpt lat="44.2263" lon="6.96296">
        <ele>1075.0540771484</ele>
        <time>2012-08-26T16:38:50Z</time>
      </trkpt>
      <trkpt lat="44.22619" lon="6.96276">
        <ele>1070.6931152344</ele>
        <time>2012-08-26T16:38:54Z</time>
      </trkpt>
      <trkpt lat="44.22593" lon="6.96257">
        <ele>1062.7320556641</ele>
        <time>2012-08-26T16:38:59Z</time>
      </trkpt>
      <trkpt lat="44.22563" lon="6.96237">
        <ele>1060</ele>
        <time>2012-08-26T16:39:03Z</time>
      </trkpt>
      <trkpt lat="44.22543" lon="6.96214">
        <ele>1060</ele>
        <time>2012-08-26T16:39:08Z</time>
      </trkpt>
      <trkpt lat="44.22533" lon="6.96205">
        <ele>1060</ele>
        <time>2012-08-26T16:39:11Z</time>
      </trkpt>
      <trkpt lat="44.22523" lon="6.962">
        <ele>1060</ele>
        <time>2012-08-26T16:39:15Z</time>
      </trkpt>
      <trkpt lat="44.22518" lon="6.96192">
        <ele>1060</ele>
        <time>2012-08-26T16:39:19Z</time>
      </trkpt>
      <trkpt lat="44.22512" lon="6.96192">
        <ele>1060</ele>
        <time>2012-08-26T16:39:25Z</time>
      </trkpt>
      <trkpt lat="44.22505" lon="6.96217">
        <ele>1060</ele>
        <time>2012-08-26T16:39:32Z</time>
      </trkpt>
      <trkpt lat="44.22499" lon="6.96247">
        <ele>1060</ele>
        <time>2012-08-26T16:39:38Z</time>
      </trkpt>
      <trkpt lat="44.22485" lon="6.9629">
        <ele>1060</ele>
        <time>2012-08-26T16:39:46Z</time>
      </trkpt>
      <trkpt lat="44.22466" lon="6.9632">
        <ele>1060</ele>
        <time>2012-08-26T16:39:53Z</time>
      </trkpt>
      <trkpt lat="44.22432" lon="6.96346">
        <ele>1060</ele>
        <time>2012-08-26T16:40:02Z</time>
      </trkpt>
      <trkpt lat="44.22388" lon="6.96375">
        <ele>1060</ele>
        <time>2012-08-26T16:40:13Z</time>
      </trkpt>
      <trkpt lat="44.22361" lon="6.96394">
        <ele>1060</ele>
        <time>2012-08-26T16:40:20Z</time>
      </trkpt>
      <trkpt lat="44.22334" lon="6.96413">
        <ele>1060</ele>
        <time>2012-08-26T16:40:27Z</time>
      </trkpt>
      <trkpt lat="44.22297" lon="6.96442">
        <ele>1060</ele>
        <time>2012-08-26T16:40:36Z</time>
      </trkpt>
      <trkpt lat="44.22262" lon="6.96469">
        <ele>1060</ele>
        <time>2012-08-26T16:40:44Z</time>
      </trkpt>
      <trkpt lat="44.22214" lon="6.96505">
        <ele>1060</ele>
        <time>2012-08-26T16:40:55Z</time>
      </trkpt>
      <trkpt lat="44.22163" lon="6.96542">
        <ele>1060</ele>
        <time>2012-08-26T16:41:07Z</time>
      </trkpt>
      <trkpt lat="44.2213" lon="6.96567">
        <ele>1060</ele>
        <time>2012-08-26T16:41:15Z</time>
      </trkpt>
      <trkpt lat="44.22097" lon="6.96592">
        <ele>1060</ele>
        <time>2012-08-26T16:41:23Z</time>
      </trkpt>
      <trkpt lat="44.22055" lon="6.96624">
        <ele>1060</ele>
        <time>2012-08-26T16:41:33Z</time>
      </trkpt>
      <trkpt lat="44.22019" lon="6.96652">
        <ele>1060</ele>
        <time>2012-08-26T16:41:41Z</time>
      </trkpt>
      <trkpt lat="44.21995" lon="6.96682">
        <ele>1060</ele>
        <time>2012-08-26T16:41:47Z</time>
      </trkpt>
      <trkpt lat="44.21966" lon="6.96724">
        <ele>1060</ele>
        <time>2012-08-26T16:41:54Z</time>
      </trkpt>
      <trkpt lat="44.21926" lon="6.96775">
        <ele>1060</ele>
        <time>2012-08-26T16:42:02Z</time>
      </trkpt>
      <trkpt lat="44.21885" lon="6.96807">
        <ele>1060</ele>
        <time>2012-08-26T16:42:09Z</time>
      </trkpt>
      <trkpt lat="44.21858" lon="6.96836">
        <ele>1060</ele>
        <time>2012-08-26T16:42:14Z</time>
      </trkpt>
      <trkpt lat="44.21815" lon="6.96881">
        <ele>1060</ele>
        <time>2012-08-26T16:42:22Z</time>
      </trkpt>
      <trkpt lat="44.21759" lon="6.9694">
        <ele>1050.458984375</ele>
        <time>2012-08-26T16:42:32Z</time>
      </trkpt>
      <trkpt lat="44.2172" lon="6.96992">
        <ele>1040</ele>
        <time>2012-08-26T16:42:40Z</time>
      </trkpt>
      <trkpt lat="44.21679" lon="6.97043">
        <ele>1040</ele>
        <time>2012-08-26T16:42:48Z</time>
      </trkpt>
      <trkpt lat="44.21631" lon="6.97084">
        <ele>1040</ele>
        <time>2012-08-26T16:42:56Z</time>
      </trkpt>
      <trkpt lat="44.2159" lon="6.97101">
        <ele>1040</ele>
        <time>2012-08-26T16:43:02Z</time>
      </trkpt>
      <trkpt lat="44.21535" lon="6.97119">
        <ele>1040</ele>
        <time>2012-08-26T16:43:10Z</time>
      </trkpt>
      <trkpt lat="44.215" lon="6.97143">
        <ele>1040</ele>
        <time>2012-08-26T16:43:15Z</time>
      </trkpt>
      <trkpt lat="44.21459" lon="6.97188">
        <ele>1037.2531738281</ele>
        <time>2012-08-26T16:43:22Z</time>
      </trkpt>
      <trkpt lat="44.21421" lon="6.97238">
        <ele>1032.7076416016</ele>
        <time>2012-08-26T16:43:29Z</time>
      </trkpt>
      <trkpt lat="44.21363" lon="6.97314">
        <ele>1025.466796875</ele>
        <time>2012-08-26T16:43:40Z</time>
      </trkpt>
      <trkpt lat="44.21303" lon="6.97385">
        <ele>1020</ele>
        <time>2012-08-26T16:43:51Z</time>
      </trkpt>
      <trkpt lat="44.21267" lon="6.97411">
        <ele>1020</ele>
        <time>2012-08-26T16:43:57Z</time>
      </trkpt>
      <trkpt lat="44.21204" lon="6.97445">
        <ele>1020</ele>
        <time>2012-08-26T16:44:07Z</time>
      </trkpt>
      <trkpt lat="44.21136" lon="6.97485">
        <ele>1020</ele>
        <time>2012-08-26T16:44:17Z</time>
      </trkpt>
      <trkpt lat="44.21093" lon="6.97515">
        <ele>1020</ele>
        <time>2012-08-26T16:44:24Z</time>
      </trkpt>
      <trkpt lat="44.21037" lon="6.97568">
        <ele>1020</ele>
        <time>2012-08-26T16:44:34Z</time>
      </trkpt>
      <trkpt lat="44.21011" lon="6.97612">
        <ele>1020</ele>
        <time>2012-08-26T16:44:40Z</time>
      </trkpt>
      <trkpt lat="44.20981" lon="6.97674">
        <ele>1020</ele>
        <time>2012-08-26T16:44:48Z</time>
      </trkpt>
      <trkpt lat="44.20947" lon="6.97744">
        <ele>1020</ele>
        <time>2012-08-26T16:44:57Z</time>
      </trkpt>
      <trkpt lat="44.20919" lon="6.97788">
        <ele>1020</ele>
        <time>2012-08-26T16:45:03Z</time>
      </trkpt>
      <trkpt lat="44.20882" lon="6.97842">
        <ele>1020</ele>
        <time>2012-08-26T16:45:11Z</time>
      </trkpt>
      <trkpt lat="44.2086" lon="6.97872">
        <ele>1020</ele>
        <time>2012-08-26T16:45:16Z</time>
      </trkpt>
      <trkpt lat="44.20829" lon="6.97893">
        <ele>1020</ele>
        <time>2012-08-26T16:45:22Z</time>
      </trkpt>
      <trkpt lat="44.20794" lon="6.97912">
        <ele>1020</ele>
        <time>2012-08-26T16:45:29Z</time>
      </trkpt>
      <trkpt lat="44.20757" lon="6.97933">
        <ele>1020</ele>
        <time>2012-08-26T16:45:37Z</time>
      </trkpt>
      <trkpt lat="44.20728" lon="6.97961">
        <ele>1020</ele>
        <time>2012-08-26T16:45:44Z</time>
      </trkpt>
      <trkpt lat="44.20704" lon="6.98004">
        <ele>1020</ele>
        <time>2012-08-26T16:45:51Z</time>
      </trkpt>
      <trkpt lat="44.20688" lon="6.98055">
        <ele>1020</ele>
        <time>2012-08-26T16:45:58Z</time>
      </trkpt>
      <trkpt lat="44.20683" lon="6.98105">
        <ele>1020</ele>
        <time>2012-08-26T16:46:04Z</time>
      </trkpt>
      <trkpt lat="44.2068" lon="6.9817">
        <ele>1020</ele>
        <time>2012-08-26T16:46:11Z</time>
      </trkpt>
      <trkpt lat="44.20678" lon="6.98238">
        <ele>1020</ele>
        <time>2012-08-26T16:46:18Z</time>
      </trkpt>
      <trkpt lat="44.20674" lon="6.98287">
        <ele>1020</ele>
        <time>2012-08-26T16:46:23Z</time>
      </trkpt>
      <trkpt lat="44.20661" lon="6.98335">
        <ele>1020</ele>
        <time>2012-08-26T16:46:28Z</time>
      </trkpt>
      <trkpt lat="44.20642" lon="6.98366">
        <ele>1020</ele>
        <time>2012-08-26T16:46:32Z</time>
      </trkpt>
      <trkpt lat="44.20637" lon="6.98373">
        <ele>1020</ele>
        <time>2012-08-26T16:46:33Z</time>
      </trkpt>
      <trkpt lat="44.20632" lon="6.9838">
        <ele>1020</ele>
        <time>2012-08-26T16:46:34Z</time>
      </trkpt>
      <trkpt lat="44.20589" lon="6.9843">
        <ele>1017.2989501953</ele>
        <time>2012-08-26T16:46:42Z</time>
      </trkpt>
      <trkpt lat="44.20554" lon="6.98477">
        <ele>1011.3416137695</ele>
        <time>2012-08-26T16:46:49Z</time>
      </trkpt>
      <trkpt lat="44.20521" lon="6.98509">
        <ele>1003.8095092773</ele>
        <time>2012-08-26T16:46:55Z</time>
      </trkpt>
      <trkpt lat="44.20479" lon="6.98552">
        <ele>1001.2349243164</ele>
        <time>2012-08-26T16:47:03Z</time>
      </trkpt>
      <trkpt lat="44.20457" lon="6.98587">
        <ele>1000.5099487305</ele>
        <time>2012-08-26T16:47:08Z</time>
      </trkpt>
      <trkpt lat="44.20454" lon="6.98595">
        <ele>1001.1541137695</ele>
        <time>2012-08-26T16:47:09Z</time>
      </trkpt>
      <trkpt lat="44.20435" lon="6.98644">
        <ele>1000.2446899414</ele>
        <time>2012-08-26T16:47:15Z</time>
      </trkpt>
      <trkpt lat="44.20407" lon="6.98706">
        <ele>1000</ele>
        <time>2012-08-26T16:47:23Z</time>
      </trkpt>
      <trkpt lat="44.20376" lon="6.98776">
        <ele>1000</ele>
        <time>2012-08-26T16:47:32Z</time>
      </trkpt>
      <trkpt lat="44.20339" lon="6.98841">
        <ele>1000</ele>
        <time>2012-08-26T16:47:41Z</time>
      </trkpt>
      <trkpt lat="44.20319" lon="6.98876">
        <ele>1000</ele>
        <time>2012-08-26T16:47:46Z</time>
      </trkpt>
      <trkpt lat="44.20283" lon="6.98929">
        <ele>1000.1687011719</ele>
        <time>2012-08-26T16:47:54Z</time>
      </trkpt>
      <trkpt lat="44.20247" lon="6.98963">
        <ele>1000</ele>
        <time>2012-08-26T16:48:01Z</time>
      </trkpt>
      <trkpt lat="44.20236" lon="6.98968">
        <ele>1000</ele>
        <time>2012-08-26T16:48:03Z</time>
      </trkpt>
      <trkpt lat="44.20206" lon="6.98992">
        <ele>1000</ele>
        <time>2012-08-26T16:48:10Z</time>
      </trkpt>
      <trkpt lat="44.20192" lon="6.99003">
        <ele>999.91546630859</ele>
        <time>2012-08-26T16:48:13Z</time>
      </trkpt>
      <trkpt lat="44.20171" lon="6.99037">
        <ele>997.98352050781</ele>
        <time>2012-08-26T16:48:19Z</time>
      </trkpt>
      <trkpt lat="44.20145" lon="6.991">
        <ele>995.61889648438</ele>
        <time>2012-08-26T16:48:28Z</time>
      </trkpt>
      <trkpt lat="44.20132" lon="6.99145">
        <ele>993.54351806641</ele>
        <time>2012-08-26T16:48:34Z</time>
      </trkpt>
      <trkpt lat="44.20123" lon="6.99182">
        <ele>992.09527587891</ele>
        <time>2012-08-26T16:48:39Z</time>
      </trkpt>
      <trkpt lat="44.20124" lon="6.99217">
        <ele>990.62982177734</ele>
        <time>2012-08-26T16:48:43Z</time>
      </trkpt>
      <trkpt lat="44.20119" lon="6.99267">
        <ele>988.29467773438</ele>
        <time>2012-08-26T16:48:49Z</time>
      </trkpt>
      <trkpt lat="44.20122" lon="6.99295">
        <ele>987.57537841797</ele>
        <time>2012-08-26T16:48:53Z</time>
      </trkpt>
      <trkpt lat="44.2012" lon="6.99328">
        <ele>986.18322753906</ele>
        <time>2012-08-26T16:48:59Z</time>
      </trkpt>
      <trkpt lat="44.2012" lon="6.99327">
        <ele>986.19866943359</ele>
        <time>2012-08-26T16:49:10Z</time>
      </trkpt>
      <trkpt lat="44.20121" lon="6.99331">
        <ele>986.20727539062</ele>
        <time>2012-08-26T16:49:18Z</time>
      </trkpt>
      <trkpt lat="44.20122" lon="6.9934">
        <ele>985.86065673828</ele>
        <time>2012-08-26T16:49:22Z</time>
      </trkpt>
      <trkpt lat="44.20119" lon="6.99367">
        <ele>983.99822998047</ele>
        <time>2012-08-26T16:49:27Z</time>
      </trkpt>
      <trkpt lat="44.20117" lon="6.99401">
        <ele>981.30718994141</ele>
        <time>2012-08-26T16:49:32Z</time>
      </trkpt>
      <trkpt lat="44.20113" lon="6.99427">
        <ele>980.12835693359</ele>
        <time>2012-08-26T16:49:36Z</time>
      </trkpt>
      <trkpt lat="44.201" lon="6.99475">
        <ele>980</ele>
        <time>2012-08-26T16:49:44Z</time>
      </trkpt>
      <trkpt lat="44.20079" lon="6.99515">
        <ele>980</ele>
        <time>2012-08-26T16:49:51Z</time>
      </trkpt>
      <trkpt lat="44.20044" lon="6.99571">
        <ele>980</ele>
        <time>2012-08-26T16:50:01Z</time>
      </trkpt>
      <trkpt lat="44.20025" lon="6.99613">
        <ele>980</ele>
        <time>2012-08-26T16:50:07Z</time>
      </trkpt>
      <trkpt lat="44.20008" lon="6.99669">
        <ele>980</ele>
        <time>2012-08-26T16:50:14Z</time>
      </trkpt>
      <trkpt lat="44.20001" lon="6.99721">
        <ele>980</ele>
        <time>2012-08-26T16:50:20Z</time>
      </trkpt>
      <trkpt lat="44.19993" lon="6.99788">
        <ele>980</ele>
        <time>2012-08-26T16:50:28Z</time>
      </trkpt>
      <trkpt lat="44.1998" lon="6.99855">
        <ele>980</ele>
        <time>2012-08-26T16:50:36Z</time>
      </trkpt>
      <trkpt lat="44.19962" lon="6.99913">
        <ele>980</ele>
        <time>2012-08-26T16:50:43Z</time>
      </trkpt>
      <trkpt lat="44.19939" lon="6.99956">
        <ele>980</ele>
        <time>2012-08-26T16:50:49Z</time>
      </trkpt>
      <trkpt lat="44.19905" lon="7.00005">
        <ele>980</ele>
        <time>2012-08-26T16:50:57Z</time>
      </trkpt>
      <trkpt lat="44.19867" lon="7.00058">
        <ele>980</ele>
        <time>2012-08-26T16:51:06Z</time>
      </trkpt>
      <trkpt lat="44.19841" lon="7.00108">
        <ele>980</ele>
        <time>2012-08-26T16:51:13Z</time>
      </trkpt>
      <trkpt lat="44.1982" lon="7.00164">
        <ele>980</ele>
        <time>2012-08-26T16:51:20Z</time>
      </trkpt>
      <trkpt lat="44.19807" lon="7.00219">
        <ele>979.04016113281</ele>
        <time>2012-08-26T16:51:26Z</time>
      </trkpt>
      <trkpt lat="44.19798" lon="7.00274">
        <ele>977.98968505859</ele>
        <time>2012-08-26T16:51:32Z</time>
      </trkpt>
      <trkpt lat="44.19792" lon="7.00326">
        <ele>976.64581298828</ele>
        <time>2012-08-26T16:51:38Z</time>
      </trkpt>
      <trkpt lat="44.19778" lon="7.00399">
        <ele>972.78753662109</ele>
        <time>2012-08-26T16:51:46Z</time>
      </trkpt>
      <trkpt lat="44.19754" lon="7.00464">
        <ele>963.59051513672</ele>
        <time>2012-08-26T16:51:54Z</time>
      </trkpt>
      <trkpt lat="44.19721" lon="7.00519">
        <ele>960</ele>
        <time>2012-08-26T16:52:02Z</time>
      </trkpt>
      <trkpt lat="44.1967" lon="7.00583">
        <ele>960</ele>
        <time>2012-08-26T16:52:13Z</time>
      </trkpt>
      <trkpt lat="44.19633" lon="7.00627">
        <ele>960</ele>
        <time>2012-08-26T16:52:21Z</time>
      </trkpt>
      <trkpt lat="44.19604" lon="7.00666">
        <ele>960</ele>
        <time>2012-08-26T16:52:27Z</time>
      </trkpt>
      <trkpt lat="44.19572" lon="7.007">
        <ele>960</ele>
        <time>2012-08-26T16:52:33Z</time>
      </trkpt>
      <trkpt lat="44.19556" lon="7.00722">
        <ele>960</ele>
        <time>2012-08-26T16:52:37Z</time>
      </trkpt>
      <trkpt lat="44.1951" lon="7.00758">
        <ele>960</ele>
        <time>2012-08-26T16:52:46Z</time>
      </trkpt>
      <trkpt lat="44.19477" lon="7.00792">
        <ele>960</ele>
        <time>2012-08-26T16:52:53Z</time>
      </trkpt>
      <trkpt lat="44.19456" lon="7.00829">
        <ele>960</ele>
        <time>2012-08-26T16:52:59Z</time>
      </trkpt>
      <trkpt lat="44.19453" lon="7.00836">
        <ele>960</ele>
        <time>2012-08-26T16:53:00Z</time>
      </trkpt>
      <trkpt lat="44.19438" lon="7.00905">
        <ele>960</ele>
        <time>2012-08-26T16:53:08Z</time>
      </trkpt>
      <trkpt lat="44.19417" lon="7.01003">
        <ele>960</ele>
        <time>2012-08-26T16:53:19Z</time>
      </trkpt>
      <trkpt lat="44.194" lon="7.01045">
        <ele>960</ele>
        <time>2012-08-26T16:53:24Z</time>
      </trkpt>
      <trkpt lat="44.19353" lon="7.01116">
        <ele>960</ele>
        <time>2012-08-26T16:53:34Z</time>
      </trkpt>
      <trkpt lat="44.19343" lon="7.0113">
        <ele>960</ele>
        <time>2012-08-26T16:53:36Z</time>
      </trkpt>
      <trkpt lat="44.19323" lon="7.01156">
        <ele>960</ele>
        <time>2012-08-26T16:53:40Z</time>
      </trkpt>
      <trkpt lat="44.19287" lon="7.01211">
        <ele>960</ele>
        <time>2012-08-26T16:53:47Z</time>
      </trkpt>
      <trkpt lat="44.1926" lon="7.01257">
        <ele>959.83831787109</ele>
        <time>2012-08-26T16:53:52Z</time>
      </trkpt>
      <trkpt lat="44.19243" lon="7.01285">
        <ele>958.39208984375</ele>
        <time>2012-08-26T16:53:55Z</time>
      </trkpt>
      <trkpt lat="44.19238" lon="7.01294">
        <ele>957.56591796875</ele>
        <time>2012-08-26T16:53:56Z</time>
      </trkpt>
      <trkpt lat="44.19203" lon="7.01366">
        <ele>945.16162109375</ele>
        <time>2012-08-26T16:54:03Z</time>
      </trkpt>
      <trkpt lat="44.19178" lon="7.01421">
        <ele>940</ele>
        <time>2012-08-26T16:54:08Z</time>
      </trkpt>
      <trkpt lat="44.19149" lon="7.01485">
        <ele>940</ele>
        <time>2012-08-26T16:54:14Z</time>
      </trkpt>
      <trkpt lat="44.19113" lon="7.01551">
        <ele>940</ele>
        <time>2012-08-26T16:54:21Z</time>
      </trkpt>
      <trkpt lat="44.19105" lon="7.0157">
        <ele>940</ele>
        <time>2012-08-26T16:54:23Z</time>
      </trkpt>
      <trkpt lat="44.19081" lon="7.01613">
        <ele>940</ele>
        <time>2012-08-26T16:54:28Z</time>
      </trkpt>
      <trkpt lat="44.19068" lon="7.01639">
        <ele>940</ele>
        <time>2012-08-26T16:54:31Z</time>
      </trkpt>
      <trkpt lat="44.1905" lon="7.01685">
        <ele>940</ele>
        <time>2012-08-26T16:54:36Z</time>
      </trkpt>
      <trkpt lat="44.1904" lon="7.017">
        <ele>940</ele>
        <time>2012-08-26T16:54:38Z</time>
      </trkpt>
      <trkpt lat="44.19019" lon="7.01727">
        <ele>939.36340332031</ele>
        <time>2012-08-26T16:54:42Z</time>
      </trkpt>
      <trkpt lat="44.18995" lon="7.01785">
        <ele>936.58447265625</ele>
        <time>2012-08-26T16:54:49Z</time>
      </trkpt>
      <trkpt lat="44.18962" lon="7.01835">
        <ele>932.94128417969</ele>
        <time>2012-08-26T16:54:56Z</time>
      </trkpt>
      <trkpt lat="44.18948" lon="7.01855">
        <ele>932.20654296875</ele>
        <time>2012-08-26T16:54:59Z</time>
      </trkpt>
      <trkpt lat="44.18938" lon="7.01886">
        <ele>931.10620117188</ele>
        <time>2012-08-26T16:55:03Z</time>
      </trkpt>
      <trkpt lat="44.18932" lon="7.01935">
        <ele>929.07434082031</ele>
        <time>2012-08-26T16:55:09Z</time>
      </trkpt>
      <trkpt lat="44.18937" lon="7.01979">
        <ele>927.50512695312</ele>
        <time>2012-08-26T16:55:14Z</time>
      </trkpt>
      <trkpt lat="44.18941" lon="7.01997">
        <ele>927.01245117188</ele>
        <time>2012-08-26T16:55:16Z</time>
      </trkpt>
      <trkpt lat="44.18943" lon="7.02043">
        <ele>925.4228515625</ele>
        <time>2012-08-26T16:55:21Z</time>
      </trkpt>
      <trkpt lat="44.18943" lon="7.0206">
        <ele>924.77227783203</ele>
        <time>2012-08-26T16:55:23Z</time>
      </trkpt>
      <trkpt lat="44.18954" lon="7.02115">
        <ele>924.52807617188</ele>
        <time>2012-08-26T16:55:29Z</time>
      </trkpt>
      <trkpt lat="44.18958" lon="7.02154">
        <ele>923.46032714844</ele>
        <time>2012-08-26T16:55:33Z</time>
      </trkpt>
      <trkpt lat="44.18954" lon="7.02231">
        <ele>920.90020751953</ele>
        <time>2012-08-26T16:55:40Z</time>
      </trkpt>
      <trkpt lat="44.18948" lon="7.02285">
        <ele>919.87066650391</ele>
        <time>2012-08-26T16:55:45Z</time>
      </trkpt>
      <trkpt lat="44.1894" lon="7.02334">
        <ele>918.47576904297</ele>
        <time>2012-08-26T16:55:50Z</time>
      </trkpt>
      <trkpt lat="44.18924" lon="7.02409">
        <ele>915.99389648438</ele>
        <time>2012-08-26T16:55:58Z</time>
      </trkpt>
      <trkpt lat="44.18914" lon="7.02455">
        <ele>913.71630859375</ele>
        <time>2012-08-26T16:56:04Z</time>
      </trkpt>
      <trkpt lat="44.1891" lon="7.02515">
        <ele>912.70654296875</ele>
        <time>2012-08-26T16:56:12Z</time>
      </trkpt>
      <trkpt lat="44.18915" lon="7.02562">
        <ele>911.11822509766</ele>
        <time>2012-08-26T16:56:17Z</time>
      </trkpt>
      <trkpt lat="44.18935" lon="7.02621">
        <ele>917.47235107422</ele>
        <time>2012-08-26T16:56:24Z</time>
      </trkpt>
      <trkpt lat="44.18956" lon="7.02675">
        <ele>923.5927734375</ele>
        <time>2012-08-26T16:56:31Z</time>
      </trkpt>
      <trkpt lat="44.1899" lon="7.02769">
        <ele>926.01129150391</ele>
        <time>2012-08-26T16:56:43Z</time>
      </trkpt>
      <trkpt lat="44.19011" lon="7.02836">
        <ele>928.07409667969</ele>
        <time>2012-08-26T16:56:51Z</time>
      </trkpt>
      <trkpt lat="44.19029" lon="7.02911">
        <ele>922.56604003906</ele>
        <time>2012-08-26T16:57:00Z</time>
      </trkpt>
      <trkpt lat="44.19044" lon="7.02989">
        <ele>917.76818847656</ele>
        <time>2012-08-26T16:57:09Z</time>
      </trkpt>
      <trkpt lat="44.19048" lon="7.03044">
        <ele>909.43878173828</ele>
        <time>2012-08-26T16:57:15Z</time>
      </trkpt>
      <trkpt lat="44.19048" lon="7.03116">
        <ele>900</ele>
        <time>2012-08-26T16:57:23Z</time>
      </trkpt>
      <trkpt lat="44.19044" lon="7.03177">
        <ele>900</ele>
        <time>2012-08-26T16:57:30Z</time>
      </trkpt>
      <trkpt lat="44.19036" lon="7.03232">
        <ele>900.50439453125</ele>
        <time>2012-08-26T16:57:37Z</time>
      </trkpt>
      <trkpt lat="44.19033" lon="7.03255">
        <ele>901.09838867188</ele>
        <time>2012-08-26T16:57:40Z</time>
      </trkpt>
      <trkpt lat="44.19024" lon="7.03316">
        <ele>900</ele>
        <time>2012-08-26T16:57:47Z</time>
      </trkpt>
      <trkpt lat="44.19007" lon="7.03393">
        <ele>900.41577148438</ele>
        <time>2012-08-26T16:57:56Z</time>
      </trkpt>
      <trkpt lat="44.18991" lon="7.03455">
        <ele>900</ele>
        <time>2012-08-26T16:58:04Z</time>
      </trkpt>
      <trkpt lat="44.18982" lon="7.03488">
        <ele>900</ele>
        <time>2012-08-26T16:58:08Z</time>
      </trkpt>
      <trkpt lat="44.1896" lon="7.03526">
        <ele>900</ele>
        <time>2012-08-26T16:58:13Z</time>
      </trkpt>
      <trkpt lat="44.18927" lon="7.03576">
        <ele>898.27459716797</ele>
        <time>2012-08-26T16:58:20Z</time>
      </trkpt>
      <trkpt lat="44.18902" lon="7.03617">
        <ele>895.84851074219</ele>
        <time>2012-08-26T16:58:26Z</time>
      </trkpt>
      <trkpt lat="44.18898" lon="7.03625">
        <ele>895.32989501953</ele>
        <time>2012-08-26T16:58:27Z</time>
      </trkpt>
      <trkpt lat="44.18886" lon="7.0367">
        <ele>894.00561523438</ele>
        <time>2012-08-26T16:58:32Z</time>
      </trkpt>
      <trkpt lat="44.18872" lon="7.03726">
        <ele>892.26007080078</ele>
        <time>2012-08-26T16:58:38Z</time>
      </trkpt>
      <trkpt lat="44.18848" lon="7.03818">
        <ele>888.31781005859</ele>
        <time>2012-08-26T16:58:48Z</time>
      </trkpt>
      <trkpt lat="44.18835" lon="7.03891">
        <ele>882.87768554688</ele>
        <time>2012-08-26T16:58:56Z</time>
      </trkpt>
      <trkpt lat="44.18831" lon="7.03919">
        <ele>880.28393554688</ele>
        <time>2012-08-26T16:58:59Z</time>
      </trkpt>
      <trkpt lat="44.18827" lon="7.03981">
        <ele>880</ele>
        <time>2012-08-26T16:59:06Z</time>
      </trkpt>
      <trkpt lat="44.18823" lon="7.04053">
        <ele>880</ele>
        <time>2012-08-26T16:59:14Z</time>
      </trkpt>
      <trkpt lat="44.1882" lon="7.04089">
        <ele>880</ele>
        <time>2012-08-26T16:59:18Z</time>
      </trkpt>
      <trkpt lat="44.18811" lon="7.04129">
        <ele>880</ele>
        <time>2012-08-26T16:59:23Z</time>
      </trkpt>
      <trkpt lat="44.18803" lon="7.04153">
        <ele>880</ele>
        <time>2012-08-26T16:59:26Z</time>
      </trkpt>
      <trkpt lat="44.18779" lon="7.04201">
        <ele>880</ele>
        <time>2012-08-26T16:59:33Z</time>
      </trkpt>
      <trkpt lat="44.18753" lon="7.04248">
        <ele>880</ele>
        <time>2012-08-26T16:59:40Z</time>
      </trkpt>
      <trkpt lat="44.18732" lon="7.04305">
        <ele>880</ele>
        <time>2012-08-26T16:59:47Z</time>
      </trkpt>
      <trkpt lat="44.18711" lon="7.04351">
        <ele>880</ele>
        <time>2012-08-26T16:59:53Z</time>
      </trkpt>
      <trkpt lat="44.18697" lon="7.0438">
        <ele>880</ele>
        <time>2012-08-26T16:59:57Z</time>
      </trkpt>
      <trkpt lat="44.18671" lon="7.04432">
        <ele>880</ele>
        <time>2012-08-26T17:00:04Z</time>
      </trkpt>
      <trkpt lat="44.1866" lon="7.04455">
        <ele>880</ele>
        <time>2012-08-26T17:00:07Z</time>
      </trkpt>
      <trkpt lat="44.18642" lon="7.04516">
        <ele>880</ele>
        <time>2012-08-26T17:00:14Z</time>
      </trkpt>
      <trkpt lat="44.18629" lon="7.04578">
        <ele>880</ele>
        <time>2012-08-26T17:00:21Z</time>
      </trkpt>
      <trkpt lat="44.18627" lon="7.04587">
        <ele>880</ele>
        <time>2012-08-26T17:00:22Z</time>
      </trkpt>
      <trkpt lat="44.1862" lon="7.0467">
        <ele>880</ele>
        <time>2012-08-26T17:00:31Z</time>
      </trkpt>
      <trkpt lat="44.18615" lon="7.04721">
        <ele>880</ele>
        <time>2012-08-26T17:00:37Z</time>
      </trkpt>
      <trkpt lat="44.18616" lon="7.04747">
        <ele>880</ele>
        <time>2012-08-26T17:00:41Z</time>
      </trkpt>
      <trkpt lat="44.18619" lon="7.04775">
        <ele>880</ele>
        <time>2012-08-26T17:00:46Z</time>
      </trkpt>
      <trkpt lat="44.18613" lon="7.04785">
        <ele>880</ele>
        <time>2012-08-26T17:00:48Z</time>
      </trkpt>
      <trkpt lat="44.18604" lon="7.048">
        <ele>879.50421142578</ele>
        <time>2012-08-26T17:00:51Z</time>
      </trkpt>
      <trkpt lat="44.18585" lon="7.04852">
        <ele>878.134765625</ele>
        <time>2012-08-26T17:00:58Z</time>
      </trkpt>
      <trkpt lat="44.18564" lon="7.04905">
        <ele>875.92291259766</ele>
        <time>2012-08-26T17:01:05Z</time>
      </trkpt>
      <trkpt lat="44.18542" lon="7.04968">
        <ele>873.16339111328</ele>
        <time>2012-08-26T17:01:13Z</time>
      </trkpt>
      <trkpt lat="44.18531" lon="7.05038">
        <ele>869.87652587891</ele>
        <time>2012-08-26T17:01:21Z</time>
      </trkpt>
      <trkpt lat="44.18526" lon="7.05112">
        <ele>866.70971679688</ele>
        <time>2012-08-26T17:01:29Z</time>
      </trkpt>
      <trkpt lat="44.18522" lon="7.05172">
        <ele>862.52154541016</ele>
        <time>2012-08-26T17:01:36Z</time>
      </trkpt>
      <trkpt lat="44.1852" lon="7.05204">
        <ele>863.15533447266</ele>
        <time>2012-08-26T17:01:40Z</time>
      </trkpt>
      <trkpt lat="44.18516" lon="7.05259">
        <ele>864.74517822266</ele>
        <time>2012-08-26T17:01:48Z</time>
      </trkpt>
      <trkpt lat="44.18515" lon="7.05287">
        <ele>864.25939941406</ele>
        <time>2012-08-26T17:01:53Z</time>
      </trkpt>
      <trkpt lat="44.18513" lon="7.0532">
        <ele>862.88098144531</ele>
        <time>2012-08-26T17:02:00Z</time>
      </trkpt>
      <trkpt lat="44.1851" lon="7.0535">
        <ele>861.89636230469</ele>
        <time>2012-08-26T17:02:06Z</time>
      </trkpt>
      <trkpt lat="44.18505" lon="7.05385">
        <ele>860.71588134766</ele>
        <time>2012-08-26T17:02:13Z</time>
      </trkpt>
      <trkpt lat="44.18494" lon="7.05427">
        <ele>860</ele>
        <time>2012-08-26T17:02:21Z</time>
      </trkpt>
      <trkpt lat="44.18492" lon="7.05432">
        <ele>860</ele>
        <time>2012-08-26T17:02:22Z</time>
      </trkpt>
      <trkpt lat="44.18478" lon="7.0545">
        <ele>860</ele>
        <time>2012-08-26T17:02:26Z</time>
      </trkpt>
      <trkpt lat="44.18465" lon="7.05473">
        <ele>860</ele>
        <time>2012-08-26T17:02:31Z</time>
      </trkpt>
      <trkpt lat="44.18474" lon="7.05486">
        <ele>860</ele>
        <time>2012-08-26T17:02:34Z</time>
      </trkpt>
      <trkpt lat="44.18492" lon="7.05485">
        <ele>860</ele>
        <time>2012-08-26T17:02:38Z</time>
      </trkpt>
      <trkpt lat="44.18508" lon="7.05475">
        <ele>860.06939697266</ele>
        <time>2012-08-26T17:02:42Z</time>
      </trkpt>
      <trkpt lat="44.18525" lon="7.0546">
        <ele>860.38800048828</ele>
        <time>2012-08-26T17:02:47Z</time>
      </trkpt>
      <trkpt lat="44.18549" lon="7.05437">
        <ele>865.00305175781</ele>
        <time>2012-08-26T17:02:53Z</time>
      </trkpt>
      <trkpt lat="44.18558" lon="7.05427">
        <ele>867.02154541016</ele>
        <time>2012-08-26T17:02:56Z</time>
      </trkpt>
      <trkpt lat="44.18564" lon="7.05421">
        <ele>868.08221435547</ele>
        <time>2012-08-26T17:02:58Z</time>
      </trkpt>
      <trkpt lat="44.18581" lon="7.05403">
        <ele>871.05615234375</ele>
        <time>2012-08-26T17:03:05Z</time>
      </trkpt>
      <trkpt lat="44.18589" lon="7.0539">
        <ele>872.83288574219</ele>
        <time>2012-08-26T17:03:11Z</time>
      </trkpt>
      <trkpt lat="44.18592" lon="7.05388">
        <ele>873.31323242188</ele>
        <time>2012-08-26T17:03:13Z</time>
      </trkpt>
      <trkpt lat="44.18607" lon="7.054">
        <ele>875.04388427734</ele>
        <time>2012-08-26T17:03:20Z</time>
      </trkpt>
      <trkpt lat="44.1862" lon="7.05414">
        <ele>876.59533691406</ele>
        <time>2012-08-26T17:03:26Z</time>
      </trkpt>
      <trkpt lat="44.18618" lon="7.05439">
        <ele>876.31072998047</ele>
        <time>2012-08-26T17:03:45Z</time>
      </trkpt>
    </trkseg>
  </trk>
</gpx>